<?xml version="1.0" encoding="UTF-8" standalone="no" ?>
<gpx xmlns="http://www.topografix.com/GPX/1/1" xmlns:xsi="http://www.w3.org/2001/XMLSchema-instance" xsi:schemaLocation="http://www.topografix.com/GPX/1/1 http://www.topografix.com/GPX/1/1/gpx.xsd" version="1.1" creator="VisuGPX - https://www.visugpx.com">
  <metadata>
    <name>Turquie 2012 8 25 c</name>
    <desc><![CDATA[Carte 36/36 c]]></desc>
  </metadata>
  <trk>
    <name><![CDATA[2012 8 25 b Puget Th Cavaillon]]></name>
    <trkseg>
      <trkpt lat="43.95525" lon="6.89581">
        <ele>408.7</ele>
        <time>2012-08-25T14:43:14Z</time>
      </trkpt>
      <trkpt lat="43.95488" lon="6.89391">
        <ele>410.62</ele>
        <time>2012-08-25T14:43:25Z</time>
      </trkpt>
      <trkpt lat="43.95481" lon="6.89229">
        <ele>410.14</ele>
        <time>2012-08-25T14:43:34Z</time>
      </trkpt>
      <trkpt lat="43.95474" lon="6.89087">
        <ele>412.54</ele>
        <time>2012-08-25T14:43:43Z</time>
      </trkpt>
      <trkpt lat="43.95425" lon="6.88936">
        <ele>411.58</ele>
        <time>2012-08-25T14:43:52Z</time>
      </trkpt>
      <trkpt lat="43.95382" lon="6.88773">
        <ele>410.14</ele>
        <time>2012-08-25T14:44:00Z</time>
      </trkpt>
      <trkpt lat="43.95322" lon="6.88557">
        <ele>412.54</ele>
        <time>2012-08-25T14:44:09Z</time>
      </trkpt>
      <trkpt lat="43.95231" lon="6.8829">
        <ele>413.5</ele>
        <time>2012-08-25T14:44:20Z</time>
      </trkpt>
      <trkpt lat="43.95219" lon="6.88214">
        <ele>414.47</ele>
        <time>2012-08-25T14:44:23Z</time>
      </trkpt>
      <trkpt lat="43.95215" lon="6.88167">
        <ele>414.47</ele>
        <time>2012-08-25T14:44:25Z</time>
      </trkpt>
      <trkpt lat="43.95209" lon="6.8815">
        <ele>414.95</ele>
        <time>2012-08-25T14:44:26Z</time>
      </trkpt>
      <trkpt lat="43.95202" lon="6.88131">
        <ele>414.95</ele>
        <time>2012-08-25T14:44:27Z</time>
      </trkpt>
      <trkpt lat="43.95197" lon="6.88113">
        <ele>415.43</ele>
        <time>2012-08-25T14:44:28Z</time>
      </trkpt>
      <trkpt lat="43.95195" lon="6.88092">
        <ele>415.43</ele>
        <time>2012-08-25T14:44:29Z</time>
      </trkpt>
      <trkpt lat="43.95194" lon="6.8807">
        <ele>415.43</ele>
        <time>2012-08-25T14:44:30Z</time>
      </trkpt>
      <trkpt lat="43.95194" lon="6.88047">
        <ele>415.91</ele>
        <time>2012-08-25T14:44:31Z</time>
      </trkpt>
      <trkpt lat="43.95196" lon="6.88022">
        <ele>415.91</ele>
        <time>2012-08-25T14:44:32Z</time>
      </trkpt>
      <trkpt lat="43.95198" lon="6.87998">
        <ele>416.39</ele>
        <time>2012-08-25T14:44:33Z</time>
      </trkpt>
      <trkpt lat="43.95202" lon="6.87974">
        <ele>417.35</ele>
        <time>2012-08-25T14:44:34Z</time>
      </trkpt>
      <trkpt lat="43.95207" lon="6.87949">
        <ele>417.83</ele>
        <time>2012-08-25T14:44:35Z</time>
      </trkpt>
      <trkpt lat="43.95213" lon="6.87926">
        <ele>418.31</ele>
        <time>2012-08-25T14:44:36Z</time>
      </trkpt>
      <trkpt lat="43.95261" lon="6.87785">
        <ele>422.16</ele>
        <time>2012-08-25T14:44:43Z</time>
      </trkpt>
      <trkpt lat="43.95264" lon="6.87768">
        <ele>422.64</ele>
        <time>2012-08-25T14:44:44Z</time>
      </trkpt>
      <trkpt lat="43.95263" lon="6.87756">
        <ele>422.64</ele>
        <time>2012-08-25T14:44:45Z</time>
      </trkpt>
      <trkpt lat="43.95256" lon="6.87749">
        <ele>423.12</ele>
        <time>2012-08-25T14:44:46Z</time>
      </trkpt>
      <trkpt lat="43.95249" lon="6.87741">
        <ele>423.6</ele>
        <time>2012-08-25T14:44:47Z</time>
      </trkpt>
      <trkpt lat="43.95239" lon="6.87736">
        <ele>424.08</ele>
        <time>2012-08-25T14:44:48Z</time>
      </trkpt>
      <trkpt lat="43.95231" lon="6.87732">
        <ele>423.6</ele>
        <time>2012-08-25T14:44:49Z</time>
      </trkpt>
      <trkpt lat="43.95215" lon="6.87724">
        <ele>423.6</ele>
        <time>2012-08-25T14:44:52Z</time>
      </trkpt>
      <trkpt lat="43.95202" lon="6.87719">
        <ele>423.6</ele>
        <time>2012-08-25T14:44:54Z</time>
      </trkpt>
      <trkpt lat="43.95195" lon="6.87714">
        <ele>423.6</ele>
        <time>2012-08-25T14:44:55Z</time>
      </trkpt>
      <trkpt lat="43.95189" lon="6.87705">
        <ele>423.6</ele>
        <time>2012-08-25T14:44:56Z</time>
      </trkpt>
      <trkpt lat="43.95185" lon="6.87692">
        <ele>423.6</ele>
        <time>2012-08-25T14:44:57Z</time>
      </trkpt>
      <trkpt lat="43.95183" lon="6.87676">
        <ele>423.6</ele>
        <time>2012-08-25T14:44:58Z</time>
      </trkpt>
      <trkpt lat="43.95183" lon="6.87658">
        <ele>423.6</ele>
        <time>2012-08-25T14:44:59Z</time>
      </trkpt>
      <trkpt lat="43.95186" lon="6.87641">
        <ele>424.08</ele>
        <time>2012-08-25T14:45:00Z</time>
      </trkpt>
      <trkpt lat="43.95187" lon="6.87623">
        <ele>424.08</ele>
        <time>2012-08-25T14:45:01Z</time>
      </trkpt>
      <trkpt lat="43.95204" lon="6.87483">
        <ele>424.56</ele>
        <time>2012-08-25T14:45:08Z</time>
      </trkpt>
      <trkpt lat="43.9521" lon="6.87465">
        <ele>424.56</ele>
        <time>2012-08-25T14:45:09Z</time>
      </trkpt>
      <trkpt lat="43.95218" lon="6.87448">
        <ele>424.56</ele>
        <time>2012-08-25T14:45:10Z</time>
      </trkpt>
      <trkpt lat="43.95227" lon="6.8743">
        <ele>424.56</ele>
        <time>2012-08-25T14:45:11Z</time>
      </trkpt>
      <trkpt lat="43.95237" lon="6.87412">
        <ele>424.08</ele>
        <time>2012-08-25T14:45:12Z</time>
      </trkpt>
      <trkpt lat="43.95288" lon="6.87304">
        <ele>423.12</ele>
        <time>2012-08-25T14:45:18Z</time>
      </trkpt>
      <trkpt lat="43.95292" lon="6.87286">
        <ele>423.12</ele>
        <time>2012-08-25T14:45:19Z</time>
      </trkpt>
      <trkpt lat="43.95294" lon="6.87267">
        <ele>423.12</ele>
        <time>2012-08-25T14:45:20Z</time>
      </trkpt>
      <trkpt lat="43.95294" lon="6.87246">
        <ele>423.12</ele>
        <time>2012-08-25T14:45:21Z</time>
      </trkpt>
      <trkpt lat="43.95291" lon="6.87224">
        <ele>423.12</ele>
        <time>2012-08-25T14:45:22Z</time>
      </trkpt>
      <trkpt lat="43.95287" lon="6.87201">
        <ele>423.6</ele>
        <time>2012-08-25T14:45:23Z</time>
      </trkpt>
      <trkpt lat="43.95284" lon="6.87102">
        <ele>424.56</ele>
        <time>2012-08-25T14:45:27Z</time>
      </trkpt>
      <trkpt lat="43.95291" lon="6.87079">
        <ele>425.04</ele>
        <time>2012-08-25T14:45:28Z</time>
      </trkpt>
      <trkpt lat="43.953" lon="6.87056">
        <ele>425.04</ele>
        <time>2012-08-25T14:45:29Z</time>
      </trkpt>
      <trkpt lat="43.95312" lon="6.87032">
        <ele>425.04</ele>
        <time>2012-08-25T14:45:30Z</time>
      </trkpt>
      <trkpt lat="43.9532" lon="6.87007">
        <ele>425.04</ele>
        <time>2012-08-25T14:45:31Z</time>
      </trkpt>
      <trkpt lat="43.95362" lon="6.86787">
        <ele>426.48</ele>
        <time>2012-08-25T14:45:39Z</time>
      </trkpt>
      <trkpt lat="43.95387" lon="6.86396">
        <ele>429.37</ele>
        <time>2012-08-25T14:45:51Z</time>
      </trkpt>
      <trkpt lat="43.95428" lon="6.85803">
        <ele>435.61</ele>
        <time>2012-08-25T14:46:09Z</time>
      </trkpt>
      <trkpt lat="43.95443" lon="6.85391">
        <ele>439.46</ele>
        <time>2012-08-25T14:46:22Z</time>
      </trkpt>
      <trkpt lat="43.95407" lon="6.85028">
        <ele>441.86</ele>
        <time>2012-08-25T14:46:33Z</time>
      </trkpt>
      <trkpt lat="43.95329" lon="6.84656">
        <ele>443.79</ele>
        <time>2012-08-25T14:46:45Z</time>
      </trkpt>
      <trkpt lat="43.95241" lon="6.84184">
        <ele>448.11</ele>
        <time>2012-08-25T14:47:00Z</time>
      </trkpt>
      <trkpt lat="43.95218" lon="6.83787">
        <ele>452.92</ele>
        <time>2012-08-25T14:47:12Z</time>
      </trkpt>
      <trkpt lat="43.95203" lon="6.8332">
        <ele>457.24</ele>
        <time>2012-08-25T14:47:26Z</time>
      </trkpt>
      <trkpt lat="43.95185" lon="6.82782">
        <ele>462.05</ele>
        <time>2012-08-25T14:47:42Z</time>
      </trkpt>
      <trkpt lat="43.95169" lon="6.82591">
        <ele>463.49</ele>
        <time>2012-08-25T14:47:49Z</time>
      </trkpt>
      <trkpt lat="43.95152" lon="6.82505">
        <ele>463.49</ele>
        <time>2012-08-25T14:47:53Z</time>
      </trkpt>
      <trkpt lat="43.95151" lon="6.82485">
        <ele>463.97</ele>
        <time>2012-08-25T14:47:54Z</time>
      </trkpt>
      <trkpt lat="43.95151" lon="6.82466">
        <ele>463.97</ele>
        <time>2012-08-25T14:47:55Z</time>
      </trkpt>
      <trkpt lat="43.95152" lon="6.82425">
        <ele>464.45</ele>
        <time>2012-08-25T14:47:57Z</time>
      </trkpt>
      <trkpt lat="43.9515" lon="6.82403">
        <ele>464.45</ele>
        <time>2012-08-25T14:47:58Z</time>
      </trkpt>
      <trkpt lat="43.95122" lon="6.82156">
        <ele>465.42</ele>
        <time>2012-08-25T14:48:08Z</time>
      </trkpt>
      <trkpt lat="43.95068" lon="6.8169">
        <ele>469.74</ele>
        <time>2012-08-25T14:48:28Z</time>
      </trkpt>
      <trkpt lat="43.9501" lon="6.81483">
        <ele>472.63</ele>
        <time>2012-08-25T14:48:38Z</time>
      </trkpt>
      <trkpt lat="43.94911" lon="6.81209">
        <ele>480.32</ele>
        <time>2012-08-25T14:48:52Z</time>
      </trkpt>
      <trkpt lat="43.94908" lon="6.81191">
        <ele>481.28</ele>
        <time>2012-08-25T14:48:53Z</time>
      </trkpt>
      <trkpt lat="43.94906" lon="6.81173">
        <ele>482.24</ele>
        <time>2012-08-25T14:48:54Z</time>
      </trkpt>
      <trkpt lat="43.94906" lon="6.81155">
        <ele>482.72</ele>
        <time>2012-08-25T14:48:55Z</time>
      </trkpt>
      <trkpt lat="43.94906" lon="6.81139">
        <ele>483.68</ele>
        <time>2012-08-25T14:48:56Z</time>
      </trkpt>
      <trkpt lat="43.94911" lon="6.81041">
        <ele>488.01</ele>
        <time>2012-08-25T14:49:03Z</time>
      </trkpt>
      <trkpt lat="43.94914" lon="6.81029">
        <ele>488.49</ele>
        <time>2012-08-25T14:49:04Z</time>
      </trkpt>
      <trkpt lat="43.94975" lon="6.80916">
        <ele>487.53</ele>
        <time>2012-08-25T14:49:14Z</time>
      </trkpt>
      <trkpt lat="43.94984" lon="6.80909">
        <ele>487.05</ele>
        <time>2012-08-25T14:49:15Z</time>
      </trkpt>
      <trkpt lat="43.94994" lon="6.80904">
        <ele>486.56</ele>
        <time>2012-08-25T14:49:16Z</time>
      </trkpt>
      <trkpt lat="43.95005" lon="6.80905">
        <ele>486.08</ele>
        <time>2012-08-25T14:49:17Z</time>
      </trkpt>
      <trkpt lat="43.95017" lon="6.80907">
        <ele>485.12</ele>
        <time>2012-08-25T14:49:18Z</time>
      </trkpt>
      <trkpt lat="43.95029" lon="6.80911">
        <ele>484.16</ele>
        <time>2012-08-25T14:49:19Z</time>
      </trkpt>
      <trkpt lat="43.95041" lon="6.80916">
        <ele>483.68</ele>
        <time>2012-08-25T14:49:20Z</time>
      </trkpt>
      <trkpt lat="43.95052" lon="6.80923">
        <ele>483.2</ele>
        <time>2012-08-25T14:49:21Z</time>
      </trkpt>
      <trkpt lat="43.95063" lon="6.8093">
        <ele>482.72</ele>
        <time>2012-08-25T14:49:22Z</time>
      </trkpt>
      <trkpt lat="43.95104" lon="6.80949">
        <ele>479.84</ele>
        <time>2012-08-25T14:49:26Z</time>
      </trkpt>
      <trkpt lat="43.95113" lon="6.80949">
        <ele>479.35</ele>
        <time>2012-08-25T14:49:27Z</time>
      </trkpt>
      <trkpt lat="43.95123" lon="6.80946">
        <ele>479.35</ele>
        <time>2012-08-25T14:49:28Z</time>
      </trkpt>
      <trkpt lat="43.95132" lon="6.80942">
        <ele>480.32</ele>
        <time>2012-08-25T14:49:29Z</time>
      </trkpt>
      <trkpt lat="43.95139" lon="6.80928">
        <ele>479.35</ele>
        <time>2012-08-25T14:49:30Z</time>
      </trkpt>
      <trkpt lat="43.95144" lon="6.80907">
        <ele>478.39</ele>
        <time>2012-08-25T14:49:31Z</time>
      </trkpt>
      <trkpt lat="43.95149" lon="6.80886">
        <ele>477.91</ele>
        <time>2012-08-25T14:49:32Z</time>
      </trkpt>
      <trkpt lat="43.95155" lon="6.80865">
        <ele>478.39</ele>
        <time>2012-08-25T14:49:33Z</time>
      </trkpt>
      <trkpt lat="43.95234" lon="6.80713">
        <ele>482.24</ele>
        <time>2012-08-25T14:49:40Z</time>
      </trkpt>
      <trkpt lat="43.953" lon="6.80613">
        <ele>482.24</ele>
        <time>2012-08-25T14:49:45Z</time>
      </trkpt>
      <trkpt lat="43.9531" lon="6.80587">
        <ele>481.76</ele>
        <time>2012-08-25T14:49:46Z</time>
      </trkpt>
      <trkpt lat="43.95434" lon="6.80269">
        <ele>483.68</ele>
        <time>2012-08-25T14:49:57Z</time>
      </trkpt>
      <trkpt lat="43.95506" lon="6.80038">
        <ele>490.89</ele>
        <time>2012-08-25T14:50:05Z</time>
      </trkpt>
      <trkpt lat="43.95516" lon="6.80013">
        <ele>491.85</ele>
        <time>2012-08-25T14:50:06Z</time>
      </trkpt>
      <trkpt lat="43.95527" lon="6.79988">
        <ele>491.85</ele>
        <time>2012-08-25T14:50:07Z</time>
      </trkpt>
      <trkpt lat="43.95626" lon="6.79781">
        <ele>496.66</ele>
        <time>2012-08-25T14:50:15Z</time>
      </trkpt>
      <trkpt lat="43.95759" lon="6.7962">
        <ele>502.91</ele>
        <time>2012-08-25T14:50:23Z</time>
      </trkpt>
      <trkpt lat="43.95779" lon="6.79608">
        <ele>503.87</ele>
        <time>2012-08-25T14:50:24Z</time>
      </trkpt>
      <trkpt lat="43.95838" lon="6.79575">
        <ele>505.79</ele>
        <time>2012-08-25T14:50:27Z</time>
      </trkpt>
      <trkpt lat="43.95856" lon="6.79559">
        <ele>506.75</ele>
        <time>2012-08-25T14:50:28Z</time>
      </trkpt>
      <trkpt lat="43.95871" lon="6.79539">
        <ele>507.23</ele>
        <time>2012-08-25T14:50:29Z</time>
      </trkpt>
      <trkpt lat="43.95884" lon="6.79515">
        <ele>507.71</ele>
        <time>2012-08-25T14:50:30Z</time>
      </trkpt>
      <trkpt lat="43.95897" lon="6.79488">
        <ele>507.71</ele>
        <time>2012-08-25T14:50:31Z</time>
      </trkpt>
      <trkpt lat="43.95908" lon="6.79462">
        <ele>507.71</ele>
        <time>2012-08-25T14:50:32Z</time>
      </trkpt>
      <trkpt lat="43.95938" lon="6.79386">
        <ele>507.71</ele>
        <time>2012-08-25T14:50:35Z</time>
      </trkpt>
      <trkpt lat="43.95944" lon="6.79359">
        <ele>507.71</ele>
        <time>2012-08-25T14:50:36Z</time>
      </trkpt>
      <trkpt lat="43.95948" lon="6.79332">
        <ele>507.71</ele>
        <time>2012-08-25T14:50:37Z</time>
      </trkpt>
      <trkpt lat="43.95954" lon="6.79277">
        <ele>508.19</ele>
        <time>2012-08-25T14:50:39Z</time>
      </trkpt>
      <trkpt lat="43.9596" lon="6.7925">
        <ele>508.19</ele>
        <time>2012-08-25T14:50:40Z</time>
      </trkpt>
      <trkpt lat="43.9597" lon="6.79226">
        <ele>507.71</ele>
        <time>2012-08-25T14:50:41Z</time>
      </trkpt>
      <trkpt lat="43.95983" lon="6.79202">
        <ele>507.23</ele>
        <time>2012-08-25T14:50:42Z</time>
      </trkpt>
      <trkpt lat="43.95996" lon="6.79177">
        <ele>507.23</ele>
        <time>2012-08-25T14:50:43Z</time>
      </trkpt>
      <trkpt lat="43.96137" lon="6.78878">
        <ele>513</ele>
        <time>2012-08-25T14:50:54Z</time>
      </trkpt>
      <trkpt lat="43.96154" lon="6.78827">
        <ele>513.96</ele>
        <time>2012-08-25T14:50:56Z</time>
      </trkpt>
      <trkpt lat="43.9616" lon="6.788">
        <ele>514.44</ele>
        <time>2012-08-25T14:50:57Z</time>
      </trkpt>
      <trkpt lat="43.96163" lon="6.78772">
        <ele>515.4</ele>
        <time>2012-08-25T14:50:58Z</time>
      </trkpt>
      <trkpt lat="43.9618" lon="6.78668">
        <ele>517.81</ele>
        <time>2012-08-25T14:51:02Z</time>
      </trkpt>
      <trkpt lat="43.9619" lon="6.78643">
        <ele>517.81</ele>
        <time>2012-08-25T14:51:03Z</time>
      </trkpt>
      <trkpt lat="43.96278" lon="6.78473">
        <ele>516.85</ele>
        <time>2012-08-25T14:51:10Z</time>
      </trkpt>
      <trkpt lat="43.96374" lon="6.78333">
        <ele>515.88</ele>
        <time>2012-08-25T14:51:16Z</time>
      </trkpt>
      <trkpt lat="43.96405" lon="6.78286">
        <ele>515.4</ele>
        <time>2012-08-25T14:51:18Z</time>
      </trkpt>
      <trkpt lat="43.96422" lon="6.78267">
        <ele>514.92</ele>
        <time>2012-08-25T14:51:19Z</time>
      </trkpt>
      <trkpt lat="43.96439" lon="6.78247">
        <ele>514.92</ele>
        <time>2012-08-25T14:51:20Z</time>
      </trkpt>
      <trkpt lat="43.96455" lon="6.78225">
        <ele>514.44</ele>
        <time>2012-08-25T14:51:21Z</time>
      </trkpt>
      <trkpt lat="43.96469" lon="6.78199">
        <ele>514.44</ele>
        <time>2012-08-25T14:51:22Z</time>
      </trkpt>
      <trkpt lat="43.96483" lon="6.78172">
        <ele>514.44</ele>
        <time>2012-08-25T14:51:23Z</time>
      </trkpt>
      <trkpt lat="43.9665" lon="6.77866">
        <ele>514.92</ele>
        <time>2012-08-25T14:51:35Z</time>
      </trkpt>
      <trkpt lat="43.96722" lon="6.7778">
        <ele>517.33</ele>
        <time>2012-08-25T14:51:40Z</time>
      </trkpt>
      <trkpt lat="43.96743" lon="6.77772">
        <ele>516.85</ele>
        <time>2012-08-25T14:51:41Z</time>
      </trkpt>
      <trkpt lat="43.96763" lon="6.77766">
        <ele>516.85</ele>
        <time>2012-08-25T14:51:42Z</time>
      </trkpt>
      <trkpt lat="43.96841" lon="6.77737">
        <ele>516.85</ele>
        <time>2012-08-25T14:51:46Z</time>
      </trkpt>
      <trkpt lat="43.96898" lon="6.77709">
        <ele>516.85</ele>
        <time>2012-08-25T14:51:49Z</time>
      </trkpt>
      <trkpt lat="43.96917" lon="6.77704">
        <ele>516.37</ele>
        <time>2012-08-25T14:51:50Z</time>
      </trkpt>
      <trkpt lat="43.97" lon="6.77697">
        <ele>515.4</ele>
        <time>2012-08-25T14:51:55Z</time>
      </trkpt>
      <trkpt lat="43.97013" lon="6.77702">
        <ele>514.92</ele>
        <time>2012-08-25T14:51:56Z</time>
      </trkpt>
      <trkpt lat="43.97023" lon="6.77716">
        <ele>514.92</ele>
        <time>2012-08-25T14:51:57Z</time>
      </trkpt>
      <trkpt lat="43.97033" lon="6.77732">
        <ele>514.92</ele>
        <time>2012-08-25T14:51:58Z</time>
      </trkpt>
      <trkpt lat="43.97043" lon="6.77747">
        <ele>515.4</ele>
        <time>2012-08-25T14:51:59Z</time>
      </trkpt>
      <trkpt lat="43.97054" lon="6.77763">
        <ele>517.33</ele>
        <time>2012-08-25T14:52:00Z</time>
      </trkpt>
      <trkpt lat="43.97076" lon="6.77786">
        <ele>519.73</ele>
        <time>2012-08-25T14:52:02Z</time>
      </trkpt>
      <trkpt lat="43.97089" lon="6.77793">
        <ele>520.69</ele>
        <time>2012-08-25T14:52:03Z</time>
      </trkpt>
      <trkpt lat="43.97103" lon="6.77795">
        <ele>521.17</ele>
        <time>2012-08-25T14:52:04Z</time>
      </trkpt>
      <trkpt lat="43.97118" lon="6.77791">
        <ele>521.17</ele>
        <time>2012-08-25T14:52:05Z</time>
      </trkpt>
      <trkpt lat="43.97132" lon="6.77782">
        <ele>521.65</ele>
        <time>2012-08-25T14:52:06Z</time>
      </trkpt>
      <trkpt lat="43.97145" lon="6.77768">
        <ele>523.58</ele>
        <time>2012-08-25T14:52:07Z</time>
      </trkpt>
      <trkpt lat="43.97157" lon="6.77751">
        <ele>525.98</ele>
        <time>2012-08-25T14:52:08Z</time>
      </trkpt>
      <trkpt lat="43.97165" lon="6.77731">
        <ele>525.98</ele>
        <time>2012-08-25T14:52:09Z</time>
      </trkpt>
      <trkpt lat="43.9717" lon="6.77708">
        <ele>526.94</ele>
        <time>2012-08-25T14:52:10Z</time>
      </trkpt>
      <trkpt lat="43.97174" lon="6.77684">
        <ele>527.42</ele>
        <time>2012-08-25T14:52:11Z</time>
      </trkpt>
      <trkpt lat="43.97176" lon="6.77658">
        <ele>528.38</ele>
        <time>2012-08-25T14:52:12Z</time>
      </trkpt>
      <trkpt lat="43.97177" lon="6.77631">
        <ele>528.86</ele>
        <time>2012-08-25T14:52:13Z</time>
      </trkpt>
      <trkpt lat="43.97178" lon="6.77605">
        <ele>529.82</ele>
        <time>2012-08-25T14:52:14Z</time>
      </trkpt>
      <trkpt lat="43.9719" lon="6.77515">
        <ele>531.27</ele>
        <time>2012-08-25T14:52:18Z</time>
      </trkpt>
      <trkpt lat="43.97198" lon="6.77496">
        <ele>531.75</ele>
        <time>2012-08-25T14:52:19Z</time>
      </trkpt>
      <trkpt lat="43.97208" lon="6.77476">
        <ele>532.71</ele>
        <time>2012-08-25T14:52:20Z</time>
      </trkpt>
      <trkpt lat="43.97218" lon="6.77455">
        <ele>533.19</ele>
        <time>2012-08-25T14:52:21Z</time>
      </trkpt>
      <trkpt lat="43.97226" lon="6.77431">
        <ele>533.67</ele>
        <time>2012-08-25T14:52:22Z</time>
      </trkpt>
      <trkpt lat="43.97232" lon="6.77406">
        <ele>534.15</ele>
        <time>2012-08-25T14:52:23Z</time>
      </trkpt>
      <trkpt lat="43.97237" lon="6.77379">
        <ele>534.63</ele>
        <time>2012-08-25T14:52:24Z</time>
      </trkpt>
      <trkpt lat="43.97239" lon="6.77351">
        <ele>535.11</ele>
        <time>2012-08-25T14:52:25Z</time>
      </trkpt>
      <trkpt lat="43.97241" lon="6.77323">
        <ele>535.59</ele>
        <time>2012-08-25T14:52:26Z</time>
      </trkpt>
      <trkpt lat="43.97241" lon="6.77294">
        <ele>535.59</ele>
        <time>2012-08-25T14:52:27Z</time>
      </trkpt>
      <trkpt lat="43.9724" lon="6.77265">
        <ele>536.07</ele>
        <time>2012-08-25T14:52:28Z</time>
      </trkpt>
      <trkpt lat="43.97238" lon="6.77235">
        <ele>537.03</ele>
        <time>2012-08-25T14:52:29Z</time>
      </trkpt>
      <trkpt lat="43.97233" lon="6.77205">
        <ele>537.03</ele>
        <time>2012-08-25T14:52:30Z</time>
      </trkpt>
      <trkpt lat="43.97227" lon="6.77174">
        <ele>537.51</ele>
        <time>2012-08-25T14:52:31Z</time>
      </trkpt>
      <trkpt lat="43.97213" lon="6.76928">
        <ele>538.96</ele>
        <time>2012-08-25T14:52:39Z</time>
      </trkpt>
      <trkpt lat="43.9722" lon="6.76871">
        <ele>539.44</ele>
        <time>2012-08-25T14:52:41Z</time>
      </trkpt>
      <trkpt lat="43.97226" lon="6.76844">
        <ele>539.44</ele>
        <time>2012-08-25T14:52:42Z</time>
      </trkpt>
      <trkpt lat="43.97235" lon="6.76816">
        <ele>539.44</ele>
        <time>2012-08-25T14:52:43Z</time>
      </trkpt>
      <trkpt lat="43.97274" lon="6.76652">
        <ele>539.92</ele>
        <time>2012-08-25T14:52:49Z</time>
      </trkpt>
      <trkpt lat="43.97273" lon="6.76623">
        <ele>539.44</ele>
        <time>2012-08-25T14:52:50Z</time>
      </trkpt>
      <trkpt lat="43.9727" lon="6.76593">
        <ele>539.44</ele>
        <time>2012-08-25T14:52:51Z</time>
      </trkpt>
      <trkpt lat="43.97264" lon="6.76563">
        <ele>539.44</ele>
        <time>2012-08-25T14:52:52Z</time>
      </trkpt>
      <trkpt lat="43.97258" lon="6.76532">
        <ele>538.96</ele>
        <time>2012-08-25T14:52:53Z</time>
      </trkpt>
      <trkpt lat="43.97224" lon="6.76358">
        <ele>538.48</ele>
        <time>2012-08-25T14:52:59Z</time>
      </trkpt>
      <trkpt lat="43.9717" lon="6.76196">
        <ele>536.55</ele>
        <time>2012-08-25T14:53:05Z</time>
      </trkpt>
      <trkpt lat="43.97161" lon="6.76144">
        <ele>536.55</ele>
        <time>2012-08-25T14:53:07Z</time>
      </trkpt>
      <trkpt lat="43.97145" lon="6.7605">
        <ele>535.59</ele>
        <time>2012-08-25T14:53:11Z</time>
      </trkpt>
      <trkpt lat="43.97139" lon="6.7603">
        <ele>535.59</ele>
        <time>2012-08-25T14:53:12Z</time>
      </trkpt>
      <trkpt lat="43.97128" lon="6.76016">
        <ele>539.44</ele>
        <time>2012-08-25T14:53:13Z</time>
      </trkpt>
      <trkpt lat="43.97118" lon="6.76003">
        <ele>540.4</ele>
        <time>2012-08-25T14:53:14Z</time>
      </trkpt>
      <trkpt lat="43.97109" lon="6.75995">
        <ele>540.4</ele>
        <time>2012-08-25T14:53:15Z</time>
      </trkpt>
      <trkpt lat="43.97099" lon="6.7599">
        <ele>539.92</ele>
        <time>2012-08-25T14:53:16Z</time>
      </trkpt>
      <trkpt lat="43.97087" lon="6.75988">
        <ele>539.92</ele>
        <time>2012-08-25T14:53:17Z</time>
      </trkpt>
      <trkpt lat="43.97074" lon="6.75987">
        <ele>539.92</ele>
        <time>2012-08-25T14:53:18Z</time>
      </trkpt>
      <trkpt lat="43.9706" lon="6.75988">
        <ele>539.92</ele>
        <time>2012-08-25T14:53:19Z</time>
      </trkpt>
      <trkpt lat="43.97036" lon="6.7598">
        <ele>539.44</ele>
        <time>2012-08-25T14:53:21Z</time>
      </trkpt>
      <trkpt lat="43.97025" lon="6.75971">
        <ele>538.48</ele>
        <time>2012-08-25T14:53:22Z</time>
      </trkpt>
      <trkpt lat="43.97014" lon="6.75959">
        <ele>537.99</ele>
        <time>2012-08-25T14:53:23Z</time>
      </trkpt>
      <trkpt lat="43.9691" lon="6.75832">
        <ele>537.51</ele>
        <time>2012-08-25T14:53:32Z</time>
      </trkpt>
      <trkpt lat="43.96817" lon="6.75715">
        <ele>538.48</ele>
        <time>2012-08-25T14:53:39Z</time>
      </trkpt>
      <trkpt lat="43.96806" lon="6.75693">
        <ele>538.48</ele>
        <time>2012-08-25T14:53:40Z</time>
      </trkpt>
      <trkpt lat="43.96737" lon="6.75533">
        <ele>539.92</ele>
        <time>2012-08-25T14:53:46Z</time>
      </trkpt>
      <trkpt lat="43.96724" lon="6.75478">
        <ele>540.4</ele>
        <time>2012-08-25T14:53:48Z</time>
      </trkpt>
      <trkpt lat="43.96722" lon="6.75451">
        <ele>540.4</ele>
        <time>2012-08-25T14:53:49Z</time>
      </trkpt>
      <trkpt lat="43.96721" lon="6.75422">
        <ele>540.88</ele>
        <time>2012-08-25T14:53:50Z</time>
      </trkpt>
      <trkpt lat="43.96717" lon="6.75179">
        <ele>546.17</ele>
        <time>2012-08-25T14:53:58Z</time>
      </trkpt>
      <trkpt lat="43.96685" lon="6.74981">
        <ele>549.53</ele>
        <time>2012-08-25T14:54:05Z</time>
      </trkpt>
      <trkpt lat="43.96634" lon="6.74753">
        <ele>552.41</ele>
        <time>2012-08-25T14:54:13Z</time>
      </trkpt>
      <trkpt lat="43.96561" lon="6.74596">
        <ele>552.41</ele>
        <time>2012-08-25T14:54:19Z</time>
      </trkpt>
      <trkpt lat="43.9643" lon="6.74347">
        <ele>554.34</ele>
        <time>2012-08-25T14:54:29Z</time>
      </trkpt>
      <trkpt lat="43.96319" lon="6.74093">
        <ele>558.66</ele>
        <time>2012-08-25T14:54:40Z</time>
      </trkpt>
      <trkpt lat="43.96216" lon="6.73846">
        <ele>565.87</ele>
        <time>2012-08-25T14:54:49Z</time>
      </trkpt>
      <trkpt lat="43.96158" lon="6.73708">
        <ele>571.64</ele>
        <time>2012-08-25T14:54:56Z</time>
      </trkpt>
      <trkpt lat="43.96152" lon="6.73693">
        <ele>573.08</ele>
        <time>2012-08-25T14:55:01Z</time>
      </trkpt>
      <trkpt lat="43.96139" lon="6.73663">
        <ele>579.33</ele>
        <time>2012-08-25T14:57:11Z</time>
      </trkpt>
      <trkpt lat="43.96102" lon="6.73611">
        <ele>580.29</ele>
        <time>2012-08-25T14:57:15Z</time>
      </trkpt>
      <trkpt lat="43.96013" lon="6.7352">
        <ele>580.77</ele>
        <time>2012-08-25T14:57:22Z</time>
      </trkpt>
      <trkpt lat="43.95999" lon="6.73512">
        <ele>580.77</ele>
        <time>2012-08-25T14:57:23Z</time>
      </trkpt>
      <trkpt lat="43.95956" lon="6.73493">
        <ele>579.33</ele>
        <time>2012-08-25T14:57:26Z</time>
      </trkpt>
      <trkpt lat="43.95941" lon="6.7349">
        <ele>579.33</ele>
        <time>2012-08-25T14:57:27Z</time>
      </trkpt>
      <trkpt lat="43.95925" lon="6.73488">
        <ele>580.29</ele>
        <time>2012-08-25T14:57:28Z</time>
      </trkpt>
      <trkpt lat="43.95911" lon="6.73483">
        <ele>580.29</ele>
        <time>2012-08-25T14:57:29Z</time>
      </trkpt>
      <trkpt lat="43.95897" lon="6.73474">
        <ele>580.29</ele>
        <time>2012-08-25T14:57:30Z</time>
      </trkpt>
      <trkpt lat="43.95884" lon="6.73465">
        <ele>580.29</ele>
        <time>2012-08-25T14:57:31Z</time>
      </trkpt>
      <trkpt lat="43.9586" lon="6.73393">
        <ele>573.08</ele>
        <time>2012-08-25T14:57:35Z</time>
      </trkpt>
      <trkpt lat="43.95869" lon="6.73361">
        <ele>571.64</ele>
        <time>2012-08-25T14:57:36Z</time>
      </trkpt>
      <trkpt lat="43.95881" lon="6.73335">
        <ele>572.12</ele>
        <time>2012-08-25T14:57:37Z</time>
      </trkpt>
      <trkpt lat="43.9589" lon="6.7331">
        <ele>575.01</ele>
        <time>2012-08-25T14:57:38Z</time>
      </trkpt>
      <trkpt lat="43.95895" lon="6.73287">
        <ele>575.01</ele>
        <time>2012-08-25T14:57:39Z</time>
      </trkpt>
      <trkpt lat="43.95953" lon="6.72967">
        <ele>579.81</ele>
        <time>2012-08-25T14:57:51Z</time>
      </trkpt>
      <trkpt lat="43.96003" lon="6.72645">
        <ele>582.7</ele>
        <time>2012-08-25T14:58:01Z</time>
      </trkpt>
      <trkpt lat="43.95996" lon="6.72367">
        <ele>589.43</ele>
        <time>2012-08-25T14:58:10Z</time>
      </trkpt>
      <trkpt lat="43.95947" lon="6.72123">
        <ele>590.87</ele>
        <time>2012-08-25T14:58:18Z</time>
      </trkpt>
      <trkpt lat="43.95957" lon="6.71846">
        <ele>594.71</ele>
        <time>2012-08-25T14:58:27Z</time>
      </trkpt>
      <trkpt lat="43.95985" lon="6.71562">
        <ele>595.67</ele>
        <time>2012-08-25T14:58:36Z</time>
      </trkpt>
      <trkpt lat="43.95981" lon="6.71535">
        <ele>595.19</ele>
        <time>2012-08-25T14:58:37Z</time>
      </trkpt>
      <trkpt lat="43.95974" lon="6.71509">
        <ele>594.71</ele>
        <time>2012-08-25T14:58:38Z</time>
      </trkpt>
      <trkpt lat="43.95963" lon="6.71485">
        <ele>594.71</ele>
        <time>2012-08-25T14:58:39Z</time>
      </trkpt>
      <trkpt lat="43.95952" lon="6.71461">
        <ele>594.71</ele>
        <time>2012-08-25T14:58:40Z</time>
      </trkpt>
      <trkpt lat="43.95942" lon="6.71437">
        <ele>594.71</ele>
        <time>2012-08-25T14:58:41Z</time>
      </trkpt>
      <trkpt lat="43.95934" lon="6.71414">
        <ele>594.71</ele>
        <time>2012-08-25T14:58:42Z</time>
      </trkpt>
      <trkpt lat="43.95929" lon="6.71387">
        <ele>594.71</ele>
        <time>2012-08-25T14:58:43Z</time>
      </trkpt>
      <trkpt lat="43.95929" lon="6.71358">
        <ele>595.19</ele>
        <time>2012-08-25T14:58:44Z</time>
      </trkpt>
      <trkpt lat="43.95931" lon="6.71328">
        <ele>595.67</ele>
        <time>2012-08-25T14:58:45Z</time>
      </trkpt>
      <trkpt lat="43.95933" lon="6.71297">
        <ele>596.15</ele>
        <time>2012-08-25T14:58:46Z</time>
      </trkpt>
      <trkpt lat="43.95967" lon="6.71104">
        <ele>599.52</ele>
        <time>2012-08-25T14:58:52Z</time>
      </trkpt>
      <trkpt lat="43.95968" lon="6.71015">
        <ele>600</ele>
        <time>2012-08-25T14:58:55Z</time>
      </trkpt>
      <trkpt lat="43.95961" lon="6.70985">
        <ele>600.48</ele>
        <time>2012-08-25T14:58:56Z</time>
      </trkpt>
      <trkpt lat="43.95951" lon="6.70954">
        <ele>600.48</ele>
        <time>2012-08-25T14:58:57Z</time>
      </trkpt>
      <trkpt lat="43.95875" lon="6.70616">
        <ele>600.48</ele>
        <time>2012-08-25T14:59:07Z</time>
      </trkpt>
      <trkpt lat="43.95834" lon="6.70356">
        <ele>603.85</ele>
        <time>2012-08-25T14:59:15Z</time>
      </trkpt>
      <trkpt lat="43.95823" lon="6.70327">
        <ele>603.85</ele>
        <time>2012-08-25T14:59:16Z</time>
      </trkpt>
      <trkpt lat="43.95755" lon="6.70096">
        <ele>608.65</ele>
        <time>2012-08-25T14:59:24Z</time>
      </trkpt>
      <trkpt lat="43.95751" lon="6.69811">
        <ele>619.23</ele>
        <time>2012-08-25T14:59:33Z</time>
      </trkpt>
      <trkpt lat="43.9581" lon="6.69579">
        <ele>630.76</ele>
        <time>2012-08-25T14:59:41Z</time>
      </trkpt>
      <trkpt lat="43.95834" lon="6.69505">
        <ele>635.09</ele>
        <time>2012-08-25T14:59:44Z</time>
      </trkpt>
      <trkpt lat="43.95839" lon="6.69482">
        <ele>636.53</ele>
        <time>2012-08-25T14:59:45Z</time>
      </trkpt>
      <trkpt lat="43.9584" lon="6.6946">
        <ele>637.01</ele>
        <time>2012-08-25T14:59:46Z</time>
      </trkpt>
      <trkpt lat="43.95838" lon="6.69438">
        <ele>637.97</ele>
        <time>2012-08-25T14:59:47Z</time>
      </trkpt>
      <trkpt lat="43.95832" lon="6.69415">
        <ele>638.93</ele>
        <time>2012-08-25T14:59:48Z</time>
      </trkpt>
      <trkpt lat="43.95823" lon="6.69391">
        <ele>640.38</ele>
        <time>2012-08-25T14:59:49Z</time>
      </trkpt>
      <trkpt lat="43.95815" lon="6.69366">
        <ele>641.34</ele>
        <time>2012-08-25T14:59:50Z</time>
      </trkpt>
      <trkpt lat="43.95772" lon="6.69143">
        <ele>647.1</ele>
        <time>2012-08-25T14:59:58Z</time>
      </trkpt>
      <trkpt lat="43.9576" lon="6.69092">
        <ele>648.55</ele>
        <time>2012-08-25T15:00:00Z</time>
      </trkpt>
      <trkpt lat="43.95751" lon="6.69067">
        <ele>649.51</ele>
        <time>2012-08-25T15:00:01Z</time>
      </trkpt>
      <trkpt lat="43.95656" lon="6.68858">
        <ele>657.68</ele>
        <time>2012-08-25T15:00:10Z</time>
      </trkpt>
      <trkpt lat="43.95599" lon="6.68761">
        <ele>663.93</ele>
        <time>2012-08-25T15:00:16Z</time>
      </trkpt>
      <trkpt lat="43.95592" lon="6.68745">
        <ele>663.93</ele>
        <time>2012-08-25T15:00:17Z</time>
      </trkpt>
      <trkpt lat="43.95587" lon="6.68727">
        <ele>663.93</ele>
        <time>2012-08-25T15:00:18Z</time>
      </trkpt>
      <trkpt lat="43.95585" lon="6.68709">
        <ele>663.45</ele>
        <time>2012-08-25T15:00:19Z</time>
      </trkpt>
      <trkpt lat="43.95585" lon="6.68691">
        <ele>662.97</ele>
        <time>2012-08-25T15:00:20Z</time>
      </trkpt>
      <trkpt lat="43.95585" lon="6.68675">
        <ele>662.97</ele>
        <time>2012-08-25T15:00:21Z</time>
      </trkpt>
      <trkpt lat="43.95583" lon="6.6866">
        <ele>662.49</ele>
        <time>2012-08-25T15:00:22Z</time>
      </trkpt>
      <trkpt lat="43.9558" lon="6.68652">
        <ele>662.01</ele>
        <time>2012-08-25T15:00:23Z</time>
      </trkpt>
      <trkpt lat="43.95574" lon="6.68647">
        <ele>661.52</ele>
        <time>2012-08-25T15:00:24Z</time>
      </trkpt>
      <trkpt lat="43.95566" lon="6.68643">
        <ele>660.08</ele>
        <time>2012-08-25T15:00:25Z</time>
      </trkpt>
      <trkpt lat="43.95556" lon="6.68638">
        <ele>659.12</ele>
        <time>2012-08-25T15:00:26Z</time>
      </trkpt>
      <trkpt lat="43.95547" lon="6.6863">
        <ele>658.64</ele>
        <time>2012-08-25T15:00:27Z</time>
      </trkpt>
      <trkpt lat="43.95539" lon="6.68615">
        <ele>658.16</ele>
        <time>2012-08-25T15:00:28Z</time>
      </trkpt>
      <trkpt lat="43.95531" lon="6.68598">
        <ele>657.68</ele>
        <time>2012-08-25T15:00:29Z</time>
      </trkpt>
      <trkpt lat="43.95523" lon="6.68579">
        <ele>658.16</ele>
        <time>2012-08-25T15:00:30Z</time>
      </trkpt>
      <trkpt lat="43.95484" lon="6.68489">
        <ele>663.45</ele>
        <time>2012-08-25T15:00:35Z</time>
      </trkpt>
      <trkpt lat="43.95475" lon="6.68475">
        <ele>664.41</ele>
        <time>2012-08-25T15:00:36Z</time>
      </trkpt>
      <trkpt lat="43.95463" lon="6.68468">
        <ele>665.37</ele>
        <time>2012-08-25T15:00:37Z</time>
      </trkpt>
      <trkpt lat="43.95449" lon="6.68465">
        <ele>665.37</ele>
        <time>2012-08-25T15:00:38Z</time>
      </trkpt>
      <trkpt lat="43.95434" lon="6.68469">
        <ele>667.29</ele>
        <time>2012-08-25T15:00:39Z</time>
      </trkpt>
      <trkpt lat="43.9542" lon="6.68473">
        <ele>668.25</ele>
        <time>2012-08-25T15:00:40Z</time>
      </trkpt>
      <trkpt lat="43.95406" lon="6.68473">
        <ele>669.22</ele>
        <time>2012-08-25T15:00:41Z</time>
      </trkpt>
      <trkpt lat="43.95394" lon="6.68471">
        <ele>670.18</ele>
        <time>2012-08-25T15:00:42Z</time>
      </trkpt>
      <trkpt lat="43.95382" lon="6.68467">
        <ele>671.62</ele>
        <time>2012-08-25T15:00:43Z</time>
      </trkpt>
      <trkpt lat="43.95341" lon="6.68456">
        <ele>675.46</ele>
        <time>2012-08-25T15:00:47Z</time>
      </trkpt>
      <trkpt lat="43.9533" lon="6.68459">
        <ele>675.94</ele>
        <time>2012-08-25T15:00:48Z</time>
      </trkpt>
      <trkpt lat="43.9532" lon="6.68467">
        <ele>676.91</ele>
        <time>2012-08-25T15:00:49Z</time>
      </trkpt>
      <trkpt lat="43.95307" lon="6.68479">
        <ele>677.87</ele>
        <time>2012-08-25T15:00:50Z</time>
      </trkpt>
      <trkpt lat="43.95295" lon="6.6849">
        <ele>678.83</ele>
        <time>2012-08-25T15:00:51Z</time>
      </trkpt>
      <trkpt lat="43.95284" lon="6.68504">
        <ele>681.23</ele>
        <time>2012-08-25T15:00:52Z</time>
      </trkpt>
      <trkpt lat="43.9527" lon="6.68513">
        <ele>684.12</ele>
        <time>2012-08-25T15:00:53Z</time>
      </trkpt>
      <trkpt lat="43.95253" lon="6.68521">
        <ele>686.52</ele>
        <time>2012-08-25T15:00:54Z</time>
      </trkpt>
      <trkpt lat="43.95237" lon="6.68531">
        <ele>687.96</ele>
        <time>2012-08-25T15:00:55Z</time>
      </trkpt>
      <trkpt lat="43.95222" lon="6.68544">
        <ele>688.92</ele>
        <time>2012-08-25T15:00:56Z</time>
      </trkpt>
      <trkpt lat="43.95209" lon="6.68559">
        <ele>689.88</ele>
        <time>2012-08-25T15:00:57Z</time>
      </trkpt>
      <trkpt lat="43.952" lon="6.68576">
        <ele>690.84</ele>
        <time>2012-08-25T15:00:58Z</time>
      </trkpt>
      <trkpt lat="43.95196" lon="6.68599">
        <ele>692.29</ele>
        <time>2012-08-25T15:00:59Z</time>
      </trkpt>
      <trkpt lat="43.95192" lon="6.68622">
        <ele>693.25</ele>
        <time>2012-08-25T15:01:00Z</time>
      </trkpt>
      <trkpt lat="43.95185" lon="6.68645">
        <ele>693.73</ele>
        <time>2012-08-25T15:01:01Z</time>
      </trkpt>
      <trkpt lat="43.95176" lon="6.68667">
        <ele>694.69</ele>
        <time>2012-08-25T15:01:02Z</time>
      </trkpt>
      <trkpt lat="43.95165" lon="6.68686">
        <ele>695.65</ele>
        <time>2012-08-25T15:01:03Z</time>
      </trkpt>
      <trkpt lat="43.95151" lon="6.68701">
        <ele>696.13</ele>
        <time>2012-08-25T15:01:04Z</time>
      </trkpt>
      <trkpt lat="43.95098" lon="6.68732">
        <ele>697.57</ele>
        <time>2012-08-25T15:01:07Z</time>
      </trkpt>
      <trkpt lat="43.95077" lon="6.68735">
        <ele>699.5</ele>
        <time>2012-08-25T15:01:08Z</time>
      </trkpt>
      <trkpt lat="43.95056" lon="6.68733">
        <ele>700.46</ele>
        <time>2012-08-25T15:01:09Z</time>
      </trkpt>
      <trkpt lat="43.95036" lon="6.68733">
        <ele>701.9</ele>
        <time>2012-08-25T15:01:10Z</time>
      </trkpt>
      <trkpt lat="43.94999" lon="6.6874">
        <ele>702.38</ele>
        <time>2012-08-25T15:01:12Z</time>
      </trkpt>
      <trkpt lat="43.94983" lon="6.6875">
        <ele>701.42</ele>
        <time>2012-08-25T15:01:13Z</time>
      </trkpt>
      <trkpt lat="43.94971" lon="6.68766">
        <ele>702.38</ele>
        <time>2012-08-25T15:01:14Z</time>
      </trkpt>
      <trkpt lat="43.94959" lon="6.68787">
        <ele>703.34</ele>
        <time>2012-08-25T15:01:15Z</time>
      </trkpt>
      <trkpt lat="43.94949" lon="6.6881">
        <ele>703.34</ele>
        <time>2012-08-25T15:01:16Z</time>
      </trkpt>
      <trkpt lat="43.94937" lon="6.68831">
        <ele>703.34</ele>
        <time>2012-08-25T15:01:17Z</time>
      </trkpt>
      <trkpt lat="43.94923" lon="6.68851">
        <ele>703.34</ele>
        <time>2012-08-25T15:01:18Z</time>
      </trkpt>
      <trkpt lat="43.94909" lon="6.68867">
        <ele>703.82</ele>
        <time>2012-08-25T15:01:19Z</time>
      </trkpt>
      <trkpt lat="43.94894" lon="6.68879">
        <ele>703.82</ele>
        <time>2012-08-25T15:01:20Z</time>
      </trkpt>
      <trkpt lat="43.94879" lon="6.68884">
        <ele>704.3</ele>
        <time>2012-08-25T15:01:21Z</time>
      </trkpt>
      <trkpt lat="43.94862" lon="6.68887">
        <ele>704.3</ele>
        <time>2012-08-25T15:01:22Z</time>
      </trkpt>
      <trkpt lat="43.94844" lon="6.68886">
        <ele>704.3</ele>
        <time>2012-08-25T15:01:23Z</time>
      </trkpt>
      <trkpt lat="43.94825" lon="6.68887">
        <ele>704.3</ele>
        <time>2012-08-25T15:01:24Z</time>
      </trkpt>
      <trkpt lat="43.94807" lon="6.68891">
        <ele>704.78</ele>
        <time>2012-08-25T15:01:25Z</time>
      </trkpt>
      <trkpt lat="43.94787" lon="6.68898">
        <ele>705.26</ele>
        <time>2012-08-25T15:01:26Z</time>
      </trkpt>
      <trkpt lat="43.94767" lon="6.68908">
        <ele>706.23</ele>
        <time>2012-08-25T15:01:27Z</time>
      </trkpt>
      <trkpt lat="43.9464" lon="6.68968">
        <ele>712.47</ele>
        <time>2012-08-25T15:01:33Z</time>
      </trkpt>
      <trkpt lat="43.94619" lon="6.68965">
        <ele>711.99</ele>
        <time>2012-08-25T15:01:34Z</time>
      </trkpt>
      <trkpt lat="43.94598" lon="6.68962">
        <ele>711.99</ele>
        <time>2012-08-25T15:01:35Z</time>
      </trkpt>
      <trkpt lat="43.94577" lon="6.68956">
        <ele>712.47</ele>
        <time>2012-08-25T15:01:36Z</time>
      </trkpt>
      <trkpt lat="43.94557" lon="6.68949">
        <ele>713.44</ele>
        <time>2012-08-25T15:01:37Z</time>
      </trkpt>
      <trkpt lat="43.94538" lon="6.68945">
        <ele>714.88</ele>
        <time>2012-08-25T15:01:38Z</time>
      </trkpt>
      <trkpt lat="43.9452" lon="6.68943">
        <ele>716.32</ele>
        <time>2012-08-25T15:01:39Z</time>
      </trkpt>
      <trkpt lat="43.94503" lon="6.6895">
        <ele>717.28</ele>
        <time>2012-08-25T15:01:40Z</time>
      </trkpt>
      <trkpt lat="43.94458" lon="6.69012">
        <ele>721.13</ele>
        <time>2012-08-25T15:01:44Z</time>
      </trkpt>
      <trkpt lat="43.94447" lon="6.69029">
        <ele>722.57</ele>
        <time>2012-08-25T15:01:45Z</time>
      </trkpt>
      <trkpt lat="43.94435" lon="6.69044">
        <ele>723.53</ele>
        <time>2012-08-25T15:01:46Z</time>
      </trkpt>
      <trkpt lat="43.94422" lon="6.69055">
        <ele>724.49</ele>
        <time>2012-08-25T15:01:47Z</time>
      </trkpt>
      <trkpt lat="43.94408" lon="6.69062">
        <ele>725.45</ele>
        <time>2012-08-25T15:01:48Z</time>
      </trkpt>
      <trkpt lat="43.94392" lon="6.69062">
        <ele>726.89</ele>
        <time>2012-08-25T15:01:49Z</time>
      </trkpt>
      <trkpt lat="43.94374" lon="6.69058">
        <ele>728.34</ele>
        <time>2012-08-25T15:01:50Z</time>
      </trkpt>
      <trkpt lat="43.94355" lon="6.69051">
        <ele>729.78</ele>
        <time>2012-08-25T15:01:51Z</time>
      </trkpt>
      <trkpt lat="43.94335" lon="6.6904">
        <ele>730.26</ele>
        <time>2012-08-25T15:01:52Z</time>
      </trkpt>
      <trkpt lat="43.94316" lon="6.69027">
        <ele>731.7</ele>
        <time>2012-08-25T15:01:53Z</time>
      </trkpt>
      <trkpt lat="43.94299" lon="6.69012">
        <ele>733.14</ele>
        <time>2012-08-25T15:01:54Z</time>
      </trkpt>
      <trkpt lat="43.94283" lon="6.68998">
        <ele>735.07</ele>
        <time>2012-08-25T15:01:55Z</time>
      </trkpt>
      <trkpt lat="43.94252" lon="6.68976">
        <ele>738.43</ele>
        <time>2012-08-25T15:01:57Z</time>
      </trkpt>
      <trkpt lat="43.94236" lon="6.68972">
        <ele>739.39</ele>
        <time>2012-08-25T15:01:58Z</time>
      </trkpt>
      <trkpt lat="43.9422" lon="6.68972">
        <ele>740.35</ele>
        <time>2012-08-25T15:01:59Z</time>
      </trkpt>
      <trkpt lat="43.94205" lon="6.68978">
        <ele>741.79</ele>
        <time>2012-08-25T15:02:00Z</time>
      </trkpt>
      <trkpt lat="43.9419" lon="6.68985">
        <ele>743.24</ele>
        <time>2012-08-25T15:02:01Z</time>
      </trkpt>
      <trkpt lat="43.94174" lon="6.68988">
        <ele>744.68</ele>
        <time>2012-08-25T15:02:02Z</time>
      </trkpt>
      <trkpt lat="43.94159" lon="6.68986">
        <ele>746.12</ele>
        <time>2012-08-25T15:02:03Z</time>
      </trkpt>
      <trkpt lat="43.94144" lon="6.68979">
        <ele>748.04</ele>
        <time>2012-08-25T15:02:04Z</time>
      </trkpt>
      <trkpt lat="43.94118" lon="6.68954">
        <ele>751.41</ele>
        <time>2012-08-25T15:02:06Z</time>
      </trkpt>
      <trkpt lat="43.94105" lon="6.68943">
        <ele>752.85</ele>
        <time>2012-08-25T15:02:07Z</time>
      </trkpt>
      <trkpt lat="43.94091" lon="6.68938">
        <ele>755.25</ele>
        <time>2012-08-25T15:02:08Z</time>
      </trkpt>
      <trkpt lat="43.94077" lon="6.68936">
        <ele>757.66</ele>
        <time>2012-08-25T15:02:09Z</time>
      </trkpt>
      <trkpt lat="43.94064" lon="6.68935">
        <ele>759.58</ele>
        <time>2012-08-25T15:02:10Z</time>
      </trkpt>
      <trkpt lat="43.94052" lon="6.68932">
        <ele>760.54</ele>
        <time>2012-08-25T15:02:11Z</time>
      </trkpt>
      <trkpt lat="43.9404" lon="6.68927">
        <ele>762.46</ele>
        <time>2012-08-25T15:02:12Z</time>
      </trkpt>
      <trkpt lat="43.94029" lon="6.6892">
        <ele>763.9</ele>
        <time>2012-08-25T15:02:13Z</time>
      </trkpt>
      <trkpt lat="43.94019" lon="6.68911">
        <ele>765.35</ele>
        <time>2012-08-25T15:02:14Z</time>
      </trkpt>
      <trkpt lat="43.94002" lon="6.68895">
        <ele>767.75</ele>
        <time>2012-08-25T15:02:16Z</time>
      </trkpt>
      <trkpt lat="43.93997" lon="6.68885">
        <ele>768.71</ele>
        <time>2012-08-25T15:02:17Z</time>
      </trkpt>
      <trkpt lat="43.93994" lon="6.68872">
        <ele>769.19</ele>
        <time>2012-08-25T15:02:18Z</time>
      </trkpt>
      <trkpt lat="43.93996" lon="6.68858">
        <ele>771.6</ele>
        <time>2012-08-25T15:02:19Z</time>
      </trkpt>
      <trkpt lat="43.93994" lon="6.68847">
        <ele>771.6</ele>
        <time>2012-08-25T15:02:20Z</time>
      </trkpt>
      <trkpt lat="43.93984" lon="6.68831">
        <ele>770.63</ele>
        <time>2012-08-25T15:02:22Z</time>
      </trkpt>
      <trkpt lat="43.93975" lon="6.68825">
        <ele>770.15</ele>
        <time>2012-08-25T15:02:23Z</time>
      </trkpt>
      <trkpt lat="43.93966" lon="6.68815">
        <ele>770.15</ele>
        <time>2012-08-25T15:02:24Z</time>
      </trkpt>
      <trkpt lat="43.93956" lon="6.68805">
        <ele>770.63</ele>
        <time>2012-08-25T15:02:25Z</time>
      </trkpt>
      <trkpt lat="43.93895" lon="6.6874">
        <ele>770.63</ele>
        <time>2012-08-25T15:02:30Z</time>
      </trkpt>
      <trkpt lat="43.93879" lon="6.68732">
        <ele>770.63</ele>
        <time>2012-08-25T15:02:31Z</time>
      </trkpt>
      <trkpt lat="43.93862" lon="6.68725">
        <ele>770.15</ele>
        <time>2012-08-25T15:02:32Z</time>
      </trkpt>
      <trkpt lat="43.93776" lon="6.68708">
        <ele>769.67</ele>
        <time>2012-08-25T15:02:37Z</time>
      </trkpt>
      <trkpt lat="43.93762" lon="6.68703">
        <ele>770.15</ele>
        <time>2012-08-25T15:02:38Z</time>
      </trkpt>
      <trkpt lat="43.93752" lon="6.68674">
        <ele>769.67</ele>
        <time>2012-08-25T15:02:40Z</time>
      </trkpt>
      <trkpt lat="43.9375" lon="6.68657">
        <ele>768.71</ele>
        <time>2012-08-25T15:02:41Z</time>
      </trkpt>
      <trkpt lat="43.93753" lon="6.6864">
        <ele>770.63</ele>
        <time>2012-08-25T15:02:42Z</time>
      </trkpt>
      <trkpt lat="43.93758" lon="6.6862">
        <ele>772.56</ele>
        <time>2012-08-25T15:02:43Z</time>
      </trkpt>
      <trkpt lat="43.93766" lon="6.686">
        <ele>774</ele>
        <time>2012-08-25T15:02:44Z</time>
      </trkpt>
      <trkpt lat="43.93773" lon="6.68582">
        <ele>774.48</ele>
        <time>2012-08-25T15:02:45Z</time>
      </trkpt>
      <trkpt lat="43.93778" lon="6.68563">
        <ele>774.96</ele>
        <time>2012-08-25T15:02:46Z</time>
      </trkpt>
      <trkpt lat="43.93781" lon="6.68546">
        <ele>775.44</ele>
        <time>2012-08-25T15:02:47Z</time>
      </trkpt>
      <trkpt lat="43.93781" lon="6.68527">
        <ele>775.44</ele>
        <time>2012-08-25T15:02:48Z</time>
      </trkpt>
      <trkpt lat="43.93777" lon="6.68509">
        <ele>775.92</ele>
        <time>2012-08-25T15:02:49Z</time>
      </trkpt>
      <trkpt lat="43.93774" lon="6.6849">
        <ele>777.36</ele>
        <time>2012-08-25T15:02:50Z</time>
      </trkpt>
      <trkpt lat="43.93773" lon="6.68471">
        <ele>779.29</ele>
        <time>2012-08-25T15:02:51Z</time>
      </trkpt>
      <trkpt lat="43.93774" lon="6.68454">
        <ele>779.77</ele>
        <time>2012-08-25T15:02:52Z</time>
      </trkpt>
      <trkpt lat="43.93775" lon="6.68438">
        <ele>779.29</ele>
        <time>2012-08-25T15:02:53Z</time>
      </trkpt>
      <trkpt lat="43.93769" lon="6.68414">
        <ele>778.32</ele>
        <time>2012-08-25T15:02:55Z</time>
      </trkpt>
      <trkpt lat="43.93764" lon="6.68402">
        <ele>778.32</ele>
        <time>2012-08-25T15:02:56Z</time>
      </trkpt>
      <trkpt lat="43.93741" lon="6.68227">
        <ele>782.65</ele>
        <time>2012-08-25T15:03:04Z</time>
      </trkpt>
      <trkpt lat="43.93734" lon="6.68208">
        <ele>782.65</ele>
        <time>2012-08-25T15:03:05Z</time>
      </trkpt>
      <trkpt lat="43.93726" lon="6.68191">
        <ele>783.13</ele>
        <time>2012-08-25T15:03:06Z</time>
      </trkpt>
      <trkpt lat="43.93719" lon="6.68174">
        <ele>784.09</ele>
        <time>2012-08-25T15:03:07Z</time>
      </trkpt>
      <trkpt lat="43.93714" lon="6.68158">
        <ele>785.05</ele>
        <time>2012-08-25T15:03:08Z</time>
      </trkpt>
      <trkpt lat="43.93711" lon="6.68139">
        <ele>786.02</ele>
        <time>2012-08-25T15:03:09Z</time>
      </trkpt>
      <trkpt lat="43.93706" lon="6.6812">
        <ele>787.46</ele>
        <time>2012-08-25T15:03:10Z</time>
      </trkpt>
      <trkpt lat="43.93701" lon="6.681">
        <ele>788.42</ele>
        <time>2012-08-25T15:03:11Z</time>
      </trkpt>
      <trkpt lat="43.93696" lon="6.68078">
        <ele>788.9</ele>
        <time>2012-08-25T15:03:12Z</time>
      </trkpt>
      <trkpt lat="43.93693" lon="6.68053">
        <ele>789.86</ele>
        <time>2012-08-25T15:03:13Z</time>
      </trkpt>
      <trkpt lat="43.93692" lon="6.68028">
        <ele>791.3</ele>
        <time>2012-08-25T15:03:14Z</time>
      </trkpt>
      <trkpt lat="43.93677" lon="6.67886">
        <ele>797.07</ele>
        <time>2012-08-25T15:03:20Z</time>
      </trkpt>
      <trkpt lat="43.93678" lon="6.67868">
        <ele>798.03</ele>
        <time>2012-08-25T15:03:21Z</time>
      </trkpt>
      <trkpt lat="43.93678" lon="6.67852">
        <ele>798.99</ele>
        <time>2012-08-25T15:03:22Z</time>
      </trkpt>
      <trkpt lat="43.93676" lon="6.67837">
        <ele>799.47</ele>
        <time>2012-08-25T15:03:23Z</time>
      </trkpt>
      <trkpt lat="43.9367" lon="6.67826">
        <ele>799.95</ele>
        <time>2012-08-25T15:03:24Z</time>
      </trkpt>
      <trkpt lat="43.9366" lon="6.67815">
        <ele>800.92</ele>
        <time>2012-08-25T15:03:25Z</time>
      </trkpt>
      <trkpt lat="43.93646" lon="6.67806">
        <ele>801.88</ele>
        <time>2012-08-25T15:03:26Z</time>
      </trkpt>
      <trkpt lat="43.93631" lon="6.67798">
        <ele>802.84</ele>
        <time>2012-08-25T15:03:27Z</time>
      </trkpt>
      <trkpt lat="43.93615" lon="6.67788">
        <ele>804.28</ele>
        <time>2012-08-25T15:03:28Z</time>
      </trkpt>
      <trkpt lat="43.93538" lon="6.677">
        <ele>815.34</ele>
        <time>2012-08-25T15:03:35Z</time>
      </trkpt>
      <trkpt lat="43.93537" lon="6.67682">
        <ele>814.85</ele>
        <time>2012-08-25T15:03:36Z</time>
      </trkpt>
      <trkpt lat="43.93537" lon="6.67663">
        <ele>814.37</ele>
        <time>2012-08-25T15:03:37Z</time>
      </trkpt>
      <trkpt lat="43.93534" lon="6.67645">
        <ele>815.34</ele>
        <time>2012-08-25T15:03:38Z</time>
      </trkpt>
      <trkpt lat="43.93529" lon="6.67626">
        <ele>815.34</ele>
        <time>2012-08-25T15:03:39Z</time>
      </trkpt>
      <trkpt lat="43.93524" lon="6.67607">
        <ele>815.82</ele>
        <time>2012-08-25T15:03:40Z</time>
      </trkpt>
      <trkpt lat="43.93521" lon="6.67589">
        <ele>815.82</ele>
        <time>2012-08-25T15:03:41Z</time>
      </trkpt>
      <trkpt lat="43.93519" lon="6.67568">
        <ele>816.3</ele>
        <time>2012-08-25T15:03:42Z</time>
      </trkpt>
      <trkpt lat="43.9352" lon="6.67544">
        <ele>814.37</ele>
        <time>2012-08-25T15:03:43Z</time>
      </trkpt>
      <trkpt lat="43.93515" lon="6.67414">
        <ele>817.74</ele>
        <time>2012-08-25T15:03:48Z</time>
      </trkpt>
      <trkpt lat="43.93509" lon="6.67386">
        <ele>818.7</ele>
        <time>2012-08-25T15:03:49Z</time>
      </trkpt>
      <trkpt lat="43.93477" lon="6.67282">
        <ele>823.51</ele>
        <time>2012-08-25T15:03:53Z</time>
      </trkpt>
      <trkpt lat="43.93466" lon="6.67261">
        <ele>824.95</ele>
        <time>2012-08-25T15:03:54Z</time>
      </trkpt>
      <trkpt lat="43.93423" lon="6.67179">
        <ele>829.76</ele>
        <time>2012-08-25T15:03:58Z</time>
      </trkpt>
      <trkpt lat="43.93407" lon="6.67146">
        <ele>833.6</ele>
        <time>2012-08-25T15:04:00Z</time>
      </trkpt>
      <trkpt lat="43.93398" lon="6.67137">
        <ele>835.04</ele>
        <time>2012-08-25T15:04:01Z</time>
      </trkpt>
      <trkpt lat="43.93387" lon="6.67129">
        <ele>836.48</ele>
        <time>2012-08-25T15:04:02Z</time>
      </trkpt>
      <trkpt lat="43.93375" lon="6.67119">
        <ele>837.45</ele>
        <time>2012-08-25T15:04:03Z</time>
      </trkpt>
      <trkpt lat="43.93365" lon="6.67105">
        <ele>838.89</ele>
        <time>2012-08-25T15:04:04Z</time>
      </trkpt>
      <trkpt lat="43.93359" lon="6.67087">
        <ele>840.33</ele>
        <time>2012-08-25T15:04:05Z</time>
      </trkpt>
      <trkpt lat="43.93355" lon="6.67068">
        <ele>841.29</ele>
        <time>2012-08-25T15:04:06Z</time>
      </trkpt>
      <trkpt lat="43.93355" lon="6.67049">
        <ele>842.25</ele>
        <time>2012-08-25T15:04:07Z</time>
      </trkpt>
      <trkpt lat="43.93358" lon="6.67032">
        <ele>843.69</ele>
        <time>2012-08-25T15:04:08Z</time>
      </trkpt>
      <trkpt lat="43.93359" lon="6.67016">
        <ele>844.66</ele>
        <time>2012-08-25T15:04:09Z</time>
      </trkpt>
      <trkpt lat="43.93358" lon="6.67002">
        <ele>845.62</ele>
        <time>2012-08-25T15:04:10Z</time>
      </trkpt>
      <trkpt lat="43.93354" lon="6.66993">
        <ele>846.1</ele>
        <time>2012-08-25T15:04:11Z</time>
      </trkpt>
      <trkpt lat="43.93334" lon="6.66982">
        <ele>847.06</ele>
        <time>2012-08-25T15:04:13Z</time>
      </trkpt>
      <trkpt lat="43.93321" lon="6.66975">
        <ele>847.54</ele>
        <time>2012-08-25T15:04:14Z</time>
      </trkpt>
      <trkpt lat="43.9331" lon="6.66963">
        <ele>847.54</ele>
        <time>2012-08-25T15:04:15Z</time>
      </trkpt>
      <trkpt lat="43.93303" lon="6.66946">
        <ele>848.02</ele>
        <time>2012-08-25T15:04:16Z</time>
      </trkpt>
      <trkpt lat="43.93298" lon="6.66928">
        <ele>849.46</ele>
        <time>2012-08-25T15:04:17Z</time>
      </trkpt>
      <trkpt lat="43.93292" lon="6.6691">
        <ele>850.42</ele>
        <time>2012-08-25T15:04:18Z</time>
      </trkpt>
      <trkpt lat="43.93284" lon="6.66896">
        <ele>852.35</ele>
        <time>2012-08-25T15:04:19Z</time>
      </trkpt>
      <trkpt lat="43.93274" lon="6.66884">
        <ele>853.79</ele>
        <time>2012-08-25T15:04:20Z</time>
      </trkpt>
      <trkpt lat="43.93259" lon="6.66876">
        <ele>854.27</ele>
        <time>2012-08-25T15:04:21Z</time>
      </trkpt>
      <trkpt lat="43.93246" lon="6.66867">
        <ele>855.23</ele>
        <time>2012-08-25T15:04:22Z</time>
      </trkpt>
      <trkpt lat="43.93235" lon="6.66854">
        <ele>856.19</ele>
        <time>2012-08-25T15:04:23Z</time>
      </trkpt>
      <trkpt lat="43.93227" lon="6.66839">
        <ele>856.67</ele>
        <time>2012-08-25T15:04:24Z</time>
      </trkpt>
      <trkpt lat="43.9322" lon="6.66822">
        <ele>857.63</ele>
        <time>2012-08-25T15:04:25Z</time>
      </trkpt>
      <trkpt lat="43.93214" lon="6.66803">
        <ele>858.11</ele>
        <time>2012-08-25T15:04:26Z</time>
      </trkpt>
      <trkpt lat="43.93208" lon="6.66784">
        <ele>858.59</ele>
        <time>2012-08-25T15:04:27Z</time>
      </trkpt>
      <trkpt lat="43.93202" lon="6.66746">
        <ele>859.56</ele>
        <time>2012-08-25T15:04:29Z</time>
      </trkpt>
      <trkpt lat="43.93204" lon="6.66725">
        <ele>860.04</ele>
        <time>2012-08-25T15:04:30Z</time>
      </trkpt>
      <trkpt lat="43.93208" lon="6.66704">
        <ele>861</ele>
        <time>2012-08-25T15:04:31Z</time>
      </trkpt>
      <trkpt lat="43.93213" lon="6.66681">
        <ele>862.44</ele>
        <time>2012-08-25T15:04:32Z</time>
      </trkpt>
      <trkpt lat="43.93233" lon="6.66595">
        <ele>867.73</ele>
        <time>2012-08-25T15:04:37Z</time>
      </trkpt>
      <trkpt lat="43.93229" lon="6.66586">
        <ele>867.73</ele>
        <time>2012-08-25T15:04:38Z</time>
      </trkpt>
      <trkpt lat="43.93219" lon="6.6658">
        <ele>868.21</ele>
        <time>2012-08-25T15:04:39Z</time>
      </trkpt>
      <trkpt lat="43.93207" lon="6.66577">
        <ele>868.69</ele>
        <time>2012-08-25T15:04:40Z</time>
      </trkpt>
      <trkpt lat="43.93193" lon="6.66578">
        <ele>869.65</ele>
        <time>2012-08-25T15:04:41Z</time>
      </trkpt>
      <trkpt lat="43.93179" lon="6.66579">
        <ele>870.61</ele>
        <time>2012-08-25T15:04:42Z</time>
      </trkpt>
      <trkpt lat="43.93165" lon="6.6658">
        <ele>871.09</ele>
        <time>2012-08-25T15:04:43Z</time>
      </trkpt>
      <trkpt lat="43.9315" lon="6.66579">
        <ele>871.09</ele>
        <time>2012-08-25T15:04:44Z</time>
      </trkpt>
      <trkpt lat="43.93137" lon="6.66573">
        <ele>872.05</ele>
        <time>2012-08-25T15:04:45Z</time>
      </trkpt>
      <trkpt lat="43.93128" lon="6.66561">
        <ele>873.01</ele>
        <time>2012-08-25T15:04:46Z</time>
      </trkpt>
      <trkpt lat="43.93121" lon="6.66547">
        <ele>873.98</ele>
        <time>2012-08-25T15:04:47Z</time>
      </trkpt>
      <trkpt lat="43.93117" lon="6.66533">
        <ele>873.98</ele>
        <time>2012-08-25T15:04:48Z</time>
      </trkpt>
      <trkpt lat="43.93117" lon="6.66517">
        <ele>874.46</ele>
        <time>2012-08-25T15:04:49Z</time>
      </trkpt>
      <trkpt lat="43.93122" lon="6.66502">
        <ele>874.46</ele>
        <time>2012-08-25T15:04:50Z</time>
      </trkpt>
      <trkpt lat="43.9313" lon="6.66487">
        <ele>874.94</ele>
        <time>2012-08-25T15:04:51Z</time>
      </trkpt>
      <trkpt lat="43.9314" lon="6.66471">
        <ele>875.9</ele>
        <time>2012-08-25T15:04:52Z</time>
      </trkpt>
      <trkpt lat="43.93148" lon="6.66454">
        <ele>876.38</ele>
        <time>2012-08-25T15:04:53Z</time>
      </trkpt>
      <trkpt lat="43.93155" lon="6.66434">
        <ele>876.38</ele>
        <time>2012-08-25T15:04:54Z</time>
      </trkpt>
      <trkpt lat="43.9316" lon="6.66412">
        <ele>876.86</ele>
        <time>2012-08-25T15:04:55Z</time>
      </trkpt>
      <trkpt lat="43.93163" lon="6.66387">
        <ele>877.82</ele>
        <time>2012-08-25T15:04:56Z</time>
      </trkpt>
      <trkpt lat="43.93162" lon="6.66362">
        <ele>878.78</ele>
        <time>2012-08-25T15:04:57Z</time>
      </trkpt>
      <trkpt lat="43.93162" lon="6.66335">
        <ele>879.26</ele>
        <time>2012-08-25T15:04:58Z</time>
      </trkpt>
      <trkpt lat="43.93164" lon="6.66309">
        <ele>879.74</ele>
        <time>2012-08-25T15:04:59Z</time>
      </trkpt>
      <trkpt lat="43.93167" lon="6.66283">
        <ele>879.74</ele>
        <time>2012-08-25T15:05:00Z</time>
      </trkpt>
      <trkpt lat="43.93174" lon="6.66233">
        <ele>880.71</ele>
        <time>2012-08-25T15:05:02Z</time>
      </trkpt>
      <trkpt lat="43.93174" lon="6.66208">
        <ele>881.19</ele>
        <time>2012-08-25T15:05:03Z</time>
      </trkpt>
      <trkpt lat="43.93171" lon="6.66184">
        <ele>882.15</ele>
        <time>2012-08-25T15:05:04Z</time>
      </trkpt>
      <trkpt lat="43.93163" lon="6.6616">
        <ele>882.15</ele>
        <time>2012-08-25T15:05:05Z</time>
      </trkpt>
      <trkpt lat="43.93154" lon="6.66136">
        <ele>882.63</ele>
        <time>2012-08-25T15:05:06Z</time>
      </trkpt>
      <trkpt lat="43.93146" lon="6.66114">
        <ele>883.11</ele>
        <time>2012-08-25T15:05:07Z</time>
      </trkpt>
      <trkpt lat="43.93135" lon="6.66072">
        <ele>883.59</ele>
        <time>2012-08-25T15:05:09Z</time>
      </trkpt>
      <trkpt lat="43.93132" lon="6.66051">
        <ele>884.07</ele>
        <time>2012-08-25T15:05:10Z</time>
      </trkpt>
      <trkpt lat="43.93133" lon="6.6603">
        <ele>884.55</ele>
        <time>2012-08-25T15:05:11Z</time>
      </trkpt>
      <trkpt lat="43.93137" lon="6.66008">
        <ele>885.03</ele>
        <time>2012-08-25T15:05:12Z</time>
      </trkpt>
      <trkpt lat="43.93145" lon="6.65987">
        <ele>885.99</ele>
        <time>2012-08-25T15:05:13Z</time>
      </trkpt>
      <trkpt lat="43.93153" lon="6.65965">
        <ele>886.47</ele>
        <time>2012-08-25T15:05:14Z</time>
      </trkpt>
      <trkpt lat="43.93161" lon="6.65943">
        <ele>886.95</ele>
        <time>2012-08-25T15:05:15Z</time>
      </trkpt>
      <trkpt lat="43.93177" lon="6.6587">
        <ele>888.88</ele>
        <time>2012-08-25T15:05:19Z</time>
      </trkpt>
      <trkpt lat="43.93174" lon="6.65858">
        <ele>888.88</ele>
        <time>2012-08-25T15:05:20Z</time>
      </trkpt>
      <trkpt lat="43.93165" lon="6.65849">
        <ele>888.88</ele>
        <time>2012-08-25T15:05:21Z</time>
      </trkpt>
      <trkpt lat="43.93154" lon="6.6584">
        <ele>888.4</ele>
        <time>2012-08-25T15:05:22Z</time>
      </trkpt>
      <trkpt lat="43.9314" lon="6.65833">
        <ele>888.88</ele>
        <time>2012-08-25T15:05:23Z</time>
      </trkpt>
      <trkpt lat="43.93125" lon="6.65825">
        <ele>889.36</ele>
        <time>2012-08-25T15:05:24Z</time>
      </trkpt>
      <trkpt lat="43.93111" lon="6.65814">
        <ele>889.36</ele>
        <time>2012-08-25T15:05:25Z</time>
      </trkpt>
      <trkpt lat="43.93098" lon="6.65799">
        <ele>890.32</ele>
        <time>2012-08-25T15:05:26Z</time>
      </trkpt>
      <trkpt lat="43.93067" lon="6.65753">
        <ele>892.72</ele>
        <time>2012-08-25T15:05:29Z</time>
      </trkpt>
      <trkpt lat="43.93061" lon="6.65735">
        <ele>893.2</ele>
        <time>2012-08-25T15:05:30Z</time>
      </trkpt>
      <trkpt lat="43.93057" lon="6.65716">
        <ele>893.2</ele>
        <time>2012-08-25T15:05:31Z</time>
      </trkpt>
      <trkpt lat="43.93056" lon="6.65694">
        <ele>893.68</ele>
        <time>2012-08-25T15:05:32Z</time>
      </trkpt>
      <trkpt lat="43.93059" lon="6.65671">
        <ele>895.61</ele>
        <time>2012-08-25T15:05:33Z</time>
      </trkpt>
      <trkpt lat="43.93062" lon="6.65647">
        <ele>896.57</ele>
        <time>2012-08-25T15:05:34Z</time>
      </trkpt>
      <trkpt lat="43.93068" lon="6.65622">
        <ele>897.53</ele>
        <time>2012-08-25T15:05:35Z</time>
      </trkpt>
      <trkpt lat="43.93075" lon="6.65598">
        <ele>897.53</ele>
        <time>2012-08-25T15:05:36Z</time>
      </trkpt>
      <trkpt lat="43.93087" lon="6.65506">
        <ele>898.01</ele>
        <time>2012-08-25T15:05:40Z</time>
      </trkpt>
      <trkpt lat="43.93091" lon="6.65485">
        <ele>898.01</ele>
        <time>2012-08-25T15:05:41Z</time>
      </trkpt>
      <trkpt lat="43.93099" lon="6.65467">
        <ele>898.49</ele>
        <time>2012-08-25T15:05:42Z</time>
      </trkpt>
      <trkpt lat="43.9311" lon="6.65451">
        <ele>898.49</ele>
        <time>2012-08-25T15:05:43Z</time>
      </trkpt>
      <trkpt lat="43.93123" lon="6.65436">
        <ele>897.53</ele>
        <time>2012-08-25T15:05:44Z</time>
      </trkpt>
      <trkpt lat="43.93134" lon="6.65419">
        <ele>897.53</ele>
        <time>2012-08-25T15:05:45Z</time>
      </trkpt>
      <trkpt lat="43.93144" lon="6.654">
        <ele>897.05</ele>
        <time>2012-08-25T15:05:46Z</time>
      </trkpt>
      <trkpt lat="43.93153" lon="6.65379">
        <ele>896.09</ele>
        <time>2012-08-25T15:05:47Z</time>
      </trkpt>
      <trkpt lat="43.9316" lon="6.65357">
        <ele>895.61</ele>
        <time>2012-08-25T15:05:48Z</time>
      </trkpt>
      <trkpt lat="43.93246" lon="6.65202">
        <ele>891.76</ele>
        <time>2012-08-25T15:05:55Z</time>
      </trkpt>
      <trkpt lat="43.93319" lon="6.65045">
        <ele>890.32</ele>
        <time>2012-08-25T15:06:02Z</time>
      </trkpt>
      <trkpt lat="43.93321" lon="6.65023">
        <ele>889.84</ele>
        <time>2012-08-25T15:06:03Z</time>
      </trkpt>
      <trkpt lat="43.93315" lon="6.65004">
        <ele>889.36</ele>
        <time>2012-08-25T15:06:04Z</time>
      </trkpt>
      <trkpt lat="43.93305" lon="6.64988">
        <ele>888.88</ele>
        <time>2012-08-25T15:06:05Z</time>
      </trkpt>
      <trkpt lat="43.93293" lon="6.64972">
        <ele>888.4</ele>
        <time>2012-08-25T15:06:06Z</time>
      </trkpt>
      <trkpt lat="43.93279" lon="6.64955">
        <ele>888.4</ele>
        <time>2012-08-25T15:06:07Z</time>
      </trkpt>
      <trkpt lat="43.93267" lon="6.64936">
        <ele>887.43</ele>
        <time>2012-08-25T15:06:08Z</time>
      </trkpt>
      <trkpt lat="43.93257" lon="6.64912">
        <ele>887.43</ele>
        <time>2012-08-25T15:06:09Z</time>
      </trkpt>
      <trkpt lat="43.9325" lon="6.64887">
        <ele>887.43</ele>
        <time>2012-08-25T15:06:10Z</time>
      </trkpt>
      <trkpt lat="43.93245" lon="6.64862">
        <ele>888.4</ele>
        <time>2012-08-25T15:06:11Z</time>
      </trkpt>
      <trkpt lat="43.93242" lon="6.64838">
        <ele>888.88</ele>
        <time>2012-08-25T15:06:12Z</time>
      </trkpt>
      <trkpt lat="43.93239" lon="6.64814">
        <ele>889.84</ele>
        <time>2012-08-25T15:06:13Z</time>
      </trkpt>
      <trkpt lat="43.93239" lon="6.64791">
        <ele>890.32</ele>
        <time>2012-08-25T15:06:14Z</time>
      </trkpt>
      <trkpt lat="43.93241" lon="6.64767">
        <ele>891.28</ele>
        <time>2012-08-25T15:06:15Z</time>
      </trkpt>
      <trkpt lat="43.93247" lon="6.64743">
        <ele>893.2</ele>
        <time>2012-08-25T15:06:16Z</time>
      </trkpt>
      <trkpt lat="43.93252" lon="6.64719">
        <ele>895.12</ele>
        <time>2012-08-25T15:06:17Z</time>
      </trkpt>
      <trkpt lat="43.93261" lon="6.64655">
        <ele>898.49</ele>
        <time>2012-08-25T15:06:20Z</time>
      </trkpt>
      <trkpt lat="43.9326" lon="6.64634">
        <ele>899.45</ele>
        <time>2012-08-25T15:06:21Z</time>
      </trkpt>
      <trkpt lat="43.93257" lon="6.64612">
        <ele>900.41</ele>
        <time>2012-08-25T15:06:22Z</time>
      </trkpt>
      <trkpt lat="43.9325" lon="6.6459">
        <ele>901.85</ele>
        <time>2012-08-25T15:06:23Z</time>
      </trkpt>
      <trkpt lat="43.93241" lon="6.64567">
        <ele>903.3</ele>
        <time>2012-08-25T15:06:24Z</time>
      </trkpt>
      <trkpt lat="43.93228" lon="6.64545">
        <ele>904.26</ele>
        <time>2012-08-25T15:06:25Z</time>
      </trkpt>
      <trkpt lat="43.93217" lon="6.64523">
        <ele>905.22</ele>
        <time>2012-08-25T15:06:26Z</time>
      </trkpt>
      <trkpt lat="43.93184" lon="6.64447">
        <ele>908.58</ele>
        <time>2012-08-25T15:06:30Z</time>
      </trkpt>
      <trkpt lat="43.93174" lon="6.64437">
        <ele>910.03</ele>
        <time>2012-08-25T15:06:31Z</time>
      </trkpt>
      <trkpt lat="43.93164" lon="6.64429">
        <ele>910.51</ele>
        <time>2012-08-25T15:06:32Z</time>
      </trkpt>
      <trkpt lat="43.93153" lon="6.64421">
        <ele>911.47</ele>
        <time>2012-08-25T15:06:33Z</time>
      </trkpt>
      <trkpt lat="43.93141" lon="6.64414">
        <ele>912.43</ele>
        <time>2012-08-25T15:06:34Z</time>
      </trkpt>
      <trkpt lat="43.93101" lon="6.64393">
        <ele>915.31</ele>
        <time>2012-08-25T15:06:37Z</time>
      </trkpt>
      <trkpt lat="43.93088" lon="6.64389">
        <ele>916.27</ele>
        <time>2012-08-25T15:06:38Z</time>
      </trkpt>
      <trkpt lat="43.93041" lon="6.64379">
        <ele>919.64</ele>
        <time>2012-08-25T15:06:42Z</time>
      </trkpt>
      <trkpt lat="43.93032" lon="6.64371">
        <ele>920.12</ele>
        <time>2012-08-25T15:06:43Z</time>
      </trkpt>
      <trkpt lat="43.93025" lon="6.64359">
        <ele>921.56</ele>
        <time>2012-08-25T15:06:44Z</time>
      </trkpt>
      <trkpt lat="43.9302" lon="6.64347">
        <ele>922.52</ele>
        <time>2012-08-25T15:06:45Z</time>
      </trkpt>
      <trkpt lat="43.93022" lon="6.64334">
        <ele>922.52</ele>
        <time>2012-08-25T15:06:46Z</time>
      </trkpt>
      <trkpt lat="43.93029" lon="6.64322">
        <ele>923.96</ele>
        <time>2012-08-25T15:06:47Z</time>
      </trkpt>
      <trkpt lat="43.93038" lon="6.64311">
        <ele>925.41</ele>
        <time>2012-08-25T15:06:48Z</time>
      </trkpt>
      <trkpt lat="43.9305" lon="6.64303">
        <ele>925.89</ele>
        <time>2012-08-25T15:06:49Z</time>
      </trkpt>
      <trkpt lat="43.93062" lon="6.64295">
        <ele>926.37</ele>
        <time>2012-08-25T15:06:50Z</time>
      </trkpt>
      <trkpt lat="43.93074" lon="6.64283">
        <ele>926.37</ele>
        <time>2012-08-25T15:06:51Z</time>
      </trkpt>
      <trkpt lat="43.93086" lon="6.64269">
        <ele>927.81</ele>
        <time>2012-08-25T15:06:52Z</time>
      </trkpt>
      <trkpt lat="43.93097" lon="6.64252">
        <ele>929.25</ele>
        <time>2012-08-25T15:06:53Z</time>
      </trkpt>
      <trkpt lat="43.93106" lon="6.64235">
        <ele>930.21</ele>
        <time>2012-08-25T15:06:54Z</time>
      </trkpt>
      <trkpt lat="43.93113" lon="6.64218">
        <ele>931.65</ele>
        <time>2012-08-25T15:06:55Z</time>
      </trkpt>
      <trkpt lat="43.93118" lon="6.64202">
        <ele>933.58</ele>
        <time>2012-08-25T15:06:56Z</time>
      </trkpt>
      <trkpt lat="43.93124" lon="6.64188">
        <ele>934.54</ele>
        <time>2012-08-25T15:06:57Z</time>
      </trkpt>
      <trkpt lat="43.93131" lon="6.64175">
        <ele>935.5</ele>
        <time>2012-08-25T15:06:58Z</time>
      </trkpt>
      <trkpt lat="43.9314" lon="6.64163">
        <ele>936.46</ele>
        <time>2012-08-25T15:06:59Z</time>
      </trkpt>
      <trkpt lat="43.93205" lon="6.6405">
        <ele>943.19</ele>
        <time>2012-08-25T15:07:05Z</time>
      </trkpt>
      <trkpt lat="43.93313" lon="6.6388">
        <ele>953.77</ele>
        <time>2012-08-25T15:07:13Z</time>
      </trkpt>
      <trkpt lat="43.93344" lon="6.63845">
        <ele>956.17</ele>
        <time>2012-08-25T15:07:15Z</time>
      </trkpt>
      <trkpt lat="43.93361" lon="6.6383">
        <ele>957.13</ele>
        <time>2012-08-25T15:07:16Z</time>
      </trkpt>
      <trkpt lat="43.93502" lon="6.63743">
        <ele>967.22</ele>
        <time>2012-08-25T15:07:23Z</time>
      </trkpt>
      <trkpt lat="43.93624" lon="6.63656">
        <ele>975.39</ele>
        <time>2012-08-25T15:07:30Z</time>
      </trkpt>
      <trkpt lat="43.93661" lon="6.63623">
        <ele>977.32</ele>
        <time>2012-08-25T15:07:33Z</time>
      </trkpt>
      <trkpt lat="43.93679" lon="6.636">
        <ele>978.28</ele>
        <time>2012-08-25T15:07:35Z</time>
      </trkpt>
      <trkpt lat="43.93683" lon="6.63587">
        <ele>978.76</ele>
        <time>2012-08-25T15:07:36Z</time>
      </trkpt>
      <trkpt lat="43.93679" lon="6.63555">
        <ele>978.76</ele>
        <time>2012-08-25T15:07:38Z</time>
      </trkpt>
      <trkpt lat="43.93668" lon="6.6354">
        <ele>979.24</ele>
        <time>2012-08-25T15:07:39Z</time>
      </trkpt>
      <trkpt lat="43.93655" lon="6.6353">
        <ele>978.76</ele>
        <time>2012-08-25T15:07:40Z</time>
      </trkpt>
      <trkpt lat="43.9364" lon="6.63525">
        <ele>978.76</ele>
        <time>2012-08-25T15:07:41Z</time>
      </trkpt>
      <trkpt lat="43.93624" lon="6.63527">
        <ele>978.28</ele>
        <time>2012-08-25T15:07:42Z</time>
      </trkpt>
      <trkpt lat="43.9361" lon="6.63533">
        <ele>978.28</ele>
        <time>2012-08-25T15:07:43Z</time>
      </trkpt>
      <trkpt lat="43.93594" lon="6.63538">
        <ele>978.76</ele>
        <time>2012-08-25T15:07:44Z</time>
      </trkpt>
      <trkpt lat="43.93578" lon="6.63539">
        <ele>978.76</ele>
        <time>2012-08-25T15:07:45Z</time>
      </trkpt>
      <trkpt lat="43.93563" lon="6.63537">
        <ele>979.72</ele>
        <time>2012-08-25T15:07:46Z</time>
      </trkpt>
      <trkpt lat="43.93547" lon="6.63532">
        <ele>980.68</ele>
        <time>2012-08-25T15:07:47Z</time>
      </trkpt>
      <trkpt lat="43.93531" lon="6.63529">
        <ele>982.12</ele>
        <time>2012-08-25T15:07:48Z</time>
      </trkpt>
      <trkpt lat="43.93515" lon="6.63529">
        <ele>984.05</ele>
        <time>2012-08-25T15:07:49Z</time>
      </trkpt>
      <trkpt lat="43.93499" lon="6.6353">
        <ele>984.53</ele>
        <time>2012-08-25T15:07:50Z</time>
      </trkpt>
      <trkpt lat="43.93485" lon="6.6353">
        <ele>985.01</ele>
        <time>2012-08-25T15:07:51Z</time>
      </trkpt>
      <trkpt lat="43.93471" lon="6.63526">
        <ele>985.97</ele>
        <time>2012-08-25T15:07:52Z</time>
      </trkpt>
      <trkpt lat="43.93458" lon="6.63517">
        <ele>986.93</ele>
        <time>2012-08-25T15:07:53Z</time>
      </trkpt>
      <trkpt lat="43.93446" lon="6.63505">
        <ele>987.89</ele>
        <time>2012-08-25T15:07:54Z</time>
      </trkpt>
      <trkpt lat="43.93433" lon="6.63489">
        <ele>988.37</ele>
        <time>2012-08-25T15:07:55Z</time>
      </trkpt>
      <trkpt lat="43.93419" lon="6.63475">
        <ele>988.85</ele>
        <time>2012-08-25T15:07:56Z</time>
      </trkpt>
      <trkpt lat="43.93405" lon="6.63464">
        <ele>989.81</ele>
        <time>2012-08-25T15:07:57Z</time>
      </trkpt>
      <trkpt lat="43.93392" lon="6.63455">
        <ele>990.3</ele>
        <time>2012-08-25T15:07:58Z</time>
      </trkpt>
      <trkpt lat="43.93381" lon="6.63446">
        <ele>991.26</ele>
        <time>2012-08-25T15:07:59Z</time>
      </trkpt>
      <trkpt lat="43.93376" lon="6.63433">
        <ele>991.26</ele>
        <time>2012-08-25T15:08:00Z</time>
      </trkpt>
      <trkpt lat="43.93373" lon="6.63417">
        <ele>991.26</ele>
        <time>2012-08-25T15:08:01Z</time>
      </trkpt>
      <trkpt lat="43.93373" lon="6.63401">
        <ele>992.22</ele>
        <time>2012-08-25T15:08:02Z</time>
      </trkpt>
      <trkpt lat="43.93374" lon="6.63381">
        <ele>992.7</ele>
        <time>2012-08-25T15:08:03Z</time>
      </trkpt>
      <trkpt lat="43.93371" lon="6.63361">
        <ele>993.66</ele>
        <time>2012-08-25T15:08:04Z</time>
      </trkpt>
      <trkpt lat="43.93367" lon="6.63341">
        <ele>995.1</ele>
        <time>2012-08-25T15:08:05Z</time>
      </trkpt>
      <trkpt lat="43.93359" lon="6.6332">
        <ele>996.06</ele>
        <time>2012-08-25T15:08:06Z</time>
      </trkpt>
      <trkpt lat="43.93352" lon="6.63297">
        <ele>997.51</ele>
        <time>2012-08-25T15:08:07Z</time>
      </trkpt>
      <trkpt lat="43.93346" lon="6.63273">
        <ele>998.95</ele>
        <time>2012-08-25T15:08:08Z</time>
      </trkpt>
      <trkpt lat="43.9334" lon="6.63247">
        <ele>1000.39</ele>
        <time>2012-08-25T15:08:09Z</time>
      </trkpt>
      <trkpt lat="43.93296" lon="6.62986">
        <ele>1012.41</ele>
        <time>2012-08-25T15:08:18Z</time>
      </trkpt>
      <trkpt lat="43.93289" lon="6.62935">
        <ele>1014.81</ele>
        <time>2012-08-25T15:08:20Z</time>
      </trkpt>
      <trkpt lat="43.93283" lon="6.6291">
        <ele>1016.25</ele>
        <time>2012-08-25T15:08:21Z</time>
      </trkpt>
      <trkpt lat="43.93274" lon="6.62885">
        <ele>1017.21</ele>
        <time>2012-08-25T15:08:22Z</time>
      </trkpt>
      <trkpt lat="43.93199" lon="6.62674">
        <ele>1027.79</ele>
        <time>2012-08-25T15:08:30Z</time>
      </trkpt>
      <trkpt lat="43.93192" lon="6.62649">
        <ele>1029.23</ele>
        <time>2012-08-25T15:08:31Z</time>
      </trkpt>
      <trkpt lat="43.93176" lon="6.62576">
        <ele>1033.07</ele>
        <time>2012-08-25T15:08:34Z</time>
      </trkpt>
      <trkpt lat="43.93168" lon="6.62555">
        <ele>1034.52</ele>
        <time>2012-08-25T15:08:35Z</time>
      </trkpt>
      <trkpt lat="43.93157" lon="6.62536">
        <ele>1035.96</ele>
        <time>2012-08-25T15:08:36Z</time>
      </trkpt>
      <trkpt lat="43.93143" lon="6.62519">
        <ele>1037.4</ele>
        <time>2012-08-25T15:08:37Z</time>
      </trkpt>
      <trkpt lat="43.93127" lon="6.62504">
        <ele>1039.32</ele>
        <time>2012-08-25T15:08:38Z</time>
      </trkpt>
      <trkpt lat="43.93108" lon="6.62491">
        <ele>1040.76</ele>
        <time>2012-08-25T15:08:39Z</time>
      </trkpt>
      <trkpt lat="43.93089" lon="6.62481">
        <ele>1042.21</ele>
        <time>2012-08-25T15:08:40Z</time>
      </trkpt>
      <trkpt lat="43.93069" lon="6.62471">
        <ele>1044.13</ele>
        <time>2012-08-25T15:08:41Z</time>
      </trkpt>
      <trkpt lat="43.9305" lon="6.6246">
        <ele>1045.09</ele>
        <time>2012-08-25T15:08:42Z</time>
      </trkpt>
      <trkpt lat="43.93031" lon="6.62446">
        <ele>1046.53</ele>
        <time>2012-08-25T15:08:43Z</time>
      </trkpt>
      <trkpt lat="43.93013" lon="6.62428">
        <ele>1047.97</ele>
        <time>2012-08-25T15:08:44Z</time>
      </trkpt>
      <trkpt lat="43.92868" lon="6.62225">
        <ele>1058.55</ele>
        <time>2012-08-25T15:08:53Z</time>
      </trkpt>
      <trkpt lat="43.9275" lon="6.61976">
        <ele>1068.64</ele>
        <time>2012-08-25T15:09:03Z</time>
      </trkpt>
      <trkpt lat="43.92648" lon="6.6177">
        <ele>1076.81</ele>
        <time>2012-08-25T15:09:11Z</time>
      </trkpt>
      <trkpt lat="43.92628" lon="6.61758">
        <ele>1078.74</ele>
        <time>2012-08-25T15:09:12Z</time>
      </trkpt>
      <trkpt lat="43.92609" lon="6.61744">
        <ele>1078.74</ele>
        <time>2012-08-25T15:09:13Z</time>
      </trkpt>
      <trkpt lat="43.92586" lon="6.61733">
        <ele>1079.22</ele>
        <time>2012-08-25T15:09:14Z</time>
      </trkpt>
      <trkpt lat="43.92563" lon="6.61725">
        <ele>1081.14</ele>
        <time>2012-08-25T15:09:15Z</time>
      </trkpt>
      <trkpt lat="43.9254" lon="6.61716">
        <ele>1082.1</ele>
        <time>2012-08-25T15:09:16Z</time>
      </trkpt>
      <trkpt lat="43.92396" lon="6.61633">
        <ele>1090.27</ele>
        <time>2012-08-25T15:09:23Z</time>
      </trkpt>
      <trkpt lat="43.92333" lon="6.61568">
        <ele>1093.64</ele>
        <time>2012-08-25T15:09:27Z</time>
      </trkpt>
      <trkpt lat="43.92327" lon="6.61548">
        <ele>1094.6</ele>
        <time>2012-08-25T15:09:28Z</time>
      </trkpt>
      <trkpt lat="43.92328" lon="6.61529">
        <ele>1096.52</ele>
        <time>2012-08-25T15:09:29Z</time>
      </trkpt>
      <trkpt lat="43.92328" lon="6.61508">
        <ele>1097.96</ele>
        <time>2012-08-25T15:09:30Z</time>
      </trkpt>
      <trkpt lat="43.92326" lon="6.61487">
        <ele>1098.92</ele>
        <time>2012-08-25T15:09:31Z</time>
      </trkpt>
      <trkpt lat="43.92323" lon="6.61468">
        <ele>1099.4</ele>
        <time>2012-08-25T15:09:32Z</time>
      </trkpt>
      <trkpt lat="43.92318" lon="6.61454">
        <ele>1099.89</ele>
        <time>2012-08-25T15:09:33Z</time>
      </trkpt>
      <trkpt lat="43.9231" lon="6.61445">
        <ele>1100.85</ele>
        <time>2012-08-25T15:09:34Z</time>
      </trkpt>
      <trkpt lat="43.92299" lon="6.61438">
        <ele>1100.85</ele>
        <time>2012-08-25T15:09:35Z</time>
      </trkpt>
      <trkpt lat="43.92288" lon="6.61434">
        <ele>1101.81</ele>
        <time>2012-08-25T15:09:36Z</time>
      </trkpt>
      <trkpt lat="43.92274" lon="6.61433">
        <ele>1102.29</ele>
        <time>2012-08-25T15:09:37Z</time>
      </trkpt>
      <trkpt lat="43.92259" lon="6.61432">
        <ele>1103.25</ele>
        <time>2012-08-25T15:09:38Z</time>
      </trkpt>
      <trkpt lat="43.92241" lon="6.61427">
        <ele>1103.73</ele>
        <time>2012-08-25T15:09:39Z</time>
      </trkpt>
      <trkpt lat="43.92193" lon="6.61403">
        <ele>1106.61</ele>
        <time>2012-08-25T15:09:42Z</time>
      </trkpt>
      <trkpt lat="43.9218" lon="6.6139">
        <ele>1107.58</ele>
        <time>2012-08-25T15:09:43Z</time>
      </trkpt>
      <trkpt lat="43.92168" lon="6.61378">
        <ele>1108.54</ele>
        <time>2012-08-25T15:09:44Z</time>
      </trkpt>
      <trkpt lat="43.92154" lon="6.61372">
        <ele>1109.02</ele>
        <time>2012-08-25T15:09:45Z</time>
      </trkpt>
      <trkpt lat="43.92138" lon="6.6137">
        <ele>1109.5</ele>
        <time>2012-08-25T15:09:46Z</time>
      </trkpt>
      <trkpt lat="43.92122" lon="6.61372">
        <ele>1109.5</ele>
        <time>2012-08-25T15:09:47Z</time>
      </trkpt>
      <trkpt lat="43.92105" lon="6.61379">
        <ele>1109.98</ele>
        <time>2012-08-25T15:09:48Z</time>
      </trkpt>
      <trkpt lat="43.92088" lon="6.61387">
        <ele>1110.94</ele>
        <time>2012-08-25T15:09:49Z</time>
      </trkpt>
      <trkpt lat="43.92071" lon="6.61396">
        <ele>1111.9</ele>
        <time>2012-08-25T15:09:50Z</time>
      </trkpt>
      <trkpt lat="43.92053" lon="6.61401">
        <ele>1112.86</ele>
        <time>2012-08-25T15:09:51Z</time>
      </trkpt>
      <trkpt lat="43.92035" lon="6.61403">
        <ele>1113.82</ele>
        <time>2012-08-25T15:09:52Z</time>
      </trkpt>
      <trkpt lat="43.92017" lon="6.61403">
        <ele>1115.27</ele>
        <time>2012-08-25T15:09:53Z</time>
      </trkpt>
      <trkpt lat="43.91955" lon="6.61393">
        <ele>1118.63</ele>
        <time>2012-08-25T15:09:57Z</time>
      </trkpt>
      <trkpt lat="43.91944" lon="6.61383">
        <ele>1119.11</ele>
        <time>2012-08-25T15:09:58Z</time>
      </trkpt>
      <trkpt lat="43.91932" lon="6.61371">
        <ele>1120.07</ele>
        <time>2012-08-25T15:09:59Z</time>
      </trkpt>
      <trkpt lat="43.91921" lon="6.61356">
        <ele>1120.55</ele>
        <time>2012-08-25T15:10:00Z</time>
      </trkpt>
      <trkpt lat="43.9191" lon="6.61338">
        <ele>1120.55</ele>
        <time>2012-08-25T15:10:01Z</time>
      </trkpt>
      <trkpt lat="43.91827" lon="6.6118">
        <ele>1112.86</ele>
        <time>2012-08-25T15:10:09Z</time>
      </trkpt>
      <trkpt lat="43.91775" lon="6.6109">
        <ele>1109.02</ele>
        <time>2012-08-25T15:10:14Z</time>
      </trkpt>
      <trkpt lat="43.91767" lon="6.61071">
        <ele>1108.54</ele>
        <time>2012-08-25T15:10:15Z</time>
      </trkpt>
      <trkpt lat="43.91762" lon="6.61051">
        <ele>1108.06</ele>
        <time>2012-08-25T15:10:16Z</time>
      </trkpt>
      <trkpt lat="43.91745" lon="6.60972">
        <ele>1103.25</ele>
        <time>2012-08-25T15:10:20Z</time>
      </trkpt>
      <trkpt lat="43.91737" lon="6.60955">
        <ele>1102.29</ele>
        <time>2012-08-25T15:10:21Z</time>
      </trkpt>
      <trkpt lat="43.91725" lon="6.60941">
        <ele>1101.33</ele>
        <time>2012-08-25T15:10:22Z</time>
      </trkpt>
      <trkpt lat="43.9171" lon="6.60929">
        <ele>1100.37</ele>
        <time>2012-08-25T15:10:23Z</time>
      </trkpt>
      <trkpt lat="43.91695" lon="6.60919">
        <ele>1099.4</ele>
        <time>2012-08-25T15:10:24Z</time>
      </trkpt>
      <trkpt lat="43.91666" lon="6.60893">
        <ele>1097.96</ele>
        <time>2012-08-25T15:10:26Z</time>
      </trkpt>
      <trkpt lat="43.91653" lon="6.60877">
        <ele>1097</ele>
        <time>2012-08-25T15:10:27Z</time>
      </trkpt>
      <trkpt lat="43.9164" lon="6.60858">
        <ele>1096.04</ele>
        <time>2012-08-25T15:10:28Z</time>
      </trkpt>
      <trkpt lat="43.91628" lon="6.60835">
        <ele>1095.08</ele>
        <time>2012-08-25T15:10:29Z</time>
      </trkpt>
      <trkpt lat="43.91615" lon="6.60809">
        <ele>1094.12</ele>
        <time>2012-08-25T15:10:30Z</time>
      </trkpt>
      <trkpt lat="43.91557" lon="6.60691">
        <ele>1088.83</ele>
        <time>2012-08-25T15:10:35Z</time>
      </trkpt>
      <trkpt lat="43.91542" lon="6.60679">
        <ele>1087.87</ele>
        <time>2012-08-25T15:10:36Z</time>
      </trkpt>
      <trkpt lat="43.91526" lon="6.60672">
        <ele>1085.95</ele>
        <time>2012-08-25T15:10:37Z</time>
      </trkpt>
      <trkpt lat="43.91507" lon="6.60673">
        <ele>1085.47</ele>
        <time>2012-08-25T15:10:38Z</time>
      </trkpt>
      <trkpt lat="43.91488" lon="6.60674">
        <ele>1084.5</ele>
        <time>2012-08-25T15:10:39Z</time>
      </trkpt>
      <trkpt lat="43.91466" lon="6.60678">
        <ele>1083.54</ele>
        <time>2012-08-25T15:10:40Z</time>
      </trkpt>
      <trkpt lat="43.91446" lon="6.6068">
        <ele>1083.54</ele>
        <time>2012-08-25T15:10:41Z</time>
      </trkpt>
      <trkpt lat="43.91407" lon="6.60679">
        <ele>1081.62</ele>
        <time>2012-08-25T15:10:43Z</time>
      </trkpt>
      <trkpt lat="43.91389" lon="6.60673">
        <ele>1081.14</ele>
        <time>2012-08-25T15:10:44Z</time>
      </trkpt>
      <trkpt lat="43.91371" lon="6.60664">
        <ele>1080.18</ele>
        <time>2012-08-25T15:10:45Z</time>
      </trkpt>
      <trkpt lat="43.91353" lon="6.60652">
        <ele>1079.7</ele>
        <time>2012-08-25T15:10:46Z</time>
      </trkpt>
      <trkpt lat="43.91335" lon="6.60639">
        <ele>1079.22</ele>
        <time>2012-08-25T15:10:47Z</time>
      </trkpt>
      <trkpt lat="43.91287" lon="6.60593">
        <ele>1077.29</ele>
        <time>2012-08-25T15:10:50Z</time>
      </trkpt>
      <trkpt lat="43.91274" lon="6.60574">
        <ele>1076.81</ele>
        <time>2012-08-25T15:10:51Z</time>
      </trkpt>
      <trkpt lat="43.91263" lon="6.60555">
        <ele>1076.81</ele>
        <time>2012-08-25T15:10:52Z</time>
      </trkpt>
      <trkpt lat="43.91253" lon="6.60536">
        <ele>1076.33</ele>
        <time>2012-08-25T15:10:53Z</time>
      </trkpt>
      <trkpt lat="43.91247" lon="6.6051">
        <ele>1076.33</ele>
        <time>2012-08-25T15:10:54Z</time>
      </trkpt>
      <trkpt lat="43.91244" lon="6.60483">
        <ele>1075.37</ele>
        <time>2012-08-25T15:10:55Z</time>
      </trkpt>
      <trkpt lat="43.91243" lon="6.60456">
        <ele>1075.37</ele>
        <time>2012-08-25T15:10:56Z</time>
      </trkpt>
      <trkpt lat="43.91242" lon="6.60427">
        <ele>1074.89</ele>
        <time>2012-08-25T15:10:57Z</time>
      </trkpt>
      <trkpt lat="43.91232" lon="6.60192">
        <ele>1072.01</ele>
        <time>2012-08-25T15:11:05Z</time>
      </trkpt>
      <trkpt lat="43.91236" lon="6.60162">
        <ele>1072.01</ele>
        <time>2012-08-25T15:11:06Z</time>
      </trkpt>
      <trkpt lat="43.91241" lon="6.60133">
        <ele>1071.53</ele>
        <time>2012-08-25T15:11:07Z</time>
      </trkpt>
      <trkpt lat="43.91302" lon="6.59939">
        <ele>1069.12</ele>
        <time>2012-08-25T15:11:14Z</time>
      </trkpt>
      <trkpt lat="43.91309" lon="6.59912">
        <ele>1068.64</ele>
        <time>2012-08-25T15:11:15Z</time>
      </trkpt>
      <trkpt lat="43.91312" lon="6.59886">
        <ele>1068.16</ele>
        <time>2012-08-25T15:11:16Z</time>
      </trkpt>
      <trkpt lat="43.91312" lon="6.59859">
        <ele>1067.68</ele>
        <time>2012-08-25T15:11:17Z</time>
      </trkpt>
      <trkpt lat="43.91308" lon="6.59831">
        <ele>1067.2</ele>
        <time>2012-08-25T15:11:18Z</time>
      </trkpt>
      <trkpt lat="43.91305" lon="6.59803">
        <ele>1066.72</ele>
        <time>2012-08-25T15:11:19Z</time>
      </trkpt>
      <trkpt lat="43.91292" lon="6.59726">
        <ele>1065.28</ele>
        <time>2012-08-25T15:11:22Z</time>
      </trkpt>
      <trkpt lat="43.91282" lon="6.59705">
        <ele>1064.8</ele>
        <time>2012-08-25T15:11:23Z</time>
      </trkpt>
      <trkpt lat="43.91272" lon="6.59685">
        <ele>1064.32</ele>
        <time>2012-08-25T15:11:24Z</time>
      </trkpt>
      <trkpt lat="43.91263" lon="6.59666">
        <ele>1064.32</ele>
        <time>2012-08-25T15:11:25Z</time>
      </trkpt>
      <trkpt lat="43.91256" lon="6.59647">
        <ele>1063.84</ele>
        <time>2012-08-25T15:11:26Z</time>
      </trkpt>
      <trkpt lat="43.9125" lon="6.59629">
        <ele>1063.36</ele>
        <time>2012-08-25T15:11:27Z</time>
      </trkpt>
      <trkpt lat="43.91247" lon="6.59611">
        <ele>1062.87</ele>
        <time>2012-08-25T15:11:28Z</time>
      </trkpt>
      <trkpt lat="43.91246" lon="6.59593">
        <ele>1062.39</ele>
        <time>2012-08-25T15:11:29Z</time>
      </trkpt>
      <trkpt lat="43.91247" lon="6.59574">
        <ele>1062.39</ele>
        <time>2012-08-25T15:11:30Z</time>
      </trkpt>
      <trkpt lat="43.91248" lon="6.59551">
        <ele>1061.43</ele>
        <time>2012-08-25T15:11:31Z</time>
      </trkpt>
      <trkpt lat="43.91249" lon="6.59402">
        <ele>1058.07</ele>
        <time>2012-08-25T15:11:36Z</time>
      </trkpt>
      <trkpt lat="43.91259" lon="6.59316">
        <ele>1055.67</ele>
        <time>2012-08-25T15:11:39Z</time>
      </trkpt>
      <trkpt lat="43.91266" lon="6.5929">
        <ele>1055.18</ele>
        <time>2012-08-25T15:11:40Z</time>
      </trkpt>
      <trkpt lat="43.91285" lon="6.59219">
        <ele>1052.78</ele>
        <time>2012-08-25T15:11:43Z</time>
      </trkpt>
      <trkpt lat="43.91286" lon="6.59198">
        <ele>1051.82</ele>
        <time>2012-08-25T15:11:44Z</time>
      </trkpt>
      <trkpt lat="43.91284" lon="6.59177">
        <ele>1050.86</ele>
        <time>2012-08-25T15:11:45Z</time>
      </trkpt>
      <trkpt lat="43.91279" lon="6.59155">
        <ele>1049.9</ele>
        <time>2012-08-25T15:11:46Z</time>
      </trkpt>
      <trkpt lat="43.91276" lon="6.59134">
        <ele>1048.94</ele>
        <time>2012-08-25T15:11:47Z</time>
      </trkpt>
      <trkpt lat="43.91276" lon="6.59114">
        <ele>1047.49</ele>
        <time>2012-08-25T15:11:48Z</time>
      </trkpt>
      <trkpt lat="43.91279" lon="6.59094">
        <ele>1046.53</ele>
        <time>2012-08-25T15:11:49Z</time>
      </trkpt>
      <trkpt lat="43.91284" lon="6.59076">
        <ele>1046.05</ele>
        <time>2012-08-25T15:11:50Z</time>
      </trkpt>
      <trkpt lat="43.91291" lon="6.59059">
        <ele>1045.09</ele>
        <time>2012-08-25T15:11:51Z</time>
      </trkpt>
      <trkpt lat="43.91297" lon="6.59042">
        <ele>1044.61</ele>
        <time>2012-08-25T15:11:52Z</time>
      </trkpt>
      <trkpt lat="43.91303" lon="6.59025">
        <ele>1043.65</ele>
        <time>2012-08-25T15:11:53Z</time>
      </trkpt>
      <trkpt lat="43.91307" lon="6.59007">
        <ele>1042.69</ele>
        <time>2012-08-25T15:11:54Z</time>
      </trkpt>
      <trkpt lat="43.9133" lon="6.58921">
        <ele>1039.32</ele>
        <time>2012-08-25T15:11:59Z</time>
      </trkpt>
      <trkpt lat="43.91336" lon="6.58906">
        <ele>1038.36</ele>
        <time>2012-08-25T15:12:00Z</time>
      </trkpt>
      <trkpt lat="43.91387" lon="6.58796">
        <ele>1033.55</ele>
        <time>2012-08-25T15:12:07Z</time>
      </trkpt>
      <trkpt lat="43.91391" lon="6.5878">
        <ele>1033.07</ele>
        <time>2012-08-25T15:12:08Z</time>
      </trkpt>
      <trkpt lat="43.91393" lon="6.58763">
        <ele>1032.59</ele>
        <time>2012-08-25T15:12:09Z</time>
      </trkpt>
      <trkpt lat="43.91392" lon="6.58747">
        <ele>1032.11</ele>
        <time>2012-08-25T15:12:10Z</time>
      </trkpt>
      <trkpt lat="43.91388" lon="6.58731">
        <ele>1031.15</ele>
        <time>2012-08-25T15:12:11Z</time>
      </trkpt>
      <trkpt lat="43.91383" lon="6.58717">
        <ele>1030.67</ele>
        <time>2012-08-25T15:12:12Z</time>
      </trkpt>
      <trkpt lat="43.91377" lon="6.58702">
        <ele>1030.67</ele>
        <time>2012-08-25T15:12:13Z</time>
      </trkpt>
      <trkpt lat="43.91372" lon="6.58687">
        <ele>1030.19</ele>
        <time>2012-08-25T15:12:14Z</time>
      </trkpt>
      <trkpt lat="43.9137" lon="6.58671">
        <ele>1029.71</ele>
        <time>2012-08-25T15:12:15Z</time>
      </trkpt>
      <trkpt lat="43.91368" lon="6.58654">
        <ele>1029.23</ele>
        <time>2012-08-25T15:12:16Z</time>
      </trkpt>
      <trkpt lat="43.91368" lon="6.58637">
        <ele>1029.23</ele>
        <time>2012-08-25T15:12:17Z</time>
      </trkpt>
      <trkpt lat="43.91371" lon="6.58453">
        <ele>1026.83</ele>
        <time>2012-08-25T15:12:27Z</time>
      </trkpt>
      <trkpt lat="43.91411" lon="6.58336">
        <ele>1027.31</ele>
        <time>2012-08-25T15:12:33Z</time>
      </trkpt>
      <trkpt lat="43.91438" lon="6.58266">
        <ele>1026.83</ele>
        <time>2012-08-25T15:12:36Z</time>
      </trkpt>
      <trkpt lat="43.91445" lon="6.58241">
        <ele>1027.31</ele>
        <time>2012-08-25T15:12:37Z</time>
      </trkpt>
      <trkpt lat="43.91448" lon="6.58213">
        <ele>1027.31</ele>
        <time>2012-08-25T15:12:38Z</time>
      </trkpt>
      <trkpt lat="43.91449" lon="6.58185">
        <ele>1027.31</ele>
        <time>2012-08-25T15:12:39Z</time>
      </trkpt>
      <trkpt lat="43.91447" lon="6.58156">
        <ele>1027.31</ele>
        <time>2012-08-25T15:12:40Z</time>
      </trkpt>
      <trkpt lat="43.91444" lon="6.58126">
        <ele>1027.31</ele>
        <time>2012-08-25T15:12:41Z</time>
      </trkpt>
      <trkpt lat="43.91442" lon="6.57954">
        <ele>1025.38</ele>
        <time>2012-08-25T15:12:47Z</time>
      </trkpt>
      <trkpt lat="43.91437" lon="6.57927">
        <ele>1025.38</ele>
        <time>2012-08-25T15:12:48Z</time>
      </trkpt>
      <trkpt lat="43.91431" lon="6.57901">
        <ele>1024.42</ele>
        <time>2012-08-25T15:12:49Z</time>
      </trkpt>
      <trkpt lat="43.91392" lon="6.5778">
        <ele>1022.02</ele>
        <time>2012-08-25T15:12:54Z</time>
      </trkpt>
      <trkpt lat="43.91387" lon="6.57755">
        <ele>1021.06</ele>
        <time>2012-08-25T15:12:55Z</time>
      </trkpt>
      <trkpt lat="43.91384" lon="6.57729">
        <ele>1020.58</ele>
        <time>2012-08-25T15:12:56Z</time>
      </trkpt>
      <trkpt lat="43.91383" lon="6.57701">
        <ele>1020.1</ele>
        <time>2012-08-25T15:12:57Z</time>
      </trkpt>
      <trkpt lat="43.91383" lon="6.57673">
        <ele>1019.62</ele>
        <time>2012-08-25T15:12:58Z</time>
      </trkpt>
      <trkpt lat="43.91389" lon="6.57461">
        <ele>1015.77</ele>
        <time>2012-08-25T15:13:05Z</time>
      </trkpt>
      <trkpt lat="43.91386" lon="6.57162">
        <ele>1010</ele>
        <time>2012-08-25T15:13:14Z</time>
      </trkpt>
      <trkpt lat="43.91378" lon="6.5711">
        <ele>1008.56</ele>
        <time>2012-08-25T15:13:16Z</time>
      </trkpt>
      <trkpt lat="43.91369" lon="6.57066">
        <ele>1007.6</ele>
        <time>2012-08-25T15:13:18Z</time>
      </trkpt>
      <trkpt lat="43.91368" lon="6.57044">
        <ele>1007.12</ele>
        <time>2012-08-25T15:13:19Z</time>
      </trkpt>
      <trkpt lat="43.91371" lon="6.57023">
        <ele>1006.64</ele>
        <time>2012-08-25T15:13:20Z</time>
      </trkpt>
      <trkpt lat="43.91378" lon="6.57002">
        <ele>1006.64</ele>
        <time>2012-08-25T15:13:21Z</time>
      </trkpt>
      <trkpt lat="43.91386" lon="6.56981">
        <ele>1006.16</ele>
        <time>2012-08-25T15:13:22Z</time>
      </trkpt>
      <trkpt lat="43.91425" lon="6.56839">
        <ele>1002.31</ele>
        <time>2012-08-25T15:13:28Z</time>
      </trkpt>
      <trkpt lat="43.91435" lon="6.56817">
        <ele>1001.83</ele>
        <time>2012-08-25T15:13:29Z</time>
      </trkpt>
      <trkpt lat="43.91457" lon="6.56772">
        <ele>1000.87</ele>
        <time>2012-08-25T15:13:31Z</time>
      </trkpt>
      <trkpt lat="43.91466" lon="6.56748">
        <ele>1000.39</ele>
        <time>2012-08-25T15:13:32Z</time>
      </trkpt>
      <trkpt lat="43.91474" lon="6.56721">
        <ele>999.91</ele>
        <time>2012-08-25T15:13:33Z</time>
      </trkpt>
      <trkpt lat="43.91506" lon="6.56515">
        <ele>995.1</ele>
        <time>2012-08-25T15:13:40Z</time>
      </trkpt>
      <trkpt lat="43.91511" lon="6.56429">
        <ele>993.66</ele>
        <time>2012-08-25T15:13:43Z</time>
      </trkpt>
      <trkpt lat="43.91509" lon="6.56399">
        <ele>993.18</ele>
        <time>2012-08-25T15:13:44Z</time>
      </trkpt>
      <trkpt lat="43.91493" lon="6.56262">
        <ele>991.26</ele>
        <time>2012-08-25T15:13:49Z</time>
      </trkpt>
      <trkpt lat="43.91488" lon="6.56238">
        <ele>991.26</ele>
        <time>2012-08-25T15:13:50Z</time>
      </trkpt>
      <trkpt lat="43.91478" lon="6.56218">
        <ele>990.3</ele>
        <time>2012-08-25T15:13:51Z</time>
      </trkpt>
      <trkpt lat="43.91468" lon="6.56199">
        <ele>989.81</ele>
        <time>2012-08-25T15:13:52Z</time>
      </trkpt>
      <trkpt lat="43.91458" lon="6.5618">
        <ele>988.85</ele>
        <time>2012-08-25T15:13:53Z</time>
      </trkpt>
      <trkpt lat="43.91451" lon="6.56159">
        <ele>988.37</ele>
        <time>2012-08-25T15:13:54Z</time>
      </trkpt>
      <trkpt lat="43.91447" lon="6.56134">
        <ele>986.93</ele>
        <time>2012-08-25T15:13:55Z</time>
      </trkpt>
      <trkpt lat="43.91446" lon="6.5611">
        <ele>985.97</ele>
        <time>2012-08-25T15:13:56Z</time>
      </trkpt>
      <trkpt lat="43.91447" lon="6.56086">
        <ele>985.01</ele>
        <time>2012-08-25T15:13:57Z</time>
      </trkpt>
      <trkpt lat="43.91453" lon="6.5606">
        <ele>984.05</ele>
        <time>2012-08-25T15:13:58Z</time>
      </trkpt>
      <trkpt lat="43.91461" lon="6.56036">
        <ele>984.05</ele>
        <time>2012-08-25T15:13:59Z</time>
      </trkpt>
      <trkpt lat="43.91471" lon="6.56014">
        <ele>983.57</ele>
        <time>2012-08-25T15:14:00Z</time>
      </trkpt>
      <trkpt lat="43.91479" lon="6.55991">
        <ele>983.09</ele>
        <time>2012-08-25T15:14:01Z</time>
      </trkpt>
      <trkpt lat="43.91485" lon="6.55968">
        <ele>982.6</ele>
        <time>2012-08-25T15:14:02Z</time>
      </trkpt>
      <trkpt lat="43.91489" lon="6.55944">
        <ele>982.12</ele>
        <time>2012-08-25T15:14:03Z</time>
      </trkpt>
      <trkpt lat="43.91491" lon="6.55919">
        <ele>982.12</ele>
        <time>2012-08-25T15:14:04Z</time>
      </trkpt>
      <trkpt lat="43.91491" lon="6.55894">
        <ele>981.16</ele>
        <time>2012-08-25T15:14:05Z</time>
      </trkpt>
      <trkpt lat="43.91488" lon="6.55869">
        <ele>980.68</ele>
        <time>2012-08-25T15:14:06Z</time>
      </trkpt>
      <trkpt lat="43.91485" lon="6.55845">
        <ele>980.2</ele>
        <time>2012-08-25T15:14:07Z</time>
      </trkpt>
      <trkpt lat="43.91479" lon="6.55823">
        <ele>979.72</ele>
        <time>2012-08-25T15:14:08Z</time>
      </trkpt>
      <trkpt lat="43.91473" lon="6.55803">
        <ele>978.76</ele>
        <time>2012-08-25T15:14:09Z</time>
      </trkpt>
      <trkpt lat="43.91463" lon="6.55784">
        <ele>977.32</ele>
        <time>2012-08-25T15:14:10Z</time>
      </trkpt>
      <trkpt lat="43.91451" lon="6.55768">
        <ele>976.84</ele>
        <time>2012-08-25T15:14:11Z</time>
      </trkpt>
      <trkpt lat="43.91436" lon="6.55754">
        <ele>975.39</ele>
        <time>2012-08-25T15:14:12Z</time>
      </trkpt>
      <trkpt lat="43.91418" lon="6.55742">
        <ele>974.43</ele>
        <time>2012-08-25T15:14:13Z</time>
      </trkpt>
      <trkpt lat="43.91381" lon="6.55694">
        <ele>973.95</ele>
        <time>2012-08-25T15:14:16Z</time>
      </trkpt>
      <trkpt lat="43.91376" lon="6.55672">
        <ele>972.99</ele>
        <time>2012-08-25T15:14:17Z</time>
      </trkpt>
      <trkpt lat="43.91377" lon="6.55646">
        <ele>972.99</ele>
        <time>2012-08-25T15:14:18Z</time>
      </trkpt>
      <trkpt lat="43.91381" lon="6.55621">
        <ele>971.55</ele>
        <time>2012-08-25T15:14:19Z</time>
      </trkpt>
      <trkpt lat="43.91389" lon="6.55598">
        <ele>971.55</ele>
        <time>2012-08-25T15:14:20Z</time>
      </trkpt>
      <trkpt lat="43.91397" lon="6.55575">
        <ele>969.63</ele>
        <time>2012-08-25T15:14:21Z</time>
      </trkpt>
      <trkpt lat="43.91404" lon="6.55551">
        <ele>969.15</ele>
        <time>2012-08-25T15:14:22Z</time>
      </trkpt>
      <trkpt lat="43.91408" lon="6.55527">
        <ele>968.67</ele>
        <time>2012-08-25T15:14:23Z</time>
      </trkpt>
      <trkpt lat="43.91411" lon="6.55501">
        <ele>967.7</ele>
        <time>2012-08-25T15:14:24Z</time>
      </trkpt>
      <trkpt lat="43.91411" lon="6.55474">
        <ele>966.74</ele>
        <time>2012-08-25T15:14:25Z</time>
      </trkpt>
      <trkpt lat="43.91396" lon="6.55226">
        <ele>959.53</ele>
        <time>2012-08-25T15:14:34Z</time>
      </trkpt>
      <trkpt lat="43.91397" lon="6.5512">
        <ele>956.17</ele>
        <time>2012-08-25T15:14:38Z</time>
      </trkpt>
      <trkpt lat="43.91393" lon="6.55094">
        <ele>954.73</ele>
        <time>2012-08-25T15:14:39Z</time>
      </trkpt>
      <trkpt lat="43.91387" lon="6.5507">
        <ele>953.77</ele>
        <time>2012-08-25T15:14:40Z</time>
      </trkpt>
      <trkpt lat="43.91378" lon="6.55047">
        <ele>952.8</ele>
        <time>2012-08-25T15:14:41Z</time>
      </trkpt>
      <trkpt lat="43.91369" lon="6.55026">
        <ele>952.32</ele>
        <time>2012-08-25T15:14:42Z</time>
      </trkpt>
      <trkpt lat="43.91358" lon="6.55007">
        <ele>951.36</ele>
        <time>2012-08-25T15:14:43Z</time>
      </trkpt>
      <trkpt lat="43.91348" lon="6.5499">
        <ele>950.4</ele>
        <time>2012-08-25T15:14:44Z</time>
      </trkpt>
      <trkpt lat="43.91339" lon="6.54974">
        <ele>949.44</ele>
        <time>2012-08-25T15:14:45Z</time>
      </trkpt>
      <trkpt lat="43.91332" lon="6.54959">
        <ele>948.48</ele>
        <time>2012-08-25T15:14:46Z</time>
      </trkpt>
      <trkpt lat="43.9133" lon="6.5494">
        <ele>947.52</ele>
        <time>2012-08-25T15:14:47Z</time>
      </trkpt>
      <trkpt lat="43.91331" lon="6.54919">
        <ele>947.04</ele>
        <time>2012-08-25T15:14:48Z</time>
      </trkpt>
      <trkpt lat="43.91332" lon="6.54897">
        <ele>946.07</ele>
        <time>2012-08-25T15:14:49Z</time>
      </trkpt>
      <trkpt lat="43.91335" lon="6.54874">
        <ele>945.11</ele>
        <time>2012-08-25T15:14:50Z</time>
      </trkpt>
      <trkpt lat="43.9134" lon="6.54851">
        <ele>944.15</ele>
        <time>2012-08-25T15:14:51Z</time>
      </trkpt>
      <trkpt lat="43.91346" lon="6.54828">
        <ele>943.19</ele>
        <time>2012-08-25T15:14:52Z</time>
      </trkpt>
      <trkpt lat="43.91354" lon="6.5478">
        <ele>941.75</ele>
        <time>2012-08-25T15:14:54Z</time>
      </trkpt>
      <trkpt lat="43.91355" lon="6.54757">
        <ele>940.79</ele>
        <time>2012-08-25T15:14:55Z</time>
      </trkpt>
      <trkpt lat="43.91353" lon="6.54735">
        <ele>939.83</ele>
        <time>2012-08-25T15:14:56Z</time>
      </trkpt>
      <trkpt lat="43.91352" lon="6.54714">
        <ele>938.86</ele>
        <time>2012-08-25T15:14:57Z</time>
      </trkpt>
      <trkpt lat="43.91355" lon="6.54693">
        <ele>937.42</ele>
        <time>2012-08-25T15:14:58Z</time>
      </trkpt>
      <trkpt lat="43.9136" lon="6.5467">
        <ele>936.94</ele>
        <time>2012-08-25T15:14:59Z</time>
      </trkpt>
      <trkpt lat="43.91366" lon="6.54647">
        <ele>935.98</ele>
        <time>2012-08-25T15:15:00Z</time>
      </trkpt>
      <trkpt lat="43.91402" lon="6.5449">
        <ele>930.21</ele>
        <time>2012-08-25T15:15:07Z</time>
      </trkpt>
      <trkpt lat="43.91408" lon="6.54473">
        <ele>929.73</ele>
        <time>2012-08-25T15:15:08Z</time>
      </trkpt>
      <trkpt lat="43.91417" lon="6.54456">
        <ele>929.25</ele>
        <time>2012-08-25T15:15:09Z</time>
      </trkpt>
      <trkpt lat="43.91426" lon="6.54441">
        <ele>928.29</ele>
        <time>2012-08-25T15:15:10Z</time>
      </trkpt>
      <trkpt lat="43.91437" lon="6.54425">
        <ele>927.81</ele>
        <time>2012-08-25T15:15:11Z</time>
      </trkpt>
      <trkpt lat="43.9149" lon="6.54336">
        <ele>923.96</ele>
        <time>2012-08-25T15:15:16Z</time>
      </trkpt>
      <trkpt lat="43.91497" lon="6.54316">
        <ele>923</ele>
        <time>2012-08-25T15:15:17Z</time>
      </trkpt>
      <trkpt lat="43.91503" lon="6.54293">
        <ele>922.52</ele>
        <time>2012-08-25T15:15:18Z</time>
      </trkpt>
      <trkpt lat="43.91514" lon="6.5425">
        <ele>921.56</ele>
        <time>2012-08-25T15:15:20Z</time>
      </trkpt>
      <trkpt lat="43.91514" lon="6.5425">
        <ele>921.56</ele>
        <time>2012-08-25T15:15:20Z</time>
      </trkpt>
      <trkpt lat="43.91521" lon="6.5423">
        <ele>921.56</ele>
        <time>2012-08-25T15:15:21Z</time>
      </trkpt>
      <trkpt lat="43.9153" lon="6.54211">
        <ele>921.08</ele>
        <time>2012-08-25T15:15:22Z</time>
      </trkpt>
      <trkpt lat="43.91539" lon="6.54193">
        <ele>921.08</ele>
        <time>2012-08-25T15:15:23Z</time>
      </trkpt>
      <trkpt lat="43.91548" lon="6.54175">
        <ele>921.56</ele>
        <time>2012-08-25T15:15:24Z</time>
      </trkpt>
      <trkpt lat="43.91559" lon="6.54159">
        <ele>921.56</ele>
        <time>2012-08-25T15:15:25Z</time>
      </trkpt>
      <trkpt lat="43.91594" lon="6.54118">
        <ele>923</ele>
        <time>2012-08-25T15:15:28Z</time>
      </trkpt>
      <trkpt lat="43.91607" lon="6.54107">
        <ele>923</ele>
        <time>2012-08-25T15:15:29Z</time>
      </trkpt>
      <trkpt lat="43.91622" lon="6.54097">
        <ele>923</ele>
        <time>2012-08-25T15:15:30Z</time>
      </trkpt>
      <trkpt lat="43.91789" lon="6.53994">
        <ele>922.52</ele>
        <time>2012-08-25T15:15:41Z</time>
      </trkpt>
      <trkpt lat="43.91911" lon="6.53931">
        <ele>921.08</ele>
        <time>2012-08-25T15:15:49Z</time>
      </trkpt>
      <trkpt lat="43.91919" lon="6.53919">
        <ele>921.08</ele>
        <time>2012-08-25T15:15:50Z</time>
      </trkpt>
      <trkpt lat="43.91925" lon="6.53905">
        <ele>920.6</ele>
        <time>2012-08-25T15:15:51Z</time>
      </trkpt>
      <trkpt lat="43.91928" lon="6.53889">
        <ele>920.6</ele>
        <time>2012-08-25T15:15:52Z</time>
      </trkpt>
      <trkpt lat="43.91927" lon="6.53872">
        <ele>920.12</ele>
        <time>2012-08-25T15:15:53Z</time>
      </trkpt>
      <trkpt lat="43.91922" lon="6.53856">
        <ele>920.6</ele>
        <time>2012-08-25T15:15:54Z</time>
      </trkpt>
      <trkpt lat="43.91916" lon="6.53839">
        <ele>920.6</ele>
        <time>2012-08-25T15:15:55Z</time>
      </trkpt>
      <trkpt lat="43.9191" lon="6.53822">
        <ele>920.12</ele>
        <time>2012-08-25T15:15:56Z</time>
      </trkpt>
      <trkpt lat="43.91906" lon="6.53803">
        <ele>920.12</ele>
        <time>2012-08-25T15:15:57Z</time>
      </trkpt>
      <trkpt lat="43.91903" lon="6.53783">
        <ele>920.12</ele>
        <time>2012-08-25T15:15:58Z</time>
      </trkpt>
      <trkpt lat="43.919" lon="6.53761">
        <ele>920.12</ele>
        <time>2012-08-25T15:15:59Z</time>
      </trkpt>
      <trkpt lat="43.91897" lon="6.53682">
        <ele>919.64</ele>
        <time>2012-08-25T15:16:03Z</time>
      </trkpt>
      <trkpt lat="43.91899" lon="6.53665">
        <ele>919.16</ele>
        <time>2012-08-25T15:16:04Z</time>
      </trkpt>
      <trkpt lat="43.91904" lon="6.53649">
        <ele>919.16</ele>
        <time>2012-08-25T15:16:05Z</time>
      </trkpt>
      <trkpt lat="43.91911" lon="6.53635">
        <ele>918.68</ele>
        <time>2012-08-25T15:16:06Z</time>
      </trkpt>
      <trkpt lat="43.9192" lon="6.53624">
        <ele>918.2</ele>
        <time>2012-08-25T15:16:07Z</time>
      </trkpt>
      <trkpt lat="43.9193" lon="6.53615">
        <ele>918.2</ele>
        <time>2012-08-25T15:16:08Z</time>
      </trkpt>
      <trkpt lat="43.91941" lon="6.5361">
        <ele>918.2</ele>
        <time>2012-08-25T15:16:09Z</time>
      </trkpt>
      <trkpt lat="43.91953" lon="6.53608">
        <ele>917.72</ele>
        <time>2012-08-25T15:16:10Z</time>
      </trkpt>
      <trkpt lat="43.91965" lon="6.53605">
        <ele>917.24</ele>
        <time>2012-08-25T15:16:11Z</time>
      </trkpt>
      <trkpt lat="43.91977" lon="6.53599">
        <ele>916.75</ele>
        <time>2012-08-25T15:16:12Z</time>
      </trkpt>
      <trkpt lat="43.91988" lon="6.5359">
        <ele>916.27</ele>
        <time>2012-08-25T15:16:13Z</time>
      </trkpt>
      <trkpt lat="43.91997" lon="6.53577">
        <ele>915.79</ele>
        <time>2012-08-25T15:16:14Z</time>
      </trkpt>
      <trkpt lat="43.92005" lon="6.53562">
        <ele>915.31</ele>
        <time>2012-08-25T15:16:15Z</time>
      </trkpt>
      <trkpt lat="43.92013" lon="6.53548">
        <ele>914.83</ele>
        <time>2012-08-25T15:16:16Z</time>
      </trkpt>
      <trkpt lat="43.92021" lon="6.53535">
        <ele>914.35</ele>
        <time>2012-08-25T15:16:17Z</time>
      </trkpt>
      <trkpt lat="43.9203" lon="6.53525">
        <ele>913.87</ele>
        <time>2012-08-25T15:16:18Z</time>
      </trkpt>
      <trkpt lat="43.92041" lon="6.53519">
        <ele>913.39</ele>
        <time>2012-08-25T15:16:19Z</time>
      </trkpt>
      <trkpt lat="43.92053" lon="6.53518">
        <ele>912.43</ele>
        <time>2012-08-25T15:16:20Z</time>
      </trkpt>
      <trkpt lat="43.92067" lon="6.53516">
        <ele>911.95</ele>
        <time>2012-08-25T15:16:21Z</time>
      </trkpt>
      <trkpt lat="43.92178" lon="6.53491">
        <ele>908.58</ele>
        <time>2012-08-25T15:16:28Z</time>
      </trkpt>
      <trkpt lat="43.92287" lon="6.53423">
        <ele>904.74</ele>
        <time>2012-08-25T15:16:35Z</time>
      </trkpt>
      <trkpt lat="43.923" lon="6.53407">
        <ele>903.78</ele>
        <time>2012-08-25T15:16:36Z</time>
      </trkpt>
      <trkpt lat="43.92348" lon="6.53345">
        <ele>901.85</ele>
        <time>2012-08-25T15:16:40Z</time>
      </trkpt>
      <trkpt lat="43.92361" lon="6.53334">
        <ele>901.37</ele>
        <time>2012-08-25T15:16:41Z</time>
      </trkpt>
      <trkpt lat="43.92374" lon="6.53325">
        <ele>900.89</ele>
        <time>2012-08-25T15:16:42Z</time>
      </trkpt>
      <trkpt lat="43.92388" lon="6.5332">
        <ele>900.41</ele>
        <time>2012-08-25T15:16:43Z</time>
      </trkpt>
      <trkpt lat="43.92403" lon="6.53319">
        <ele>900.41</ele>
        <time>2012-08-25T15:16:44Z</time>
      </trkpt>
      <trkpt lat="43.9242" lon="6.53323">
        <ele>899.93</ele>
        <time>2012-08-25T15:16:45Z</time>
      </trkpt>
      <trkpt lat="43.92437" lon="6.53325">
        <ele>899.93</ele>
        <time>2012-08-25T15:16:46Z</time>
      </trkpt>
      <trkpt lat="43.92454" lon="6.53325">
        <ele>899.45</ele>
        <time>2012-08-25T15:16:47Z</time>
      </trkpt>
      <trkpt lat="43.92471" lon="6.53323">
        <ele>898.97</ele>
        <time>2012-08-25T15:16:48Z</time>
      </trkpt>
      <trkpt lat="43.9256" lon="6.5332">
        <ele>896.57</ele>
        <time>2012-08-25T15:16:53Z</time>
      </trkpt>
      <trkpt lat="43.92578" lon="6.53327">
        <ele>896.09</ele>
        <time>2012-08-25T15:16:54Z</time>
      </trkpt>
      <trkpt lat="43.92612" lon="6.53338">
        <ele>895.61</ele>
        <time>2012-08-25T15:16:56Z</time>
      </trkpt>
      <trkpt lat="43.92629" lon="6.53339">
        <ele>894.64</ele>
        <time>2012-08-25T15:16:57Z</time>
      </trkpt>
      <trkpt lat="43.92647" lon="6.53335">
        <ele>894.16</ele>
        <time>2012-08-25T15:16:58Z</time>
      </trkpt>
      <trkpt lat="43.92665" lon="6.53327">
        <ele>893.68</ele>
        <time>2012-08-25T15:16:59Z</time>
      </trkpt>
      <trkpt lat="43.92683" lon="6.53319">
        <ele>893.2</ele>
        <time>2012-08-25T15:17:00Z</time>
      </trkpt>
      <trkpt lat="43.92847" lon="6.53256">
        <ele>890.32</ele>
        <time>2012-08-25T15:17:09Z</time>
      </trkpt>
      <trkpt lat="43.92879" lon="6.53233">
        <ele>890.32</ele>
        <time>2012-08-25T15:17:11Z</time>
      </trkpt>
      <trkpt lat="43.92897" lon="6.53225">
        <ele>890.32</ele>
        <time>2012-08-25T15:17:12Z</time>
      </trkpt>
      <trkpt lat="43.92915" lon="6.5322">
        <ele>890.32</ele>
        <time>2012-08-25T15:17:13Z</time>
      </trkpt>
      <trkpt lat="43.92935" lon="6.53217">
        <ele>890.32</ele>
        <time>2012-08-25T15:17:14Z</time>
      </trkpt>
      <trkpt lat="43.92956" lon="6.53214">
        <ele>890.32</ele>
        <time>2012-08-25T15:17:15Z</time>
      </trkpt>
      <trkpt lat="43.93109" lon="6.53164">
        <ele>890.32</ele>
        <time>2012-08-25T15:17:23Z</time>
      </trkpt>
      <trkpt lat="43.9324" lon="6.53122">
        <ele>890.8</ele>
        <time>2012-08-25T15:17:30Z</time>
      </trkpt>
      <trkpt lat="43.93371" lon="6.53109">
        <ele>890.8</ele>
        <time>2012-08-25T15:17:37Z</time>
      </trkpt>
      <trkpt lat="43.93584" lon="6.53171">
        <ele>892.24</ele>
        <time>2012-08-25T15:17:51Z</time>
      </trkpt>
      <trkpt lat="43.93594" lon="6.53168">
        <ele>892.24</ele>
        <time>2012-08-25T15:17:52Z</time>
      </trkpt>
      <trkpt lat="43.93602" lon="6.53161">
        <ele>892.24</ele>
        <time>2012-08-25T15:17:53Z</time>
      </trkpt>
      <trkpt lat="43.93609" lon="6.53151">
        <ele>892.72</ele>
        <time>2012-08-25T15:17:54Z</time>
      </trkpt>
      <trkpt lat="43.93616" lon="6.5314">
        <ele>892.24</ele>
        <time>2012-08-25T15:17:55Z</time>
      </trkpt>
      <trkpt lat="43.93623" lon="6.53127">
        <ele>892.72</ele>
        <time>2012-08-25T15:17:56Z</time>
      </trkpt>
      <trkpt lat="43.93631" lon="6.53115">
        <ele>893.2</ele>
        <time>2012-08-25T15:17:57Z</time>
      </trkpt>
      <trkpt lat="43.9364" lon="6.53105">
        <ele>893.2</ele>
        <time>2012-08-25T15:17:58Z</time>
      </trkpt>
      <trkpt lat="43.93663" lon="6.53086">
        <ele>893.2</ele>
        <time>2012-08-25T15:18:00Z</time>
      </trkpt>
      <trkpt lat="43.93821" lon="6.52934">
        <ele>893.68</ele>
        <time>2012-08-25T15:18:12Z</time>
      </trkpt>
      <trkpt lat="43.93827" lon="6.52918">
        <ele>890.8</ele>
        <time>2012-08-25T15:18:13Z</time>
      </trkpt>
      <trkpt lat="43.9383" lon="6.52899">
        <ele>890.32</ele>
        <time>2012-08-25T15:18:14Z</time>
      </trkpt>
      <trkpt lat="43.93826" lon="6.52873">
        <ele>892.24</ele>
        <time>2012-08-25T15:18:15Z</time>
      </trkpt>
      <trkpt lat="43.93825" lon="6.52855">
        <ele>892.72</ele>
        <time>2012-08-25T15:18:16Z</time>
      </trkpt>
      <trkpt lat="43.93825" lon="6.5284">
        <ele>892.24</ele>
        <time>2012-08-25T15:18:17Z</time>
      </trkpt>
      <trkpt lat="43.93823" lon="6.52822">
        <ele>892.72</ele>
        <time>2012-08-25T15:18:18Z</time>
      </trkpt>
      <trkpt lat="43.93822" lon="6.52625">
        <ele>893.2</ele>
        <time>2012-08-25T15:18:28Z</time>
      </trkpt>
      <trkpt lat="43.93846" lon="6.52459">
        <ele>896.09</ele>
        <time>2012-08-25T15:18:36Z</time>
      </trkpt>
      <trkpt lat="43.93854" lon="6.5244">
        <ele>896.09</ele>
        <time>2012-08-25T15:18:37Z</time>
      </trkpt>
      <trkpt lat="43.93865" lon="6.52422">
        <ele>895.61</ele>
        <time>2012-08-25T15:18:38Z</time>
      </trkpt>
      <trkpt lat="43.93956" lon="6.52282">
        <ele>896.09</ele>
        <time>2012-08-25T15:18:47Z</time>
      </trkpt>
      <trkpt lat="43.94037" lon="6.52182">
        <ele>895.12</ele>
        <time>2012-08-25T15:18:53Z</time>
      </trkpt>
      <trkpt lat="43.94108" lon="6.52109">
        <ele>893.68</ele>
        <time>2012-08-25T15:18:58Z</time>
      </trkpt>
      <trkpt lat="43.94118" lon="6.52093">
        <ele>893.2</ele>
        <time>2012-08-25T15:18:59Z</time>
      </trkpt>
      <trkpt lat="43.94126" lon="6.52075">
        <ele>892.72</ele>
        <time>2012-08-25T15:19:00Z</time>
      </trkpt>
      <trkpt lat="43.94132" lon="6.52054">
        <ele>892.72</ele>
        <time>2012-08-25T15:19:01Z</time>
      </trkpt>
      <trkpt lat="43.94137" lon="6.52032">
        <ele>892.24</ele>
        <time>2012-08-25T15:19:02Z</time>
      </trkpt>
      <trkpt lat="43.94141" lon="6.52008">
        <ele>892.24</ele>
        <time>2012-08-25T15:19:03Z</time>
      </trkpt>
      <trkpt lat="43.94182" lon="6.51833">
        <ele>891.28</ele>
        <time>2012-08-25T15:19:10Z</time>
      </trkpt>
      <trkpt lat="43.94193" lon="6.51811">
        <ele>891.28</ele>
        <time>2012-08-25T15:19:11Z</time>
      </trkpt>
      <trkpt lat="43.94206" lon="6.51791">
        <ele>890.8</ele>
        <time>2012-08-25T15:19:12Z</time>
      </trkpt>
      <trkpt lat="43.9422" lon="6.51772">
        <ele>890.8</ele>
        <time>2012-08-25T15:19:13Z</time>
      </trkpt>
      <trkpt lat="43.94235" lon="6.51755">
        <ele>890.8</ele>
        <time>2012-08-25T15:19:14Z</time>
      </trkpt>
      <trkpt lat="43.94251" lon="6.5174">
        <ele>890.8</ele>
        <time>2012-08-25T15:19:15Z</time>
      </trkpt>
      <trkpt lat="43.94268" lon="6.51726">
        <ele>890.8</ele>
        <time>2012-08-25T15:19:16Z</time>
      </trkpt>
      <trkpt lat="43.94286" lon="6.51714">
        <ele>890.8</ele>
        <time>2012-08-25T15:19:17Z</time>
      </trkpt>
      <trkpt lat="43.94496" lon="6.5157">
        <ele>891.28</ele>
        <time>2012-08-25T15:19:29Z</time>
      </trkpt>
      <trkpt lat="43.94696" lon="6.51427">
        <ele>898.97</ele>
        <time>2012-08-25T15:19:41Z</time>
      </trkpt>
      <trkpt lat="43.94709" lon="6.51411">
        <ele>899.45</ele>
        <time>2012-08-25T15:19:42Z</time>
      </trkpt>
      <trkpt lat="43.94719" lon="6.51393">
        <ele>899.93</ele>
        <time>2012-08-25T15:19:43Z</time>
      </trkpt>
      <trkpt lat="43.94729" lon="6.51373">
        <ele>900.41</ele>
        <time>2012-08-25T15:19:44Z</time>
      </trkpt>
      <trkpt lat="43.94737" lon="6.51352">
        <ele>900.89</ele>
        <time>2012-08-25T15:19:45Z</time>
      </trkpt>
      <trkpt lat="43.94745" lon="6.5133">
        <ele>901.85</ele>
        <time>2012-08-25T15:19:46Z</time>
      </trkpt>
      <trkpt lat="43.94775" lon="6.51259">
        <ele>904.26</ele>
        <time>2012-08-25T15:19:50Z</time>
      </trkpt>
      <trkpt lat="43.94785" lon="6.51248">
        <ele>904.74</ele>
        <time>2012-08-25T15:19:51Z</time>
      </trkpt>
      <trkpt lat="43.94795" lon="6.51241">
        <ele>905.22</ele>
        <time>2012-08-25T15:19:52Z</time>
      </trkpt>
      <trkpt lat="43.94807" lon="6.51238">
        <ele>905.7</ele>
        <time>2012-08-25T15:19:53Z</time>
      </trkpt>
      <trkpt lat="43.9482" lon="6.5124">
        <ele>906.66</ele>
        <time>2012-08-25T15:19:54Z</time>
      </trkpt>
      <trkpt lat="43.94833" lon="6.51244">
        <ele>907.14</ele>
        <time>2012-08-25T15:19:55Z</time>
      </trkpt>
      <trkpt lat="43.94847" lon="6.51249">
        <ele>907.62</ele>
        <time>2012-08-25T15:19:56Z</time>
      </trkpt>
      <trkpt lat="43.94936" lon="6.51266">
        <ele>911.95</ele>
        <time>2012-08-25T15:20:02Z</time>
      </trkpt>
      <trkpt lat="43.94949" lon="6.51263">
        <ele>911.95</ele>
        <time>2012-08-25T15:20:03Z</time>
      </trkpt>
      <trkpt lat="43.94961" lon="6.51255">
        <ele>912.43</ele>
        <time>2012-08-25T15:20:04Z</time>
      </trkpt>
      <trkpt lat="43.94971" lon="6.51243">
        <ele>912.91</ele>
        <time>2012-08-25T15:20:05Z</time>
      </trkpt>
      <trkpt lat="43.94978" lon="6.51227">
        <ele>912.91</ele>
        <time>2012-08-25T15:20:06Z</time>
      </trkpt>
      <trkpt lat="43.94983" lon="6.51208">
        <ele>912.91</ele>
        <time>2012-08-25T15:20:07Z</time>
      </trkpt>
      <trkpt lat="43.94991" lon="6.51189">
        <ele>913.39</ele>
        <time>2012-08-25T15:20:08Z</time>
      </trkpt>
      <trkpt lat="43.95001" lon="6.51172">
        <ele>913.87</ele>
        <time>2012-08-25T15:20:09Z</time>
      </trkpt>
      <trkpt lat="43.95013" lon="6.51158">
        <ele>914.35</ele>
        <time>2012-08-25T15:20:10Z</time>
      </trkpt>
      <trkpt lat="43.95027" lon="6.51148">
        <ele>915.31</ele>
        <time>2012-08-25T15:20:11Z</time>
      </trkpt>
      <trkpt lat="43.95043" lon="6.5114">
        <ele>915.79</ele>
        <time>2012-08-25T15:20:12Z</time>
      </trkpt>
      <trkpt lat="43.9506" lon="6.51133">
        <ele>916.27</ele>
        <time>2012-08-25T15:20:13Z</time>
      </trkpt>
      <trkpt lat="43.95077" lon="6.51128">
        <ele>916.75</ele>
        <time>2012-08-25T15:20:14Z</time>
      </trkpt>
      <trkpt lat="43.95213" lon="6.51075">
        <ele>916.75</ele>
        <time>2012-08-25T15:20:22Z</time>
      </trkpt>
      <trkpt lat="43.95227" lon="6.51064">
        <ele>915.79</ele>
        <time>2012-08-25T15:20:23Z</time>
      </trkpt>
      <trkpt lat="43.95241" lon="6.5105">
        <ele>914.83</ele>
        <time>2012-08-25T15:20:24Z</time>
      </trkpt>
      <trkpt lat="43.95253" lon="6.51033">
        <ele>913.87</ele>
        <time>2012-08-25T15:20:25Z</time>
      </trkpt>
      <trkpt lat="43.95267" lon="6.51018">
        <ele>912.43</ele>
        <time>2012-08-25T15:20:26Z</time>
      </trkpt>
      <trkpt lat="43.95281" lon="6.51004">
        <ele>911.47</ele>
        <time>2012-08-25T15:20:27Z</time>
      </trkpt>
      <trkpt lat="43.95297" lon="6.50994">
        <ele>910.03</ele>
        <time>2012-08-25T15:20:28Z</time>
      </trkpt>
      <trkpt lat="43.95314" lon="6.50989">
        <ele>909.06</ele>
        <time>2012-08-25T15:20:29Z</time>
      </trkpt>
      <trkpt lat="43.95332" lon="6.50985">
        <ele>908.1</ele>
        <time>2012-08-25T15:20:30Z</time>
      </trkpt>
      <trkpt lat="43.95349" lon="6.50981">
        <ele>906.66</ele>
        <time>2012-08-25T15:20:31Z</time>
      </trkpt>
      <trkpt lat="43.95366" lon="6.50974">
        <ele>905.7</ele>
        <time>2012-08-25T15:20:32Z</time>
      </trkpt>
      <trkpt lat="43.95383" lon="6.50964">
        <ele>904.26</ele>
        <time>2012-08-25T15:20:33Z</time>
      </trkpt>
      <trkpt lat="43.95399" lon="6.50951">
        <ele>902.82</ele>
        <time>2012-08-25T15:20:34Z</time>
      </trkpt>
      <trkpt lat="43.95416" lon="6.50937">
        <ele>901.85</ele>
        <time>2012-08-25T15:20:35Z</time>
      </trkpt>
      <trkpt lat="43.9553" lon="6.50875">
        <ele>893.2</ele>
        <time>2012-08-25T15:20:42Z</time>
      </trkpt>
      <trkpt lat="43.95556" lon="6.50861">
        <ele>892.24</ele>
        <time>2012-08-25T15:20:44Z</time>
      </trkpt>
      <trkpt lat="43.95568" lon="6.50851">
        <ele>891.76</ele>
        <time>2012-08-25T15:20:45Z</time>
      </trkpt>
      <trkpt lat="43.95579" lon="6.50839">
        <ele>891.76</ele>
        <time>2012-08-25T15:20:46Z</time>
      </trkpt>
      <trkpt lat="43.9564" lon="6.50768">
        <ele>891.76</ele>
        <time>2012-08-25T15:20:51Z</time>
      </trkpt>
      <trkpt lat="43.95656" lon="6.50756">
        <ele>891.76</ele>
        <time>2012-08-25T15:20:52Z</time>
      </trkpt>
      <trkpt lat="43.958" lon="6.50666">
        <ele>892.72</ele>
        <time>2012-08-25T15:21:01Z</time>
      </trkpt>
      <trkpt lat="43.95903" lon="6.5062">
        <ele>892.72</ele>
        <time>2012-08-25T15:21:09Z</time>
      </trkpt>
      <trkpt lat="43.95917" lon="6.5062">
        <ele>892.72</ele>
        <time>2012-08-25T15:21:10Z</time>
      </trkpt>
      <trkpt lat="43.96031" lon="6.50632">
        <ele>892.72</ele>
        <time>2012-08-25T15:21:20Z</time>
      </trkpt>
      <trkpt lat="43.96055" lon="6.50638">
        <ele>892.72</ele>
        <time>2012-08-25T15:21:23Z</time>
      </trkpt>
      <trkpt lat="43.96061" lon="6.50643">
        <ele>892.24</ele>
        <time>2012-08-25T15:21:24Z</time>
      </trkpt>
      <trkpt lat="43.96065" lon="6.5065">
        <ele>891.76</ele>
        <time>2012-08-25T15:21:25Z</time>
      </trkpt>
      <trkpt lat="43.96073" lon="6.50663">
        <ele>890.8</ele>
        <time>2012-08-25T15:21:27Z</time>
      </trkpt>
      <trkpt lat="43.96083" lon="6.50664">
        <ele>890.32</ele>
        <time>2012-08-25T15:21:29Z</time>
      </trkpt>
      <trkpt lat="43.96088" lon="6.50663">
        <ele>890.32</ele>
        <time>2012-08-25T15:21:30Z</time>
      </trkpt>
      <trkpt lat="43.96092" lon="6.50662">
        <ele>890.32</ele>
        <time>2012-08-25T15:21:31Z</time>
      </trkpt>
      <trkpt lat="43.96096" lon="6.50663">
        <ele>890.32</ele>
        <time>2012-08-25T15:21:32Z</time>
      </trkpt>
      <trkpt lat="43.96098" lon="6.50666">
        <ele>890.32</ele>
        <time>2012-08-25T15:21:33Z</time>
      </trkpt>
      <trkpt lat="43.961" lon="6.50668">
        <ele>890.32</ele>
        <time>2012-08-25T15:21:34Z</time>
      </trkpt>
      <trkpt lat="43.961" lon="6.5067">
        <ele>890.32</ele>
        <time>2012-08-25T15:21:35Z</time>
      </trkpt>
      <trkpt lat="43.96102" lon="6.50676">
        <ele>886.47</ele>
        <time>2012-08-25T15:21:52Z</time>
      </trkpt>
      <trkpt lat="43.96104" lon="6.50679">
        <ele>886.47</ele>
        <time>2012-08-25T15:22:15Z</time>
      </trkpt>
      <trkpt lat="43.96105" lon="6.50681">
        <ele>886.95</ele>
        <time>2012-08-25T15:22:43Z</time>
      </trkpt>
      <trkpt lat="43.96101" lon="6.50676">
        <ele>887.91</ele>
        <time>2012-08-25T15:23:07Z</time>
      </trkpt>
      <trkpt lat="43.96102" lon="6.50677">
        <ele>887.43</ele>
        <time>2012-08-25T15:23:29Z</time>
      </trkpt>
      <trkpt lat="43.96103" lon="6.50678">
        <ele>889.36</ele>
        <time>2012-08-25T15:23:49Z</time>
      </trkpt>
      <trkpt lat="43.96105" lon="6.50681">
        <ele>892.24</ele>
        <time>2012-08-25T15:24:06Z</time>
      </trkpt>
      <trkpt lat="43.96095" lon="6.50663">
        <ele>895.61</ele>
        <time>2012-08-25T15:24:26Z</time>
      </trkpt>
      <trkpt lat="43.96087" lon="6.5065">
        <ele>899.93</ele>
        <time>2012-08-25T15:24:45Z</time>
      </trkpt>
      <trkpt lat="43.96088" lon="6.50654">
        <ele>903.78</ele>
        <time>2012-08-25T15:25:05Z</time>
      </trkpt>
      <trkpt lat="43.96092" lon="6.50661">
        <ele>901.85</ele>
        <time>2012-08-25T15:25:25Z</time>
      </trkpt>
      <trkpt lat="43.96092" lon="6.50659">
        <ele>902.33</ele>
        <time>2012-08-25T15:25:48Z</time>
      </trkpt>
      <trkpt lat="43.96099" lon="6.5067">
        <ele>895.61</ele>
        <time>2012-08-25T15:26:25Z</time>
      </trkpt>
      <trkpt lat="43.96104" lon="6.50678">
        <ele>889.84</ele>
        <time>2012-08-25T15:27:08Z</time>
      </trkpt>
      <trkpt lat="43.961" lon="6.50671">
        <ele>889.84</ele>
        <time>2012-08-25T15:27:25Z</time>
      </trkpt>
      <trkpt lat="43.96096" lon="6.50665">
        <ele>892.24</ele>
        <time>2012-08-25T15:28:08Z</time>
      </trkpt>
      <trkpt lat="43.96103" lon="6.50678">
        <ele>886.95</ele>
        <time>2012-08-25T15:28:24Z</time>
      </trkpt>
      <trkpt lat="43.96097" lon="6.50668">
        <ele>893.68</ele>
        <time>2012-08-25T15:28:58Z</time>
      </trkpt>
      <trkpt lat="43.96093" lon="6.50666">
        <ele>896.09</ele>
        <time>2012-08-25T15:29:25Z</time>
      </trkpt>
      <trkpt lat="43.96095" lon="6.50668">
        <ele>896.09</ele>
        <time>2012-08-25T15:29:48Z</time>
      </trkpt>
      <trkpt lat="43.96101" lon="6.50675">
        <ele>889.36</ele>
        <time>2012-08-25T15:30:10Z</time>
      </trkpt>
      <trkpt lat="43.96102" lon="6.50676">
        <ele>884.55</ele>
        <time>2012-08-25T15:30:44Z</time>
      </trkpt>
      <trkpt lat="43.96093" lon="6.50663">
        <ele>894.64</ele>
        <time>2012-08-25T15:31:33Z</time>
      </trkpt>
      <trkpt lat="43.96094" lon="6.50661">
        <ele>888.4</ele>
        <time>2012-08-25T15:32:19Z</time>
      </trkpt>
      <trkpt lat="43.96095" lon="6.50663">
        <ele>894.16</ele>
        <time>2012-08-25T15:32:43Z</time>
      </trkpt>
      <trkpt lat="43.96095" lon="6.50665">
        <ele>897.05</ele>
        <time>2012-08-25T15:33:07Z</time>
      </trkpt>
      <trkpt lat="43.96095" lon="6.50666">
        <ele>900.89</ele>
        <time>2012-08-25T15:33:45Z</time>
      </trkpt>
      <trkpt lat="43.96097" lon="6.5067">
        <ele>900.41</ele>
        <time>2012-08-25T15:34:05Z</time>
      </trkpt>
      <trkpt lat="43.96096" lon="6.50669">
        <ele>901.85</ele>
        <time>2012-08-25T15:34:20Z</time>
      </trkpt>
      <trkpt lat="43.96099" lon="6.50671">
        <ele>903.3</ele>
        <time>2012-08-25T15:34:41Z</time>
      </trkpt>
      <trkpt lat="43.96099" lon="6.50676">
        <ele>905.22</ele>
        <time>2012-08-25T15:35:03Z</time>
      </trkpt>
      <trkpt lat="43.96097" lon="6.5067">
        <ele>898.97</ele>
        <time>2012-08-25T15:35:27Z</time>
      </trkpt>
      <trkpt lat="43.96098" lon="6.50669">
        <ele>898.97</ele>
        <time>2012-08-25T15:35:28Z</time>
      </trkpt>
      <trkpt lat="43.96099" lon="6.50668">
        <ele>898.49</ele>
        <time>2012-08-25T15:35:29Z</time>
      </trkpt>
      <trkpt lat="43.961" lon="6.50665">
        <ele>898.49</ele>
        <time>2012-08-25T15:35:30Z</time>
      </trkpt>
      <trkpt lat="43.96099" lon="6.50661">
        <ele>898.49</ele>
        <time>2012-08-25T15:35:31Z</time>
      </trkpt>
      <trkpt lat="43.96097" lon="6.50659">
        <ele>898.01</ele>
        <time>2012-08-25T15:35:32Z</time>
      </trkpt>
      <trkpt lat="43.96093" lon="6.50658">
        <ele>898.01</ele>
        <time>2012-08-25T15:35:33Z</time>
      </trkpt>
      <trkpt lat="43.96089" lon="6.50659">
        <ele>897.53</ele>
        <time>2012-08-25T15:35:34Z</time>
      </trkpt>
      <trkpt lat="43.96084" lon="6.50662">
        <ele>897.05</ele>
        <time>2012-08-25T15:35:35Z</time>
      </trkpt>
      <trkpt lat="43.9608" lon="6.50664">
        <ele>896.57</ele>
        <time>2012-08-25T15:35:36Z</time>
      </trkpt>
      <trkpt lat="43.96076" lon="6.50665">
        <ele>896.57</ele>
        <time>2012-08-25T15:35:37Z</time>
      </trkpt>
      <trkpt lat="43.96072" lon="6.50663">
        <ele>896.57</ele>
        <time>2012-08-25T15:35:38Z</time>
      </trkpt>
      <trkpt lat="43.9607" lon="6.50661">
        <ele>896.09</ele>
        <time>2012-08-25T15:35:39Z</time>
      </trkpt>
      <trkpt lat="43.96069" lon="6.50658">
        <ele>895.61</ele>
        <time>2012-08-25T15:35:40Z</time>
      </trkpt>
      <trkpt lat="43.96068" lon="6.50655">
        <ele>895.61</ele>
        <time>2012-08-25T15:35:41Z</time>
      </trkpt>
      <trkpt lat="43.96069" lon="6.50652">
        <ele>895.61</ele>
        <time>2012-08-25T15:35:42Z</time>
      </trkpt>
      <trkpt lat="43.9607" lon="6.50649">
        <ele>895.12</ele>
        <time>2012-08-25T15:35:43Z</time>
      </trkpt>
      <trkpt lat="43.96071" lon="6.50647">
        <ele>895.12</ele>
        <time>2012-08-25T15:35:44Z</time>
      </trkpt>
      <trkpt lat="43.96072" lon="6.50645">
        <ele>894.16</ele>
        <time>2012-08-25T15:35:49Z</time>
      </trkpt>
      <trkpt lat="43.96075" lon="6.50643">
        <ele>893.68</ele>
        <time>2012-08-25T15:35:50Z</time>
      </trkpt>
      <trkpt lat="43.96079" lon="6.50641">
        <ele>893.68</ele>
        <time>2012-08-25T15:35:51Z</time>
      </trkpt>
      <trkpt lat="43.96086" lon="6.5064">
        <ele>893.68</ele>
        <time>2012-08-25T15:35:52Z</time>
      </trkpt>
      <trkpt lat="43.96094" lon="6.5064">
        <ele>893.2</ele>
        <time>2012-08-25T15:35:53Z</time>
      </trkpt>
      <trkpt lat="43.96103" lon="6.50641">
        <ele>893.2</ele>
        <time>2012-08-25T15:35:54Z</time>
      </trkpt>
      <trkpt lat="43.96193" lon="6.50651">
        <ele>893.2</ele>
        <time>2012-08-25T15:36:02Z</time>
      </trkpt>
      <trkpt lat="43.96388" lon="6.50678">
        <ele>899.45</ele>
        <time>2012-08-25T15:36:17Z</time>
      </trkpt>
      <trkpt lat="43.96398" lon="6.50677">
        <ele>899.93</ele>
        <time>2012-08-25T15:36:18Z</time>
      </trkpt>
      <trkpt lat="43.96425" lon="6.50675">
        <ele>900.89</ele>
        <time>2012-08-25T15:36:21Z</time>
      </trkpt>
      <trkpt lat="43.96433" lon="6.50676">
        <ele>900.89</ele>
        <time>2012-08-25T15:36:22Z</time>
      </trkpt>
      <trkpt lat="43.96441" lon="6.50679">
        <ele>900.89</ele>
        <time>2012-08-25T15:36:23Z</time>
      </trkpt>
      <trkpt lat="43.96456" lon="6.50684">
        <ele>900.41</ele>
        <time>2012-08-25T15:36:25Z</time>
      </trkpt>
      <trkpt lat="43.96461" lon="6.50682">
        <ele>899.93</ele>
        <time>2012-08-25T15:36:26Z</time>
      </trkpt>
      <trkpt lat="43.96466" lon="6.50678">
        <ele>899.93</ele>
        <time>2012-08-25T15:36:27Z</time>
      </trkpt>
      <trkpt lat="43.9647" lon="6.50672">
        <ele>899.93</ele>
        <time>2012-08-25T15:36:28Z</time>
      </trkpt>
      <trkpt lat="43.96475" lon="6.50667">
        <ele>899.93</ele>
        <time>2012-08-25T15:36:29Z</time>
      </trkpt>
      <trkpt lat="43.96481" lon="6.50662">
        <ele>899.93</ele>
        <time>2012-08-25T15:36:30Z</time>
      </trkpt>
      <trkpt lat="43.96489" lon="6.50657">
        <ele>899.93</ele>
        <time>2012-08-25T15:36:31Z</time>
      </trkpt>
      <trkpt lat="43.96498" lon="6.50654">
        <ele>900.41</ele>
        <time>2012-08-25T15:36:32Z</time>
      </trkpt>
      <trkpt lat="43.96507" lon="6.50653">
        <ele>900.89</ele>
        <time>2012-08-25T15:36:33Z</time>
      </trkpt>
      <trkpt lat="43.96527" lon="6.50657">
        <ele>901.85</ele>
        <time>2012-08-25T15:36:35Z</time>
      </trkpt>
      <trkpt lat="43.96537" lon="6.50659">
        <ele>902.33</ele>
        <time>2012-08-25T15:36:36Z</time>
      </trkpt>
      <trkpt lat="43.96686" lon="6.50695">
        <ele>906.18</ele>
        <time>2012-08-25T15:36:48Z</time>
      </trkpt>
      <trkpt lat="43.96707" lon="6.50703">
        <ele>906.66</ele>
        <time>2012-08-25T15:36:50Z</time>
      </trkpt>
      <trkpt lat="43.96733" lon="6.50716">
        <ele>907.14</ele>
        <time>2012-08-25T15:36:53Z</time>
      </trkpt>
      <trkpt lat="43.96741" lon="6.50718">
        <ele>907.14</ele>
        <time>2012-08-25T15:36:54Z</time>
      </trkpt>
      <trkpt lat="43.96771" lon="6.50721">
        <ele>907.62</ele>
        <time>2012-08-25T15:36:57Z</time>
      </trkpt>
      <trkpt lat="43.96843" lon="6.50745">
        <ele>907.62</ele>
        <time>2012-08-25T15:37:06Z</time>
      </trkpt>
      <trkpt lat="43.96852" lon="6.5075">
        <ele>908.1</ele>
        <time>2012-08-25T15:37:08Z</time>
      </trkpt>
      <trkpt lat="43.96857" lon="6.5075">
        <ele>908.58</ele>
        <time>2012-08-25T15:37:09Z</time>
      </trkpt>
      <trkpt lat="43.96862" lon="6.50748">
        <ele>908.58</ele>
        <time>2012-08-25T15:37:10Z</time>
      </trkpt>
      <trkpt lat="43.96865" lon="6.50744">
        <ele>908.58</ele>
        <time>2012-08-25T15:37:11Z</time>
      </trkpt>
      <trkpt lat="43.96867" lon="6.50738">
        <ele>908.58</ele>
        <time>2012-08-25T15:37:12Z</time>
      </trkpt>
      <trkpt lat="43.96867" lon="6.50731">
        <ele>908.58</ele>
        <time>2012-08-25T15:37:13Z</time>
      </trkpt>
      <trkpt lat="43.96866" lon="6.50722">
        <ele>909.06</ele>
        <time>2012-08-25T15:37:14Z</time>
      </trkpt>
      <trkpt lat="43.96865" lon="6.50713">
        <ele>909.06</ele>
        <time>2012-08-25T15:37:15Z</time>
      </trkpt>
      <trkpt lat="43.96866" lon="6.50702">
        <ele>909.06</ele>
        <time>2012-08-25T15:37:16Z</time>
      </trkpt>
      <trkpt lat="43.96869" lon="6.50692">
        <ele>909.54</ele>
        <time>2012-08-25T15:37:17Z</time>
      </trkpt>
      <trkpt lat="43.96889" lon="6.5062">
        <ele>911.95</ele>
        <time>2012-08-25T15:37:23Z</time>
      </trkpt>
      <trkpt lat="43.96891" lon="6.5061">
        <ele>912.43</ele>
        <time>2012-08-25T15:37:24Z</time>
      </trkpt>
      <trkpt lat="43.96892" lon="6.506">
        <ele>912.91</ele>
        <time>2012-08-25T15:37:25Z</time>
      </trkpt>
      <trkpt lat="43.96892" lon="6.50569">
        <ele>915.31</ele>
        <time>2012-08-25T15:37:28Z</time>
      </trkpt>
      <trkpt lat="43.96889" lon="6.50557">
        <ele>916.27</ele>
        <time>2012-08-25T15:37:29Z</time>
      </trkpt>
      <trkpt lat="43.96885" lon="6.50546">
        <ele>917.24</ele>
        <time>2012-08-25T15:37:30Z</time>
      </trkpt>
      <trkpt lat="43.9688" lon="6.50535">
        <ele>918.2</ele>
        <time>2012-08-25T15:37:31Z</time>
      </trkpt>
      <trkpt lat="43.96873" lon="6.50525">
        <ele>920.12</ele>
        <time>2012-08-25T15:37:32Z</time>
      </trkpt>
      <trkpt lat="43.96866" lon="6.50516">
        <ele>920.6</ele>
        <time>2012-08-25T15:37:33Z</time>
      </trkpt>
      <trkpt lat="43.96856" lon="6.50507">
        <ele>921.56</ele>
        <time>2012-08-25T15:37:34Z</time>
      </trkpt>
      <trkpt lat="43.96846" lon="6.50499">
        <ele>922.52</ele>
        <time>2012-08-25T15:37:35Z</time>
      </trkpt>
      <trkpt lat="43.96836" lon="6.50491">
        <ele>923.48</ele>
        <time>2012-08-25T15:37:36Z</time>
      </trkpt>
      <trkpt lat="43.96705" lon="6.50399">
        <ele>933.58</ele>
        <time>2012-08-25T15:37:48Z</time>
      </trkpt>
      <trkpt lat="43.96603" lon="6.50323">
        <ele>940.31</ele>
        <time>2012-08-25T15:37:57Z</time>
      </trkpt>
      <trkpt lat="43.96593" lon="6.50311">
        <ele>941.27</ele>
        <time>2012-08-25T15:37:58Z</time>
      </trkpt>
      <trkpt lat="43.96582" lon="6.50297">
        <ele>942.23</ele>
        <time>2012-08-25T15:37:59Z</time>
      </trkpt>
      <trkpt lat="43.96573" lon="6.50282">
        <ele>943.19</ele>
        <time>2012-08-25T15:38:00Z</time>
      </trkpt>
      <trkpt lat="43.96565" lon="6.50267">
        <ele>943.67</ele>
        <time>2012-08-25T15:38:01Z</time>
      </trkpt>
      <trkpt lat="43.96557" lon="6.50251">
        <ele>944.63</ele>
        <time>2012-08-25T15:38:02Z</time>
      </trkpt>
      <trkpt lat="43.9655" lon="6.50233">
        <ele>945.59</ele>
        <time>2012-08-25T15:38:03Z</time>
      </trkpt>
      <trkpt lat="43.96544" lon="6.50215">
        <ele>946.56</ele>
        <time>2012-08-25T15:38:04Z</time>
      </trkpt>
      <trkpt lat="43.96539" lon="6.50196">
        <ele>947.52</ele>
        <time>2012-08-25T15:38:05Z</time>
      </trkpt>
      <trkpt lat="43.96535" lon="6.50177">
        <ele>948.96</ele>
        <time>2012-08-25T15:38:06Z</time>
      </trkpt>
      <trkpt lat="43.96521" lon="6.50123">
        <ele>951.84</ele>
        <time>2012-08-25T15:38:09Z</time>
      </trkpt>
      <trkpt lat="43.96514" lon="6.50107">
        <ele>952.8</ele>
        <time>2012-08-25T15:38:10Z</time>
      </trkpt>
      <trkpt lat="43.96505" lon="6.50092">
        <ele>953.77</ele>
        <time>2012-08-25T15:38:11Z</time>
      </trkpt>
      <trkpt lat="43.96495" lon="6.5008">
        <ele>954.73</ele>
        <time>2012-08-25T15:38:12Z</time>
      </trkpt>
      <trkpt lat="43.96485" lon="6.50069">
        <ele>955.69</ele>
        <time>2012-08-25T15:38:13Z</time>
      </trkpt>
      <trkpt lat="43.96473" lon="6.50059">
        <ele>957.13</ele>
        <time>2012-08-25T15:38:14Z</time>
      </trkpt>
      <trkpt lat="43.96347" lon="6.49963">
        <ele>964.82</ele>
        <time>2012-08-25T15:38:24Z</time>
      </trkpt>
      <trkpt lat="43.96335" lon="6.49954">
        <ele>965.3</ele>
        <time>2012-08-25T15:38:25Z</time>
      </trkpt>
      <trkpt lat="43.96322" lon="6.49946">
        <ele>965.78</ele>
        <time>2012-08-25T15:38:26Z</time>
      </trkpt>
      <trkpt lat="43.96311" lon="6.49938">
        <ele>965.78</ele>
        <time>2012-08-25T15:38:27Z</time>
      </trkpt>
      <trkpt lat="43.963" lon="6.49927">
        <ele>966.74</ele>
        <time>2012-08-25T15:38:28Z</time>
      </trkpt>
      <trkpt lat="43.96291" lon="6.49914">
        <ele>967.22</ele>
        <time>2012-08-25T15:38:29Z</time>
      </trkpt>
      <trkpt lat="43.96285" lon="6.49901">
        <ele>967.7</ele>
        <time>2012-08-25T15:38:30Z</time>
      </trkpt>
      <trkpt lat="43.96278" lon="6.49888">
        <ele>968.18</ele>
        <time>2012-08-25T15:38:31Z</time>
      </trkpt>
      <trkpt lat="43.96271" lon="6.49877">
        <ele>968.67</ele>
        <time>2012-08-25T15:38:32Z</time>
      </trkpt>
      <trkpt lat="43.96262" lon="6.4987">
        <ele>970.11</ele>
        <time>2012-08-25T15:38:33Z</time>
      </trkpt>
      <trkpt lat="43.96253" lon="6.49865">
        <ele>970.59</ele>
        <time>2012-08-25T15:38:34Z</time>
      </trkpt>
      <trkpt lat="43.96244" lon="6.49863">
        <ele>972.51</ele>
        <time>2012-08-25T15:38:35Z</time>
      </trkpt>
      <trkpt lat="43.96234" lon="6.49861">
        <ele>972.99</ele>
        <time>2012-08-25T15:38:36Z</time>
      </trkpt>
      <trkpt lat="43.96225" lon="6.49858">
        <ele>972.99</ele>
        <time>2012-08-25T15:38:37Z</time>
      </trkpt>
      <trkpt lat="43.96216" lon="6.49852">
        <ele>973.47</ele>
        <time>2012-08-25T15:38:38Z</time>
      </trkpt>
      <trkpt lat="43.96209" lon="6.49845">
        <ele>973.95</ele>
        <time>2012-08-25T15:38:39Z</time>
      </trkpt>
      <trkpt lat="43.96202" lon="6.49835">
        <ele>974.91</ele>
        <time>2012-08-25T15:38:40Z</time>
      </trkpt>
      <trkpt lat="43.96196" lon="6.49823">
        <ele>975.88</ele>
        <time>2012-08-25T15:38:41Z</time>
      </trkpt>
      <trkpt lat="43.96173" lon="6.49769">
        <ele>977.8</ele>
        <time>2012-08-25T15:38:45Z</time>
      </trkpt>
      <trkpt lat="43.96169" lon="6.49752">
        <ele>977.8</ele>
        <time>2012-08-25T15:38:46Z</time>
      </trkpt>
      <trkpt lat="43.96156" lon="6.49629">
        <ele>986.93</ele>
        <time>2012-08-25T15:38:53Z</time>
      </trkpt>
      <trkpt lat="43.96157" lon="6.4961">
        <ele>986.93</ele>
        <time>2012-08-25T15:38:54Z</time>
      </trkpt>
      <trkpt lat="43.9616" lon="6.49574">
        <ele>988.37</ele>
        <time>2012-08-25T15:38:56Z</time>
      </trkpt>
      <trkpt lat="43.96159" lon="6.49555">
        <ele>989.33</ele>
        <time>2012-08-25T15:38:57Z</time>
      </trkpt>
      <trkpt lat="43.96157" lon="6.49501">
        <ele>990.78</ele>
        <time>2012-08-25T15:39:00Z</time>
      </trkpt>
      <trkpt lat="43.9616" lon="6.49483">
        <ele>989.81</ele>
        <time>2012-08-25T15:39:01Z</time>
      </trkpt>
      <trkpt lat="43.96164" lon="6.49466">
        <ele>989.81</ele>
        <time>2012-08-25T15:39:02Z</time>
      </trkpt>
      <trkpt lat="43.96171" lon="6.49432">
        <ele>991.74</ele>
        <time>2012-08-25T15:39:04Z</time>
      </trkpt>
      <trkpt lat="43.96172" lon="6.49415">
        <ele>993.18</ele>
        <time>2012-08-25T15:39:05Z</time>
      </trkpt>
      <trkpt lat="43.9617" lon="6.49398">
        <ele>993.66</ele>
        <time>2012-08-25T15:39:06Z</time>
      </trkpt>
      <trkpt lat="43.96166" lon="6.49381">
        <ele>994.62</ele>
        <time>2012-08-25T15:39:07Z</time>
      </trkpt>
      <trkpt lat="43.9616" lon="6.49366">
        <ele>995.58</ele>
        <time>2012-08-25T15:39:08Z</time>
      </trkpt>
      <trkpt lat="43.96154" lon="6.4935">
        <ele>997.02</ele>
        <time>2012-08-25T15:39:09Z</time>
      </trkpt>
      <trkpt lat="43.96149" lon="6.49334">
        <ele>998.47</ele>
        <time>2012-08-25T15:39:10Z</time>
      </trkpt>
      <trkpt lat="43.96146" lon="6.49316">
        <ele>999.43</ele>
        <time>2012-08-25T15:39:11Z</time>
      </trkpt>
      <trkpt lat="43.96138" lon="6.49264">
        <ele>1002.31</ele>
        <time>2012-08-25T15:39:14Z</time>
      </trkpt>
      <trkpt lat="43.96133" lon="6.49249">
        <ele>1003.27</ele>
        <time>2012-08-25T15:39:15Z</time>
      </trkpt>
      <trkpt lat="43.96125" lon="6.49234">
        <ele>1003.75</ele>
        <time>2012-08-25T15:39:16Z</time>
      </trkpt>
      <trkpt lat="43.96117" lon="6.49219">
        <ele>1003.75</ele>
        <time>2012-08-25T15:39:17Z</time>
      </trkpt>
      <trkpt lat="43.96108" lon="6.49205">
        <ele>1004.23</ele>
        <time>2012-08-25T15:39:18Z</time>
      </trkpt>
      <trkpt lat="43.96092" lon="6.49175">
        <ele>1004.72</ele>
        <time>2012-08-25T15:39:20Z</time>
      </trkpt>
      <trkpt lat="43.96086" lon="6.49157">
        <ele>1002.31</ele>
        <time>2012-08-25T15:39:21Z</time>
      </trkpt>
      <trkpt lat="43.96081" lon="6.49139">
        <ele>999.43</ele>
        <time>2012-08-25T15:39:22Z</time>
      </trkpt>
      <trkpt lat="43.96078" lon="6.49118">
        <ele>997.02</ele>
        <time>2012-08-25T15:39:23Z</time>
      </trkpt>
      <trkpt lat="43.96075" lon="6.49097">
        <ele>995.1</ele>
        <time>2012-08-25T15:39:24Z</time>
      </trkpt>
      <trkpt lat="43.96032" lon="6.48842">
        <ele>981.64</ele>
        <time>2012-08-25T15:39:35Z</time>
      </trkpt>
      <trkpt lat="43.9597" lon="6.4851">
        <ele>971.55</ele>
        <time>2012-08-25T15:39:48Z</time>
      </trkpt>
      <trkpt lat="43.95991" lon="6.48297">
        <ele>962.42</ele>
        <time>2012-08-25T15:39:56Z</time>
      </trkpt>
      <trkpt lat="43.96078" lon="6.47744">
        <ele>937.42</ele>
        <time>2012-08-25T15:40:16Z</time>
      </trkpt>
      <trkpt lat="43.96065" lon="6.47545">
        <ele>928.77</ele>
        <time>2012-08-25T15:40:23Z</time>
      </trkpt>
      <trkpt lat="43.96059" lon="6.473">
        <ele>917.72</ele>
        <time>2012-08-25T15:40:32Z</time>
      </trkpt>
      <trkpt lat="43.96067" lon="6.47205">
        <ele>913.39</ele>
        <time>2012-08-25T15:40:36Z</time>
      </trkpt>
      <trkpt lat="43.96073" lon="6.47184">
        <ele>912.43</ele>
        <time>2012-08-25T15:40:37Z</time>
      </trkpt>
      <trkpt lat="43.96079" lon="6.47164">
        <ele>911.47</ele>
        <time>2012-08-25T15:40:38Z</time>
      </trkpt>
      <trkpt lat="43.96136" lon="6.46953">
        <ele>903.78</ele>
        <time>2012-08-25T15:40:48Z</time>
      </trkpt>
      <trkpt lat="43.9617" lon="6.46767">
        <ele>898.49</ele>
        <time>2012-08-25T15:40:58Z</time>
      </trkpt>
      <trkpt lat="43.96188" lon="6.46623">
        <ele>893.2</ele>
        <time>2012-08-25T15:41:05Z</time>
      </trkpt>
      <trkpt lat="43.96187" lon="6.46606">
        <ele>892.24</ele>
        <time>2012-08-25T15:41:06Z</time>
      </trkpt>
      <trkpt lat="43.96184" lon="6.46589">
        <ele>891.28</ele>
        <time>2012-08-25T15:41:07Z</time>
      </trkpt>
      <trkpt lat="43.96181" lon="6.46575">
        <ele>890.8</ele>
        <time>2012-08-25T15:41:08Z</time>
      </trkpt>
      <trkpt lat="43.96176" lon="6.46562">
        <ele>889.84</ele>
        <time>2012-08-25T15:41:09Z</time>
      </trkpt>
      <trkpt lat="43.9617" lon="6.46551">
        <ele>888.88</ele>
        <time>2012-08-25T15:41:10Z</time>
      </trkpt>
      <trkpt lat="43.96165" lon="6.46542">
        <ele>887.91</ele>
        <time>2012-08-25T15:41:11Z</time>
      </trkpt>
      <trkpt lat="43.96155" lon="6.46522">
        <ele>887.43</ele>
        <time>2012-08-25T15:41:13Z</time>
      </trkpt>
      <trkpt lat="43.96153" lon="6.4651">
        <ele>886.95</ele>
        <time>2012-08-25T15:41:14Z</time>
      </trkpt>
      <trkpt lat="43.96153" lon="6.46498">
        <ele>886.47</ele>
        <time>2012-08-25T15:41:15Z</time>
      </trkpt>
      <trkpt lat="43.96157" lon="6.46485">
        <ele>885.51</ele>
        <time>2012-08-25T15:41:16Z</time>
      </trkpt>
      <trkpt lat="43.96163" lon="6.46475">
        <ele>885.51</ele>
        <time>2012-08-25T15:41:17Z</time>
      </trkpt>
      <trkpt lat="43.9617" lon="6.46465">
        <ele>885.03</ele>
        <time>2012-08-25T15:41:18Z</time>
      </trkpt>
      <trkpt lat="43.96178" lon="6.46456">
        <ele>884.55</ele>
        <time>2012-08-25T15:41:19Z</time>
      </trkpt>
      <trkpt lat="43.96185" lon="6.46447">
        <ele>884.55</ele>
        <time>2012-08-25T15:41:20Z</time>
      </trkpt>
      <trkpt lat="43.96191" lon="6.46436">
        <ele>884.07</ele>
        <time>2012-08-25T15:41:21Z</time>
      </trkpt>
      <trkpt lat="43.96195" lon="6.46425">
        <ele>883.59</ele>
        <time>2012-08-25T15:41:22Z</time>
      </trkpt>
      <trkpt lat="43.96199" lon="6.46413">
        <ele>883.59</ele>
        <time>2012-08-25T15:41:23Z</time>
      </trkpt>
      <trkpt lat="43.96202" lon="6.46401">
        <ele>883.11</ele>
        <time>2012-08-25T15:41:24Z</time>
      </trkpt>
      <trkpt lat="43.96203" lon="6.46388">
        <ele>882.63</ele>
        <time>2012-08-25T15:41:25Z</time>
      </trkpt>
      <trkpt lat="43.96203" lon="6.46376">
        <ele>882.15</ele>
        <time>2012-08-25T15:41:26Z</time>
      </trkpt>
      <trkpt lat="43.96203" lon="6.46364">
        <ele>881.67</ele>
        <time>2012-08-25T15:41:27Z</time>
      </trkpt>
      <trkpt lat="43.96202" lon="6.46352">
        <ele>881.19</ele>
        <time>2012-08-25T15:41:28Z</time>
      </trkpt>
      <trkpt lat="43.96196" lon="6.46274">
        <ele>878.3</ele>
        <time>2012-08-25T15:41:34Z</time>
      </trkpt>
      <trkpt lat="43.96197" lon="6.46259">
        <ele>878.3</ele>
        <time>2012-08-25T15:41:35Z</time>
      </trkpt>
      <trkpt lat="43.962" lon="6.46243">
        <ele>877.82</ele>
        <time>2012-08-25T15:41:36Z</time>
      </trkpt>
      <trkpt lat="43.96239" lon="6.46048">
        <ele>874.46</ele>
        <time>2012-08-25T15:41:47Z</time>
      </trkpt>
      <trkpt lat="43.96242" lon="6.4601">
        <ele>874.46</ele>
        <time>2012-08-25T15:41:49Z</time>
      </trkpt>
      <trkpt lat="43.96241" lon="6.45991">
        <ele>874.46</ele>
        <time>2012-08-25T15:41:50Z</time>
      </trkpt>
      <trkpt lat="43.96239" lon="6.45972">
        <ele>874.46</ele>
        <time>2012-08-25T15:41:51Z</time>
      </trkpt>
      <trkpt lat="43.96227" lon="6.45883">
        <ele>873.01</ele>
        <time>2012-08-25T15:41:56Z</time>
      </trkpt>
      <trkpt lat="43.96228" lon="6.45865">
        <ele>872.53</ele>
        <time>2012-08-25T15:41:57Z</time>
      </trkpt>
      <trkpt lat="43.9623" lon="6.45847">
        <ele>872.05</ele>
        <time>2012-08-25T15:41:58Z</time>
      </trkpt>
      <trkpt lat="43.96276" lon="6.45617">
        <ele>867.73</ele>
        <time>2012-08-25T15:42:10Z</time>
      </trkpt>
      <trkpt lat="43.9634" lon="6.45399">
        <ele>864.36</ele>
        <time>2012-08-25T15:42:21Z</time>
      </trkpt>
      <trkpt lat="43.9644" lon="6.45189">
        <ele>861.48</ele>
        <time>2012-08-25T15:42:33Z</time>
      </trkpt>
      <trkpt lat="43.96456" lon="6.45143">
        <ele>860.52</ele>
        <time>2012-08-25T15:42:36Z</time>
      </trkpt>
      <trkpt lat="43.96463" lon="6.4513">
        <ele>860.52</ele>
        <time>2012-08-25T15:42:37Z</time>
      </trkpt>
      <trkpt lat="43.96471" lon="6.45118">
        <ele>860.04</ele>
        <time>2012-08-25T15:42:38Z</time>
      </trkpt>
      <trkpt lat="43.96481" lon="6.45108">
        <ele>860.04</ele>
        <time>2012-08-25T15:42:39Z</time>
      </trkpt>
      <trkpt lat="43.96492" lon="6.45099">
        <ele>859.56</ele>
        <time>2012-08-25T15:42:40Z</time>
      </trkpt>
      <trkpt lat="43.96502" lon="6.4509">
        <ele>859.56</ele>
        <time>2012-08-25T15:42:41Z</time>
      </trkpt>
      <trkpt lat="43.96511" lon="6.45079">
        <ele>859.08</ele>
        <time>2012-08-25T15:42:42Z</time>
      </trkpt>
      <trkpt lat="43.96518" lon="6.45067">
        <ele>859.08</ele>
        <time>2012-08-25T15:42:43Z</time>
      </trkpt>
      <trkpt lat="43.96525" lon="6.45053">
        <ele>858.59</ele>
        <time>2012-08-25T15:42:44Z</time>
      </trkpt>
      <trkpt lat="43.96529" lon="6.45039">
        <ele>858.59</ele>
        <time>2012-08-25T15:42:45Z</time>
      </trkpt>
      <trkpt lat="43.96532" lon="6.45022">
        <ele>858.59</ele>
        <time>2012-08-25T15:42:46Z</time>
      </trkpt>
      <trkpt lat="43.96533" lon="6.45006">
        <ele>858.11</ele>
        <time>2012-08-25T15:42:47Z</time>
      </trkpt>
      <trkpt lat="43.96534" lon="6.44989">
        <ele>858.11</ele>
        <time>2012-08-25T15:42:48Z</time>
      </trkpt>
      <trkpt lat="43.96533" lon="6.44973">
        <ele>858.11</ele>
        <time>2012-08-25T15:42:49Z</time>
      </trkpt>
      <trkpt lat="43.96531" lon="6.44957">
        <ele>858.11</ele>
        <time>2012-08-25T15:42:50Z</time>
      </trkpt>
      <trkpt lat="43.96528" lon="6.44941">
        <ele>857.63</ele>
        <time>2012-08-25T15:42:51Z</time>
      </trkpt>
      <trkpt lat="43.96523" lon="6.44926">
        <ele>857.63</ele>
        <time>2012-08-25T15:42:52Z</time>
      </trkpt>
      <trkpt lat="43.96516" lon="6.44912">
        <ele>857.63</ele>
        <time>2012-08-25T15:42:53Z</time>
      </trkpt>
      <trkpt lat="43.96508" lon="6.44899">
        <ele>857.15</ele>
        <time>2012-08-25T15:42:54Z</time>
      </trkpt>
      <trkpt lat="43.96498" lon="6.44886">
        <ele>857.15</ele>
        <time>2012-08-25T15:42:55Z</time>
      </trkpt>
      <trkpt lat="43.96487" lon="6.44875">
        <ele>856.67</ele>
        <time>2012-08-25T15:42:56Z</time>
      </trkpt>
      <trkpt lat="43.96475" lon="6.44864">
        <ele>856.19</ele>
        <time>2012-08-25T15:42:57Z</time>
      </trkpt>
      <trkpt lat="43.9644" lon="6.44829">
        <ele>855.23</ele>
        <time>2012-08-25T15:43:00Z</time>
      </trkpt>
      <trkpt lat="43.96323" lon="6.44676">
        <ele>856.19</ele>
        <time>2012-08-25T15:43:10Z</time>
      </trkpt>
      <trkpt lat="43.96262" lon="6.44599">
        <ele>855.71</ele>
        <time>2012-08-25T15:43:16Z</time>
      </trkpt>
      <trkpt lat="43.96256" lon="6.44584">
        <ele>855.23</ele>
        <time>2012-08-25T15:43:17Z</time>
      </trkpt>
      <trkpt lat="43.96253" lon="6.44568">
        <ele>852.83</ele>
        <time>2012-08-25T15:43:18Z</time>
      </trkpt>
      <trkpt lat="43.96251" lon="6.4455">
        <ele>851.38</ele>
        <time>2012-08-25T15:43:19Z</time>
      </trkpt>
      <trkpt lat="43.9625" lon="6.44531">
        <ele>851.38</ele>
        <time>2012-08-25T15:43:20Z</time>
      </trkpt>
      <trkpt lat="43.96245" lon="6.44492">
        <ele>850.9</ele>
        <time>2012-08-25T15:43:22Z</time>
      </trkpt>
      <trkpt lat="43.9624" lon="6.44473">
        <ele>850.9</ele>
        <time>2012-08-25T15:43:23Z</time>
      </trkpt>
      <trkpt lat="43.96234" lon="6.44455">
        <ele>850.42</ele>
        <time>2012-08-25T15:43:24Z</time>
      </trkpt>
      <trkpt lat="43.96226" lon="6.44439">
        <ele>850.42</ele>
        <time>2012-08-25T15:43:25Z</time>
      </trkpt>
      <trkpt lat="43.96216" lon="6.44423">
        <ele>849.46</ele>
        <time>2012-08-25T15:43:26Z</time>
      </trkpt>
      <trkpt lat="43.96206" lon="6.44407">
        <ele>848.98</ele>
        <time>2012-08-25T15:43:27Z</time>
      </trkpt>
      <trkpt lat="43.96197" lon="6.44389">
        <ele>848.5</ele>
        <time>2012-08-25T15:43:28Z</time>
      </trkpt>
      <trkpt lat="43.96188" lon="6.4437">
        <ele>848.02</ele>
        <time>2012-08-25T15:43:29Z</time>
      </trkpt>
      <trkpt lat="43.9612" lon="6.44176">
        <ele>843.21</ele>
        <time>2012-08-25T15:43:39Z</time>
      </trkpt>
      <trkpt lat="43.96117" lon="6.44158">
        <ele>842.25</ele>
        <time>2012-08-25T15:43:40Z</time>
      </trkpt>
      <trkpt lat="43.96117" lon="6.44138">
        <ele>841.29</ele>
        <time>2012-08-25T15:43:41Z</time>
      </trkpt>
      <trkpt lat="43.96118" lon="6.44119">
        <ele>840.81</ele>
        <time>2012-08-25T15:43:42Z</time>
      </trkpt>
      <trkpt lat="43.96121" lon="6.44099">
        <ele>839.85</ele>
        <time>2012-08-25T15:43:43Z</time>
      </trkpt>
      <trkpt lat="43.96125" lon="6.44079">
        <ele>839.37</ele>
        <time>2012-08-25T15:43:44Z</time>
      </trkpt>
      <trkpt lat="43.96175" lon="6.43819">
        <ele>835.52</ele>
        <time>2012-08-25T15:43:57Z</time>
      </trkpt>
      <trkpt lat="43.9618" lon="6.43804">
        <ele>835.52</ele>
        <time>2012-08-25T15:43:58Z</time>
      </trkpt>
      <trkpt lat="43.96187" lon="6.43791">
        <ele>835.04</ele>
        <time>2012-08-25T15:43:59Z</time>
      </trkpt>
      <trkpt lat="43.96193" lon="6.43779">
        <ele>835.52</ele>
        <time>2012-08-25T15:44:00Z</time>
      </trkpt>
      <trkpt lat="43.96197" lon="6.43766">
        <ele>835.52</ele>
        <time>2012-08-25T15:44:01Z</time>
      </trkpt>
      <trkpt lat="43.96199" lon="6.43752">
        <ele>835.52</ele>
        <time>2012-08-25T15:44:02Z</time>
      </trkpt>
      <trkpt lat="43.96199" lon="6.43738">
        <ele>835.52</ele>
        <time>2012-08-25T15:44:03Z</time>
      </trkpt>
      <trkpt lat="43.96198" lon="6.43723">
        <ele>835.52</ele>
        <time>2012-08-25T15:44:04Z</time>
      </trkpt>
      <trkpt lat="43.96183" lon="6.43583">
        <ele>834.56</ele>
        <time>2012-08-25T15:44:12Z</time>
      </trkpt>
      <trkpt lat="43.96178" lon="6.43566">
        <ele>834.08</ele>
        <time>2012-08-25T15:44:13Z</time>
      </trkpt>
      <trkpt lat="43.96172" lon="6.4355">
        <ele>833.6</ele>
        <time>2012-08-25T15:44:14Z</time>
      </trkpt>
      <trkpt lat="43.96094" lon="6.43393">
        <ele>831.68</ele>
        <time>2012-08-25T15:44:24Z</time>
      </trkpt>
      <trkpt lat="43.96085" lon="6.43383">
        <ele>831.2</ele>
        <time>2012-08-25T15:44:25Z</time>
      </trkpt>
      <trkpt lat="43.96076" lon="6.43373">
        <ele>830.72</ele>
        <time>2012-08-25T15:44:26Z</time>
      </trkpt>
      <trkpt lat="43.96066" lon="6.43365">
        <ele>829.27</ele>
        <time>2012-08-25T15:44:27Z</time>
      </trkpt>
      <trkpt lat="43.96055" lon="6.43358">
        <ele>828.79</ele>
        <time>2012-08-25T15:44:28Z</time>
      </trkpt>
      <trkpt lat="43.95969" lon="6.43291">
        <ele>826.87</ele>
        <time>2012-08-25T15:44:35Z</time>
      </trkpt>
      <trkpt lat="43.95958" lon="6.43278">
        <ele>826.87</ele>
        <time>2012-08-25T15:44:36Z</time>
      </trkpt>
      <trkpt lat="43.9595" lon="6.43262">
        <ele>826.39</ele>
        <time>2012-08-25T15:44:37Z</time>
      </trkpt>
      <trkpt lat="43.95944" lon="6.43245">
        <ele>825.91</ele>
        <time>2012-08-25T15:44:38Z</time>
      </trkpt>
      <trkpt lat="43.95939" lon="6.43226">
        <ele>825.91</ele>
        <time>2012-08-25T15:44:39Z</time>
      </trkpt>
      <trkpt lat="43.95869" lon="6.43052">
        <ele>824.47</ele>
        <time>2012-08-25T15:44:48Z</time>
      </trkpt>
      <trkpt lat="43.95857" lon="6.43037">
        <ele>823.99</ele>
        <time>2012-08-25T15:44:49Z</time>
      </trkpt>
      <trkpt lat="43.95844" lon="6.43022">
        <ele>823.51</ele>
        <time>2012-08-25T15:44:50Z</time>
      </trkpt>
      <trkpt lat="43.95678" lon="6.42871">
        <ele>819.66</ele>
        <time>2012-08-25T15:45:01Z</time>
      </trkpt>
      <trkpt lat="43.95595" lon="6.42733">
        <ele>816.78</ele>
        <time>2012-08-25T15:45:08Z</time>
      </trkpt>
      <trkpt lat="43.95545" lon="6.42564">
        <ele>813.89</ele>
        <time>2012-08-25T15:45:16Z</time>
      </trkpt>
      <trkpt lat="43.95465" lon="6.42442">
        <ele>809.09</ele>
        <time>2012-08-25T15:45:23Z</time>
      </trkpt>
      <trkpt lat="43.95325" lon="6.42224">
        <ele>801.4</ele>
        <time>2012-08-25T15:45:34Z</time>
      </trkpt>
      <trkpt lat="43.95288" lon="6.42047">
        <ele>798.51</ele>
        <time>2012-08-25T15:45:41Z</time>
      </trkpt>
      <trkpt lat="43.95263" lon="6.41915">
        <ele>797.07</ele>
        <time>2012-08-25T15:45:46Z</time>
      </trkpt>
      <trkpt lat="43.95253" lon="6.4189">
        <ele>796.59</ele>
        <time>2012-08-25T15:45:47Z</time>
      </trkpt>
      <trkpt lat="43.95156" lon="6.41682">
        <ele>795.63</ele>
        <time>2012-08-25T15:45:56Z</time>
      </trkpt>
      <trkpt lat="43.95149" lon="6.41659">
        <ele>795.63</ele>
        <time>2012-08-25T15:45:57Z</time>
      </trkpt>
      <trkpt lat="43.95145" lon="6.41636">
        <ele>794.67</ele>
        <time>2012-08-25T15:45:58Z</time>
      </trkpt>
      <trkpt lat="43.95142" lon="6.41612">
        <ele>793.71</ele>
        <time>2012-08-25T15:45:59Z</time>
      </trkpt>
      <trkpt lat="43.95142" lon="6.41588">
        <ele>793.22</ele>
        <time>2012-08-25T15:46:00Z</time>
      </trkpt>
      <trkpt lat="43.95145" lon="6.41564">
        <ele>792.74</ele>
        <time>2012-08-25T15:46:01Z</time>
      </trkpt>
      <trkpt lat="43.95148" lon="6.41539">
        <ele>791.78</ele>
        <time>2012-08-25T15:46:02Z</time>
      </trkpt>
      <trkpt lat="43.95152" lon="6.41514">
        <ele>790.82</ele>
        <time>2012-08-25T15:46:03Z</time>
      </trkpt>
      <trkpt lat="43.95151" lon="6.41321">
        <ele>786.5</ele>
        <time>2012-08-25T15:46:10Z</time>
      </trkpt>
      <trkpt lat="43.95157" lon="6.41074">
        <ele>782.65</ele>
        <time>2012-08-25T15:46:19Z</time>
      </trkpt>
      <trkpt lat="43.95242" lon="6.40744">
        <ele>777.36</ele>
        <time>2012-08-25T15:46:31Z</time>
      </trkpt>
      <trkpt lat="43.95373" lon="6.40406">
        <ele>774.96</ele>
        <time>2012-08-25T15:46:43Z</time>
      </trkpt>
      <trkpt lat="43.95488" lon="6.40072">
        <ele>772.56</ele>
        <time>2012-08-25T15:46:54Z</time>
      </trkpt>
      <trkpt lat="43.9555" lon="6.39644">
        <ele>764.87</ele>
        <time>2012-08-25T15:47:07Z</time>
      </trkpt>
      <trkpt lat="43.95623" lon="6.39201">
        <ele>758.14</ele>
        <time>2012-08-25T15:47:21Z</time>
      </trkpt>
      <trkpt lat="43.95695" lon="6.39017">
        <ele>755.25</ele>
        <time>2012-08-25T15:47:27Z</time>
      </trkpt>
      <trkpt lat="43.95866" lon="6.38694">
        <ele>748.52</ele>
        <time>2012-08-25T15:47:39Z</time>
      </trkpt>
      <trkpt lat="43.95962" lon="6.38567">
        <ele>745.64</ele>
        <time>2012-08-25T15:47:45Z</time>
      </trkpt>
      <trkpt lat="43.96091" lon="6.38436">
        <ele>745.16</ele>
        <time>2012-08-25T15:47:54Z</time>
      </trkpt>
      <trkpt lat="43.96102" lon="6.38423">
        <ele>744.68</ele>
        <time>2012-08-25T15:47:55Z</time>
      </trkpt>
      <trkpt lat="43.9611" lon="6.38409">
        <ele>744.68</ele>
        <time>2012-08-25T15:47:56Z</time>
      </trkpt>
      <trkpt lat="43.96116" lon="6.38395">
        <ele>744.68</ele>
        <time>2012-08-25T15:47:57Z</time>
      </trkpt>
      <trkpt lat="43.96119" lon="6.38379">
        <ele>744.68</ele>
        <time>2012-08-25T15:47:58Z</time>
      </trkpt>
      <trkpt lat="43.96121" lon="6.38361">
        <ele>744.68</ele>
        <time>2012-08-25T15:47:59Z</time>
      </trkpt>
      <trkpt lat="43.9612" lon="6.38342">
        <ele>745.16</ele>
        <time>2012-08-25T15:48:00Z</time>
      </trkpt>
      <trkpt lat="43.96117" lon="6.38322">
        <ele>745.16</ele>
        <time>2012-08-25T15:48:01Z</time>
      </trkpt>
      <trkpt lat="43.96114" lon="6.38301">
        <ele>745.16</ele>
        <time>2012-08-25T15:48:02Z</time>
      </trkpt>
      <trkpt lat="43.96102" lon="6.38256">
        <ele>745.16</ele>
        <time>2012-08-25T15:48:04Z</time>
      </trkpt>
      <trkpt lat="43.96095" lon="6.38233">
        <ele>745.16</ele>
        <time>2012-08-25T15:48:05Z</time>
      </trkpt>
      <trkpt lat="43.95988" lon="6.37967">
        <ele>746.12</ele>
        <time>2012-08-25T15:48:16Z</time>
      </trkpt>
      <trkpt lat="43.95935" lon="6.37835">
        <ele>746.6</ele>
        <time>2012-08-25T15:48:23Z</time>
      </trkpt>
      <trkpt lat="43.95917" lon="6.37804">
        <ele>746.6</ele>
        <time>2012-08-25T15:48:25Z</time>
      </trkpt>
      <trkpt lat="43.95906" lon="6.37789">
        <ele>746.6</ele>
        <time>2012-08-25T15:48:26Z</time>
      </trkpt>
      <trkpt lat="43.95894" lon="6.37776">
        <ele>746.6</ele>
        <time>2012-08-25T15:48:27Z</time>
      </trkpt>
      <trkpt lat="43.95751" lon="6.37635">
        <ele>744.2</ele>
        <time>2012-08-25T15:48:37Z</time>
      </trkpt>
      <trkpt lat="43.95661" lon="6.37514">
        <ele>745.16</ele>
        <time>2012-08-25T15:48:44Z</time>
      </trkpt>
      <trkpt lat="43.95588" lon="6.37342">
        <ele>744.68</ele>
        <time>2012-08-25T15:48:53Z</time>
      </trkpt>
      <trkpt lat="43.95576" lon="6.37312">
        <ele>744.68</ele>
        <time>2012-08-25T15:48:55Z</time>
      </trkpt>
      <trkpt lat="43.95569" lon="6.37298">
        <ele>744.2</ele>
        <time>2012-08-25T15:48:56Z</time>
      </trkpt>
      <trkpt lat="43.95559" lon="6.37285">
        <ele>743.72</ele>
        <time>2012-08-25T15:48:57Z</time>
      </trkpt>
      <trkpt lat="43.95548" lon="6.37272">
        <ele>743.24</ele>
        <time>2012-08-25T15:48:58Z</time>
      </trkpt>
      <trkpt lat="43.95536" lon="6.3726">
        <ele>742.76</ele>
        <time>2012-08-25T15:48:59Z</time>
      </trkpt>
      <trkpt lat="43.9544" lon="6.37129">
        <ele>735.55</ele>
        <time>2012-08-25T15:49:07Z</time>
      </trkpt>
      <trkpt lat="43.95386" lon="6.36976">
        <ele>731.22</ele>
        <time>2012-08-25T15:49:15Z</time>
      </trkpt>
      <trkpt lat="43.9533" lon="6.36848">
        <ele>729.78</ele>
        <time>2012-08-25T15:49:24Z</time>
      </trkpt>
      <trkpt lat="43.95318" lon="6.36815">
        <ele>730.26</ele>
        <time>2012-08-25T15:49:26Z</time>
      </trkpt>
      <trkpt lat="43.9529" lon="6.36723">
        <ele>737.47</ele>
        <time>2012-08-25T15:49:34Z</time>
      </trkpt>
      <trkpt lat="43.95271" lon="6.36695">
        <ele>743.72</ele>
        <time>2012-08-25T15:49:38Z</time>
      </trkpt>
      <trkpt lat="43.95265" lon="6.36687">
        <ele>744.68</ele>
        <time>2012-08-25T15:49:39Z</time>
      </trkpt>
      <trkpt lat="43.95249" lon="6.36672">
        <ele>743.24</ele>
        <time>2012-08-25T15:49:41Z</time>
      </trkpt>
      <trkpt lat="43.95229" lon="6.36651">
        <ele>742.28</ele>
        <time>2012-08-25T15:49:44Z</time>
      </trkpt>
      <trkpt lat="43.95222" lon="6.36648">
        <ele>743.72</ele>
        <time>2012-08-25T15:49:45Z</time>
      </trkpt>
      <trkpt lat="43.95214" lon="6.36646">
        <ele>744.68</ele>
        <time>2012-08-25T15:49:46Z</time>
      </trkpt>
      <trkpt lat="43.95208" lon="6.36641">
        <ele>743.72</ele>
        <time>2012-08-25T15:49:47Z</time>
      </trkpt>
      <trkpt lat="43.95204" lon="6.36637">
        <ele>741.79</ele>
        <time>2012-08-25T15:49:48Z</time>
      </trkpt>
      <trkpt lat="43.95202" lon="6.36632">
        <ele>739.39</ele>
        <time>2012-08-25T15:49:49Z</time>
      </trkpt>
      <trkpt lat="43.95202" lon="6.36626">
        <ele>737.47</ele>
        <time>2012-08-25T15:49:50Z</time>
      </trkpt>
      <trkpt lat="43.95204" lon="6.3662">
        <ele>736.03</ele>
        <time>2012-08-25T15:49:51Z</time>
      </trkpt>
      <trkpt lat="43.95206" lon="6.36614">
        <ele>734.58</ele>
        <time>2012-08-25T15:49:52Z</time>
      </trkpt>
      <trkpt lat="43.95211" lon="6.36606">
        <ele>733.62</ele>
        <time>2012-08-25T15:49:53Z</time>
      </trkpt>
      <trkpt lat="43.95217" lon="6.36597">
        <ele>732.66</ele>
        <time>2012-08-25T15:49:54Z</time>
      </trkpt>
      <trkpt lat="43.95224" lon="6.36588">
        <ele>731.7</ele>
        <time>2012-08-25T15:49:55Z</time>
      </trkpt>
      <trkpt lat="43.95303" lon="6.36486">
        <ele>728.34</ele>
        <time>2012-08-25T15:50:04Z</time>
      </trkpt>
      <trkpt lat="43.95389" lon="6.36381">
        <ele>726.41</ele>
        <time>2012-08-25T15:50:12Z</time>
      </trkpt>
      <trkpt lat="43.95402" lon="6.3637">
        <ele>726.41</ele>
        <time>2012-08-25T15:50:13Z</time>
      </trkpt>
      <trkpt lat="43.95416" lon="6.36361">
        <ele>725.93</ele>
        <time>2012-08-25T15:50:14Z</time>
      </trkpt>
      <trkpt lat="43.95539" lon="6.3626">
        <ele>723.53</ele>
        <time>2012-08-25T15:50:23Z</time>
      </trkpt>
      <trkpt lat="43.95663" lon="6.36093">
        <ele>722.57</ele>
        <time>2012-08-25T15:50:32Z</time>
      </trkpt>
      <trkpt lat="43.95777" lon="6.35965">
        <ele>722.09</ele>
        <time>2012-08-25T15:50:39Z</time>
      </trkpt>
      <trkpt lat="43.95788" lon="6.35941">
        <ele>722.09</ele>
        <time>2012-08-25T15:50:40Z</time>
      </trkpt>
      <trkpt lat="43.95881" lon="6.35788">
        <ele>721.13</ele>
        <time>2012-08-25T15:50:47Z</time>
      </trkpt>
      <trkpt lat="43.96046" lon="6.35589">
        <ele>720.65</ele>
        <time>2012-08-25T15:50:57Z</time>
      </trkpt>
      <trkpt lat="43.96196" lon="6.35392">
        <ele>719.2</ele>
        <time>2012-08-25T15:51:07Z</time>
      </trkpt>
      <trkpt lat="43.96206" lon="6.3537">
        <ele>719.2</ele>
        <time>2012-08-25T15:51:08Z</time>
      </trkpt>
      <trkpt lat="43.96214" lon="6.35347">
        <ele>718.72</ele>
        <time>2012-08-25T15:51:09Z</time>
      </trkpt>
      <trkpt lat="43.9622" lon="6.35323">
        <ele>718.72</ele>
        <time>2012-08-25T15:51:10Z</time>
      </trkpt>
      <trkpt lat="43.96224" lon="6.35297">
        <ele>718.72</ele>
        <time>2012-08-25T15:51:11Z</time>
      </trkpt>
      <trkpt lat="43.96226" lon="6.3527">
        <ele>718.24</ele>
        <time>2012-08-25T15:51:12Z</time>
      </trkpt>
      <trkpt lat="43.96225" lon="6.35244">
        <ele>718.24</ele>
        <time>2012-08-25T15:51:13Z</time>
      </trkpt>
      <trkpt lat="43.96222" lon="6.35217">
        <ele>718.24</ele>
        <time>2012-08-25T15:51:14Z</time>
      </trkpt>
      <trkpt lat="43.96215" lon="6.35191">
        <ele>718.72</ele>
        <time>2012-08-25T15:51:15Z</time>
      </trkpt>
      <trkpt lat="43.96206" lon="6.35165">
        <ele>719.2</ele>
        <time>2012-08-25T15:51:16Z</time>
      </trkpt>
      <trkpt lat="43.96195" lon="6.35139">
        <ele>719.2</ele>
        <time>2012-08-25T15:51:17Z</time>
      </trkpt>
      <trkpt lat="43.96167" lon="6.35058">
        <ele>718.72</ele>
        <time>2012-08-25T15:51:20Z</time>
      </trkpt>
      <trkpt lat="43.96161" lon="6.35031">
        <ele>718.72</ele>
        <time>2012-08-25T15:51:21Z</time>
      </trkpt>
      <trkpt lat="43.96159" lon="6.35004">
        <ele>718.72</ele>
        <time>2012-08-25T15:51:22Z</time>
      </trkpt>
      <trkpt lat="43.96159" lon="6.34976">
        <ele>718.24</ele>
        <time>2012-08-25T15:51:23Z</time>
      </trkpt>
      <trkpt lat="43.96162" lon="6.34948">
        <ele>718.24</ele>
        <time>2012-08-25T15:51:24Z</time>
      </trkpt>
      <trkpt lat="43.96166" lon="6.34919">
        <ele>717.76</ele>
        <time>2012-08-25T15:51:25Z</time>
      </trkpt>
      <trkpt lat="43.96173" lon="6.3489">
        <ele>717.28</ele>
        <time>2012-08-25T15:51:26Z</time>
      </trkpt>
      <trkpt lat="43.9618" lon="6.3486">
        <ele>716.8</ele>
        <time>2012-08-25T15:51:27Z</time>
      </trkpt>
      <trkpt lat="43.96195" lon="6.3477">
        <ele>716.8</ele>
        <time>2012-08-25T15:51:30Z</time>
      </trkpt>
      <trkpt lat="43.96196" lon="6.34739">
        <ele>716.8</ele>
        <time>2012-08-25T15:51:31Z</time>
      </trkpt>
      <trkpt lat="43.96184" lon="6.34563">
        <ele>716.8</ele>
        <time>2012-08-25T15:51:37Z</time>
      </trkpt>
      <trkpt lat="43.96177" lon="6.3454">
        <ele>716.8</ele>
        <time>2012-08-25T15:51:38Z</time>
      </trkpt>
      <trkpt lat="43.96166" lon="6.34518">
        <ele>716.32</ele>
        <time>2012-08-25T15:51:39Z</time>
      </trkpt>
      <trkpt lat="43.96153" lon="6.34499">
        <ele>715.84</ele>
        <time>2012-08-25T15:51:40Z</time>
      </trkpt>
      <trkpt lat="43.96138" lon="6.34481">
        <ele>715.36</ele>
        <time>2012-08-25T15:51:41Z</time>
      </trkpt>
      <trkpt lat="43.96123" lon="6.34463">
        <ele>714.88</ele>
        <time>2012-08-25T15:51:42Z</time>
      </trkpt>
      <trkpt lat="43.96045" lon="6.34382">
        <ele>712.95</ele>
        <time>2012-08-25T15:51:47Z</time>
      </trkpt>
      <trkpt lat="43.96033" lon="6.34363">
        <ele>712.47</ele>
        <time>2012-08-25T15:51:48Z</time>
      </trkpt>
      <trkpt lat="43.96023" lon="6.34341">
        <ele>712.47</ele>
        <time>2012-08-25T15:51:49Z</time>
      </trkpt>
      <trkpt lat="43.96016" lon="6.34317">
        <ele>712.47</ele>
        <time>2012-08-25T15:51:50Z</time>
      </trkpt>
      <trkpt lat="43.96013" lon="6.34292">
        <ele>710.07</ele>
        <time>2012-08-25T15:51:51Z</time>
      </trkpt>
      <trkpt lat="43.96013" lon="6.34266">
        <ele>709.59</ele>
        <time>2012-08-25T15:51:52Z</time>
      </trkpt>
      <trkpt lat="43.96016" lon="6.34238">
        <ele>709.59</ele>
        <time>2012-08-25T15:51:53Z</time>
      </trkpt>
      <trkpt lat="43.96019" lon="6.3421">
        <ele>709.11</ele>
        <time>2012-08-25T15:51:54Z</time>
      </trkpt>
      <trkpt lat="43.96049" lon="6.33905">
        <ele>709.11</ele>
        <time>2012-08-25T15:52:04Z</time>
      </trkpt>
      <trkpt lat="43.96093" lon="6.33741">
        <ele>708.63</ele>
        <time>2012-08-25T15:52:10Z</time>
      </trkpt>
      <trkpt lat="43.96105" lon="6.33718">
        <ele>708.63</ele>
        <time>2012-08-25T15:52:11Z</time>
      </trkpt>
      <trkpt lat="43.96179" lon="6.33568">
        <ele>708.63</ele>
        <time>2012-08-25T15:52:18Z</time>
      </trkpt>
      <trkpt lat="43.96185" lon="6.33547">
        <ele>708.15</ele>
        <time>2012-08-25T15:52:19Z</time>
      </trkpt>
      <trkpt lat="43.96189" lon="6.33524">
        <ele>708.15</ele>
        <time>2012-08-25T15:52:20Z</time>
      </trkpt>
      <trkpt lat="43.96191" lon="6.335">
        <ele>708.15</ele>
        <time>2012-08-25T15:52:21Z</time>
      </trkpt>
      <trkpt lat="43.96192" lon="6.33476">
        <ele>708.15</ele>
        <time>2012-08-25T15:52:22Z</time>
      </trkpt>
      <trkpt lat="43.96191" lon="6.33452">
        <ele>707.67</ele>
        <time>2012-08-25T15:52:23Z</time>
      </trkpt>
      <trkpt lat="43.96188" lon="6.33427">
        <ele>707.67</ele>
        <time>2012-08-25T15:52:24Z</time>
      </trkpt>
      <trkpt lat="43.96147" lon="6.33088">
        <ele>706.23</ele>
        <time>2012-08-25T15:52:37Z</time>
      </trkpt>
      <trkpt lat="43.96144" lon="6.33039">
        <ele>705.75</ele>
        <time>2012-08-25T15:52:39Z</time>
      </trkpt>
      <trkpt lat="43.96146" lon="6.33016">
        <ele>705.75</ele>
        <time>2012-08-25T15:52:40Z</time>
      </trkpt>
      <trkpt lat="43.9615" lon="6.32994">
        <ele>705.75</ele>
        <time>2012-08-25T15:52:41Z</time>
      </trkpt>
      <trkpt lat="43.96177" lon="6.32855">
        <ele>705.75</ele>
        <time>2012-08-25T15:52:47Z</time>
      </trkpt>
      <trkpt lat="43.96177" lon="6.32831">
        <ele>705.75</ele>
        <time>2012-08-25T15:52:48Z</time>
      </trkpt>
      <trkpt lat="43.96174" lon="6.32807">
        <ele>705.75</ele>
        <time>2012-08-25T15:52:49Z</time>
      </trkpt>
      <trkpt lat="43.96168" lon="6.3272">
        <ele>704.78</ele>
        <time>2012-08-25T15:52:53Z</time>
      </trkpt>
      <trkpt lat="43.96171" lon="6.327">
        <ele>704.3</ele>
        <time>2012-08-25T15:52:54Z</time>
      </trkpt>
      <trkpt lat="43.96176" lon="6.32679">
        <ele>703.82</ele>
        <time>2012-08-25T15:52:55Z</time>
      </trkpt>
      <trkpt lat="43.96184" lon="6.32659">
        <ele>703.34</ele>
        <time>2012-08-25T15:52:56Z</time>
      </trkpt>
      <trkpt lat="43.96193" lon="6.32639">
        <ele>702.86</ele>
        <time>2012-08-25T15:52:57Z</time>
      </trkpt>
      <trkpt lat="43.96203" lon="6.32618">
        <ele>701.9</ele>
        <time>2012-08-25T15:52:58Z</time>
      </trkpt>
      <trkpt lat="43.96289" lon="6.32419">
        <ele>699.5</ele>
        <time>2012-08-25T15:53:06Z</time>
      </trkpt>
      <trkpt lat="43.96294" lon="6.3239">
        <ele>699.5</ele>
        <time>2012-08-25T15:53:07Z</time>
      </trkpt>
      <trkpt lat="43.96296" lon="6.32362">
        <ele>699.5</ele>
        <time>2012-08-25T15:53:08Z</time>
      </trkpt>
      <trkpt lat="43.96297" lon="6.32333">
        <ele>699.5</ele>
        <time>2012-08-25T15:53:09Z</time>
      </trkpt>
      <trkpt lat="43.96298" lon="6.32304">
        <ele>699.5</ele>
        <time>2012-08-25T15:53:10Z</time>
      </trkpt>
      <trkpt lat="43.96305" lon="6.32223">
        <ele>698.53</ele>
        <time>2012-08-25T15:53:13Z</time>
      </trkpt>
      <trkpt lat="43.96312" lon="6.32199">
        <ele>698.53</ele>
        <time>2012-08-25T15:53:14Z</time>
      </trkpt>
      <trkpt lat="43.96321" lon="6.32176">
        <ele>698.05</ele>
        <time>2012-08-25T15:53:15Z</time>
      </trkpt>
      <trkpt lat="43.96332" lon="6.32157">
        <ele>698.05</ele>
        <time>2012-08-25T15:53:16Z</time>
      </trkpt>
      <trkpt lat="43.96345" lon="6.3214">
        <ele>698.05</ele>
        <time>2012-08-25T15:53:17Z</time>
      </trkpt>
      <trkpt lat="43.9636" lon="6.32124">
        <ele>697.57</ele>
        <time>2012-08-25T15:53:18Z</time>
      </trkpt>
      <trkpt lat="43.96376" lon="6.32108">
        <ele>697.57</ele>
        <time>2012-08-25T15:53:19Z</time>
      </trkpt>
      <trkpt lat="43.96549" lon="6.31944">
        <ele>698.05</ele>
        <time>2012-08-25T15:53:29Z</time>
      </trkpt>
      <trkpt lat="43.96641" lon="6.31832">
        <ele>698.05</ele>
        <time>2012-08-25T15:53:35Z</time>
      </trkpt>
      <trkpt lat="43.96652" lon="6.31808">
        <ele>697.57</ele>
        <time>2012-08-25T15:53:36Z</time>
      </trkpt>
      <trkpt lat="43.96661" lon="6.31782">
        <ele>696.61</ele>
        <time>2012-08-25T15:53:37Z</time>
      </trkpt>
      <trkpt lat="43.9673" lon="6.31562">
        <ele>692.29</ele>
        <time>2012-08-25T15:53:46Z</time>
      </trkpt>
      <trkpt lat="43.96733" lon="6.31536">
        <ele>691.81</ele>
        <time>2012-08-25T15:53:47Z</time>
      </trkpt>
      <trkpt lat="43.96754" lon="6.31401">
        <ele>690.84</ele>
        <time>2012-08-25T15:53:52Z</time>
      </trkpt>
      <trkpt lat="43.96763" lon="6.31376">
        <ele>690.36</ele>
        <time>2012-08-25T15:53:53Z</time>
      </trkpt>
      <trkpt lat="43.96774" lon="6.31352">
        <ele>690.36</ele>
        <time>2012-08-25T15:53:54Z</time>
      </trkpt>
      <trkpt lat="43.96786" lon="6.3133">
        <ele>690.36</ele>
        <time>2012-08-25T15:53:55Z</time>
      </trkpt>
      <trkpt lat="43.96799" lon="6.3131">
        <ele>690.36</ele>
        <time>2012-08-25T15:53:56Z</time>
      </trkpt>
      <trkpt lat="43.96815" lon="6.31292">
        <ele>690.36</ele>
        <time>2012-08-25T15:53:57Z</time>
      </trkpt>
      <trkpt lat="43.96833" lon="6.31277">
        <ele>690.36</ele>
        <time>2012-08-25T15:53:58Z</time>
      </trkpt>
      <trkpt lat="43.96852" lon="6.31263">
        <ele>689.88</ele>
        <time>2012-08-25T15:53:59Z</time>
      </trkpt>
      <trkpt lat="43.96871" lon="6.31251">
        <ele>689.88</ele>
        <time>2012-08-25T15:54:00Z</time>
      </trkpt>
      <trkpt lat="43.97039" lon="6.31169">
        <ele>687.96</ele>
        <time>2012-08-25T15:54:09Z</time>
      </trkpt>
      <trkpt lat="43.97132" lon="6.31141">
        <ele>687.48</ele>
        <time>2012-08-25T15:54:14Z</time>
      </trkpt>
      <trkpt lat="43.97152" lon="6.31142">
        <ele>687.48</ele>
        <time>2012-08-25T15:54:15Z</time>
      </trkpt>
      <trkpt lat="43.97171" lon="6.31147">
        <ele>687.48</ele>
        <time>2012-08-25T15:54:16Z</time>
      </trkpt>
      <trkpt lat="43.9719" lon="6.31155">
        <ele>687.48</ele>
        <time>2012-08-25T15:54:17Z</time>
      </trkpt>
      <trkpt lat="43.97209" lon="6.31166">
        <ele>687.96</ele>
        <time>2012-08-25T15:54:18Z</time>
      </trkpt>
      <trkpt lat="43.97228" lon="6.31177">
        <ele>688.44</ele>
        <time>2012-08-25T15:54:19Z</time>
      </trkpt>
      <trkpt lat="43.97268" lon="6.31191">
        <ele>688.92</ele>
        <time>2012-08-25T15:54:21Z</time>
      </trkpt>
      <trkpt lat="43.97287" lon="6.31193">
        <ele>688.92</ele>
        <time>2012-08-25T15:54:22Z</time>
      </trkpt>
      <trkpt lat="43.97307" lon="6.3119">
        <ele>688.92</ele>
        <time>2012-08-25T15:54:23Z</time>
      </trkpt>
      <trkpt lat="43.97326" lon="6.31184">
        <ele>688.92</ele>
        <time>2012-08-25T15:54:24Z</time>
      </trkpt>
      <trkpt lat="43.97346" lon="6.31177">
        <ele>688.44</ele>
        <time>2012-08-25T15:54:25Z</time>
      </trkpt>
      <trkpt lat="43.9749" lon="6.31162">
        <ele>689.4</ele>
        <time>2012-08-25T15:54:32Z</time>
      </trkpt>
      <trkpt lat="43.97667" lon="6.31179">
        <ele>690.84</ele>
        <time>2012-08-25T15:54:41Z</time>
      </trkpt>
      <trkpt lat="43.97684" lon="6.31176">
        <ele>691.33</ele>
        <time>2012-08-25T15:54:42Z</time>
      </trkpt>
      <trkpt lat="43.97701" lon="6.31169">
        <ele>691.33</ele>
        <time>2012-08-25T15:54:43Z</time>
      </trkpt>
      <trkpt lat="43.97718" lon="6.31161">
        <ele>690.84</ele>
        <time>2012-08-25T15:54:44Z</time>
      </trkpt>
      <trkpt lat="43.97735" lon="6.31152">
        <ele>690.84</ele>
        <time>2012-08-25T15:54:45Z</time>
      </trkpt>
      <trkpt lat="43.97824" lon="6.31103">
        <ele>690.84</ele>
        <time>2012-08-25T15:54:50Z</time>
      </trkpt>
      <trkpt lat="43.9784" lon="6.31089">
        <ele>690.84</ele>
        <time>2012-08-25T15:54:51Z</time>
      </trkpt>
      <trkpt lat="43.97968" lon="6.30946">
        <ele>693.73</ele>
        <time>2012-08-25T15:55:00Z</time>
      </trkpt>
      <trkpt lat="43.9799" lon="6.3091">
        <ele>693.25</ele>
        <time>2012-08-25T15:55:02Z</time>
      </trkpt>
      <trkpt lat="43.97999" lon="6.3089">
        <ele>692.77</ele>
        <time>2012-08-25T15:55:03Z</time>
      </trkpt>
      <trkpt lat="43.98005" lon="6.30868">
        <ele>691.81</ele>
        <time>2012-08-25T15:55:04Z</time>
      </trkpt>
      <trkpt lat="43.9801" lon="6.30844">
        <ele>690.84</ele>
        <time>2012-08-25T15:55:05Z</time>
      </trkpt>
      <trkpt lat="43.98012" lon="6.30819">
        <ele>689.88</ele>
        <time>2012-08-25T15:55:06Z</time>
      </trkpt>
      <trkpt lat="43.98012" lon="6.30794">
        <ele>688.92</ele>
        <time>2012-08-25T15:55:07Z</time>
      </trkpt>
      <trkpt lat="43.98011" lon="6.30769">
        <ele>688.44</ele>
        <time>2012-08-25T15:55:08Z</time>
      </trkpt>
      <trkpt lat="43.98008" lon="6.30744">
        <ele>687.96</ele>
        <time>2012-08-25T15:55:09Z</time>
      </trkpt>
      <trkpt lat="43.98004" lon="6.30719">
        <ele>687</ele>
        <time>2012-08-25T15:55:10Z</time>
      </trkpt>
      <trkpt lat="43.98001" lon="6.30669">
        <ele>685.08</ele>
        <time>2012-08-25T15:55:12Z</time>
      </trkpt>
      <trkpt lat="43.98004" lon="6.30642">
        <ele>684.12</ele>
        <time>2012-08-25T15:55:13Z</time>
      </trkpt>
      <trkpt lat="43.98009" lon="6.30616">
        <ele>683.15</ele>
        <time>2012-08-25T15:55:14Z</time>
      </trkpt>
      <trkpt lat="43.98051" lon="6.30461">
        <ele>677.87</ele>
        <time>2012-08-25T15:55:20Z</time>
      </trkpt>
      <trkpt lat="43.98061" lon="6.30438">
        <ele>677.39</ele>
        <time>2012-08-25T15:55:21Z</time>
      </trkpt>
      <trkpt lat="43.98074" lon="6.30418">
        <ele>676.91</ele>
        <time>2012-08-25T15:55:22Z</time>
      </trkpt>
      <trkpt lat="43.98089" lon="6.30401">
        <ele>676.42</ele>
        <time>2012-08-25T15:55:23Z</time>
      </trkpt>
      <trkpt lat="43.98104" lon="6.30385">
        <ele>675.94</ele>
        <time>2012-08-25T15:55:24Z</time>
      </trkpt>
      <trkpt lat="43.98134" lon="6.30357">
        <ele>674.5</ele>
        <time>2012-08-25T15:55:26Z</time>
      </trkpt>
      <trkpt lat="43.9815" lon="6.30348">
        <ele>674.02</ele>
        <time>2012-08-25T15:55:27Z</time>
      </trkpt>
      <trkpt lat="43.98167" lon="6.30342">
        <ele>673.54</ele>
        <time>2012-08-25T15:55:28Z</time>
      </trkpt>
      <trkpt lat="43.98184" lon="6.30339">
        <ele>673.54</ele>
        <time>2012-08-25T15:55:29Z</time>
      </trkpt>
      <trkpt lat="43.98202" lon="6.30338">
        <ele>673.06</ele>
        <time>2012-08-25T15:55:30Z</time>
      </trkpt>
      <trkpt lat="43.98315" lon="6.30298">
        <ele>671.62</ele>
        <time>2012-08-25T15:55:37Z</time>
      </trkpt>
      <trkpt lat="43.98419" lon="6.30232">
        <ele>670.66</ele>
        <time>2012-08-25T15:55:44Z</time>
      </trkpt>
      <trkpt lat="43.98432" lon="6.30216">
        <ele>670.66</ele>
        <time>2012-08-25T15:55:45Z</time>
      </trkpt>
      <trkpt lat="43.98445" lon="6.30198">
        <ele>670.66</ele>
        <time>2012-08-25T15:55:46Z</time>
      </trkpt>
      <trkpt lat="43.98456" lon="6.30178">
        <ele>670.66</ele>
        <time>2012-08-25T15:55:47Z</time>
      </trkpt>
      <trkpt lat="43.98466" lon="6.30157">
        <ele>670.66</ele>
        <time>2012-08-25T15:55:48Z</time>
      </trkpt>
      <trkpt lat="43.98474" lon="6.30134">
        <ele>670.18</ele>
        <time>2012-08-25T15:55:49Z</time>
      </trkpt>
      <trkpt lat="43.98482" lon="6.3011">
        <ele>670.18</ele>
        <time>2012-08-25T15:55:50Z</time>
      </trkpt>
      <trkpt lat="43.98488" lon="6.30086">
        <ele>670.18</ele>
        <time>2012-08-25T15:55:51Z</time>
      </trkpt>
      <trkpt lat="43.98524" lon="6.29963">
        <ele>669.22</ele>
        <time>2012-08-25T15:55:56Z</time>
      </trkpt>
      <trkpt lat="43.98535" lon="6.29943">
        <ele>669.22</ele>
        <time>2012-08-25T15:55:57Z</time>
      </trkpt>
      <trkpt lat="43.98548" lon="6.29925">
        <ele>669.22</ele>
        <time>2012-08-25T15:55:58Z</time>
      </trkpt>
      <trkpt lat="43.98562" lon="6.2991">
        <ele>669.22</ele>
        <time>2012-08-25T15:55:59Z</time>
      </trkpt>
      <trkpt lat="43.98577" lon="6.29898">
        <ele>669.22</ele>
        <time>2012-08-25T15:56:00Z</time>
      </trkpt>
      <trkpt lat="43.98594" lon="6.29887">
        <ele>669.7</ele>
        <time>2012-08-25T15:56:01Z</time>
      </trkpt>
      <trkpt lat="43.98612" lon="6.2988">
        <ele>669.7</ele>
        <time>2012-08-25T15:56:02Z</time>
      </trkpt>
      <trkpt lat="43.98629" lon="6.29874">
        <ele>670.18</ele>
        <time>2012-08-25T15:56:03Z</time>
      </trkpt>
      <trkpt lat="43.98648" lon="6.29869">
        <ele>670.66</ele>
        <time>2012-08-25T15:56:04Z</time>
      </trkpt>
      <trkpt lat="43.98741" lon="6.29844">
        <ele>671.14</ele>
        <time>2012-08-25T15:56:09Z</time>
      </trkpt>
      <trkpt lat="43.98758" lon="6.29832">
        <ele>671.62</ele>
        <time>2012-08-25T15:56:10Z</time>
      </trkpt>
      <trkpt lat="43.98773" lon="6.29816">
        <ele>671.62</ele>
        <time>2012-08-25T15:56:11Z</time>
      </trkpt>
      <trkpt lat="43.98787" lon="6.29798">
        <ele>671.62</ele>
        <time>2012-08-25T15:56:12Z</time>
      </trkpt>
      <trkpt lat="43.98797" lon="6.29776">
        <ele>671.62</ele>
        <time>2012-08-25T15:56:13Z</time>
      </trkpt>
      <trkpt lat="43.98805" lon="6.29751">
        <ele>671.62</ele>
        <time>2012-08-25T15:56:14Z</time>
      </trkpt>
      <trkpt lat="43.98812" lon="6.29727">
        <ele>671.62</ele>
        <time>2012-08-25T15:56:15Z</time>
      </trkpt>
      <trkpt lat="43.9883" lon="6.29684">
        <ele>671.14</ele>
        <time>2012-08-25T15:56:17Z</time>
      </trkpt>
      <trkpt lat="43.98841" lon="6.29666">
        <ele>671.14</ele>
        <time>2012-08-25T15:56:18Z</time>
      </trkpt>
      <trkpt lat="43.98853" lon="6.29653">
        <ele>670.66</ele>
        <time>2012-08-25T15:56:19Z</time>
      </trkpt>
      <trkpt lat="43.98867" lon="6.29647">
        <ele>670.66</ele>
        <time>2012-08-25T15:56:20Z</time>
      </trkpt>
      <trkpt lat="43.98882" lon="6.29647">
        <ele>670.18</ele>
        <time>2012-08-25T15:56:21Z</time>
      </trkpt>
      <trkpt lat="43.98897" lon="6.2965">
        <ele>670.18</ele>
        <time>2012-08-25T15:56:22Z</time>
      </trkpt>
      <trkpt lat="43.98914" lon="6.29656">
        <ele>669.7</ele>
        <time>2012-08-25T15:56:23Z</time>
      </trkpt>
      <trkpt lat="43.9893" lon="6.29663">
        <ele>668.73</ele>
        <time>2012-08-25T15:56:24Z</time>
      </trkpt>
      <trkpt lat="43.99054" lon="6.29712">
        <ele>664.89</ele>
        <time>2012-08-25T15:56:31Z</time>
      </trkpt>
      <trkpt lat="43.99073" lon="6.29711">
        <ele>663.93</ele>
        <time>2012-08-25T15:56:32Z</time>
      </trkpt>
      <trkpt lat="43.9909" lon="6.29707">
        <ele>663.45</ele>
        <time>2012-08-25T15:56:33Z</time>
      </trkpt>
      <trkpt lat="43.99106" lon="6.29698">
        <ele>662.49</ele>
        <time>2012-08-25T15:56:34Z</time>
      </trkpt>
      <trkpt lat="43.99122" lon="6.29686">
        <ele>662.01</ele>
        <time>2012-08-25T15:56:35Z</time>
      </trkpt>
      <trkpt lat="43.99138" lon="6.29672">
        <ele>661.52</ele>
        <time>2012-08-25T15:56:36Z</time>
      </trkpt>
      <trkpt lat="43.99223" lon="6.29572">
        <ele>658.16</ele>
        <time>2012-08-25T15:56:42Z</time>
      </trkpt>
      <trkpt lat="43.99233" lon="6.29551">
        <ele>658.16</ele>
        <time>2012-08-25T15:56:43Z</time>
      </trkpt>
      <trkpt lat="43.9924" lon="6.29529">
        <ele>658.16</ele>
        <time>2012-08-25T15:56:44Z</time>
      </trkpt>
      <trkpt lat="43.99246" lon="6.29505">
        <ele>658.16</ele>
        <time>2012-08-25T15:56:45Z</time>
      </trkpt>
      <trkpt lat="43.99251" lon="6.29483">
        <ele>658.16</ele>
        <time>2012-08-25T15:56:46Z</time>
      </trkpt>
      <trkpt lat="43.9928" lon="6.2935">
        <ele>657.2</ele>
        <time>2012-08-25T15:56:53Z</time>
      </trkpt>
      <trkpt lat="43.99286" lon="6.29337">
        <ele>656.72</ele>
        <time>2012-08-25T15:56:54Z</time>
      </trkpt>
      <trkpt lat="43.99294" lon="6.29327">
        <ele>656.24</ele>
        <time>2012-08-25T15:56:55Z</time>
      </trkpt>
      <trkpt lat="43.99303" lon="6.2932">
        <ele>656.24</ele>
        <time>2012-08-25T15:56:56Z</time>
      </trkpt>
      <trkpt lat="43.99312" lon="6.29316">
        <ele>656.72</ele>
        <time>2012-08-25T15:56:57Z</time>
      </trkpt>
      <trkpt lat="43.99322" lon="6.29315">
        <ele>656.24</ele>
        <time>2012-08-25T15:56:58Z</time>
      </trkpt>
      <trkpt lat="43.99334" lon="6.29319">
        <ele>656.24</ele>
        <time>2012-08-25T15:56:59Z</time>
      </trkpt>
      <trkpt lat="43.99346" lon="6.2932">
        <ele>656.24</ele>
        <time>2012-08-25T15:57:00Z</time>
      </trkpt>
      <trkpt lat="43.99471" lon="6.293">
        <ele>658.64</ele>
        <time>2012-08-25T15:57:09Z</time>
      </trkpt>
      <trkpt lat="43.99589" lon="6.2923">
        <ele>651.43</ele>
        <time>2012-08-25T15:57:16Z</time>
      </trkpt>
      <trkpt lat="43.99692" lon="6.29163">
        <ele>650.47</ele>
        <time>2012-08-25T15:57:22Z</time>
      </trkpt>
      <trkpt lat="43.99709" lon="6.29157">
        <ele>650.47</ele>
        <time>2012-08-25T15:57:23Z</time>
      </trkpt>
      <trkpt lat="43.99726" lon="6.29153">
        <ele>650.47</ele>
        <time>2012-08-25T15:57:24Z</time>
      </trkpt>
      <trkpt lat="43.99743" lon="6.29152">
        <ele>650.47</ele>
        <time>2012-08-25T15:57:25Z</time>
      </trkpt>
      <trkpt lat="43.99759" lon="6.29152">
        <ele>650.47</ele>
        <time>2012-08-25T15:57:26Z</time>
      </trkpt>
      <trkpt lat="43.99879" lon="6.29146">
        <ele>653.35</ele>
        <time>2012-08-25T15:57:35Z</time>
      </trkpt>
      <trkpt lat="43.99919" lon="6.29138">
        <ele>653.83</ele>
        <time>2012-08-25T15:57:38Z</time>
      </trkpt>
      <trkpt lat="43.99932" lon="6.29132">
        <ele>654.31</ele>
        <time>2012-08-25T15:57:39Z</time>
      </trkpt>
      <trkpt lat="43.99945" lon="6.29123">
        <ele>654.31</ele>
        <time>2012-08-25T15:57:40Z</time>
      </trkpt>
      <trkpt lat="43.99958" lon="6.29112">
        <ele>654.31</ele>
        <time>2012-08-25T15:57:41Z</time>
      </trkpt>
      <trkpt lat="43.99969" lon="6.29099">
        <ele>654.31</ele>
        <time>2012-08-25T15:57:42Z</time>
      </trkpt>
      <trkpt lat="43.99981" lon="6.29084">
        <ele>653.83</ele>
        <time>2012-08-25T15:57:43Z</time>
      </trkpt>
      <trkpt lat="43.99991" lon="6.29067">
        <ele>653.83</ele>
        <time>2012-08-25T15:57:44Z</time>
      </trkpt>
      <trkpt lat="44.00001" lon="6.29047">
        <ele>653.83</ele>
        <time>2012-08-25T15:57:45Z</time>
      </trkpt>
      <trkpt lat="44.0001" lon="6.29026">
        <ele>653.35</ele>
        <time>2012-08-25T15:57:46Z</time>
      </trkpt>
      <trkpt lat="44.00018" lon="6.29003">
        <ele>652.87</ele>
        <time>2012-08-25T15:57:47Z</time>
      </trkpt>
      <trkpt lat="44.00075" lon="6.28809">
        <ele>649.99</ele>
        <time>2012-08-25T15:57:55Z</time>
      </trkpt>
      <trkpt lat="44.00085" lon="6.28788">
        <ele>649.51</ele>
        <time>2012-08-25T15:57:56Z</time>
      </trkpt>
      <trkpt lat="44.00096" lon="6.28769">
        <ele>649.51</ele>
        <time>2012-08-25T15:57:57Z</time>
      </trkpt>
      <trkpt lat="44.00109" lon="6.28752">
        <ele>649.03</ele>
        <time>2012-08-25T15:57:58Z</time>
      </trkpt>
      <trkpt lat="44.00124" lon="6.28736">
        <ele>649.03</ele>
        <time>2012-08-25T15:57:59Z</time>
      </trkpt>
      <trkpt lat="44.00141" lon="6.28723">
        <ele>648.55</ele>
        <time>2012-08-25T15:58:00Z</time>
      </trkpt>
      <trkpt lat="44.00158" lon="6.28712">
        <ele>648.07</ele>
        <time>2012-08-25T15:58:01Z</time>
      </trkpt>
      <trkpt lat="44.00176" lon="6.287">
        <ele>648.07</ele>
        <time>2012-08-25T15:58:02Z</time>
      </trkpt>
      <trkpt lat="44.00372" lon="6.28565">
        <ele>647.1</ele>
        <time>2012-08-25T15:58:14Z</time>
      </trkpt>
      <trkpt lat="44.00504" lon="6.2844">
        <ele>644.7</ele>
        <time>2012-08-25T15:58:22Z</time>
      </trkpt>
      <trkpt lat="44.00586" lon="6.28385">
        <ele>643.26</ele>
        <time>2012-08-25T15:58:26Z</time>
      </trkpt>
      <trkpt lat="44.00604" lon="6.28366">
        <ele>642.78</ele>
        <time>2012-08-25T15:58:27Z</time>
      </trkpt>
      <trkpt lat="44.00618" lon="6.28343">
        <ele>642.3</ele>
        <time>2012-08-25T15:58:28Z</time>
      </trkpt>
      <trkpt lat="44.00629" lon="6.28312">
        <ele>641.82</ele>
        <time>2012-08-25T15:58:29Z</time>
      </trkpt>
      <trkpt lat="44.00641" lon="6.28281">
        <ele>641.82</ele>
        <time>2012-08-25T15:58:30Z</time>
      </trkpt>
      <trkpt lat="44.00653" lon="6.28252">
        <ele>641.82</ele>
        <time>2012-08-25T15:58:31Z</time>
      </trkpt>
      <trkpt lat="44.00729" lon="6.28056">
        <ele>641.82</ele>
        <time>2012-08-25T15:58:38Z</time>
      </trkpt>
      <trkpt lat="44.00735" lon="6.28025">
        <ele>641.82</ele>
        <time>2012-08-25T15:58:39Z</time>
      </trkpt>
      <trkpt lat="44.0074" lon="6.27995">
        <ele>641.82</ele>
        <time>2012-08-25T15:58:40Z</time>
      </trkpt>
      <trkpt lat="44.00753" lon="6.2791">
        <ele>641.34</ele>
        <time>2012-08-25T15:58:43Z</time>
      </trkpt>
      <trkpt lat="44.00761" lon="6.27885">
        <ele>640.86</ele>
        <time>2012-08-25T15:58:44Z</time>
      </trkpt>
      <trkpt lat="44.00771" lon="6.27862">
        <ele>640.86</ele>
        <time>2012-08-25T15:58:45Z</time>
      </trkpt>
      <trkpt lat="44.00784" lon="6.27839">
        <ele>639.89</ele>
        <time>2012-08-25T15:58:46Z</time>
      </trkpt>
      <trkpt lat="44.00797" lon="6.27816">
        <ele>639.41</ele>
        <time>2012-08-25T15:58:47Z</time>
      </trkpt>
      <trkpt lat="44.00855" lon="6.2767">
        <ele>638.45</ele>
        <time>2012-08-25T15:58:52Z</time>
      </trkpt>
      <trkpt lat="44.00923" lon="6.27468">
        <ele>638.45</ele>
        <time>2012-08-25T15:58:59Z</time>
      </trkpt>
      <trkpt lat="44.00927" lon="6.27443">
        <ele>637.97</ele>
        <time>2012-08-25T15:59:00Z</time>
      </trkpt>
      <trkpt lat="44.00929" lon="6.27418">
        <ele>637.97</ele>
        <time>2012-08-25T15:59:01Z</time>
      </trkpt>
      <trkpt lat="44.00933" lon="6.27226">
        <ele>634.61</ele>
        <time>2012-08-25T15:59:10Z</time>
      </trkpt>
      <trkpt lat="44.00948" lon="6.27095">
        <ele>631.72</ele>
        <time>2012-08-25T15:59:18Z</time>
      </trkpt>
      <trkpt lat="44.00947" lon="6.27079">
        <ele>631.72</ele>
        <time>2012-08-25T15:59:19Z</time>
      </trkpt>
      <trkpt lat="44.00946" lon="6.27063">
        <ele>631.72</ele>
        <time>2012-08-25T15:59:20Z</time>
      </trkpt>
      <trkpt lat="44.00937" lon="6.26997">
        <ele>630.28</ele>
        <time>2012-08-25T15:59:24Z</time>
      </trkpt>
      <trkpt lat="44.00936" lon="6.26979">
        <ele>629.8</ele>
        <time>2012-08-25T15:59:25Z</time>
      </trkpt>
      <trkpt lat="44.00947" lon="6.2679">
        <ele>628.84</ele>
        <time>2012-08-25T15:59:34Z</time>
      </trkpt>
      <trkpt lat="44.00959" lon="6.26585">
        <ele>626.92</ele>
        <time>2012-08-25T15:59:43Z</time>
      </trkpt>
      <trkpt lat="44.00971" lon="6.26369">
        <ele>625.96</ele>
        <time>2012-08-25T15:59:54Z</time>
      </trkpt>
      <trkpt lat="44.00983" lon="6.26153">
        <ele>624.51</ele>
        <time>2012-08-25T16:00:02Z</time>
      </trkpt>
      <trkpt lat="44.01018" lon="6.25916">
        <ele>623.07</ele>
        <time>2012-08-25T16:00:10Z</time>
      </trkpt>
      <trkpt lat="44.0107" lon="6.25762">
        <ele>621.63</ele>
        <time>2012-08-25T16:00:16Z</time>
      </trkpt>
      <trkpt lat="44.01075" lon="6.25736">
        <ele>621.63</ele>
        <time>2012-08-25T16:00:17Z</time>
      </trkpt>
      <trkpt lat="44.01078" lon="6.25708">
        <ele>621.63</ele>
        <time>2012-08-25T16:00:18Z</time>
      </trkpt>
      <trkpt lat="44.01079" lon="6.25679">
        <ele>621.63</ele>
        <time>2012-08-25T16:00:19Z</time>
      </trkpt>
      <trkpt lat="44.01079" lon="6.25649">
        <ele>621.63</ele>
        <time>2012-08-25T16:00:20Z</time>
      </trkpt>
      <trkpt lat="44.01081" lon="6.25457">
        <ele>621.63</ele>
        <time>2012-08-25T16:00:27Z</time>
      </trkpt>
      <trkpt lat="44.01086" lon="6.25435">
        <ele>621.63</ele>
        <time>2012-08-25T16:00:28Z</time>
      </trkpt>
      <trkpt lat="44.01094" lon="6.25415">
        <ele>622.11</ele>
        <time>2012-08-25T16:00:29Z</time>
      </trkpt>
      <trkpt lat="44.01105" lon="6.25398">
        <ele>622.11</ele>
        <time>2012-08-25T16:00:30Z</time>
      </trkpt>
      <trkpt lat="44.01119" lon="6.25384">
        <ele>622.11</ele>
        <time>2012-08-25T16:00:31Z</time>
      </trkpt>
      <trkpt lat="44.01136" lon="6.25375">
        <ele>622.59</ele>
        <time>2012-08-25T16:00:32Z</time>
      </trkpt>
      <trkpt lat="44.01154" lon="6.25367">
        <ele>623.07</ele>
        <time>2012-08-25T16:00:33Z</time>
      </trkpt>
      <trkpt lat="44.01172" lon="6.25361">
        <ele>623.07</ele>
        <time>2012-08-25T16:00:34Z</time>
      </trkpt>
      <trkpt lat="44.01189" lon="6.25352">
        <ele>623.55</ele>
        <time>2012-08-25T16:00:35Z</time>
      </trkpt>
      <trkpt lat="44.01206" lon="6.25341">
        <ele>624.03</ele>
        <time>2012-08-25T16:00:36Z</time>
      </trkpt>
      <trkpt lat="44.01222" lon="6.25328">
        <ele>624.03</ele>
        <time>2012-08-25T16:00:37Z</time>
      </trkpt>
      <trkpt lat="44.01237" lon="6.2531">
        <ele>624.03</ele>
        <time>2012-08-25T16:00:38Z</time>
      </trkpt>
      <trkpt lat="44.0125" lon="6.25294">
        <ele>624.03</ele>
        <time>2012-08-25T16:00:39Z</time>
      </trkpt>
      <trkpt lat="44.01304" lon="6.25208">
        <ele>636.05</ele>
        <time>2012-08-25T16:00:45Z</time>
      </trkpt>
      <trkpt lat="44.01314" lon="6.25203">
        <ele>638.45</ele>
        <time>2012-08-25T16:00:46Z</time>
      </trkpt>
      <trkpt lat="44.01326" lon="6.25203">
        <ele>639.89</ele>
        <time>2012-08-25T16:00:47Z</time>
      </trkpt>
      <trkpt lat="44.01339" lon="6.25211">
        <ele>642.78</ele>
        <time>2012-08-25T16:00:48Z</time>
      </trkpt>
      <trkpt lat="44.01363" lon="6.25277">
        <ele>644.7</ele>
        <time>2012-08-25T16:00:49Z</time>
      </trkpt>
      <trkpt lat="44.0138" lon="6.25312">
        <ele>639.89</ele>
        <time>2012-08-25T16:00:50Z</time>
      </trkpt>
      <trkpt lat="44.01391" lon="6.25332">
        <ele>641.34</ele>
        <time>2012-08-25T16:00:51Z</time>
      </trkpt>
      <trkpt lat="44.01403" lon="6.25347">
        <ele>641.34</ele>
        <time>2012-08-25T16:00:52Z</time>
      </trkpt>
      <trkpt lat="44.01417" lon="6.25357">
        <ele>638.93</ele>
        <time>2012-08-25T16:00:53Z</time>
      </trkpt>
      <trkpt lat="44.01432" lon="6.25369">
        <ele>638.93</ele>
        <time>2012-08-25T16:00:54Z</time>
      </trkpt>
      <trkpt lat="44.01477" lon="6.25387">
        <ele>633.17</ele>
        <time>2012-08-25T16:00:57Z</time>
      </trkpt>
      <trkpt lat="44.01489" lon="6.2538">
        <ele>630.28</ele>
        <time>2012-08-25T16:00:58Z</time>
      </trkpt>
      <trkpt lat="44.015" lon="6.25373">
        <ele>628.36</ele>
        <time>2012-08-25T16:00:59Z</time>
      </trkpt>
      <trkpt lat="44.0151" lon="6.25362">
        <ele>629.8</ele>
        <time>2012-08-25T16:01:00Z</time>
      </trkpt>
      <trkpt lat="44.0152" lon="6.25352">
        <ele>630.76</ele>
        <time>2012-08-25T16:01:01Z</time>
      </trkpt>
      <trkpt lat="44.01531" lon="6.25344">
        <ele>629.8</ele>
        <time>2012-08-25T16:01:02Z</time>
      </trkpt>
      <trkpt lat="44.01543" lon="6.25338">
        <ele>628.84</ele>
        <time>2012-08-25T16:01:03Z</time>
      </trkpt>
      <trkpt lat="44.01661" lon="6.25289">
        <ele>617.3</ele>
        <time>2012-08-25T16:01:13Z</time>
      </trkpt>
      <trkpt lat="44.0167" lon="6.25279">
        <ele>617.3</ele>
        <time>2012-08-25T16:01:14Z</time>
      </trkpt>
      <trkpt lat="44.01678" lon="6.25267">
        <ele>617.3</ele>
        <time>2012-08-25T16:01:15Z</time>
      </trkpt>
      <trkpt lat="44.01684" lon="6.25253">
        <ele>616.82</ele>
        <time>2012-08-25T16:01:16Z</time>
      </trkpt>
      <trkpt lat="44.01689" lon="6.25237">
        <ele>616.34</ele>
        <time>2012-08-25T16:01:17Z</time>
      </trkpt>
      <trkpt lat="44.01692" lon="6.2522">
        <ele>615.86</ele>
        <time>2012-08-25T16:01:18Z</time>
      </trkpt>
      <trkpt lat="44.01694" lon="6.25202">
        <ele>615.38</ele>
        <time>2012-08-25T16:01:19Z</time>
      </trkpt>
      <trkpt lat="44.01694" lon="6.25183">
        <ele>614.9</ele>
        <time>2012-08-25T16:01:20Z</time>
      </trkpt>
      <trkpt lat="44.01692" lon="6.25163">
        <ele>614.42</ele>
        <time>2012-08-25T16:01:21Z</time>
      </trkpt>
      <trkpt lat="44.0169" lon="6.25142">
        <ele>614.9</ele>
        <time>2012-08-25T16:01:22Z</time>
      </trkpt>
      <trkpt lat="44.01688" lon="6.24938">
        <ele>612.98</ele>
        <time>2012-08-25T16:01:31Z</time>
      </trkpt>
      <trkpt lat="44.01702" lon="6.24545">
        <ele>609.61</ele>
        <time>2012-08-25T16:01:46Z</time>
      </trkpt>
      <trkpt lat="44.01694" lon="6.24223">
        <ele>610.57</ele>
        <time>2012-08-25T16:01:58Z</time>
      </trkpt>
      <trkpt lat="44.0166" lon="6.24027">
        <ele>613.46</ele>
        <time>2012-08-25T16:02:06Z</time>
      </trkpt>
      <trkpt lat="44.0165" lon="6.23709">
        <ele>618.75</ele>
        <time>2012-08-25T16:02:18Z</time>
      </trkpt>
      <trkpt lat="44.01592" lon="6.23477">
        <ele>624.51</ele>
        <time>2012-08-25T16:02:27Z</time>
      </trkpt>
      <trkpt lat="44.01553" lon="6.23208">
        <ele>625.47</ele>
        <time>2012-08-25T16:02:37Z</time>
      </trkpt>
      <trkpt lat="44.01555" lon="6.22969">
        <ele>619.23</ele>
        <time>2012-08-25T16:02:46Z</time>
      </trkpt>
      <trkpt lat="44.01559" lon="6.22649">
        <ele>612.02</ele>
        <time>2012-08-25T16:02:58Z</time>
      </trkpt>
      <trkpt lat="44.01553" lon="6.22623">
        <ele>612.02</ele>
        <time>2012-08-25T16:02:59Z</time>
      </trkpt>
      <trkpt lat="44.01545" lon="6.22598">
        <ele>611.54</ele>
        <time>2012-08-25T16:03:00Z</time>
      </trkpt>
      <trkpt lat="44.01536" lon="6.22574">
        <ele>611.54</ele>
        <time>2012-08-25T16:03:01Z</time>
      </trkpt>
      <trkpt lat="44.01525" lon="6.2255">
        <ele>611.06</ele>
        <time>2012-08-25T16:03:02Z</time>
      </trkpt>
      <trkpt lat="44.01514" lon="6.22527">
        <ele>610.57</ele>
        <time>2012-08-25T16:03:03Z</time>
      </trkpt>
      <trkpt lat="44.01502" lon="6.22505">
        <ele>610.09</ele>
        <time>2012-08-25T16:03:04Z</time>
      </trkpt>
      <trkpt lat="44.01333" lon="6.22256">
        <ele>609.61</ele>
        <time>2012-08-25T16:03:16Z</time>
      </trkpt>
      <trkpt lat="44.01189" lon="6.22087">
        <ele>607.21</ele>
        <time>2012-08-25T16:03:25Z</time>
      </trkpt>
      <trkpt lat="44.01042" lon="6.21928">
        <ele>604.33</ele>
        <time>2012-08-25T16:03:34Z</time>
      </trkpt>
      <trkpt lat="44.00992" lon="6.2188">
        <ele>603.36</ele>
        <time>2012-08-25T16:03:37Z</time>
      </trkpt>
      <trkpt lat="44.00978" lon="6.21861">
        <ele>603.36</ele>
        <time>2012-08-25T16:03:38Z</time>
      </trkpt>
      <trkpt lat="44.00966" lon="6.2184">
        <ele>603.85</ele>
        <time>2012-08-25T16:03:39Z</time>
      </trkpt>
      <trkpt lat="44.00958" lon="6.21816">
        <ele>603.85</ele>
        <time>2012-08-25T16:03:40Z</time>
      </trkpt>
      <trkpt lat="44.00951" lon="6.21792">
        <ele>604.81</ele>
        <time>2012-08-25T16:03:41Z</time>
      </trkpt>
      <trkpt lat="44.00947" lon="6.21765">
        <ele>602.88</ele>
        <time>2012-08-25T16:03:42Z</time>
      </trkpt>
      <trkpt lat="44.00945" lon="6.21738">
        <ele>601.92</ele>
        <time>2012-08-25T16:03:43Z</time>
      </trkpt>
      <trkpt lat="44.00945" lon="6.21711">
        <ele>600.96</ele>
        <time>2012-08-25T16:03:44Z</time>
      </trkpt>
      <trkpt lat="44.00948" lon="6.21684">
        <ele>600</ele>
        <time>2012-08-25T16:03:45Z</time>
      </trkpt>
      <trkpt lat="44.00953" lon="6.21658">
        <ele>599.04</ele>
        <time>2012-08-25T16:03:46Z</time>
      </trkpt>
      <trkpt lat="44.00961" lon="6.21633">
        <ele>599.04</ele>
        <time>2012-08-25T16:03:47Z</time>
      </trkpt>
      <trkpt lat="44.0097" lon="6.21609">
        <ele>599.04</ele>
        <time>2012-08-25T16:03:48Z</time>
      </trkpt>
      <trkpt lat="44.00981" lon="6.21585">
        <ele>599.04</ele>
        <time>2012-08-25T16:03:49Z</time>
      </trkpt>
      <trkpt lat="44.00993" lon="6.21563">
        <ele>599.04</ele>
        <time>2012-08-25T16:03:50Z</time>
      </trkpt>
      <trkpt lat="44.01006" lon="6.21542">
        <ele>599.52</ele>
        <time>2012-08-25T16:03:51Z</time>
      </trkpt>
      <trkpt lat="44.01034" lon="6.21504">
        <ele>600.48</ele>
        <time>2012-08-25T16:03:53Z</time>
      </trkpt>
      <trkpt lat="44.01048" lon="6.21488">
        <ele>600.96</ele>
        <time>2012-08-25T16:03:54Z</time>
      </trkpt>
      <trkpt lat="44.01062" lon="6.21473">
        <ele>601.44</ele>
        <time>2012-08-25T16:03:55Z</time>
      </trkpt>
      <trkpt lat="44.01183" lon="6.21396">
        <ele>605.77</ele>
        <time>2012-08-25T16:04:03Z</time>
      </trkpt>
      <trkpt lat="44.01348" lon="6.21365">
        <ele>613.94</ele>
        <time>2012-08-25T16:04:14Z</time>
      </trkpt>
      <trkpt lat="44.01451" lon="6.21346">
        <ele>621.15</ele>
        <time>2012-08-25T16:04:24Z</time>
      </trkpt>
      <trkpt lat="44.01458" lon="6.21347">
        <ele>621.63</ele>
        <time>2012-08-25T16:04:25Z</time>
      </trkpt>
      <trkpt lat="44.01464" lon="6.21347">
        <ele>621.63</ele>
        <time>2012-08-25T16:04:26Z</time>
      </trkpt>
      <trkpt lat="44.01469" lon="6.21347">
        <ele>622.11</ele>
        <time>2012-08-25T16:04:27Z</time>
      </trkpt>
      <trkpt lat="44.01472" lon="6.21346">
        <ele>622.11</ele>
        <time>2012-08-25T16:04:28Z</time>
      </trkpt>
      <trkpt lat="44.01471" lon="6.21346">
        <ele>622.11</ele>
        <time>2012-08-25T16:04:39Z</time>
      </trkpt>
      <trkpt lat="44.01471" lon="6.21343">
        <ele>622.11</ele>
        <time>2012-08-25T16:05:11Z</time>
      </trkpt>
      <trkpt lat="44.01474" lon="6.21339">
        <ele>622.59</ele>
        <time>2012-08-25T16:05:12Z</time>
      </trkpt>
      <trkpt lat="44.01477" lon="6.21332">
        <ele>623.07</ele>
        <time>2012-08-25T16:05:13Z</time>
      </trkpt>
      <trkpt lat="44.01478" lon="6.21323">
        <ele>623.07</ele>
        <time>2012-08-25T16:05:14Z</time>
      </trkpt>
      <trkpt lat="44.01479" lon="6.21312">
        <ele>623.55</ele>
        <time>2012-08-25T16:05:15Z</time>
      </trkpt>
      <trkpt lat="44.01477" lon="6.213">
        <ele>623.07</ele>
        <time>2012-08-25T16:05:16Z</time>
      </trkpt>
      <trkpt lat="44.01475" lon="6.21287">
        <ele>623.07</ele>
        <time>2012-08-25T16:05:17Z</time>
      </trkpt>
      <trkpt lat="44.01468" lon="6.21255">
        <ele>623.07</ele>
        <time>2012-08-25T16:05:19Z</time>
      </trkpt>
      <trkpt lat="44.01465" lon="6.21237">
        <ele>623.07</ele>
        <time>2012-08-25T16:05:20Z</time>
      </trkpt>
      <trkpt lat="44.01442" lon="6.21093">
        <ele>623.07</ele>
        <time>2012-08-25T16:05:27Z</time>
      </trkpt>
      <trkpt lat="44.01436" lon="6.21074">
        <ele>623.07</ele>
        <time>2012-08-25T16:05:28Z</time>
      </trkpt>
      <trkpt lat="44.01428" lon="6.21058">
        <ele>622.59</ele>
        <time>2012-08-25T16:05:29Z</time>
      </trkpt>
      <trkpt lat="44.01418" lon="6.21044">
        <ele>622.11</ele>
        <time>2012-08-25T16:05:30Z</time>
      </trkpt>
      <trkpt lat="44.01406" lon="6.21033">
        <ele>621.63</ele>
        <time>2012-08-25T16:05:31Z</time>
      </trkpt>
      <trkpt lat="44.01393" lon="6.21025">
        <ele>621.63</ele>
        <time>2012-08-25T16:05:32Z</time>
      </trkpt>
      <trkpt lat="44.01378" lon="6.2102">
        <ele>621.15</ele>
        <time>2012-08-25T16:05:33Z</time>
      </trkpt>
      <trkpt lat="44.01362" lon="6.21018">
        <ele>620.67</ele>
        <time>2012-08-25T16:05:34Z</time>
      </trkpt>
      <trkpt lat="44.01345" lon="6.21017">
        <ele>620.67</ele>
        <time>2012-08-25T16:05:35Z</time>
      </trkpt>
      <trkpt lat="44.0131" lon="6.21014">
        <ele>619.71</ele>
        <time>2012-08-25T16:05:37Z</time>
      </trkpt>
      <trkpt lat="44.01293" lon="6.21008">
        <ele>618.75</ele>
        <time>2012-08-25T16:05:38Z</time>
      </trkpt>
      <trkpt lat="44.01278" lon="6.20999">
        <ele>618.75</ele>
        <time>2012-08-25T16:05:39Z</time>
      </trkpt>
      <trkpt lat="44.01265" lon="6.20987">
        <ele>618.26</ele>
        <time>2012-08-25T16:05:40Z</time>
      </trkpt>
      <trkpt lat="44.01252" lon="6.20971">
        <ele>618.26</ele>
        <time>2012-08-25T16:05:41Z</time>
      </trkpt>
      <trkpt lat="44.0124" lon="6.20954">
        <ele>618.75</ele>
        <time>2012-08-25T16:05:42Z</time>
      </trkpt>
      <trkpt lat="44.0117" lon="6.20825">
        <ele>615.86</ele>
        <time>2012-08-25T16:05:49Z</time>
      </trkpt>
      <trkpt lat="44.01166" lon="6.20806">
        <ele>615.86</ele>
        <time>2012-08-25T16:05:50Z</time>
      </trkpt>
      <trkpt lat="44.01164" lon="6.20788">
        <ele>615.38</ele>
        <time>2012-08-25T16:05:51Z</time>
      </trkpt>
      <trkpt lat="44.01162" lon="6.20771">
        <ele>614.42</ele>
        <time>2012-08-25T16:05:52Z</time>
      </trkpt>
      <trkpt lat="44.01159" lon="6.20755">
        <ele>613.46</ele>
        <time>2012-08-25T16:05:53Z</time>
      </trkpt>
      <trkpt lat="44.01153" lon="6.20741">
        <ele>612.5</ele>
        <time>2012-08-25T16:05:54Z</time>
      </trkpt>
      <trkpt lat="44.01143" lon="6.20732">
        <ele>611.54</ele>
        <time>2012-08-25T16:05:55Z</time>
      </trkpt>
      <trkpt lat="44.01132" lon="6.20725">
        <ele>610.57</ele>
        <time>2012-08-25T16:05:56Z</time>
      </trkpt>
      <trkpt lat="44.0112" lon="6.2072">
        <ele>609.61</ele>
        <time>2012-08-25T16:05:57Z</time>
      </trkpt>
      <trkpt lat="44.01106" lon="6.20713">
        <ele>609.13</ele>
        <time>2012-08-25T16:05:58Z</time>
      </trkpt>
      <trkpt lat="44.01065" lon="6.20688">
        <ele>607.69</ele>
        <time>2012-08-25T16:06:01Z</time>
      </trkpt>
      <trkpt lat="44.01053" lon="6.20676">
        <ele>607.69</ele>
        <time>2012-08-25T16:06:02Z</time>
      </trkpt>
      <trkpt lat="44.01042" lon="6.20661">
        <ele>607.21</ele>
        <time>2012-08-25T16:06:03Z</time>
      </trkpt>
      <trkpt lat="44.00944" lon="6.20556">
        <ele>603.85</ele>
        <time>2012-08-25T16:06:10Z</time>
      </trkpt>
      <trkpt lat="44.00817" lon="6.20417">
        <ele>598.56</ele>
        <time>2012-08-25T16:06:19Z</time>
      </trkpt>
      <trkpt lat="44.00693" lon="6.20252">
        <ele>593.75</ele>
        <time>2012-08-25T16:06:32Z</time>
      </trkpt>
      <trkpt lat="44.00612" lon="6.20154">
        <ele>592.31</ele>
        <time>2012-08-25T16:06:41Z</time>
      </trkpt>
      <trkpt lat="44.00569" lon="6.20104">
        <ele>592.79</ele>
        <time>2012-08-25T16:06:47Z</time>
      </trkpt>
      <trkpt lat="44.0055" lon="6.2008">
        <ele>593.27</ele>
        <time>2012-08-25T16:06:50Z</time>
      </trkpt>
      <trkpt lat="44.00473" lon="6.20006">
        <ele>594.23</ele>
        <time>2012-08-25T16:06:57Z</time>
      </trkpt>
      <trkpt lat="44.00354" lon="6.19931">
        <ele>596.64</ele>
        <time>2012-08-25T16:07:05Z</time>
      </trkpt>
      <trkpt lat="44.00241" lon="6.19882">
        <ele>598.08</ele>
        <time>2012-08-25T16:07:13Z</time>
      </trkpt>
      <trkpt lat="44.00192" lon="6.19861">
        <ele>598.08</ele>
        <time>2012-08-25T16:07:17Z</time>
      </trkpt>
      <trkpt lat="44.00181" lon="6.19852">
        <ele>598.08</ele>
        <time>2012-08-25T16:07:18Z</time>
      </trkpt>
      <trkpt lat="44.00146" lon="6.19825">
        <ele>597.6</ele>
        <time>2012-08-25T16:07:21Z</time>
      </trkpt>
      <trkpt lat="44.00133" lon="6.19818">
        <ele>597.6</ele>
        <time>2012-08-25T16:07:22Z</time>
      </trkpt>
      <trkpt lat="43.99984" lon="6.19749">
        <ele>594.71</ele>
        <time>2012-08-25T16:07:34Z</time>
      </trkpt>
      <trkpt lat="43.9985" lon="6.19687">
        <ele>592.31</ele>
        <time>2012-08-25T16:07:47Z</time>
      </trkpt>
      <trkpt lat="43.99732" lon="6.1965">
        <ele>588.95</ele>
        <time>2012-08-25T16:07:58Z</time>
      </trkpt>
      <trkpt lat="43.99637" lon="6.19629">
        <ele>586.54</ele>
        <time>2012-08-25T16:08:08Z</time>
      </trkpt>
      <trkpt lat="43.996" lon="6.19608">
        <ele>583.66</ele>
        <time>2012-08-25T16:08:14Z</time>
      </trkpt>
      <trkpt lat="43.99544" lon="6.19571">
        <ele>583.66</ele>
        <time>2012-08-25T16:08:22Z</time>
      </trkpt>
      <trkpt lat="43.99473" lon="6.19533">
        <ele>583.66</ele>
        <time>2012-08-25T16:08:28Z</time>
      </trkpt>
      <trkpt lat="43.99458" lon="6.19531">
        <ele>584.14</ele>
        <time>2012-08-25T16:08:29Z</time>
      </trkpt>
      <trkpt lat="43.99443" lon="6.1953">
        <ele>583.66</ele>
        <time>2012-08-25T16:08:30Z</time>
      </trkpt>
      <trkpt lat="43.9938" lon="6.19538">
        <ele>582.7</ele>
        <time>2012-08-25T16:08:34Z</time>
      </trkpt>
      <trkpt lat="43.99363" lon="6.19544">
        <ele>582.7</ele>
        <time>2012-08-25T16:08:35Z</time>
      </trkpt>
      <trkpt lat="43.99315" lon="6.19564">
        <ele>580.77</ele>
        <time>2012-08-25T16:08:38Z</time>
      </trkpt>
      <trkpt lat="43.99299" lon="6.19567">
        <ele>580.29</ele>
        <time>2012-08-25T16:08:39Z</time>
      </trkpt>
      <trkpt lat="43.99283" lon="6.19569">
        <ele>579.33</ele>
        <time>2012-08-25T16:08:40Z</time>
      </trkpt>
      <trkpt lat="43.99159" lon="6.19555">
        <ele>575.01</ele>
        <time>2012-08-25T16:08:49Z</time>
      </trkpt>
      <trkpt lat="43.99069" lon="6.19551">
        <ele>571.64</ele>
        <time>2012-08-25T16:08:57Z</time>
      </trkpt>
      <trkpt lat="43.9906" lon="6.19555">
        <ele>570.2</ele>
        <time>2012-08-25T16:08:58Z</time>
      </trkpt>
      <trkpt lat="43.99051" lon="6.19561">
        <ele>569.24</ele>
        <time>2012-08-25T16:08:59Z</time>
      </trkpt>
      <trkpt lat="43.99045" lon="6.19571">
        <ele>568.76</ele>
        <time>2012-08-25T16:09:00Z</time>
      </trkpt>
      <trkpt lat="43.99041" lon="6.19584">
        <ele>568.28</ele>
        <time>2012-08-25T16:09:01Z</time>
      </trkpt>
      <trkpt lat="43.99039" lon="6.19598">
        <ele>568.28</ele>
        <time>2012-08-25T16:09:02Z</time>
      </trkpt>
      <trkpt lat="43.9904" lon="6.19612">
        <ele>568.28</ele>
        <time>2012-08-25T16:09:03Z</time>
      </trkpt>
      <trkpt lat="43.99041" lon="6.19627">
        <ele>568.76</ele>
        <time>2012-08-25T16:09:04Z</time>
      </trkpt>
      <trkpt lat="43.99043" lon="6.19642">
        <ele>568.76</ele>
        <time>2012-08-25T16:09:05Z</time>
      </trkpt>
      <trkpt lat="43.99047" lon="6.19787">
        <ele>567.8</ele>
        <time>2012-08-25T16:09:13Z</time>
      </trkpt>
      <trkpt lat="43.99045" lon="6.19805">
        <ele>567.32</ele>
        <time>2012-08-25T16:09:14Z</time>
      </trkpt>
      <trkpt lat="43.9904" lon="6.19824">
        <ele>566.83</ele>
        <time>2012-08-25T16:09:15Z</time>
      </trkpt>
      <trkpt lat="43.99033" lon="6.19843">
        <ele>566.35</ele>
        <time>2012-08-25T16:09:16Z</time>
      </trkpt>
      <trkpt lat="43.99023" lon="6.19859">
        <ele>565.87</ele>
        <time>2012-08-25T16:09:17Z</time>
      </trkpt>
      <trkpt lat="43.9901" lon="6.19872">
        <ele>565.39</ele>
        <time>2012-08-25T16:09:18Z</time>
      </trkpt>
      <trkpt lat="43.98996" lon="6.19881">
        <ele>564.91</ele>
        <time>2012-08-25T16:09:19Z</time>
      </trkpt>
      <trkpt lat="43.9898" lon="6.19886">
        <ele>564.91</ele>
        <time>2012-08-25T16:09:20Z</time>
      </trkpt>
      <trkpt lat="43.98965" lon="6.19888">
        <ele>565.39</ele>
        <time>2012-08-25T16:09:21Z</time>
      </trkpt>
      <trkpt lat="43.98948" lon="6.19887">
        <ele>565.87</ele>
        <time>2012-08-25T16:09:22Z</time>
      </trkpt>
      <trkpt lat="43.98932" lon="6.19885">
        <ele>566.35</ele>
        <time>2012-08-25T16:09:23Z</time>
      </trkpt>
      <trkpt lat="43.98916" lon="6.19882">
        <ele>565.87</ele>
        <time>2012-08-25T16:09:24Z</time>
      </trkpt>
      <trkpt lat="43.98899" lon="6.19877">
        <ele>566.35</ele>
        <time>2012-08-25T16:09:25Z</time>
      </trkpt>
      <trkpt lat="43.98692" lon="6.19805">
        <ele>563.95</ele>
        <time>2012-08-25T16:09:36Z</time>
      </trkpt>
      <trkpt lat="43.98556" lon="6.19758">
        <ele>564.43</ele>
        <time>2012-08-25T16:09:42Z</time>
      </trkpt>
      <trkpt lat="43.98391" lon="6.19701">
        <ele>565.87</ele>
        <time>2012-08-25T16:09:50Z</time>
      </trkpt>
      <trkpt lat="43.98213" lon="6.19681">
        <ele>562.51</ele>
        <time>2012-08-25T16:09:58Z</time>
      </trkpt>
      <trkpt lat="43.98028" lon="6.19678">
        <ele>560.11</ele>
        <time>2012-08-25T16:10:06Z</time>
      </trkpt>
      <trkpt lat="43.97887" lon="6.19699">
        <ele>558.18</ele>
        <time>2012-08-25T16:10:12Z</time>
      </trkpt>
      <trkpt lat="43.97865" lon="6.19696">
        <ele>557.7</ele>
        <time>2012-08-25T16:10:13Z</time>
      </trkpt>
      <trkpt lat="43.97843" lon="6.19691">
        <ele>557.7</ele>
        <time>2012-08-25T16:10:14Z</time>
      </trkpt>
      <trkpt lat="43.97759" lon="6.19652">
        <ele>556.26</ele>
        <time>2012-08-25T16:10:18Z</time>
      </trkpt>
      <trkpt lat="43.97741" lon="6.19636">
        <ele>555.78</ele>
        <time>2012-08-25T16:10:19Z</time>
      </trkpt>
      <trkpt lat="43.97723" lon="6.19617">
        <ele>555.3</ele>
        <time>2012-08-25T16:10:20Z</time>
      </trkpt>
      <trkpt lat="43.97673" lon="6.19558">
        <ele>554.34</ele>
        <time>2012-08-25T16:10:23Z</time>
      </trkpt>
      <trkpt lat="43.97654" lon="6.19542">
        <ele>553.86</ele>
        <time>2012-08-25T16:10:24Z</time>
      </trkpt>
      <trkpt lat="43.97634" lon="6.19528">
        <ele>553.38</ele>
        <time>2012-08-25T16:10:25Z</time>
      </trkpt>
      <trkpt lat="43.97612" lon="6.19517">
        <ele>552.41</ele>
        <time>2012-08-25T16:10:26Z</time>
      </trkpt>
      <trkpt lat="43.9759" lon="6.19507">
        <ele>552.41</ele>
        <time>2012-08-25T16:10:27Z</time>
      </trkpt>
      <trkpt lat="43.97348" lon="6.19382">
        <ele>550.49</ele>
        <time>2012-08-25T16:10:38Z</time>
      </trkpt>
      <trkpt lat="43.97165" lon="6.19259">
        <ele>554.34</ele>
        <time>2012-08-25T16:10:47Z</time>
      </trkpt>
      <trkpt lat="43.96904" lon="6.19148">
        <ele>546.17</ele>
        <time>2012-08-25T16:10:58Z</time>
      </trkpt>
      <trkpt lat="43.96659" lon="6.19017">
        <ele>547.61</ele>
        <time>2012-08-25T16:11:09Z</time>
      </trkpt>
      <trkpt lat="43.96403" lon="6.18881">
        <ele>546.65</ele>
        <time>2012-08-25T16:11:20Z</time>
      </trkpt>
      <trkpt lat="43.96235" lon="6.18784">
        <ele>541.36</ele>
        <time>2012-08-25T16:11:27Z</time>
      </trkpt>
      <trkpt lat="43.96144" lon="6.18733">
        <ele>541.36</ele>
        <time>2012-08-25T16:11:31Z</time>
      </trkpt>
      <trkpt lat="43.96124" lon="6.18715">
        <ele>541.84</ele>
        <time>2012-08-25T16:11:32Z</time>
      </trkpt>
      <trkpt lat="43.95947" lon="6.18538">
        <ele>539.44</ele>
        <time>2012-08-25T16:11:41Z</time>
      </trkpt>
      <trkpt lat="43.95734" lon="6.18365">
        <ele>535.59</ele>
        <time>2012-08-25T16:11:51Z</time>
      </trkpt>
      <trkpt lat="43.95552" lon="6.18199">
        <ele>532.71</ele>
        <time>2012-08-25T16:12:00Z</time>
      </trkpt>
      <trkpt lat="43.95361" lon="6.18069">
        <ele>530.79</ele>
        <time>2012-08-25T16:12:09Z</time>
      </trkpt>
      <trkpt lat="43.95214" lon="6.17943">
        <ele>528.38</ele>
        <time>2012-08-25T16:12:17Z</time>
      </trkpt>
      <trkpt lat="43.94985" lon="6.17727">
        <ele>523.58</ele>
        <time>2012-08-25T16:12:28Z</time>
      </trkpt>
      <trkpt lat="43.94798" lon="6.17619">
        <ele>520.69</ele>
        <time>2012-08-25T16:12:36Z</time>
      </trkpt>
      <trkpt lat="43.94683" lon="6.17494">
        <ele>518.77</ele>
        <time>2012-08-25T16:12:42Z</time>
      </trkpt>
      <trkpt lat="43.94597" lon="6.17381">
        <ele>516.37</ele>
        <time>2012-08-25T16:12:47Z</time>
      </trkpt>
      <trkpt lat="43.94577" lon="6.17364">
        <ele>516.37</ele>
        <time>2012-08-25T16:12:48Z</time>
      </trkpt>
      <trkpt lat="43.94556" lon="6.1735">
        <ele>515.88</ele>
        <time>2012-08-25T16:12:49Z</time>
      </trkpt>
      <trkpt lat="43.94492" lon="6.17311">
        <ele>515.4</ele>
        <time>2012-08-25T16:12:52Z</time>
      </trkpt>
      <trkpt lat="43.94473" lon="6.17293">
        <ele>515.4</ele>
        <time>2012-08-25T16:12:53Z</time>
      </trkpt>
      <trkpt lat="43.94456" lon="6.17273">
        <ele>514.92</ele>
        <time>2012-08-25T16:12:54Z</time>
      </trkpt>
      <trkpt lat="43.94442" lon="6.17253">
        <ele>514.92</ele>
        <time>2012-08-25T16:12:55Z</time>
      </trkpt>
      <trkpt lat="43.9443" lon="6.17233">
        <ele>514.44</ele>
        <time>2012-08-25T16:12:56Z</time>
      </trkpt>
      <trkpt lat="43.94421" lon="6.17214">
        <ele>514.44</ele>
        <time>2012-08-25T16:12:57Z</time>
      </trkpt>
      <trkpt lat="43.94355" lon="6.17099">
        <ele>514.44</ele>
        <time>2012-08-25T16:13:05Z</time>
      </trkpt>
      <trkpt lat="43.94265" lon="6.16986">
        <ele>518.77</ele>
        <time>2012-08-25T16:13:15Z</time>
      </trkpt>
      <trkpt lat="43.94172" lon="6.16942">
        <ele>522.61</ele>
        <time>2012-08-25T16:13:22Z</time>
      </trkpt>
      <trkpt lat="43.94158" lon="6.16934">
        <ele>522.61</ele>
        <time>2012-08-25T16:13:23Z</time>
      </trkpt>
      <trkpt lat="43.94146" lon="6.16922">
        <ele>523.09</ele>
        <time>2012-08-25T16:13:24Z</time>
      </trkpt>
      <trkpt lat="43.94136" lon="6.16905">
        <ele>522.61</ele>
        <time>2012-08-25T16:13:25Z</time>
      </trkpt>
      <trkpt lat="43.94129" lon="6.16883">
        <ele>521.65</ele>
        <time>2012-08-25T16:13:26Z</time>
      </trkpt>
      <trkpt lat="43.94124" lon="6.16859">
        <ele>521.17</ele>
        <time>2012-08-25T16:13:27Z</time>
      </trkpt>
      <trkpt lat="43.9412" lon="6.16834">
        <ele>520.21</ele>
        <time>2012-08-25T16:13:28Z</time>
      </trkpt>
      <trkpt lat="43.94114" lon="6.16808">
        <ele>519.73</ele>
        <time>2012-08-25T16:13:29Z</time>
      </trkpt>
      <trkpt lat="43.94106" lon="6.16781">
        <ele>519.25</ele>
        <time>2012-08-25T16:13:30Z</time>
      </trkpt>
      <trkpt lat="43.94096" lon="6.16754">
        <ele>518.77</ele>
        <time>2012-08-25T16:13:31Z</time>
      </trkpt>
      <trkpt lat="43.94085" lon="6.16726">
        <ele>518.29</ele>
        <time>2012-08-25T16:13:32Z</time>
      </trkpt>
      <trkpt lat="43.94032" lon="6.16544">
        <ele>516.37</ele>
        <time>2012-08-25T16:13:38Z</time>
      </trkpt>
      <trkpt lat="43.9402" lon="6.16514">
        <ele>515.88</ele>
        <time>2012-08-25T16:13:39Z</time>
      </trkpt>
      <trkpt lat="43.94007" lon="6.16485">
        <ele>515.88</ele>
        <time>2012-08-25T16:13:40Z</time>
      </trkpt>
      <trkpt lat="43.93992" lon="6.16457">
        <ele>515.4</ele>
        <time>2012-08-25T16:13:41Z</time>
      </trkpt>
      <trkpt lat="43.93975" lon="6.16429">
        <ele>514.92</ele>
        <time>2012-08-25T16:13:42Z</time>
      </trkpt>
      <trkpt lat="43.93939" lon="6.16379">
        <ele>513.48</ele>
        <time>2012-08-25T16:13:44Z</time>
      </trkpt>
      <trkpt lat="43.93918" lon="6.16357">
        <ele>513</ele>
        <time>2012-08-25T16:13:45Z</time>
      </trkpt>
      <trkpt lat="43.93764" lon="6.16198">
        <ele>510.12</ele>
        <time>2012-08-25T16:13:52Z</time>
      </trkpt>
      <trkpt lat="43.93584" lon="6.15909">
        <ele>509.64</ele>
        <time>2012-08-25T16:14:02Z</time>
      </trkpt>
      <trkpt lat="43.93463" lon="6.15677">
        <ele>506.27</ele>
        <time>2012-08-25T16:14:10Z</time>
      </trkpt>
      <trkpt lat="43.93443" lon="6.15656">
        <ele>505.31</ele>
        <time>2012-08-25T16:14:11Z</time>
      </trkpt>
      <trkpt lat="43.93422" lon="6.15638">
        <ele>503.87</ele>
        <time>2012-08-25T16:14:12Z</time>
      </trkpt>
      <trkpt lat="43.93277" lon="6.15477">
        <ele>502.43</ele>
        <time>2012-08-25T16:14:19Z</time>
      </trkpt>
      <trkpt lat="43.93144" lon="6.1532">
        <ele>500.02</ele>
        <time>2012-08-25T16:14:26Z</time>
      </trkpt>
      <trkpt lat="43.93083" lon="6.15214">
        <ele>499.06</ele>
        <time>2012-08-25T16:14:30Z</time>
      </trkpt>
      <trkpt lat="43.93072" lon="6.15185">
        <ele>499.06</ele>
        <time>2012-08-25T16:14:31Z</time>
      </trkpt>
      <trkpt lat="43.93064" lon="6.15154">
        <ele>499.06</ele>
        <time>2012-08-25T16:14:32Z</time>
      </trkpt>
      <trkpt lat="43.92991" lon="6.14822">
        <ele>500.98</ele>
        <time>2012-08-25T16:14:43Z</time>
      </trkpt>
      <trkpt lat="43.92973" lon="6.14749">
        <ele>500.5</ele>
        <time>2012-08-25T16:14:46Z</time>
      </trkpt>
      <trkpt lat="43.92964" lon="6.14729">
        <ele>500.5</ele>
        <time>2012-08-25T16:14:47Z</time>
      </trkpt>
      <trkpt lat="43.92954" lon="6.1471">
        <ele>500.5</ele>
        <time>2012-08-25T16:14:48Z</time>
      </trkpt>
      <trkpt lat="43.9294" lon="6.14692">
        <ele>500.5</ele>
        <time>2012-08-25T16:14:49Z</time>
      </trkpt>
      <trkpt lat="43.92926" lon="6.14674">
        <ele>500.02</ele>
        <time>2012-08-25T16:14:50Z</time>
      </trkpt>
      <trkpt lat="43.92898" lon="6.14632">
        <ele>500.02</ele>
        <time>2012-08-25T16:14:52Z</time>
      </trkpt>
      <trkpt lat="43.92887" lon="6.14608">
        <ele>499.54</ele>
        <time>2012-08-25T16:14:53Z</time>
      </trkpt>
      <trkpt lat="43.92876" lon="6.14584">
        <ele>499.54</ele>
        <time>2012-08-25T16:14:54Z</time>
      </trkpt>
      <trkpt lat="43.92868" lon="6.1456">
        <ele>499.54</ele>
        <time>2012-08-25T16:14:55Z</time>
      </trkpt>
      <trkpt lat="43.92861" lon="6.14535">
        <ele>499.54</ele>
        <time>2012-08-25T16:14:56Z</time>
      </trkpt>
      <trkpt lat="43.92858" lon="6.14511">
        <ele>499.54</ele>
        <time>2012-08-25T16:14:57Z</time>
      </trkpt>
      <trkpt lat="43.92859" lon="6.14487">
        <ele>500.5</ele>
        <time>2012-08-25T16:14:58Z</time>
      </trkpt>
      <trkpt lat="43.92863" lon="6.14464">
        <ele>501.46</ele>
        <time>2012-08-25T16:14:59Z</time>
      </trkpt>
      <trkpt lat="43.92867" lon="6.14441">
        <ele>502.43</ele>
        <time>2012-08-25T16:15:00Z</time>
      </trkpt>
      <trkpt lat="43.9287" lon="6.14419">
        <ele>502.91</ele>
        <time>2012-08-25T16:15:01Z</time>
      </trkpt>
      <trkpt lat="43.9287" lon="6.14396">
        <ele>503.87</ele>
        <time>2012-08-25T16:15:02Z</time>
      </trkpt>
      <trkpt lat="43.92868" lon="6.14374">
        <ele>504.35</ele>
        <time>2012-08-25T16:15:03Z</time>
      </trkpt>
      <trkpt lat="43.92859" lon="6.14298">
        <ele>505.31</ele>
        <time>2012-08-25T16:15:07Z</time>
      </trkpt>
      <trkpt lat="43.92855" lon="6.14283">
        <ele>505.31</ele>
        <time>2012-08-25T16:15:08Z</time>
      </trkpt>
      <trkpt lat="43.9285" lon="6.1427">
        <ele>504.83</ele>
        <time>2012-08-25T16:15:09Z</time>
      </trkpt>
      <trkpt lat="43.92844" lon="6.1426">
        <ele>504.83</ele>
        <time>2012-08-25T16:15:10Z</time>
      </trkpt>
      <trkpt lat="43.92838" lon="6.14252">
        <ele>504.83</ele>
        <time>2012-08-25T16:15:11Z</time>
      </trkpt>
      <trkpt lat="43.92832" lon="6.14246">
        <ele>504.35</ele>
        <time>2012-08-25T16:15:12Z</time>
      </trkpt>
      <trkpt lat="43.92825" lon="6.1424">
        <ele>503.87</ele>
        <time>2012-08-25T16:15:13Z</time>
      </trkpt>
      <trkpt lat="43.92801" lon="6.14217">
        <ele>502.43</ele>
        <time>2012-08-25T16:15:20Z</time>
      </trkpt>
      <trkpt lat="43.92801" lon="6.1422">
        <ele>501.95</ele>
        <time>2012-08-25T16:15:35Z</time>
      </trkpt>
      <trkpt lat="43.92802" lon="6.14222">
        <ele>500.98</ele>
        <time>2012-08-25T16:15:53Z</time>
      </trkpt>
      <trkpt lat="43.92804" lon="6.14223">
        <ele>500.02</ele>
        <time>2012-08-25T16:16:18Z</time>
      </trkpt>
      <trkpt lat="43.92803" lon="6.14224">
        <ele>500.5</ele>
        <time>2012-08-25T16:18:46Z</time>
      </trkpt>
      <trkpt lat="43.92803" lon="6.14223">
        <ele>498.1</ele>
        <time>2012-08-25T16:22:15Z</time>
      </trkpt>
      <trkpt lat="43.928" lon="6.14222">
        <ele>497.62</ele>
        <time>2012-08-25T16:22:16Z</time>
      </trkpt>
      <trkpt lat="43.92796" lon="6.1422">
        <ele>497.62</ele>
        <time>2012-08-25T16:22:17Z</time>
      </trkpt>
      <trkpt lat="43.92789" lon="6.14215">
        <ele>497.14</ele>
        <time>2012-08-25T16:22:18Z</time>
      </trkpt>
      <trkpt lat="43.92782" lon="6.14209">
        <ele>497.14</ele>
        <time>2012-08-25T16:22:19Z</time>
      </trkpt>
      <trkpt lat="43.92681" lon="6.14128">
        <ele>493.29</ele>
        <time>2012-08-25T16:22:29Z</time>
      </trkpt>
      <trkpt lat="43.92668" lon="6.14122">
        <ele>493.29</ele>
        <time>2012-08-25T16:22:30Z</time>
      </trkpt>
      <trkpt lat="43.92653" lon="6.14116">
        <ele>492.81</ele>
        <time>2012-08-25T16:22:31Z</time>
      </trkpt>
      <trkpt lat="43.92638" lon="6.14112">
        <ele>492.81</ele>
        <time>2012-08-25T16:22:32Z</time>
      </trkpt>
      <trkpt lat="43.92622" lon="6.14109">
        <ele>492.81</ele>
        <time>2012-08-25T16:22:33Z</time>
      </trkpt>
      <trkpt lat="43.92606" lon="6.14106">
        <ele>492.33</ele>
        <time>2012-08-25T16:22:34Z</time>
      </trkpt>
      <trkpt lat="43.92451" lon="6.14087">
        <ele>488.97</ele>
        <time>2012-08-25T16:22:43Z</time>
      </trkpt>
      <trkpt lat="43.92437" lon="6.14079">
        <ele>488.49</ele>
        <time>2012-08-25T16:22:44Z</time>
      </trkpt>
      <trkpt lat="43.92422" lon="6.14068">
        <ele>488.49</ele>
        <time>2012-08-25T16:22:45Z</time>
      </trkpt>
      <trkpt lat="43.92409" lon="6.14054">
        <ele>488.49</ele>
        <time>2012-08-25T16:22:46Z</time>
      </trkpt>
      <trkpt lat="43.92396" lon="6.14038">
        <ele>488.49</ele>
        <time>2012-08-25T16:22:47Z</time>
      </trkpt>
      <trkpt lat="43.92383" lon="6.14021">
        <ele>488.97</ele>
        <time>2012-08-25T16:22:48Z</time>
      </trkpt>
      <trkpt lat="43.92263" lon="6.13876">
        <ele>486.08</ele>
        <time>2012-08-25T16:22:58Z</time>
      </trkpt>
      <trkpt lat="43.92234" lon="6.13838">
        <ele>485.6</ele>
        <time>2012-08-25T16:23:01Z</time>
      </trkpt>
      <trkpt lat="43.92228" lon="6.13824">
        <ele>485.6</ele>
        <time>2012-08-25T16:23:02Z</time>
      </trkpt>
      <trkpt lat="43.92223" lon="6.13808">
        <ele>485.6</ele>
        <time>2012-08-25T16:23:03Z</time>
      </trkpt>
      <trkpt lat="43.92219" lon="6.13792">
        <ele>485.6</ele>
        <time>2012-08-25T16:23:04Z</time>
      </trkpt>
      <trkpt lat="43.92217" lon="6.13775">
        <ele>486.08</ele>
        <time>2012-08-25T16:23:05Z</time>
      </trkpt>
      <trkpt lat="43.92175" lon="6.1353">
        <ele>487.53</ele>
        <time>2012-08-25T16:23:19Z</time>
      </trkpt>
      <trkpt lat="43.92172" lon="6.13516">
        <ele>488.01</ele>
        <time>2012-08-25T16:23:20Z</time>
      </trkpt>
      <trkpt lat="43.92167" lon="6.13503">
        <ele>488.01</ele>
        <time>2012-08-25T16:23:21Z</time>
      </trkpt>
      <trkpt lat="43.92161" lon="6.13493">
        <ele>488.01</ele>
        <time>2012-08-25T16:23:22Z</time>
      </trkpt>
      <trkpt lat="43.92154" lon="6.13486">
        <ele>488.49</ele>
        <time>2012-08-25T16:23:23Z</time>
      </trkpt>
      <trkpt lat="43.92145" lon="6.1348">
        <ele>488.97</ele>
        <time>2012-08-25T16:23:24Z</time>
      </trkpt>
      <trkpt lat="43.92136" lon="6.13475">
        <ele>488.97</ele>
        <time>2012-08-25T16:23:25Z</time>
      </trkpt>
      <trkpt lat="43.92127" lon="6.13469">
        <ele>488.97</ele>
        <time>2012-08-25T16:23:26Z</time>
      </trkpt>
      <trkpt lat="43.92065" lon="6.13418">
        <ele>488.97</ele>
        <time>2012-08-25T16:23:33Z</time>
      </trkpt>
      <trkpt lat="43.92063" lon="6.13411">
        <ele>488.49</ele>
        <time>2012-08-25T16:23:34Z</time>
      </trkpt>
      <trkpt lat="43.92066" lon="6.13402">
        <ele>488.49</ele>
        <time>2012-08-25T16:23:35Z</time>
      </trkpt>
      <trkpt lat="43.92069" lon="6.13392">
        <ele>488.49</ele>
        <time>2012-08-25T16:23:36Z</time>
      </trkpt>
      <trkpt lat="43.92074" lon="6.13382">
        <ele>487.53</ele>
        <time>2012-08-25T16:23:37Z</time>
      </trkpt>
      <trkpt lat="43.92081" lon="6.1337">
        <ele>487.05</ele>
        <time>2012-08-25T16:23:38Z</time>
      </trkpt>
      <trkpt lat="43.92097" lon="6.13346">
        <ele>485.6</ele>
        <time>2012-08-25T16:23:40Z</time>
      </trkpt>
      <trkpt lat="43.92173" lon="6.13212">
        <ele>480.8</ele>
        <time>2012-08-25T16:23:48Z</time>
      </trkpt>
      <trkpt lat="43.92274" lon="6.1303">
        <ele>482.72</ele>
        <time>2012-08-25T16:23:56Z</time>
      </trkpt>
      <trkpt lat="43.92392" lon="6.12818">
        <ele>480.32</ele>
        <time>2012-08-25T16:24:07Z</time>
      </trkpt>
      <trkpt lat="43.92481" lon="6.12658">
        <ele>483.2</ele>
        <time>2012-08-25T16:24:18Z</time>
      </trkpt>
      <trkpt lat="43.92522" lon="6.12575">
        <ele>484.16</ele>
        <time>2012-08-25T16:24:24Z</time>
      </trkpt>
      <trkpt lat="43.92525" lon="6.12561">
        <ele>484.64</ele>
        <time>2012-08-25T16:24:25Z</time>
      </trkpt>
      <trkpt lat="43.92527" lon="6.12547">
        <ele>484.64</ele>
        <time>2012-08-25T16:24:26Z</time>
      </trkpt>
      <trkpt lat="43.92528" lon="6.12533">
        <ele>484.64</ele>
        <time>2012-08-25T16:24:27Z</time>
      </trkpt>
      <trkpt lat="43.92529" lon="6.12519">
        <ele>484.64</ele>
        <time>2012-08-25T16:24:28Z</time>
      </trkpt>
      <trkpt lat="43.92528" lon="6.12505">
        <ele>484.64</ele>
        <time>2012-08-25T16:24:29Z</time>
      </trkpt>
      <trkpt lat="43.92527" lon="6.1249">
        <ele>484.64</ele>
        <time>2012-08-25T16:24:30Z</time>
      </trkpt>
      <trkpt lat="43.92525" lon="6.12476">
        <ele>484.64</ele>
        <time>2012-08-25T16:24:31Z</time>
      </trkpt>
      <trkpt lat="43.92523" lon="6.12462">
        <ele>484.64</ele>
        <time>2012-08-25T16:24:32Z</time>
      </trkpt>
      <trkpt lat="43.92519" lon="6.12448">
        <ele>484.64</ele>
        <time>2012-08-25T16:24:33Z</time>
      </trkpt>
      <trkpt lat="43.92515" lon="6.12433">
        <ele>484.16</ele>
        <time>2012-08-25T16:24:34Z</time>
      </trkpt>
      <trkpt lat="43.92509" lon="6.12419">
        <ele>484.16</ele>
        <time>2012-08-25T16:24:35Z</time>
      </trkpt>
      <trkpt lat="43.92502" lon="6.12404">
        <ele>483.68</ele>
        <time>2012-08-25T16:24:36Z</time>
      </trkpt>
      <trkpt lat="43.9242" lon="6.12233">
        <ele>481.28</ele>
        <time>2012-08-25T16:24:46Z</time>
      </trkpt>
      <trkpt lat="43.92318" lon="6.11997">
        <ele>478.39</ele>
        <time>2012-08-25T16:24:57Z</time>
      </trkpt>
      <trkpt lat="43.92267" lon="6.11828">
        <ele>479.84</ele>
        <time>2012-08-25T16:25:04Z</time>
      </trkpt>
      <trkpt lat="43.92242" lon="6.11768">
        <ele>479.84</ele>
        <time>2012-08-25T16:25:07Z</time>
      </trkpt>
      <trkpt lat="43.9218" lon="6.1159">
        <ele>478.87</ele>
        <time>2012-08-25T16:25:14Z</time>
      </trkpt>
      <trkpt lat="43.92077" lon="6.11342">
        <ele>479.35</ele>
        <time>2012-08-25T16:25:24Z</time>
      </trkpt>
      <trkpt lat="43.92043" lon="6.11281">
        <ele>478.39</ele>
        <time>2012-08-25T16:25:27Z</time>
      </trkpt>
      <trkpt lat="43.9203" lon="6.11264">
        <ele>477.91</ele>
        <time>2012-08-25T16:25:28Z</time>
      </trkpt>
      <trkpt lat="43.92014" lon="6.1125">
        <ele>477.91</ele>
        <time>2012-08-25T16:25:29Z</time>
      </trkpt>
      <trkpt lat="43.91999" lon="6.11239">
        <ele>477.91</ele>
        <time>2012-08-25T16:25:30Z</time>
      </trkpt>
      <trkpt lat="43.91982" lon="6.11228">
        <ele>477.43</ele>
        <time>2012-08-25T16:25:31Z</time>
      </trkpt>
      <trkpt lat="43.9195" lon="6.11207">
        <ele>477.43</ele>
        <time>2012-08-25T16:25:33Z</time>
      </trkpt>
      <trkpt lat="43.91936" lon="6.11193">
        <ele>477.43</ele>
        <time>2012-08-25T16:25:34Z</time>
      </trkpt>
      <trkpt lat="43.91924" lon="6.11178">
        <ele>476.95</ele>
        <time>2012-08-25T16:25:35Z</time>
      </trkpt>
      <trkpt lat="43.91913" lon="6.1116">
        <ele>476.47</ele>
        <time>2012-08-25T16:25:36Z</time>
      </trkpt>
      <trkpt lat="43.91903" lon="6.11141">
        <ele>475.51</ele>
        <time>2012-08-25T16:25:37Z</time>
      </trkpt>
      <trkpt lat="43.91895" lon="6.1112">
        <ele>475.03</ele>
        <time>2012-08-25T16:25:38Z</time>
      </trkpt>
      <trkpt lat="43.91888" lon="6.11097">
        <ele>474.55</ele>
        <time>2012-08-25T16:25:39Z</time>
      </trkpt>
      <trkpt lat="43.91881" lon="6.11073">
        <ele>474.07</ele>
        <time>2012-08-25T16:25:40Z</time>
      </trkpt>
      <trkpt lat="43.91812" lon="6.10839">
        <ele>473.59</ele>
        <time>2012-08-25T16:25:49Z</time>
      </trkpt>
      <trkpt lat="43.91804" lon="6.10816">
        <ele>473.59</ele>
        <time>2012-08-25T16:25:50Z</time>
      </trkpt>
      <trkpt lat="43.91793" lon="6.10795">
        <ele>473.11</ele>
        <time>2012-08-25T16:25:51Z</time>
      </trkpt>
      <trkpt lat="43.91781" lon="6.10776">
        <ele>472.63</ele>
        <time>2012-08-25T16:25:52Z</time>
      </trkpt>
      <trkpt lat="43.91766" lon="6.10758">
        <ele>472.14</ele>
        <time>2012-08-25T16:25:53Z</time>
      </trkpt>
      <trkpt lat="43.91752" lon="6.1074">
        <ele>471.66</ele>
        <time>2012-08-25T16:25:54Z</time>
      </trkpt>
      <trkpt lat="43.9174" lon="6.10721">
        <ele>471.66</ele>
        <time>2012-08-25T16:25:55Z</time>
      </trkpt>
      <trkpt lat="43.9173" lon="6.107">
        <ele>471.18</ele>
        <time>2012-08-25T16:25:56Z</time>
      </trkpt>
      <trkpt lat="43.91723" lon="6.10678">
        <ele>471.18</ele>
        <time>2012-08-25T16:25:57Z</time>
      </trkpt>
      <trkpt lat="43.91718" lon="6.10653">
        <ele>471.66</ele>
        <time>2012-08-25T16:25:58Z</time>
      </trkpt>
      <trkpt lat="43.91715" lon="6.10627">
        <ele>472.14</ele>
        <time>2012-08-25T16:25:59Z</time>
      </trkpt>
      <trkpt lat="43.91712" lon="6.106">
        <ele>472.14</ele>
        <time>2012-08-25T16:26:00Z</time>
      </trkpt>
      <trkpt lat="43.91697" lon="6.10325">
        <ele>474.55</ele>
        <time>2012-08-25T16:26:09Z</time>
      </trkpt>
      <trkpt lat="43.9169" lon="6.10241">
        <ele>475.03</ele>
        <time>2012-08-25T16:26:12Z</time>
      </trkpt>
      <trkpt lat="43.91677" lon="6.10165">
        <ele>474.07</ele>
        <time>2012-08-25T16:26:15Z</time>
      </trkpt>
      <trkpt lat="43.91676" lon="6.10139">
        <ele>473.59</ele>
        <time>2012-08-25T16:26:16Z</time>
      </trkpt>
      <trkpt lat="43.91677" lon="6.10113">
        <ele>473.11</ele>
        <time>2012-08-25T16:26:17Z</time>
      </trkpt>
      <trkpt lat="43.91682" lon="6.10035">
        <ele>470.22</ele>
        <time>2012-08-25T16:26:20Z</time>
      </trkpt>
      <trkpt lat="43.9168" lon="6.10009">
        <ele>469.74</ele>
        <time>2012-08-25T16:26:21Z</time>
      </trkpt>
      <trkpt lat="43.91675" lon="6.09983">
        <ele>468.78</ele>
        <time>2012-08-25T16:26:22Z</time>
      </trkpt>
      <trkpt lat="43.91624" lon="6.09742">
        <ele>468.3</ele>
        <time>2012-08-25T16:26:32Z</time>
      </trkpt>
      <trkpt lat="43.91605" lon="6.0958">
        <ele>466.38</ele>
        <time>2012-08-25T16:26:39Z</time>
      </trkpt>
      <trkpt lat="43.91607" lon="6.09556">
        <ele>466.38</ele>
        <time>2012-08-25T16:26:40Z</time>
      </trkpt>
      <trkpt lat="43.91603" lon="6.09419">
        <ele>465.42</ele>
        <time>2012-08-25T16:26:46Z</time>
      </trkpt>
      <trkpt lat="43.91597" lon="6.09402">
        <ele>465.42</ele>
        <time>2012-08-25T16:26:47Z</time>
      </trkpt>
      <trkpt lat="43.91588" lon="6.09389">
        <ele>465.42</ele>
        <time>2012-08-25T16:26:48Z</time>
      </trkpt>
      <trkpt lat="43.91578" lon="6.09377">
        <ele>465.42</ele>
        <time>2012-08-25T16:26:49Z</time>
      </trkpt>
      <trkpt lat="43.91567" lon="6.09368">
        <ele>465.9</ele>
        <time>2012-08-25T16:26:50Z</time>
      </trkpt>
      <trkpt lat="43.91556" lon="6.09358">
        <ele>466.38</ele>
        <time>2012-08-25T16:26:51Z</time>
      </trkpt>
      <trkpt lat="43.91519" lon="6.0932">
        <ele>467.82</ele>
        <time>2012-08-25T16:26:56Z</time>
      </trkpt>
      <trkpt lat="43.91516" lon="6.09313">
        <ele>467.82</ele>
        <time>2012-08-25T16:26:57Z</time>
      </trkpt>
      <trkpt lat="43.91509" lon="6.09297">
        <ele>468.3</ele>
        <time>2012-08-25T16:26:59Z</time>
      </trkpt>
      <trkpt lat="43.91507" lon="6.09289">
        <ele>468.3</ele>
        <time>2012-08-25T16:27:00Z</time>
      </trkpt>
      <trkpt lat="43.91506" lon="6.09279">
        <ele>468.3</ele>
        <time>2012-08-25T16:27:01Z</time>
      </trkpt>
      <trkpt lat="43.91505" lon="6.09268">
        <ele>468.3</ele>
        <time>2012-08-25T16:27:02Z</time>
      </trkpt>
      <trkpt lat="43.91504" lon="6.09255">
        <ele>468.3</ele>
        <time>2012-08-25T16:27:03Z</time>
      </trkpt>
      <trkpt lat="43.91506" lon="6.09202">
        <ele>466.86</ele>
        <time>2012-08-25T16:27:06Z</time>
      </trkpt>
      <trkpt lat="43.9151" lon="6.09183">
        <ele>466.38</ele>
        <time>2012-08-25T16:27:07Z</time>
      </trkpt>
      <trkpt lat="43.91517" lon="6.09164">
        <ele>465.9</ele>
        <time>2012-08-25T16:27:08Z</time>
      </trkpt>
      <trkpt lat="43.91525" lon="6.09146">
        <ele>465.42</ele>
        <time>2012-08-25T16:27:09Z</time>
      </trkpt>
      <trkpt lat="43.91535" lon="6.09127">
        <ele>464.93</ele>
        <time>2012-08-25T16:27:10Z</time>
      </trkpt>
      <trkpt lat="43.91578" lon="6.09026">
        <ele>462.05</ele>
        <time>2012-08-25T16:27:15Z</time>
      </trkpt>
      <trkpt lat="43.91584" lon="6.09004">
        <ele>461.57</ele>
        <time>2012-08-25T16:27:16Z</time>
      </trkpt>
      <trkpt lat="43.91587" lon="6.0898">
        <ele>461.57</ele>
        <time>2012-08-25T16:27:17Z</time>
      </trkpt>
      <trkpt lat="43.91587" lon="6.08956">
        <ele>461.57</ele>
        <time>2012-08-25T16:27:18Z</time>
      </trkpt>
      <trkpt lat="43.91585" lon="6.08932">
        <ele>461.09</ele>
        <time>2012-08-25T16:27:19Z</time>
      </trkpt>
      <trkpt lat="43.91581" lon="6.08905">
        <ele>461.57</ele>
        <time>2012-08-25T16:27:20Z</time>
      </trkpt>
      <trkpt lat="43.91531" lon="6.08634">
        <ele>463.97</ele>
        <time>2012-08-25T16:27:30Z</time>
      </trkpt>
      <trkpt lat="43.91451" lon="6.0835">
        <ele>461.57</ele>
        <time>2012-08-25T16:27:41Z</time>
      </trkpt>
      <trkpt lat="43.91431" lon="6.08265">
        <ele>460.13</ele>
        <time>2012-08-25T16:27:45Z</time>
      </trkpt>
      <trkpt lat="43.91429" lon="6.08243">
        <ele>459.65</ele>
        <time>2012-08-25T16:27:46Z</time>
      </trkpt>
      <trkpt lat="43.9143" lon="6.08219">
        <ele>459.17</ele>
        <time>2012-08-25T16:27:47Z</time>
      </trkpt>
      <trkpt lat="43.91432" lon="6.08196">
        <ele>459.17</ele>
        <time>2012-08-25T16:27:48Z</time>
      </trkpt>
      <trkpt lat="43.91435" lon="6.08171">
        <ele>458.69</ele>
        <time>2012-08-25T16:27:49Z</time>
      </trkpt>
      <trkpt lat="43.91442" lon="6.08074">
        <ele>458.21</ele>
        <time>2012-08-25T16:27:53Z</time>
      </trkpt>
      <trkpt lat="43.91439" lon="6.0805">
        <ele>458.21</ele>
        <time>2012-08-25T16:27:54Z</time>
      </trkpt>
      <trkpt lat="43.91435" lon="6.08026">
        <ele>458.21</ele>
        <time>2012-08-25T16:27:55Z</time>
      </trkpt>
      <trkpt lat="43.91403" lon="6.07838">
        <ele>456.76</ele>
        <time>2012-08-25T16:28:03Z</time>
      </trkpt>
      <trkpt lat="43.91402" lon="6.07814">
        <ele>456.28</ele>
        <time>2012-08-25T16:28:04Z</time>
      </trkpt>
      <trkpt lat="43.91403" lon="6.0779">
        <ele>456.28</ele>
        <time>2012-08-25T16:28:05Z</time>
      </trkpt>
      <trkpt lat="43.91411" lon="6.07641">
        <ele>454.84</ele>
        <time>2012-08-25T16:28:11Z</time>
      </trkpt>
      <trkpt lat="43.91408" lon="6.07619">
        <ele>455.32</ele>
        <time>2012-08-25T16:28:12Z</time>
      </trkpt>
      <trkpt lat="43.91401" lon="6.07578">
        <ele>455.32</ele>
        <time>2012-08-25T16:28:14Z</time>
      </trkpt>
      <trkpt lat="43.914" lon="6.07558">
        <ele>455.8</ele>
        <time>2012-08-25T16:28:15Z</time>
      </trkpt>
      <trkpt lat="43.91401" lon="6.07537">
        <ele>455.32</ele>
        <time>2012-08-25T16:28:16Z</time>
      </trkpt>
      <trkpt lat="43.91405" lon="6.07518">
        <ele>455.32</ele>
        <time>2012-08-25T16:28:17Z</time>
      </trkpt>
      <trkpt lat="43.91408" lon="6.07498">
        <ele>455.8</ele>
        <time>2012-08-25T16:28:18Z</time>
      </trkpt>
      <trkpt lat="43.91409" lon="6.07478">
        <ele>455.32</ele>
        <time>2012-08-25T16:28:19Z</time>
      </trkpt>
      <trkpt lat="43.91409" lon="6.07456">
        <ele>455.8</ele>
        <time>2012-08-25T16:28:20Z</time>
      </trkpt>
      <trkpt lat="43.91408" lon="6.07434">
        <ele>456.28</ele>
        <time>2012-08-25T16:28:21Z</time>
      </trkpt>
      <trkpt lat="43.91404" lon="6.0737">
        <ele>458.69</ele>
        <time>2012-08-25T16:28:24Z</time>
      </trkpt>
      <trkpt lat="43.91399" lon="6.07348">
        <ele>459.17</ele>
        <time>2012-08-25T16:28:25Z</time>
      </trkpt>
      <trkpt lat="43.91347" lon="6.07107">
        <ele>458.69</ele>
        <time>2012-08-25T16:28:36Z</time>
      </trkpt>
      <trkpt lat="43.91333" lon="6.06895">
        <ele>455.8</ele>
        <time>2012-08-25T16:28:44Z</time>
      </trkpt>
      <trkpt lat="43.91307" lon="6.06622">
        <ele>452.44</ele>
        <time>2012-08-25T16:28:53Z</time>
      </trkpt>
      <trkpt lat="43.91269" lon="6.06386">
        <ele>448.59</ele>
        <time>2012-08-25T16:29:01Z</time>
      </trkpt>
      <trkpt lat="43.91252" lon="6.06193">
        <ele>448.59</ele>
        <time>2012-08-25T16:29:08Z</time>
      </trkpt>
      <trkpt lat="43.91255" lon="6.05951">
        <ele>442.34</ele>
        <time>2012-08-25T16:29:18Z</time>
      </trkpt>
      <trkpt lat="43.91252" lon="6.05928">
        <ele>441.86</ele>
        <time>2012-08-25T16:29:19Z</time>
      </trkpt>
      <trkpt lat="43.91247" lon="6.05904">
        <ele>441.38</ele>
        <time>2012-08-25T16:29:20Z</time>
      </trkpt>
      <trkpt lat="43.9124" lon="6.0588">
        <ele>440.9</ele>
        <time>2012-08-25T16:29:21Z</time>
      </trkpt>
      <trkpt lat="43.91231" lon="6.05855">
        <ele>440.42</ele>
        <time>2012-08-25T16:29:22Z</time>
      </trkpt>
      <trkpt lat="43.91149" lon="6.05601">
        <ele>440.9</ele>
        <time>2012-08-25T16:29:32Z</time>
      </trkpt>
      <trkpt lat="43.91096" lon="6.05351">
        <ele>442.82</ele>
        <time>2012-08-25T16:29:41Z</time>
      </trkpt>
      <trkpt lat="43.91029" lon="6.05182">
        <ele>440.42</ele>
        <time>2012-08-25T16:29:48Z</time>
      </trkpt>
      <trkpt lat="43.90946" lon="6.04889">
        <ele>433.21</ele>
        <time>2012-08-25T16:29:58Z</time>
      </trkpt>
      <trkpt lat="43.90879" lon="6.04686">
        <ele>429.37</ele>
        <time>2012-08-25T16:30:06Z</time>
      </trkpt>
      <trkpt lat="43.90772" lon="6.04403">
        <ele>426.96</ele>
        <time>2012-08-25T16:30:16Z</time>
      </trkpt>
      <trkpt lat="43.90685" lon="6.04136">
        <ele>429.37</ele>
        <time>2012-08-25T16:30:25Z</time>
      </trkpt>
      <trkpt lat="43.90577" lon="6.03817">
        <ele>426</ele>
        <time>2012-08-25T16:30:37Z</time>
      </trkpt>
      <trkpt lat="43.9047" lon="6.03561">
        <ele>422.16</ele>
        <time>2012-08-25T16:30:47Z</time>
      </trkpt>
      <trkpt lat="43.90365" lon="6.0329">
        <ele>424.56</ele>
        <time>2012-08-25T16:30:57Z</time>
      </trkpt>
      <trkpt lat="43.90338" lon="6.03209">
        <ele>426.48</ele>
        <time>2012-08-25T16:31:01Z</time>
      </trkpt>
      <trkpt lat="43.90335" lon="6.03193">
        <ele>426.48</ele>
        <time>2012-08-25T16:31:02Z</time>
      </trkpt>
      <trkpt lat="43.90335" lon="6.03178">
        <ele>426.96</ele>
        <time>2012-08-25T16:31:03Z</time>
      </trkpt>
      <trkpt lat="43.90341" lon="6.03165">
        <ele>427.44</ele>
        <time>2012-08-25T16:31:04Z</time>
      </trkpt>
      <trkpt lat="43.9035" lon="6.03158">
        <ele>427.44</ele>
        <time>2012-08-25T16:31:05Z</time>
      </trkpt>
      <trkpt lat="43.90358" lon="6.03151">
        <ele>427.44</ele>
        <time>2012-08-25T16:31:06Z</time>
      </trkpt>
      <trkpt lat="43.90367" lon="6.03145">
        <ele>427.44</ele>
        <time>2012-08-25T16:31:07Z</time>
      </trkpt>
      <trkpt lat="43.90375" lon="6.03138">
        <ele>427.44</ele>
        <time>2012-08-25T16:31:08Z</time>
      </trkpt>
      <trkpt lat="43.90381" lon="6.03129">
        <ele>427.44</ele>
        <time>2012-08-25T16:31:09Z</time>
      </trkpt>
      <trkpt lat="43.90383" lon="6.03119">
        <ele>427.44</ele>
        <time>2012-08-25T16:31:10Z</time>
      </trkpt>
      <trkpt lat="43.90382" lon="6.03106">
        <ele>427.44</ele>
        <time>2012-08-25T16:31:11Z</time>
      </trkpt>
      <trkpt lat="43.90378" lon="6.03094">
        <ele>427.44</ele>
        <time>2012-08-25T16:31:12Z</time>
      </trkpt>
      <trkpt lat="43.90371" lon="6.03083">
        <ele>427.44</ele>
        <time>2012-08-25T16:31:13Z</time>
      </trkpt>
      <trkpt lat="43.9036" lon="6.03079">
        <ele>427.44</ele>
        <time>2012-08-25T16:31:14Z</time>
      </trkpt>
      <trkpt lat="43.90349" lon="6.03078">
        <ele>426.96</ele>
        <time>2012-08-25T16:31:15Z</time>
      </trkpt>
      <trkpt lat="43.90336" lon="6.0308">
        <ele>426.48</ele>
        <time>2012-08-25T16:31:16Z</time>
      </trkpt>
      <trkpt lat="43.90323" lon="6.03081">
        <ele>426.48</ele>
        <time>2012-08-25T16:31:17Z</time>
      </trkpt>
      <trkpt lat="43.90308" lon="6.03081">
        <ele>426</ele>
        <time>2012-08-25T16:31:18Z</time>
      </trkpt>
      <trkpt lat="43.90295" lon="6.03077">
        <ele>426</ele>
        <time>2012-08-25T16:31:19Z</time>
      </trkpt>
      <trkpt lat="43.90282" lon="6.03069">
        <ele>425.52</ele>
        <time>2012-08-25T16:31:20Z</time>
      </trkpt>
      <trkpt lat="43.90269" lon="6.03059">
        <ele>425.52</ele>
        <time>2012-08-25T16:31:21Z</time>
      </trkpt>
      <trkpt lat="43.90258" lon="6.03044">
        <ele>425.04</ele>
        <time>2012-08-25T16:31:22Z</time>
      </trkpt>
      <trkpt lat="43.90249" lon="6.03027">
        <ele>424.56</ele>
        <time>2012-08-25T16:31:23Z</time>
      </trkpt>
      <trkpt lat="43.90241" lon="6.03006">
        <ele>424.08</ele>
        <time>2012-08-25T16:31:24Z</time>
      </trkpt>
      <trkpt lat="43.90234" lon="6.02983">
        <ele>423.6</ele>
        <time>2012-08-25T16:31:25Z</time>
      </trkpt>
      <trkpt lat="43.90177" lon="6.0279">
        <ele>420.23</ele>
        <time>2012-08-25T16:31:32Z</time>
      </trkpt>
      <trkpt lat="43.90134" lon="6.02547">
        <ele>423.12</ele>
        <time>2012-08-25T16:31:40Z</time>
      </trkpt>
      <trkpt lat="43.90088" lon="6.02356">
        <ele>425.04</ele>
        <time>2012-08-25T16:31:47Z</time>
      </trkpt>
      <trkpt lat="43.90021" lon="6.02134">
        <ele>425.52</ele>
        <time>2012-08-25T16:31:55Z</time>
      </trkpt>
      <trkpt lat="43.89956" lon="6.01946">
        <ele>423.6</ele>
        <time>2012-08-25T16:32:02Z</time>
      </trkpt>
      <trkpt lat="43.89881" lon="6.01676">
        <ele>421.68</ele>
        <time>2012-08-25T16:32:11Z</time>
      </trkpt>
      <trkpt lat="43.89823" lon="6.01474">
        <ele>420.71</ele>
        <time>2012-08-25T16:32:18Z</time>
      </trkpt>
      <trkpt lat="43.89766" lon="6.01314">
        <ele>419.75</ele>
        <time>2012-08-25T16:32:24Z</time>
      </trkpt>
      <trkpt lat="43.89759" lon="6.01287">
        <ele>419.27</ele>
        <time>2012-08-25T16:32:25Z</time>
      </trkpt>
      <trkpt lat="43.89708" lon="6.01037">
        <ele>418.79</ele>
        <time>2012-08-25T16:32:33Z</time>
      </trkpt>
      <trkpt lat="43.89645" lon="6.00679">
        <ele>416.39</ele>
        <time>2012-08-25T16:32:44Z</time>
      </trkpt>
      <trkpt lat="43.89592" lon="6.00436">
        <ele>416.87</ele>
        <time>2012-08-25T16:32:52Z</time>
      </trkpt>
      <trkpt lat="43.89569" lon="6.00338">
        <ele>416.87</ele>
        <time>2012-08-25T16:32:56Z</time>
      </trkpt>
      <trkpt lat="43.89567" lon="6.00315">
        <ele>416.87</ele>
        <time>2012-08-25T16:32:57Z</time>
      </trkpt>
      <trkpt lat="43.89565" lon="6.00267">
        <ele>416.39</ele>
        <time>2012-08-25T16:32:59Z</time>
      </trkpt>
      <trkpt lat="43.89561" lon="6.00244">
        <ele>416.39</ele>
        <time>2012-08-25T16:33:00Z</time>
      </trkpt>
      <trkpt lat="43.89555" lon="6.00221">
        <ele>416.39</ele>
        <time>2012-08-25T16:33:01Z</time>
      </trkpt>
      <trkpt lat="43.89547" lon="6.00198">
        <ele>416.39</ele>
        <time>2012-08-25T16:33:02Z</time>
      </trkpt>
      <trkpt lat="43.89538" lon="6.00176">
        <ele>415.91</ele>
        <time>2012-08-25T16:33:03Z</time>
      </trkpt>
      <trkpt lat="43.89529" lon="6.00153">
        <ele>415.91</ele>
        <time>2012-08-25T16:33:04Z</time>
      </trkpt>
      <trkpt lat="43.89522" lon="6.00128">
        <ele>415.43</ele>
        <time>2012-08-25T16:33:05Z</time>
      </trkpt>
      <trkpt lat="43.89472" lon="5.99891">
        <ele>415.91</ele>
        <time>2012-08-25T16:33:14Z</time>
      </trkpt>
      <trkpt lat="43.89472" lon="5.99866">
        <ele>415.91</ele>
        <time>2012-08-25T16:33:15Z</time>
      </trkpt>
      <trkpt lat="43.89474" lon="5.9984">
        <ele>416.39</ele>
        <time>2012-08-25T16:33:16Z</time>
      </trkpt>
      <trkpt lat="43.89478" lon="5.99816">
        <ele>416.39</ele>
        <time>2012-08-25T16:33:17Z</time>
      </trkpt>
      <trkpt lat="43.89483" lon="5.99792">
        <ele>416.39</ele>
        <time>2012-08-25T16:33:18Z</time>
      </trkpt>
      <trkpt lat="43.89485" lon="5.99769">
        <ele>416.39</ele>
        <time>2012-08-25T16:33:19Z</time>
      </trkpt>
      <trkpt lat="43.89486" lon="5.99745">
        <ele>416.39</ele>
        <time>2012-08-25T16:33:20Z</time>
      </trkpt>
      <trkpt lat="43.89485" lon="5.99722">
        <ele>416.39</ele>
        <time>2012-08-25T16:33:21Z</time>
      </trkpt>
      <trkpt lat="43.89482" lon="5.99701">
        <ele>416.39</ele>
        <time>2012-08-25T16:33:22Z</time>
      </trkpt>
      <trkpt lat="43.89477" lon="5.99679">
        <ele>416.87</ele>
        <time>2012-08-25T16:33:23Z</time>
      </trkpt>
      <trkpt lat="43.89469" lon="5.99659">
        <ele>416.87</ele>
        <time>2012-08-25T16:33:24Z</time>
      </trkpt>
      <trkpt lat="43.89462" lon="5.99637">
        <ele>416.39</ele>
        <time>2012-08-25T16:33:25Z</time>
      </trkpt>
      <trkpt lat="43.89455" lon="5.99614">
        <ele>416.39</ele>
        <time>2012-08-25T16:33:26Z</time>
      </trkpt>
      <trkpt lat="43.89451" lon="5.99589">
        <ele>415.91</ele>
        <time>2012-08-25T16:33:27Z</time>
      </trkpt>
      <trkpt lat="43.89422" lon="5.99395">
        <ele>414.47</ele>
        <time>2012-08-25T16:33:34Z</time>
      </trkpt>
      <trkpt lat="43.89422" lon="5.99365">
        <ele>414.47</ele>
        <time>2012-08-25T16:33:35Z</time>
      </trkpt>
      <trkpt lat="43.89423" lon="5.99334">
        <ele>414.47</ele>
        <time>2012-08-25T16:33:36Z</time>
      </trkpt>
      <trkpt lat="43.89451" lon="5.99051">
        <ele>413.02</ele>
        <time>2012-08-25T16:33:45Z</time>
      </trkpt>
      <trkpt lat="43.89465" lon="5.98918">
        <ele>414.95</ele>
        <time>2012-08-25T16:33:50Z</time>
      </trkpt>
      <trkpt lat="43.89465" lon="5.98893">
        <ele>415.43</ele>
        <time>2012-08-25T16:33:51Z</time>
      </trkpt>
      <trkpt lat="43.89463" lon="5.98868">
        <ele>414.95</ele>
        <time>2012-08-25T16:33:52Z</time>
      </trkpt>
      <trkpt lat="43.89428" lon="5.98659">
        <ele>409.18</ele>
        <time>2012-08-25T16:33:59Z</time>
      </trkpt>
      <trkpt lat="43.89359" lon="5.98252">
        <ele>404.37</ele>
        <time>2012-08-25T16:34:11Z</time>
      </trkpt>
      <trkpt lat="43.89309" lon="5.97976">
        <ele>400.53</ele>
        <time>2012-08-25T16:34:20Z</time>
      </trkpt>
      <trkpt lat="43.89253" lon="5.97804">
        <ele>398.6</ele>
        <time>2012-08-25T16:34:27Z</time>
      </trkpt>
      <trkpt lat="43.89248" lon="5.97777">
        <ele>398.12</ele>
        <time>2012-08-25T16:34:28Z</time>
      </trkpt>
      <trkpt lat="43.89244" lon="5.9775">
        <ele>398.12</ele>
        <time>2012-08-25T16:34:29Z</time>
      </trkpt>
      <trkpt lat="43.89243" lon="5.97722">
        <ele>398.12</ele>
        <time>2012-08-25T16:34:30Z</time>
      </trkpt>
      <trkpt lat="43.89243" lon="5.97694">
        <ele>398.12</ele>
        <time>2012-08-25T16:34:31Z</time>
      </trkpt>
      <trkpt lat="43.89228" lon="5.97309">
        <ele>397.64</ele>
        <time>2012-08-25T16:34:44Z</time>
      </trkpt>
      <trkpt lat="43.89209" lon="5.9688">
        <ele>398.12</ele>
        <time>2012-08-25T16:34:57Z</time>
      </trkpt>
      <trkpt lat="43.89186" lon="5.96415">
        <ele>397.64</ele>
        <time>2012-08-25T16:35:11Z</time>
      </trkpt>
      <trkpt lat="43.89133" lon="5.9615">
        <ele>397.16</ele>
        <time>2012-08-25T16:35:19Z</time>
      </trkpt>
      <trkpt lat="43.89068" lon="5.95846">
        <ele>396.68</ele>
        <time>2012-08-25T16:35:29Z</time>
      </trkpt>
      <trkpt lat="43.89048" lon="5.9574">
        <ele>396.2</ele>
        <time>2012-08-25T16:35:34Z</time>
      </trkpt>
      <trkpt lat="43.8905" lon="5.95726">
        <ele>395.24</ele>
        <time>2012-08-25T16:35:35Z</time>
      </trkpt>
      <trkpt lat="43.89057" lon="5.95715">
        <ele>394.76</ele>
        <time>2012-08-25T16:35:36Z</time>
      </trkpt>
      <trkpt lat="43.89067" lon="5.95702">
        <ele>394.76</ele>
        <time>2012-08-25T16:35:37Z</time>
      </trkpt>
      <trkpt lat="43.89079" lon="5.9569">
        <ele>394.28</ele>
        <time>2012-08-25T16:35:38Z</time>
      </trkpt>
      <trkpt lat="43.89093" lon="5.95676">
        <ele>394.28</ele>
        <time>2012-08-25T16:35:39Z</time>
      </trkpt>
      <trkpt lat="43.89109" lon="5.95664">
        <ele>394.76</ele>
        <time>2012-08-25T16:35:40Z</time>
      </trkpt>
      <trkpt lat="43.89127" lon="5.95651">
        <ele>394.76</ele>
        <time>2012-08-25T16:35:41Z</time>
      </trkpt>
      <trkpt lat="43.89145" lon="5.95641">
        <ele>394.28</ele>
        <time>2012-08-25T16:35:42Z</time>
      </trkpt>
      <trkpt lat="43.89233" lon="5.95578">
        <ele>392.36</ele>
        <time>2012-08-25T16:35:48Z</time>
      </trkpt>
      <trkpt lat="43.89242" lon="5.95566">
        <ele>391.87</ele>
        <time>2012-08-25T16:35:49Z</time>
      </trkpt>
      <trkpt lat="43.89247" lon="5.95553">
        <ele>391.39</ele>
        <time>2012-08-25T16:35:50Z</time>
      </trkpt>
      <trkpt lat="43.89247" lon="5.95538">
        <ele>390.91</ele>
        <time>2012-08-25T16:35:51Z</time>
      </trkpt>
      <trkpt lat="43.89244" lon="5.95521">
        <ele>391.39</ele>
        <time>2012-08-25T16:35:52Z</time>
      </trkpt>
      <trkpt lat="43.8924" lon="5.95507">
        <ele>390.91</ele>
        <time>2012-08-25T16:35:53Z</time>
      </trkpt>
      <trkpt lat="43.89234" lon="5.95496">
        <ele>390.91</ele>
        <time>2012-08-25T16:35:54Z</time>
      </trkpt>
      <trkpt lat="43.89226" lon="5.95488">
        <ele>390.91</ele>
        <time>2012-08-25T16:35:55Z</time>
      </trkpt>
      <trkpt lat="43.89216" lon="5.95485">
        <ele>390.91</ele>
        <time>2012-08-25T16:35:56Z</time>
      </trkpt>
      <trkpt lat="43.89204" lon="5.95482">
        <ele>390.91</ele>
        <time>2012-08-25T16:35:57Z</time>
      </trkpt>
      <trkpt lat="43.8919" lon="5.95481">
        <ele>391.87</ele>
        <time>2012-08-25T16:35:58Z</time>
      </trkpt>
      <trkpt lat="43.89079" lon="5.95474">
        <ele>396.2</ele>
        <time>2012-08-25T16:36:05Z</time>
      </trkpt>
      <trkpt lat="43.89065" lon="5.95473">
        <ele>396.2</ele>
        <time>2012-08-25T16:36:06Z</time>
      </trkpt>
      <trkpt lat="43.89053" lon="5.9547">
        <ele>397.16</ele>
        <time>2012-08-25T16:36:07Z</time>
      </trkpt>
      <trkpt lat="43.89042" lon="5.95461">
        <ele>397.64</ele>
        <time>2012-08-25T16:36:08Z</time>
      </trkpt>
      <trkpt lat="43.89035" lon="5.95448">
        <ele>398.6</ele>
        <time>2012-08-25T16:36:09Z</time>
      </trkpt>
      <trkpt lat="43.8903" lon="5.95432">
        <ele>399.08</ele>
        <time>2012-08-25T16:36:10Z</time>
      </trkpt>
      <trkpt lat="43.89026" lon="5.95414">
        <ele>399.57</ele>
        <time>2012-08-25T16:36:11Z</time>
      </trkpt>
      <trkpt lat="43.89022" lon="5.95393">
        <ele>400.05</ele>
        <time>2012-08-25T16:36:12Z</time>
      </trkpt>
      <trkpt lat="43.88986" lon="5.95215">
        <ele>401.97</ele>
        <time>2012-08-25T16:36:19Z</time>
      </trkpt>
      <trkpt lat="43.88911" lon="5.94971">
        <ele>398.6</ele>
        <time>2012-08-25T16:36:28Z</time>
      </trkpt>
      <trkpt lat="43.88892" lon="5.94928">
        <ele>398.6</ele>
        <time>2012-08-25T16:36:30Z</time>
      </trkpt>
      <trkpt lat="43.88886" lon="5.94906">
        <ele>398.6</ele>
        <time>2012-08-25T16:36:31Z</time>
      </trkpt>
      <trkpt lat="43.88882" lon="5.94883">
        <ele>398.6</ele>
        <time>2012-08-25T16:36:32Z</time>
      </trkpt>
      <trkpt lat="43.88882" lon="5.9486">
        <ele>398.6</ele>
        <time>2012-08-25T16:36:33Z</time>
      </trkpt>
      <trkpt lat="43.88884" lon="5.94837">
        <ele>399.08</ele>
        <time>2012-08-25T16:36:34Z</time>
      </trkpt>
      <trkpt lat="43.88889" lon="5.94818">
        <ele>399.57</ele>
        <time>2012-08-25T16:36:35Z</time>
      </trkpt>
      <trkpt lat="43.88892" lon="5.94799">
        <ele>400.05</ele>
        <time>2012-08-25T16:36:36Z</time>
      </trkpt>
      <trkpt lat="43.88893" lon="5.94784">
        <ele>400.53</ele>
        <time>2012-08-25T16:36:37Z</time>
      </trkpt>
      <trkpt lat="43.88889" lon="5.94767">
        <ele>401.01</ele>
        <time>2012-08-25T16:36:38Z</time>
      </trkpt>
      <trkpt lat="43.88882" lon="5.94749">
        <ele>401.01</ele>
        <time>2012-08-25T16:36:39Z</time>
      </trkpt>
      <trkpt lat="43.88874" lon="5.9473">
        <ele>401.01</ele>
        <time>2012-08-25T16:36:40Z</time>
      </trkpt>
      <trkpt lat="43.88854" lon="5.94675">
        <ele>399.57</ele>
        <time>2012-08-25T16:36:43Z</time>
      </trkpt>
      <trkpt lat="43.88851" lon="5.94659">
        <ele>399.08</ele>
        <time>2012-08-25T16:36:44Z</time>
      </trkpt>
      <trkpt lat="43.88854" lon="5.94643">
        <ele>398.12</ele>
        <time>2012-08-25T16:36:45Z</time>
      </trkpt>
      <trkpt lat="43.8886" lon="5.94629">
        <ele>398.12</ele>
        <time>2012-08-25T16:36:46Z</time>
      </trkpt>
      <trkpt lat="43.88869" lon="5.94616">
        <ele>398.12</ele>
        <time>2012-08-25T16:36:47Z</time>
      </trkpt>
      <trkpt lat="43.8888" lon="5.94605">
        <ele>397.64</ele>
        <time>2012-08-25T16:36:48Z</time>
      </trkpt>
      <trkpt lat="43.88889" lon="5.94594">
        <ele>397.16</ele>
        <time>2012-08-25T16:36:49Z</time>
      </trkpt>
      <trkpt lat="43.88896" lon="5.94581">
        <ele>396.68</ele>
        <time>2012-08-25T16:36:50Z</time>
      </trkpt>
      <trkpt lat="43.88897" lon="5.94567">
        <ele>395.72</ele>
        <time>2012-08-25T16:36:51Z</time>
      </trkpt>
      <trkpt lat="43.88895" lon="5.94552">
        <ele>394.76</ele>
        <time>2012-08-25T16:36:52Z</time>
      </trkpt>
      <trkpt lat="43.88888" lon="5.94538">
        <ele>394.28</ele>
        <time>2012-08-25T16:36:53Z</time>
      </trkpt>
      <trkpt lat="43.88877" lon="5.94527">
        <ele>392.84</ele>
        <time>2012-08-25T16:36:54Z</time>
      </trkpt>
      <trkpt lat="43.88866" lon="5.94519">
        <ele>392.36</ele>
        <time>2012-08-25T16:36:55Z</time>
      </trkpt>
      <trkpt lat="43.88852" lon="5.94514">
        <ele>391.39</ele>
        <time>2012-08-25T16:36:56Z</time>
      </trkpt>
      <trkpt lat="43.88837" lon="5.9451">
        <ele>390.91</ele>
        <time>2012-08-25T16:36:57Z</time>
      </trkpt>
      <trkpt lat="43.88822" lon="5.94513">
        <ele>389.95</ele>
        <time>2012-08-25T16:36:58Z</time>
      </trkpt>
      <trkpt lat="43.88807" lon="5.94516">
        <ele>390.43</ele>
        <time>2012-08-25T16:36:59Z</time>
      </trkpt>
      <trkpt lat="43.88794" lon="5.9452">
        <ele>389.95</ele>
        <time>2012-08-25T16:37:00Z</time>
      </trkpt>
      <trkpt lat="43.8878" lon="5.94522">
        <ele>389.47</ele>
        <time>2012-08-25T16:37:01Z</time>
      </trkpt>
      <trkpt lat="43.88768" lon="5.94522">
        <ele>388.99</ele>
        <time>2012-08-25T16:37:02Z</time>
      </trkpt>
      <trkpt lat="43.88755" lon="5.94517">
        <ele>389.47</ele>
        <time>2012-08-25T16:37:03Z</time>
      </trkpt>
      <trkpt lat="43.88742" lon="5.94508">
        <ele>389.95</ele>
        <time>2012-08-25T16:37:04Z</time>
      </trkpt>
      <trkpt lat="43.88733" lon="5.94492">
        <ele>389.95</ele>
        <time>2012-08-25T16:37:05Z</time>
      </trkpt>
      <trkpt lat="43.88721" lon="5.94457">
        <ele>388.99</ele>
        <time>2012-08-25T16:37:07Z</time>
      </trkpt>
      <trkpt lat="43.88719" lon="5.94436">
        <ele>388.51</ele>
        <time>2012-08-25T16:37:08Z</time>
      </trkpt>
      <trkpt lat="43.88719" lon="5.94414">
        <ele>388.51</ele>
        <time>2012-08-25T16:37:09Z</time>
      </trkpt>
      <trkpt lat="43.88722" lon="5.94391">
        <ele>388.03</ele>
        <time>2012-08-25T16:37:10Z</time>
      </trkpt>
      <trkpt lat="43.88728" lon="5.94367">
        <ele>388.51</ele>
        <time>2012-08-25T16:37:11Z</time>
      </trkpt>
      <trkpt lat="43.88735" lon="5.94342">
        <ele>388.51</ele>
        <time>2012-08-25T16:37:12Z</time>
      </trkpt>
      <trkpt lat="43.88746" lon="5.94292">
        <ele>387.55</ele>
        <time>2012-08-25T16:37:14Z</time>
      </trkpt>
      <trkpt lat="43.88749" lon="5.94265">
        <ele>387.55</ele>
        <time>2012-08-25T16:37:15Z</time>
      </trkpt>
      <trkpt lat="43.88749" lon="5.94236">
        <ele>387.07</ele>
        <time>2012-08-25T16:37:16Z</time>
      </trkpt>
      <trkpt lat="43.88723" lon="5.93988">
        <ele>387.55</ele>
        <time>2012-08-25T16:37:24Z</time>
      </trkpt>
      <trkpt lat="43.88688" lon="5.93796">
        <ele>388.99</ele>
        <time>2012-08-25T16:37:31Z</time>
      </trkpt>
      <trkpt lat="43.88657" lon="5.93581">
        <ele>384.66</ele>
        <time>2012-08-25T16:37:38Z</time>
      </trkpt>
      <trkpt lat="43.88637" lon="5.93205">
        <ele>379.38</ele>
        <time>2012-08-25T16:37:50Z</time>
      </trkpt>
      <trkpt lat="43.88629" lon="5.92761">
        <ele>372.17</ele>
        <time>2012-08-25T16:38:04Z</time>
      </trkpt>
      <trkpt lat="43.88619" lon="5.92563">
        <ele>367.36</ele>
        <time>2012-08-25T16:38:11Z</time>
      </trkpt>
      <trkpt lat="43.88604" lon="5.92467">
        <ele>365.92</ele>
        <time>2012-08-25T16:38:15Z</time>
      </trkpt>
      <trkpt lat="43.88598" lon="5.92448">
        <ele>365.92</ele>
        <time>2012-08-25T16:38:16Z</time>
      </trkpt>
      <trkpt lat="43.88589" lon="5.92431">
        <ele>365.92</ele>
        <time>2012-08-25T16:38:17Z</time>
      </trkpt>
      <trkpt lat="43.8857" lon="5.92398">
        <ele>366.4</ele>
        <time>2012-08-25T16:38:19Z</time>
      </trkpt>
      <trkpt lat="43.88562" lon="5.9238">
        <ele>366.88</ele>
        <time>2012-08-25T16:38:20Z</time>
      </trkpt>
      <trkpt lat="43.88557" lon="5.92359">
        <ele>367.36</ele>
        <time>2012-08-25T16:38:21Z</time>
      </trkpt>
      <trkpt lat="43.88555" lon="5.92337">
        <ele>367.84</ele>
        <time>2012-08-25T16:38:22Z</time>
      </trkpt>
      <trkpt lat="43.88555" lon="5.92315">
        <ele>368.32</ele>
        <time>2012-08-25T16:38:23Z</time>
      </trkpt>
      <trkpt lat="43.88559" lon="5.92293">
        <ele>369.28</ele>
        <time>2012-08-25T16:38:24Z</time>
      </trkpt>
      <trkpt lat="43.88564" lon="5.92271">
        <ele>369.28</ele>
        <time>2012-08-25T16:38:25Z</time>
      </trkpt>
      <trkpt lat="43.88566" lon="5.92249">
        <ele>369.28</ele>
        <time>2012-08-25T16:38:26Z</time>
      </trkpt>
      <trkpt lat="43.88566" lon="5.92227">
        <ele>369.28</ele>
        <time>2012-08-25T16:38:27Z</time>
      </trkpt>
      <trkpt lat="43.88564" lon="5.92205">
        <ele>369.28</ele>
        <time>2012-08-25T16:38:28Z</time>
      </trkpt>
      <trkpt lat="43.88558" lon="5.92183">
        <ele>369.76</ele>
        <time>2012-08-25T16:38:29Z</time>
      </trkpt>
      <trkpt lat="43.88552" lon="5.92163">
        <ele>369.76</ele>
        <time>2012-08-25T16:38:30Z</time>
      </trkpt>
      <trkpt lat="43.88546" lon="5.92143">
        <ele>369.76</ele>
        <time>2012-08-25T16:38:31Z</time>
      </trkpt>
      <trkpt lat="43.88542" lon="5.92123">
        <ele>369.76</ele>
        <time>2012-08-25T16:38:32Z</time>
      </trkpt>
      <trkpt lat="43.88539" lon="5.92103">
        <ele>369.28</ele>
        <time>2012-08-25T16:38:33Z</time>
      </trkpt>
      <trkpt lat="43.88538" lon="5.92083">
        <ele>369.28</ele>
        <time>2012-08-25T16:38:34Z</time>
      </trkpt>
      <trkpt lat="43.88539" lon="5.92062">
        <ele>368.8</ele>
        <time>2012-08-25T16:38:35Z</time>
      </trkpt>
      <trkpt lat="43.88542" lon="5.9204">
        <ele>368.8</ele>
        <time>2012-08-25T16:38:36Z</time>
      </trkpt>
      <trkpt lat="43.88545" lon="5.92017">
        <ele>368.8</ele>
        <time>2012-08-25T16:38:37Z</time>
      </trkpt>
      <trkpt lat="43.88582" lon="5.91765">
        <ele>365.44</ele>
        <time>2012-08-25T16:38:47Z</time>
      </trkpt>
      <trkpt lat="43.88593" lon="5.91694">
        <ele>362.55</ele>
        <time>2012-08-25T16:38:50Z</time>
      </trkpt>
      <trkpt lat="43.88593" lon="5.91671">
        <ele>361.59</ele>
        <time>2012-08-25T16:38:51Z</time>
      </trkpt>
      <trkpt lat="43.8859" lon="5.91648">
        <ele>360.63</ele>
        <time>2012-08-25T16:38:52Z</time>
      </trkpt>
      <trkpt lat="43.88573" lon="5.91562">
        <ele>356.79</ele>
        <time>2012-08-25T16:38:56Z</time>
      </trkpt>
      <trkpt lat="43.88564" lon="5.91549">
        <ele>355.83</ele>
        <time>2012-08-25T16:38:57Z</time>
      </trkpt>
      <trkpt lat="43.88551" lon="5.9154">
        <ele>354.86</ele>
        <time>2012-08-25T16:38:58Z</time>
      </trkpt>
      <trkpt lat="43.88536" lon="5.91534">
        <ele>353.9</ele>
        <time>2012-08-25T16:38:59Z</time>
      </trkpt>
      <trkpt lat="43.88521" lon="5.91529">
        <ele>352.94</ele>
        <time>2012-08-25T16:39:00Z</time>
      </trkpt>
      <trkpt lat="43.88489" lon="5.91513">
        <ele>350.54</ele>
        <time>2012-08-25T16:39:02Z</time>
      </trkpt>
      <trkpt lat="43.88475" lon="5.91502">
        <ele>350.06</ele>
        <time>2012-08-25T16:39:03Z</time>
      </trkpt>
      <trkpt lat="43.88464" lon="5.91486">
        <ele>349.1</ele>
        <time>2012-08-25T16:39:04Z</time>
      </trkpt>
      <trkpt lat="43.88457" lon="5.91468">
        <ele>348.13</ele>
        <time>2012-08-25T16:39:05Z</time>
      </trkpt>
      <trkpt lat="43.88454" lon="5.91449">
        <ele>347.65</ele>
        <time>2012-08-25T16:39:06Z</time>
      </trkpt>
      <trkpt lat="43.88453" lon="5.91429">
        <ele>347.17</ele>
        <time>2012-08-25T16:39:07Z</time>
      </trkpt>
      <trkpt lat="43.88453" lon="5.91409">
        <ele>346.69</ele>
        <time>2012-08-25T16:39:08Z</time>
      </trkpt>
      <trkpt lat="43.88455" lon="5.91387">
        <ele>346.21</ele>
        <time>2012-08-25T16:39:09Z</time>
      </trkpt>
      <trkpt lat="43.88458" lon="5.91364">
        <ele>346.21</ele>
        <time>2012-08-25T16:39:10Z</time>
      </trkpt>
      <trkpt lat="43.88474" lon="5.91125">
        <ele>344.77</ele>
        <time>2012-08-25T16:39:19Z</time>
      </trkpt>
      <trkpt lat="43.8849" lon="5.90876">
        <ele>343.81</ele>
        <time>2012-08-25T16:39:30Z</time>
      </trkpt>
      <trkpt lat="43.88492" lon="5.90839">
        <ele>343.33</ele>
        <time>2012-08-25T16:39:35Z</time>
      </trkpt>
      <trkpt lat="43.8849" lon="5.90837">
        <ele>343.33</ele>
        <time>2012-08-25T16:39:36Z</time>
      </trkpt>
      <trkpt lat="43.88488" lon="5.90836">
        <ele>343.33</ele>
        <time>2012-08-25T16:39:37Z</time>
      </trkpt>
      <trkpt lat="43.88483" lon="5.90835">
        <ele>342.85</ele>
        <time>2012-08-25T16:39:38Z</time>
      </trkpt>
      <trkpt lat="43.88477" lon="5.90836">
        <ele>342.85</ele>
        <time>2012-08-25T16:39:39Z</time>
      </trkpt>
      <trkpt lat="43.88468" lon="5.90838">
        <ele>342.37</ele>
        <time>2012-08-25T16:39:40Z</time>
      </trkpt>
      <trkpt lat="43.88457" lon="5.9084">
        <ele>342.37</ele>
        <time>2012-08-25T16:39:41Z</time>
      </trkpt>
      <trkpt lat="43.88347" lon="5.90865">
        <ele>341.41</ele>
        <time>2012-08-25T16:39:48Z</time>
      </trkpt>
      <trkpt lat="43.88152" lon="5.90905">
        <ele>341.41</ele>
        <time>2012-08-25T16:39:57Z</time>
      </trkpt>
      <trkpt lat="43.87807" lon="5.90959">
        <ele>343.81</ele>
        <time>2012-08-25T16:40:12Z</time>
      </trkpt>
      <trkpt lat="43.87788" lon="5.90957">
        <ele>343.33</ele>
        <time>2012-08-25T16:40:13Z</time>
      </trkpt>
      <trkpt lat="43.8777" lon="5.9095">
        <ele>342.85</ele>
        <time>2012-08-25T16:40:14Z</time>
      </trkpt>
      <trkpt lat="43.87754" lon="5.90941">
        <ele>342.85</ele>
        <time>2012-08-25T16:40:15Z</time>
      </trkpt>
      <trkpt lat="43.87739" lon="5.90926">
        <ele>342.37</ele>
        <time>2012-08-25T16:40:16Z</time>
      </trkpt>
      <trkpt lat="43.87726" lon="5.90908">
        <ele>342.37</ele>
        <time>2012-08-25T16:40:17Z</time>
      </trkpt>
      <trkpt lat="43.87712" lon="5.90888">
        <ele>341.89</ele>
        <time>2012-08-25T16:40:18Z</time>
      </trkpt>
      <trkpt lat="43.87699" lon="5.90866">
        <ele>341.41</ele>
        <time>2012-08-25T16:40:19Z</time>
      </trkpt>
      <trkpt lat="43.87587" lon="5.90686">
        <ele>339.48</ele>
        <time>2012-08-25T16:40:26Z</time>
      </trkpt>
      <trkpt lat="43.87386" lon="5.9038">
        <ele>336.12</ele>
        <time>2012-08-25T16:40:38Z</time>
      </trkpt>
      <trkpt lat="43.87199" lon="5.90189">
        <ele>335.64</ele>
        <time>2012-08-25T16:40:48Z</time>
      </trkpt>
      <trkpt lat="43.87023" lon="5.90077">
        <ele>333.71</ele>
        <time>2012-08-25T16:40:57Z</time>
      </trkpt>
      <trkpt lat="43.8688" lon="5.89973">
        <ele>337.08</ele>
        <time>2012-08-25T16:41:05Z</time>
      </trkpt>
      <trkpt lat="43.86724" lon="5.89808">
        <ele>338.04</ele>
        <time>2012-08-25T16:41:14Z</time>
      </trkpt>
      <trkpt lat="43.86496" lon="5.89566">
        <ele>336.6</ele>
        <time>2012-08-25T16:41:26Z</time>
      </trkpt>
      <trkpt lat="43.86362" lon="5.89407">
        <ele>333.23</ele>
        <time>2012-08-25T16:41:34Z</time>
      </trkpt>
      <trkpt lat="43.86224" lon="5.89283">
        <ele>332.27</ele>
        <time>2012-08-25T16:41:41Z</time>
      </trkpt>
      <trkpt lat="43.85995" lon="5.89059">
        <ele>333.23</ele>
        <time>2012-08-25T16:41:53Z</time>
      </trkpt>
      <trkpt lat="43.85871" lon="5.88944">
        <ele>333.71</ele>
        <time>2012-08-25T16:42:00Z</time>
      </trkpt>
      <trkpt lat="43.85852" lon="5.88936">
        <ele>333.71</ele>
        <time>2012-08-25T16:42:01Z</time>
      </trkpt>
      <trkpt lat="43.85833" lon="5.88931">
        <ele>333.71</ele>
        <time>2012-08-25T16:42:02Z</time>
      </trkpt>
      <trkpt lat="43.85695" lon="5.88866">
        <ele>330.83</ele>
        <time>2012-08-25T16:42:09Z</time>
      </trkpt>
      <trkpt lat="43.85582" lon="5.88757">
        <ele>327.47</ele>
        <time>2012-08-25T16:42:16Z</time>
      </trkpt>
      <trkpt lat="43.85569" lon="5.88738">
        <ele>326.99</ele>
        <time>2012-08-25T16:42:17Z</time>
      </trkpt>
      <trkpt lat="43.85481" lon="5.88623">
        <ele>325.06</ele>
        <time>2012-08-25T16:42:24Z</time>
      </trkpt>
      <trkpt lat="43.85472" lon="5.88604">
        <ele>325.06</ele>
        <time>2012-08-25T16:42:25Z</time>
      </trkpt>
      <trkpt lat="43.85467" lon="5.88585">
        <ele>324.58</ele>
        <time>2012-08-25T16:42:26Z</time>
      </trkpt>
      <trkpt lat="43.8546" lon="5.88566">
        <ele>324.1</ele>
        <time>2012-08-25T16:42:27Z</time>
      </trkpt>
      <trkpt lat="43.85453" lon="5.88548">
        <ele>323.62</ele>
        <time>2012-08-25T16:42:28Z</time>
      </trkpt>
      <trkpt lat="43.85443" lon="5.88531">
        <ele>322.66</ele>
        <time>2012-08-25T16:42:29Z</time>
      </trkpt>
      <trkpt lat="43.85433" lon="5.88515">
        <ele>321.7</ele>
        <time>2012-08-25T16:42:30Z</time>
      </trkpt>
      <trkpt lat="43.85419" lon="5.88497">
        <ele>320.74</ele>
        <time>2012-08-25T16:42:31Z</time>
      </trkpt>
      <trkpt lat="43.85403" lon="5.88477">
        <ele>320.74</ele>
        <time>2012-08-25T16:42:32Z</time>
      </trkpt>
      <trkpt lat="43.85229" lon="5.88259">
        <ele>318.81</ele>
        <time>2012-08-25T16:42:42Z</time>
      </trkpt>
      <trkpt lat="43.85016" lon="5.87983">
        <ele>319.78</ele>
        <time>2012-08-25T16:42:54Z</time>
      </trkpt>
      <trkpt lat="43.84972" lon="5.87932">
        <ele>320.74</ele>
        <time>2012-08-25T16:42:57Z</time>
      </trkpt>
      <trkpt lat="43.84957" lon="5.8792">
        <ele>321.22</ele>
        <time>2012-08-25T16:42:58Z</time>
      </trkpt>
      <trkpt lat="43.84943" lon="5.87911">
        <ele>322.18</ele>
        <time>2012-08-25T16:42:59Z</time>
      </trkpt>
      <trkpt lat="43.84928" lon="5.87905">
        <ele>322.66</ele>
        <time>2012-08-25T16:43:00Z</time>
      </trkpt>
      <trkpt lat="43.84915" lon="5.87901">
        <ele>323.14</ele>
        <time>2012-08-25T16:43:01Z</time>
      </trkpt>
      <trkpt lat="43.84902" lon="5.87901">
        <ele>323.62</ele>
        <time>2012-08-25T16:43:02Z</time>
      </trkpt>
      <trkpt lat="43.8489" lon="5.87907">
        <ele>324.1</ele>
        <time>2012-08-25T16:43:03Z</time>
      </trkpt>
      <trkpt lat="43.84878" lon="5.87918">
        <ele>324.1</ele>
        <time>2012-08-25T16:43:04Z</time>
      </trkpt>
      <trkpt lat="43.84867" lon="5.87932">
        <ele>324.1</ele>
        <time>2012-08-25T16:43:05Z</time>
      </trkpt>
      <trkpt lat="43.84857" lon="5.8795">
        <ele>324.58</ele>
        <time>2012-08-25T16:43:06Z</time>
      </trkpt>
      <trkpt lat="43.84847" lon="5.87968">
        <ele>325.06</ele>
        <time>2012-08-25T16:43:07Z</time>
      </trkpt>
      <trkpt lat="43.84788" lon="5.88081">
        <ele>330.35</ele>
        <time>2012-08-25T16:43:13Z</time>
      </trkpt>
      <trkpt lat="43.84787" lon="5.88098">
        <ele>332.27</ele>
        <time>2012-08-25T16:43:14Z</time>
      </trkpt>
      <trkpt lat="43.84782" lon="5.88122">
        <ele>334.68</ele>
        <time>2012-08-25T16:43:16Z</time>
      </trkpt>
      <trkpt lat="43.84777" lon="5.88127">
        <ele>335.64</ele>
        <time>2012-08-25T16:43:17Z</time>
      </trkpt>
      <trkpt lat="43.84771" lon="5.88125">
        <ele>337.56</ele>
        <time>2012-08-25T16:43:18Z</time>
      </trkpt>
      <trkpt lat="43.84767" lon="5.8812">
        <ele>339</ele>
        <time>2012-08-25T16:43:19Z</time>
      </trkpt>
      <trkpt lat="43.84765" lon="5.88114">
        <ele>340.44</ele>
        <time>2012-08-25T16:43:20Z</time>
      </trkpt>
      <trkpt lat="43.84767" lon="5.88101">
        <ele>340.92</ele>
        <time>2012-08-25T16:43:21Z</time>
      </trkpt>
      <trkpt lat="43.8477" lon="5.88086">
        <ele>341.41</ele>
        <time>2012-08-25T16:43:22Z</time>
      </trkpt>
      <trkpt lat="43.84773" lon="5.88069">
        <ele>342.37</ele>
        <time>2012-08-25T16:43:23Z</time>
      </trkpt>
      <trkpt lat="43.84799" lon="5.8796">
        <ele>346.21</ele>
        <time>2012-08-25T16:43:29Z</time>
      </trkpt>
      <trkpt lat="43.84798" lon="5.87946">
        <ele>346.69</ele>
        <time>2012-08-25T16:43:30Z</time>
      </trkpt>
      <trkpt lat="43.84793" lon="5.87937">
        <ele>347.17</ele>
        <time>2012-08-25T16:43:31Z</time>
      </trkpt>
      <trkpt lat="43.84784" lon="5.87932">
        <ele>348.13</ele>
        <time>2012-08-25T16:43:32Z</time>
      </trkpt>
      <trkpt lat="43.84776" lon="5.87929">
        <ele>348.62</ele>
        <time>2012-08-25T16:43:33Z</time>
      </trkpt>
      <trkpt lat="43.84764" lon="5.8793">
        <ele>350.06</ele>
        <time>2012-08-25T16:43:34Z</time>
      </trkpt>
      <trkpt lat="43.84752" lon="5.87932">
        <ele>351.02</ele>
        <time>2012-08-25T16:43:35Z</time>
      </trkpt>
      <trkpt lat="43.84741" lon="5.87935">
        <ele>351.98</ele>
        <time>2012-08-25T16:43:36Z</time>
      </trkpt>
      <trkpt lat="43.84732" lon="5.87939">
        <ele>352.94</ele>
        <time>2012-08-25T16:43:37Z</time>
      </trkpt>
      <trkpt lat="43.84723" lon="5.8794">
        <ele>354.38</ele>
        <time>2012-08-25T16:43:38Z</time>
      </trkpt>
      <trkpt lat="43.84715" lon="5.87937">
        <ele>354.86</ele>
        <time>2012-08-25T16:43:39Z</time>
      </trkpt>
      <trkpt lat="43.84712" lon="5.87921">
        <ele>355.83</ele>
        <time>2012-08-25T16:43:41Z</time>
      </trkpt>
      <trkpt lat="43.84717" lon="5.87911">
        <ele>356.79</ele>
        <time>2012-08-25T16:43:42Z</time>
      </trkpt>
      <trkpt lat="43.84724" lon="5.87902">
        <ele>357.75</ele>
        <time>2012-08-25T16:43:43Z</time>
      </trkpt>
      <trkpt lat="43.84734" lon="5.87893">
        <ele>358.23</ele>
        <time>2012-08-25T16:43:44Z</time>
      </trkpt>
      <trkpt lat="43.84747" lon="5.87885">
        <ele>360.15</ele>
        <time>2012-08-25T16:43:45Z</time>
      </trkpt>
      <trkpt lat="43.84759" lon="5.87875">
        <ele>361.59</ele>
        <time>2012-08-25T16:43:46Z</time>
      </trkpt>
      <trkpt lat="43.84769" lon="5.87864">
        <ele>362.07</ele>
        <time>2012-08-25T16:43:47Z</time>
      </trkpt>
      <trkpt lat="43.84779" lon="5.8785">
        <ele>362.55</ele>
        <time>2012-08-25T16:43:48Z</time>
      </trkpt>
      <trkpt lat="43.84803" lon="5.87814">
        <ele>364.48</ele>
        <time>2012-08-25T16:43:51Z</time>
      </trkpt>
      <trkpt lat="43.84804" lon="5.87803">
        <ele>364.96</ele>
        <time>2012-08-25T16:43:52Z</time>
      </trkpt>
      <trkpt lat="43.848" lon="5.87792">
        <ele>365.92</ele>
        <time>2012-08-25T16:43:53Z</time>
      </trkpt>
      <trkpt lat="43.84794" lon="5.87781">
        <ele>366.88</ele>
        <time>2012-08-25T16:43:54Z</time>
      </trkpt>
      <trkpt lat="43.84787" lon="5.87769">
        <ele>368.32</ele>
        <time>2012-08-25T16:43:55Z</time>
      </trkpt>
      <trkpt lat="43.8478" lon="5.87755">
        <ele>369.28</ele>
        <time>2012-08-25T16:43:56Z</time>
      </trkpt>
      <trkpt lat="43.84774" lon="5.87739">
        <ele>370.24</ele>
        <time>2012-08-25T16:43:57Z</time>
      </trkpt>
      <trkpt lat="43.84765" lon="5.87724">
        <ele>371.21</ele>
        <time>2012-08-25T16:43:58Z</time>
      </trkpt>
      <trkpt lat="43.84724" lon="5.87656">
        <ele>375.53</ele>
        <time>2012-08-25T16:44:03Z</time>
      </trkpt>
      <trkpt lat="43.84715" lon="5.87651">
        <ele>376.49</ele>
        <time>2012-08-25T16:44:04Z</time>
      </trkpt>
      <trkpt lat="43.84705" lon="5.87652">
        <ele>376.97</ele>
        <time>2012-08-25T16:44:05Z</time>
      </trkpt>
      <trkpt lat="43.84694" lon="5.87656">
        <ele>377.94</ele>
        <time>2012-08-25T16:44:06Z</time>
      </trkpt>
      <trkpt lat="43.84682" lon="5.87664">
        <ele>378.9</ele>
        <time>2012-08-25T16:44:07Z</time>
      </trkpt>
      <trkpt lat="43.84669" lon="5.87673">
        <ele>379.38</ele>
        <time>2012-08-25T16:44:08Z</time>
      </trkpt>
      <trkpt lat="43.84608" lon="5.87711">
        <ele>382.26</ele>
        <time>2012-08-25T16:44:12Z</time>
      </trkpt>
      <trkpt lat="43.8459" lon="5.87717">
        <ele>382.26</ele>
        <time>2012-08-25T16:44:13Z</time>
      </trkpt>
      <trkpt lat="43.84571" lon="5.87721">
        <ele>383.22</ele>
        <time>2012-08-25T16:44:14Z</time>
      </trkpt>
      <trkpt lat="43.84506" lon="5.87728">
        <ele>384.18</ele>
        <time>2012-08-25T16:44:18Z</time>
      </trkpt>
      <trkpt lat="43.84496" lon="5.87722">
        <ele>385.15</ele>
        <time>2012-08-25T16:44:19Z</time>
      </trkpt>
      <trkpt lat="43.84489" lon="5.87711">
        <ele>385.15</ele>
        <time>2012-08-25T16:44:20Z</time>
      </trkpt>
      <trkpt lat="43.84486" lon="5.87697">
        <ele>385.15</ele>
        <time>2012-08-25T16:44:21Z</time>
      </trkpt>
      <trkpt lat="43.84484" lon="5.87681">
        <ele>385.15</ele>
        <time>2012-08-25T16:44:22Z</time>
      </trkpt>
      <trkpt lat="43.84485" lon="5.87663">
        <ele>385.63</ele>
        <time>2012-08-25T16:44:23Z</time>
      </trkpt>
      <trkpt lat="43.84483" lon="5.87644">
        <ele>386.11</ele>
        <time>2012-08-25T16:44:24Z</time>
      </trkpt>
      <trkpt lat="43.84479" lon="5.87626">
        <ele>387.07</ele>
        <time>2012-08-25T16:44:25Z</time>
      </trkpt>
      <trkpt lat="43.84473" lon="5.8761">
        <ele>387.55</ele>
        <time>2012-08-25T16:44:26Z</time>
      </trkpt>
      <trkpt lat="43.84464" lon="5.87596">
        <ele>387.55</ele>
        <time>2012-08-25T16:44:27Z</time>
      </trkpt>
      <trkpt lat="43.84453" lon="5.87583">
        <ele>387.55</ele>
        <time>2012-08-25T16:44:28Z</time>
      </trkpt>
      <trkpt lat="43.8444" lon="5.87573">
        <ele>387.55</ele>
        <time>2012-08-25T16:44:29Z</time>
      </trkpt>
      <trkpt lat="43.84425" lon="5.87566">
        <ele>387.07</ele>
        <time>2012-08-25T16:44:30Z</time>
      </trkpt>
      <trkpt lat="43.8441" lon="5.87561">
        <ele>386.59</ele>
        <time>2012-08-25T16:44:31Z</time>
      </trkpt>
      <trkpt lat="43.84394" lon="5.87557">
        <ele>385.63</ele>
        <time>2012-08-25T16:44:32Z</time>
      </trkpt>
      <trkpt lat="43.84377" lon="5.87552">
        <ele>385.15</ele>
        <time>2012-08-25T16:44:33Z</time>
      </trkpt>
      <trkpt lat="43.8436" lon="5.87545">
        <ele>384.66</ele>
        <time>2012-08-25T16:44:34Z</time>
      </trkpt>
      <trkpt lat="43.84344" lon="5.87534">
        <ele>384.18</ele>
        <time>2012-08-25T16:44:35Z</time>
      </trkpt>
      <trkpt lat="43.84328" lon="5.87518">
        <ele>383.7</ele>
        <time>2012-08-25T16:44:36Z</time>
      </trkpt>
      <trkpt lat="43.84314" lon="5.87502">
        <ele>383.7</ele>
        <time>2012-08-25T16:44:37Z</time>
      </trkpt>
      <trkpt lat="43.84185" lon="5.87372">
        <ele>381.3</ele>
        <time>2012-08-25T16:44:46Z</time>
      </trkpt>
      <trkpt lat="43.8417" lon="5.87367">
        <ele>380.82</ele>
        <time>2012-08-25T16:44:47Z</time>
      </trkpt>
      <trkpt lat="43.84154" lon="5.87367">
        <ele>380.34</ele>
        <time>2012-08-25T16:44:48Z</time>
      </trkpt>
      <trkpt lat="43.84139" lon="5.87368">
        <ele>380.34</ele>
        <time>2012-08-25T16:44:49Z</time>
      </trkpt>
      <trkpt lat="43.84126" lon="5.87371">
        <ele>380.34</ele>
        <time>2012-08-25T16:44:50Z</time>
      </trkpt>
      <trkpt lat="43.84114" lon="5.87371">
        <ele>380.34</ele>
        <time>2012-08-25T16:44:51Z</time>
      </trkpt>
      <trkpt lat="43.84106" lon="5.87365">
        <ele>380.82</ele>
        <time>2012-08-25T16:44:52Z</time>
      </trkpt>
      <trkpt lat="43.841" lon="5.87356">
        <ele>380.34</ele>
        <time>2012-08-25T16:44:53Z</time>
      </trkpt>
      <trkpt lat="43.84096" lon="5.87346">
        <ele>379.86</ele>
        <time>2012-08-25T16:44:54Z</time>
      </trkpt>
      <trkpt lat="43.84097" lon="5.87335">
        <ele>379.86</ele>
        <time>2012-08-25T16:44:55Z</time>
      </trkpt>
      <trkpt lat="43.84102" lon="5.87322">
        <ele>379.86</ele>
        <time>2012-08-25T16:44:56Z</time>
      </trkpt>
      <trkpt lat="43.84106" lon="5.87308">
        <ele>379.86</ele>
        <time>2012-08-25T16:44:57Z</time>
      </trkpt>
      <trkpt lat="43.84108" lon="5.87294">
        <ele>379.86</ele>
        <time>2012-08-25T16:44:58Z</time>
      </trkpt>
      <trkpt lat="43.84107" lon="5.87278">
        <ele>380.34</ele>
        <time>2012-08-25T16:44:59Z</time>
      </trkpt>
      <trkpt lat="43.841" lon="5.87265">
        <ele>380.82</ele>
        <time>2012-08-25T16:45:00Z</time>
      </trkpt>
      <trkpt lat="43.84092" lon="5.87255">
        <ele>381.3</ele>
        <time>2012-08-25T16:45:01Z</time>
      </trkpt>
      <trkpt lat="43.84081" lon="5.87248">
        <ele>381.3</ele>
        <time>2012-08-25T16:45:02Z</time>
      </trkpt>
      <trkpt lat="43.84067" lon="5.87239">
        <ele>380.82</ele>
        <time>2012-08-25T16:45:03Z</time>
      </trkpt>
      <trkpt lat="43.83967" lon="5.87175">
        <ele>377.45</ele>
        <time>2012-08-25T16:45:09Z</time>
      </trkpt>
      <trkpt lat="43.83904" lon="5.8713">
        <ele>378.42</ele>
        <time>2012-08-25T16:45:13Z</time>
      </trkpt>
      <trkpt lat="43.83893" lon="5.87116">
        <ele>378.42</ele>
        <time>2012-08-25T16:45:14Z</time>
      </trkpt>
      <trkpt lat="43.83884" lon="5.871">
        <ele>377.94</ele>
        <time>2012-08-25T16:45:15Z</time>
      </trkpt>
      <trkpt lat="43.83876" lon="5.87086">
        <ele>377.94</ele>
        <time>2012-08-25T16:45:16Z</time>
      </trkpt>
      <trkpt lat="43.83867" lon="5.87075">
        <ele>377.45</ele>
        <time>2012-08-25T16:45:17Z</time>
      </trkpt>
      <trkpt lat="43.83855" lon="5.8707">
        <ele>376.97</ele>
        <time>2012-08-25T16:45:18Z</time>
      </trkpt>
      <trkpt lat="43.83843" lon="5.87066">
        <ele>376.49</ele>
        <time>2012-08-25T16:45:19Z</time>
      </trkpt>
      <trkpt lat="43.8383" lon="5.87061">
        <ele>376.01</ele>
        <time>2012-08-25T16:45:20Z</time>
      </trkpt>
      <trkpt lat="43.83819" lon="5.87051">
        <ele>376.01</ele>
        <time>2012-08-25T16:45:21Z</time>
      </trkpt>
      <trkpt lat="43.83812" lon="5.87039">
        <ele>375.53</ele>
        <time>2012-08-25T16:45:22Z</time>
      </trkpt>
      <trkpt lat="43.83808" lon="5.87024">
        <ele>376.01</ele>
        <time>2012-08-25T16:45:23Z</time>
      </trkpt>
      <trkpt lat="43.83806" lon="5.87007">
        <ele>376.49</ele>
        <time>2012-08-25T16:45:24Z</time>
      </trkpt>
      <trkpt lat="43.83803" lon="5.8699">
        <ele>376.97</ele>
        <time>2012-08-25T16:45:25Z</time>
      </trkpt>
      <trkpt lat="43.83799" lon="5.86974">
        <ele>377.45</ele>
        <time>2012-08-25T16:45:26Z</time>
      </trkpt>
      <trkpt lat="43.83792" lon="5.86961">
        <ele>377.94</ele>
        <time>2012-08-25T16:45:27Z</time>
      </trkpt>
      <trkpt lat="43.83782" lon="5.86952">
        <ele>378.42</ele>
        <time>2012-08-25T16:45:28Z</time>
      </trkpt>
      <trkpt lat="43.83769" lon="5.86945">
        <ele>377.94</ele>
        <time>2012-08-25T16:45:29Z</time>
      </trkpt>
      <trkpt lat="43.83754" lon="5.86938">
        <ele>377.94</ele>
        <time>2012-08-25T16:45:30Z</time>
      </trkpt>
      <trkpt lat="43.83738" lon="5.8693">
        <ele>377.94</ele>
        <time>2012-08-25T16:45:31Z</time>
      </trkpt>
      <trkpt lat="43.83724" lon="5.86918">
        <ele>377.94</ele>
        <time>2012-08-25T16:45:32Z</time>
      </trkpt>
      <trkpt lat="43.8371" lon="5.86906">
        <ele>377.45</ele>
        <time>2012-08-25T16:45:33Z</time>
      </trkpt>
      <trkpt lat="43.83697" lon="5.86895">
        <ele>377.45</ele>
        <time>2012-08-25T16:45:34Z</time>
      </trkpt>
      <trkpt lat="43.83683" lon="5.86887">
        <ele>376.97</ele>
        <time>2012-08-25T16:45:35Z</time>
      </trkpt>
      <trkpt lat="43.83668" lon="5.86881">
        <ele>376.49</ele>
        <time>2012-08-25T16:45:36Z</time>
      </trkpt>
      <trkpt lat="43.8364" lon="5.8687">
        <ele>376.01</ele>
        <time>2012-08-25T16:45:38Z</time>
      </trkpt>
      <trkpt lat="43.83629" lon="5.86859">
        <ele>376.01</ele>
        <time>2012-08-25T16:45:39Z</time>
      </trkpt>
      <trkpt lat="43.83622" lon="5.86845">
        <ele>375.53</ele>
        <time>2012-08-25T16:45:40Z</time>
      </trkpt>
      <trkpt lat="43.83616" lon="5.86829">
        <ele>376.01</ele>
        <time>2012-08-25T16:45:41Z</time>
      </trkpt>
      <trkpt lat="43.83608" lon="5.86815">
        <ele>376.01</ele>
        <time>2012-08-25T16:45:42Z</time>
      </trkpt>
      <trkpt lat="43.83599" lon="5.86802">
        <ele>376.01</ele>
        <time>2012-08-25T16:45:43Z</time>
      </trkpt>
      <trkpt lat="43.83587" lon="5.86791">
        <ele>375.53</ele>
        <time>2012-08-25T16:45:44Z</time>
      </trkpt>
      <trkpt lat="43.83574" lon="5.86781">
        <ele>374.57</ele>
        <time>2012-08-25T16:45:45Z</time>
      </trkpt>
      <trkpt lat="43.8356" lon="5.86773">
        <ele>373.61</ele>
        <time>2012-08-25T16:45:46Z</time>
      </trkpt>
      <trkpt lat="43.83545" lon="5.86766">
        <ele>372.65</ele>
        <time>2012-08-25T16:45:47Z</time>
      </trkpt>
      <trkpt lat="43.83516" lon="5.86749">
        <ele>371.69</ele>
        <time>2012-08-25T16:45:49Z</time>
      </trkpt>
      <trkpt lat="43.83505" lon="5.86736">
        <ele>371.21</ele>
        <time>2012-08-25T16:45:50Z</time>
      </trkpt>
      <trkpt lat="43.83496" lon="5.86717">
        <ele>370.73</ele>
        <time>2012-08-25T16:45:51Z</time>
      </trkpt>
      <trkpt lat="43.83489" lon="5.86697">
        <ele>371.21</ele>
        <time>2012-08-25T16:45:52Z</time>
      </trkpt>
      <trkpt lat="43.83482" lon="5.86676">
        <ele>371.21</ele>
        <time>2012-08-25T16:45:53Z</time>
      </trkpt>
      <trkpt lat="43.83457" lon="5.86611">
        <ele>372.17</ele>
        <time>2012-08-25T16:45:56Z</time>
      </trkpt>
      <trkpt lat="43.83446" lon="5.86591">
        <ele>372.65</ele>
        <time>2012-08-25T16:45:57Z</time>
      </trkpt>
      <trkpt lat="43.83434" lon="5.86573">
        <ele>373.13</ele>
        <time>2012-08-25T16:45:58Z</time>
      </trkpt>
      <trkpt lat="43.83421" lon="5.86556">
        <ele>374.09</ele>
        <time>2012-08-25T16:45:59Z</time>
      </trkpt>
      <trkpt lat="43.83407" lon="5.86542">
        <ele>374.57</ele>
        <time>2012-08-25T16:46:00Z</time>
      </trkpt>
      <trkpt lat="43.83393" lon="5.86528">
        <ele>375.05</ele>
        <time>2012-08-25T16:46:01Z</time>
      </trkpt>
      <trkpt lat="43.83377" lon="5.86514">
        <ele>375.05</ele>
        <time>2012-08-25T16:46:02Z</time>
      </trkpt>
      <trkpt lat="43.83302" lon="5.86451">
        <ele>375.05</ele>
        <time>2012-08-25T16:46:07Z</time>
      </trkpt>
      <trkpt lat="43.83273" lon="5.86434">
        <ele>373.61</ele>
        <time>2012-08-25T16:46:09Z</time>
      </trkpt>
      <trkpt lat="43.8326" lon="5.86423">
        <ele>373.13</ele>
        <time>2012-08-25T16:46:10Z</time>
      </trkpt>
      <trkpt lat="43.8325" lon="5.86408">
        <ele>372.65</ele>
        <time>2012-08-25T16:46:11Z</time>
      </trkpt>
      <trkpt lat="43.83241" lon="5.86391">
        <ele>373.13</ele>
        <time>2012-08-25T16:46:12Z</time>
      </trkpt>
      <trkpt lat="43.83233" lon="5.86375">
        <ele>373.13</ele>
        <time>2012-08-25T16:46:13Z</time>
      </trkpt>
      <trkpt lat="43.83222" lon="5.86361">
        <ele>373.13</ele>
        <time>2012-08-25T16:46:14Z</time>
      </trkpt>
      <trkpt lat="43.83209" lon="5.86348">
        <ele>372.65</ele>
        <time>2012-08-25T16:46:15Z</time>
      </trkpt>
      <trkpt lat="43.83196" lon="5.86339">
        <ele>372.17</ele>
        <time>2012-08-25T16:46:16Z</time>
      </trkpt>
      <trkpt lat="43.83182" lon="5.86331">
        <ele>371.69</ele>
        <time>2012-08-25T16:46:17Z</time>
      </trkpt>
      <trkpt lat="43.83168" lon="5.86323">
        <ele>371.69</ele>
        <time>2012-08-25T16:46:18Z</time>
      </trkpt>
      <trkpt lat="43.83156" lon="5.86313">
        <ele>371.21</ele>
        <time>2012-08-25T16:46:19Z</time>
      </trkpt>
      <trkpt lat="43.83145" lon="5.86299">
        <ele>370.73</ele>
        <time>2012-08-25T16:46:20Z</time>
      </trkpt>
      <trkpt lat="43.83137" lon="5.86282">
        <ele>370.73</ele>
        <time>2012-08-25T16:46:21Z</time>
      </trkpt>
      <trkpt lat="43.83129" lon="5.86266">
        <ele>371.21</ele>
        <time>2012-08-25T16:46:22Z</time>
      </trkpt>
      <trkpt lat="43.83121" lon="5.86253">
        <ele>371.21</ele>
        <time>2012-08-25T16:46:23Z</time>
      </trkpt>
      <trkpt lat="43.83112" lon="5.86241">
        <ele>371.21</ele>
        <time>2012-08-25T16:46:24Z</time>
      </trkpt>
      <trkpt lat="43.83017" lon="5.86142">
        <ele>368.32</ele>
        <time>2012-08-25T16:46:31Z</time>
      </trkpt>
      <trkpt lat="43.82984" lon="5.86114">
        <ele>366.88</ele>
        <time>2012-08-25T16:46:34Z</time>
      </trkpt>
      <trkpt lat="43.82974" lon="5.86113">
        <ele>366.4</ele>
        <time>2012-08-25T16:46:35Z</time>
      </trkpt>
      <trkpt lat="43.82966" lon="5.86117">
        <ele>365.92</ele>
        <time>2012-08-25T16:46:36Z</time>
      </trkpt>
      <trkpt lat="43.82959" lon="5.86125">
        <ele>365.44</ele>
        <time>2012-08-25T16:46:37Z</time>
      </trkpt>
      <trkpt lat="43.82954" lon="5.86137">
        <ele>364.96</ele>
        <time>2012-08-25T16:46:38Z</time>
      </trkpt>
      <trkpt lat="43.8295" lon="5.86152">
        <ele>364.96</ele>
        <time>2012-08-25T16:46:39Z</time>
      </trkpt>
      <trkpt lat="43.82947" lon="5.8617">
        <ele>364.48</ele>
        <time>2012-08-25T16:46:40Z</time>
      </trkpt>
      <trkpt lat="43.82942" lon="5.8619">
        <ele>363.04</ele>
        <time>2012-08-25T16:46:41Z</time>
      </trkpt>
      <trkpt lat="43.82916" lon="5.86293">
        <ele>358.23</ele>
        <time>2012-08-25T16:46:46Z</time>
      </trkpt>
      <trkpt lat="43.82888" lon="5.86377">
        <ele>353.9</ele>
        <time>2012-08-25T16:46:51Z</time>
      </trkpt>
      <trkpt lat="43.82887" lon="5.86389">
        <ele>353.42</ele>
        <time>2012-08-25T16:46:52Z</time>
      </trkpt>
      <trkpt lat="43.82887" lon="5.864">
        <ele>352.94</ele>
        <time>2012-08-25T16:46:53Z</time>
      </trkpt>
      <trkpt lat="43.82888" lon="5.86409">
        <ele>352.46</ele>
        <time>2012-08-25T16:46:54Z</time>
      </trkpt>
      <trkpt lat="43.82886" lon="5.86416">
        <ele>351.98</ele>
        <time>2012-08-25T16:46:55Z</time>
      </trkpt>
      <trkpt lat="43.82882" lon="5.86419">
        <ele>351.5</ele>
        <time>2012-08-25T16:46:56Z</time>
      </trkpt>
      <trkpt lat="43.82876" lon="5.86416">
        <ele>351.02</ele>
        <time>2012-08-25T16:46:57Z</time>
      </trkpt>
      <trkpt lat="43.82873" lon="5.86409">
        <ele>350.54</ele>
        <time>2012-08-25T16:46:58Z</time>
      </trkpt>
      <trkpt lat="43.82871" lon="5.86398">
        <ele>350.06</ele>
        <time>2012-08-25T16:46:59Z</time>
      </trkpt>
      <trkpt lat="43.82872" lon="5.86386">
        <ele>349.1</ele>
        <time>2012-08-25T16:47:00Z</time>
      </trkpt>
      <trkpt lat="43.82873" lon="5.86372">
        <ele>348.62</ele>
        <time>2012-08-25T16:47:01Z</time>
      </trkpt>
      <trkpt lat="43.82873" lon="5.86336">
        <ele>346.69</ele>
        <time>2012-08-25T16:47:03Z</time>
      </trkpt>
      <trkpt lat="43.82864" lon="5.86165">
        <ele>338.04</ele>
        <time>2012-08-25T16:47:10Z</time>
      </trkpt>
      <trkpt lat="43.8283" lon="5.85921">
        <ele>326.5</ele>
        <time>2012-08-25T16:47:19Z</time>
      </trkpt>
      <trkpt lat="43.82782" lon="5.85771">
        <ele>318.33</ele>
        <time>2012-08-25T16:47:26Z</time>
      </trkpt>
      <trkpt lat="43.82772" lon="5.85758">
        <ele>317.37</ele>
        <time>2012-08-25T16:47:27Z</time>
      </trkpt>
      <trkpt lat="43.82761" lon="5.85748">
        <ele>316.89</ele>
        <time>2012-08-25T16:47:28Z</time>
      </trkpt>
      <trkpt lat="43.82752" lon="5.85738">
        <ele>315.93</ele>
        <time>2012-08-25T16:47:29Z</time>
      </trkpt>
      <trkpt lat="43.82744" lon="5.85725">
        <ele>314.97</ele>
        <time>2012-08-25T16:47:30Z</time>
      </trkpt>
      <trkpt lat="43.82738" lon="5.85708">
        <ele>314.49</ele>
        <time>2012-08-25T16:47:31Z</time>
      </trkpt>
      <trkpt lat="43.82734" lon="5.8569">
        <ele>313.53</ele>
        <time>2012-08-25T16:47:32Z</time>
      </trkpt>
      <trkpt lat="43.8273" lon="5.8567">
        <ele>313.05</ele>
        <time>2012-08-25T16:47:33Z</time>
      </trkpt>
      <trkpt lat="43.82725" lon="5.85652">
        <ele>312.09</ele>
        <time>2012-08-25T16:47:34Z</time>
      </trkpt>
      <trkpt lat="43.82718" lon="5.85636">
        <ele>311.12</ele>
        <time>2012-08-25T16:47:35Z</time>
      </trkpt>
      <trkpt lat="43.82706" lon="5.85625">
        <ele>310.64</ele>
        <time>2012-08-25T16:47:36Z</time>
      </trkpt>
      <trkpt lat="43.82693" lon="5.85619">
        <ele>310.16</ele>
        <time>2012-08-25T16:47:37Z</time>
      </trkpt>
      <trkpt lat="43.82679" lon="5.85612">
        <ele>309.68</ele>
        <time>2012-08-25T16:47:38Z</time>
      </trkpt>
      <trkpt lat="43.82663" lon="5.85606">
        <ele>309.2</ele>
        <time>2012-08-25T16:47:39Z</time>
      </trkpt>
      <trkpt lat="43.82646" lon="5.85602">
        <ele>309.2</ele>
        <time>2012-08-25T16:47:40Z</time>
      </trkpt>
      <trkpt lat="43.82538" lon="5.85556">
        <ele>308.72</ele>
        <time>2012-08-25T16:47:47Z</time>
      </trkpt>
      <trkpt lat="43.82527" lon="5.85541">
        <ele>308.24</ele>
        <time>2012-08-25T16:47:48Z</time>
      </trkpt>
      <trkpt lat="43.82519" lon="5.85523">
        <ele>308.24</ele>
        <time>2012-08-25T16:47:49Z</time>
      </trkpt>
      <trkpt lat="43.82512" lon="5.85504">
        <ele>308.72</ele>
        <time>2012-08-25T16:47:50Z</time>
      </trkpt>
      <trkpt lat="43.82505" lon="5.85486">
        <ele>308.72</ele>
        <time>2012-08-25T16:47:51Z</time>
      </trkpt>
      <trkpt lat="43.82478" lon="5.85445">
        <ele>308.72</ele>
        <time>2012-08-25T16:47:54Z</time>
      </trkpt>
      <trkpt lat="43.82464" lon="5.85442">
        <ele>308.72</ele>
        <time>2012-08-25T16:47:55Z</time>
      </trkpt>
      <trkpt lat="43.8245" lon="5.85438">
        <ele>308.24</ele>
        <time>2012-08-25T16:47:56Z</time>
      </trkpt>
      <trkpt lat="43.82436" lon="5.85439">
        <ele>308.24</ele>
        <time>2012-08-25T16:47:57Z</time>
      </trkpt>
      <trkpt lat="43.82422" lon="5.85447">
        <ele>308.72</ele>
        <time>2012-08-25T16:47:58Z</time>
      </trkpt>
      <trkpt lat="43.82409" lon="5.85451">
        <ele>308.72</ele>
        <time>2012-08-25T16:47:59Z</time>
      </trkpt>
      <trkpt lat="43.82395" lon="5.85455">
        <ele>309.2</ele>
        <time>2012-08-25T16:48:00Z</time>
      </trkpt>
      <trkpt lat="43.82381" lon="5.85454">
        <ele>309.2</ele>
        <time>2012-08-25T16:48:01Z</time>
      </trkpt>
      <trkpt lat="43.82368" lon="5.85447">
        <ele>308.72</ele>
        <time>2012-08-25T16:48:02Z</time>
      </trkpt>
      <trkpt lat="43.82354" lon="5.85438">
        <ele>308.24</ele>
        <time>2012-08-25T16:48:03Z</time>
      </trkpt>
      <trkpt lat="43.82341" lon="5.85428">
        <ele>308.24</ele>
        <time>2012-08-25T16:48:04Z</time>
      </trkpt>
      <trkpt lat="43.82205" lon="5.85346">
        <ele>311.12</ele>
        <time>2012-08-25T16:48:13Z</time>
      </trkpt>
      <trkpt lat="43.82163" lon="5.85326">
        <ele>310.16</ele>
        <time>2012-08-25T16:48:16Z</time>
      </trkpt>
      <trkpt lat="43.82087" lon="5.853">
        <ele>307.28</ele>
        <time>2012-08-25T16:48:21Z</time>
      </trkpt>
      <trkpt lat="43.82035" lon="5.85272">
        <ele>307.28</ele>
        <time>2012-08-25T16:48:25Z</time>
      </trkpt>
      <trkpt lat="43.82023" lon="5.8527">
        <ele>307.28</ele>
        <time>2012-08-25T16:48:26Z</time>
      </trkpt>
      <trkpt lat="43.81987" lon="5.85267">
        <ele>306.8</ele>
        <time>2012-08-25T16:48:29Z</time>
      </trkpt>
      <trkpt lat="43.81975" lon="5.85264">
        <ele>306.8</ele>
        <time>2012-08-25T16:48:30Z</time>
      </trkpt>
      <trkpt lat="43.81954" lon="5.85254">
        <ele>307.28</ele>
        <time>2012-08-25T16:48:32Z</time>
      </trkpt>
      <trkpt lat="43.81946" lon="5.85248">
        <ele>307.76</ele>
        <time>2012-08-25T16:48:33Z</time>
      </trkpt>
      <trkpt lat="43.81941" lon="5.85239">
        <ele>307.28</ele>
        <time>2012-08-25T16:48:34Z</time>
      </trkpt>
      <trkpt lat="43.81937" lon="5.85227">
        <ele>307.76</ele>
        <time>2012-08-25T16:48:35Z</time>
      </trkpt>
      <trkpt lat="43.81936" lon="5.85214">
        <ele>307.76</ele>
        <time>2012-08-25T16:48:36Z</time>
      </trkpt>
      <trkpt lat="43.81937" lon="5.85199">
        <ele>307.76</ele>
        <time>2012-08-25T16:48:37Z</time>
      </trkpt>
      <trkpt lat="43.81939" lon="5.85185">
        <ele>307.76</ele>
        <time>2012-08-25T16:48:38Z</time>
      </trkpt>
      <trkpt lat="43.81941" lon="5.85171">
        <ele>307.76</ele>
        <time>2012-08-25T16:48:39Z</time>
      </trkpt>
      <trkpt lat="43.81942" lon="5.85156">
        <ele>307.76</ele>
        <time>2012-08-25T16:48:40Z</time>
      </trkpt>
      <trkpt lat="43.8194" lon="5.85141">
        <ele>307.76</ele>
        <time>2012-08-25T16:48:41Z</time>
      </trkpt>
      <trkpt lat="43.81934" lon="5.85125">
        <ele>307.76</ele>
        <time>2012-08-25T16:48:42Z</time>
      </trkpt>
      <trkpt lat="43.81927" lon="5.85112">
        <ele>307.76</ele>
        <time>2012-08-25T16:48:43Z</time>
      </trkpt>
      <trkpt lat="43.81916" lon="5.851">
        <ele>307.76</ele>
        <time>2012-08-25T16:48:44Z</time>
      </trkpt>
      <trkpt lat="43.81904" lon="5.85092">
        <ele>307.76</ele>
        <time>2012-08-25T16:48:45Z</time>
      </trkpt>
      <trkpt lat="43.81891" lon="5.85085">
        <ele>308.24</ele>
        <time>2012-08-25T16:48:46Z</time>
      </trkpt>
      <trkpt lat="43.81878" lon="5.85082">
        <ele>307.76</ele>
        <time>2012-08-25T16:48:47Z</time>
      </trkpt>
      <trkpt lat="43.81865" lon="5.85082">
        <ele>307.76</ele>
        <time>2012-08-25T16:48:48Z</time>
      </trkpt>
      <trkpt lat="43.81851" lon="5.85084">
        <ele>307.76</ele>
        <time>2012-08-25T16:48:49Z</time>
      </trkpt>
      <trkpt lat="43.81836" lon="5.85088">
        <ele>307.76</ele>
        <time>2012-08-25T16:48:50Z</time>
      </trkpt>
      <trkpt lat="43.81823" lon="5.85094">
        <ele>307.28</ele>
        <time>2012-08-25T16:48:51Z</time>
      </trkpt>
      <trkpt lat="43.81797" lon="5.85101">
        <ele>307.28</ele>
        <time>2012-08-25T16:48:53Z</time>
      </trkpt>
      <trkpt lat="43.81784" lon="5.85102">
        <ele>306.8</ele>
        <time>2012-08-25T16:48:54Z</time>
      </trkpt>
      <trkpt lat="43.81773" lon="5.85094">
        <ele>306.8</ele>
        <time>2012-08-25T16:48:55Z</time>
      </trkpt>
      <trkpt lat="43.8176" lon="5.85086">
        <ele>305.84</ele>
        <time>2012-08-25T16:48:56Z</time>
      </trkpt>
      <trkpt lat="43.81748" lon="5.85074">
        <ele>305.84</ele>
        <time>2012-08-25T16:48:57Z</time>
      </trkpt>
      <trkpt lat="43.81736" lon="5.8506">
        <ele>304.88</ele>
        <time>2012-08-25T16:48:58Z</time>
      </trkpt>
      <trkpt lat="43.81723" lon="5.85045">
        <ele>304.39</ele>
        <time>2012-08-25T16:48:59Z</time>
      </trkpt>
      <trkpt lat="43.81681" lon="5.85006">
        <ele>303.91</ele>
        <time>2012-08-25T16:49:02Z</time>
      </trkpt>
      <trkpt lat="43.81665" lon="5.84996">
        <ele>303.91</ele>
        <time>2012-08-25T16:49:03Z</time>
      </trkpt>
      <trkpt lat="43.81544" lon="5.84919">
        <ele>302.95</ele>
        <time>2012-08-25T16:49:10Z</time>
      </trkpt>
      <trkpt lat="43.8153" lon="5.84901">
        <ele>302.95</ele>
        <time>2012-08-25T16:49:11Z</time>
      </trkpt>
      <trkpt lat="43.81517" lon="5.84882">
        <ele>302.95</ele>
        <time>2012-08-25T16:49:12Z</time>
      </trkpt>
      <trkpt lat="43.81429" lon="5.84766">
        <ele>303.43</ele>
        <time>2012-08-25T16:49:18Z</time>
      </trkpt>
      <trkpt lat="43.81409" lon="5.8475">
        <ele>303.43</ele>
        <time>2012-08-25T16:49:19Z</time>
      </trkpt>
      <trkpt lat="43.81388" lon="5.84736">
        <ele>303.43</ele>
        <time>2012-08-25T16:49:20Z</time>
      </trkpt>
      <trkpt lat="43.81148" lon="5.84603">
        <ele>302.47</ele>
        <time>2012-08-25T16:49:31Z</time>
      </trkpt>
      <trkpt lat="43.8095" lon="5.84479">
        <ele>301.99</ele>
        <time>2012-08-25T16:49:41Z</time>
      </trkpt>
      <trkpt lat="43.80935" lon="5.84462">
        <ele>301.99</ele>
        <time>2012-08-25T16:49:42Z</time>
      </trkpt>
      <trkpt lat="43.80921" lon="5.84443">
        <ele>301.99</ele>
        <time>2012-08-25T16:49:43Z</time>
      </trkpt>
      <trkpt lat="43.80796" lon="5.84304">
        <ele>301.03</ele>
        <time>2012-08-25T16:49:51Z</time>
      </trkpt>
      <trkpt lat="43.8078" lon="5.84293">
        <ele>301.03</ele>
        <time>2012-08-25T16:49:52Z</time>
      </trkpt>
      <trkpt lat="43.80762" lon="5.84283">
        <ele>301.03</ele>
        <time>2012-08-25T16:49:53Z</time>
      </trkpt>
      <trkpt lat="43.80743" lon="5.84275">
        <ele>301.03</ele>
        <time>2012-08-25T16:49:54Z</time>
      </trkpt>
      <trkpt lat="43.80582" lon="5.84187">
        <ele>302.47</ele>
        <time>2012-08-25T16:50:03Z</time>
      </trkpt>
      <trkpt lat="43.80568" lon="5.84181">
        <ele>302.95</ele>
        <time>2012-08-25T16:50:04Z</time>
      </trkpt>
      <trkpt lat="43.80553" lon="5.84179">
        <ele>303.43</ele>
        <time>2012-08-25T16:50:05Z</time>
      </trkpt>
      <trkpt lat="43.80538" lon="5.8418">
        <ele>303.91</ele>
        <time>2012-08-25T16:50:06Z</time>
      </trkpt>
      <trkpt lat="43.8044" lon="5.84189">
        <ele>307.28</ele>
        <time>2012-08-25T16:50:13Z</time>
      </trkpt>
      <trkpt lat="43.80431" lon="5.84182">
        <ele>307.28</ele>
        <time>2012-08-25T16:50:14Z</time>
      </trkpt>
      <trkpt lat="43.80422" lon="5.84173">
        <ele>307.76</ele>
        <time>2012-08-25T16:50:15Z</time>
      </trkpt>
      <trkpt lat="43.80414" lon="5.84161">
        <ele>307.76</ele>
        <time>2012-08-25T16:50:16Z</time>
      </trkpt>
      <trkpt lat="43.80406" lon="5.84145">
        <ele>307.28</ele>
        <time>2012-08-25T16:50:17Z</time>
      </trkpt>
      <trkpt lat="43.804" lon="5.84126">
        <ele>306.32</ele>
        <time>2012-08-25T16:50:18Z</time>
      </trkpt>
      <trkpt lat="43.80393" lon="5.84107">
        <ele>305.36</ele>
        <time>2012-08-25T16:50:19Z</time>
      </trkpt>
      <trkpt lat="43.80301" lon="5.83877">
        <ele>300.07</ele>
        <time>2012-08-25T16:50:30Z</time>
      </trkpt>
      <trkpt lat="43.80266" lon="5.83817">
        <ele>299.11</ele>
        <time>2012-08-25T16:50:33Z</time>
      </trkpt>
      <trkpt lat="43.80255" lon="5.83794">
        <ele>298.63</ele>
        <time>2012-08-25T16:50:34Z</time>
      </trkpt>
      <trkpt lat="43.80247" lon="5.83769">
        <ele>298.63</ele>
        <time>2012-08-25T16:50:35Z</time>
      </trkpt>
      <trkpt lat="43.80239" lon="5.83743">
        <ele>298.63</ele>
        <time>2012-08-25T16:50:36Z</time>
      </trkpt>
      <trkpt lat="43.80233" lon="5.83716">
        <ele>298.15</ele>
        <time>2012-08-25T16:50:37Z</time>
      </trkpt>
      <trkpt lat="43.80155" lon="5.83514">
        <ele>297.18</ele>
        <time>2012-08-25T16:50:45Z</time>
      </trkpt>
      <trkpt lat="43.80107" lon="5.83407">
        <ele>297.18</ele>
        <time>2012-08-25T16:50:50Z</time>
      </trkpt>
      <trkpt lat="43.80097" lon="5.83391">
        <ele>296.7</ele>
        <time>2012-08-25T16:50:51Z</time>
      </trkpt>
      <trkpt lat="43.80086" lon="5.83377">
        <ele>296.7</ele>
        <time>2012-08-25T16:50:52Z</time>
      </trkpt>
      <trkpt lat="43.80076" lon="5.83365">
        <ele>296.7</ele>
        <time>2012-08-25T16:50:53Z</time>
      </trkpt>
      <trkpt lat="43.80067" lon="5.83355">
        <ele>296.7</ele>
        <time>2012-08-25T16:50:54Z</time>
      </trkpt>
      <trkpt lat="43.80051" lon="5.83338">
        <ele>297.18</ele>
        <time>2012-08-25T16:50:59Z</time>
      </trkpt>
      <trkpt lat="43.80049" lon="5.83331">
        <ele>297.18</ele>
        <time>2012-08-25T16:51:01Z</time>
      </trkpt>
      <trkpt lat="43.80054" lon="5.83311">
        <ele>297.18</ele>
        <time>2012-08-25T16:51:03Z</time>
      </trkpt>
      <trkpt lat="43.80059" lon="5.83299">
        <ele>297.18</ele>
        <time>2012-08-25T16:51:04Z</time>
      </trkpt>
      <trkpt lat="43.80066" lon="5.83286">
        <ele>297.18</ele>
        <time>2012-08-25T16:51:05Z</time>
      </trkpt>
      <trkpt lat="43.80121" lon="5.83166">
        <ele>296.7</ele>
        <time>2012-08-25T16:51:12Z</time>
      </trkpt>
      <trkpt lat="43.8022" lon="5.82948">
        <ele>298.15</ele>
        <time>2012-08-25T16:51:22Z</time>
      </trkpt>
      <trkpt lat="43.80312" lon="5.82747">
        <ele>297.67</ele>
        <time>2012-08-25T16:51:32Z</time>
      </trkpt>
      <trkpt lat="43.80425" lon="5.82495">
        <ele>299.11</ele>
        <time>2012-08-25T16:51:45Z</time>
      </trkpt>
      <trkpt lat="43.80553" lon="5.8221">
        <ele>297.67</ele>
        <time>2012-08-25T16:52:01Z</time>
      </trkpt>
      <trkpt lat="43.80641" lon="5.82009">
        <ele>297.67</ele>
        <time>2012-08-25T16:52:14Z</time>
      </trkpt>
      <trkpt lat="43.80661" lon="5.81975">
        <ele>297.67</ele>
        <time>2012-08-25T16:52:18Z</time>
      </trkpt>
      <trkpt lat="43.80666" lon="5.8197">
        <ele>297.67</ele>
        <time>2012-08-25T16:52:19Z</time>
      </trkpt>
      <trkpt lat="43.80672" lon="5.81963">
        <ele>297.67</ele>
        <time>2012-08-25T16:52:20Z</time>
      </trkpt>
      <trkpt lat="43.80677" lon="5.81954">
        <ele>297.67</ele>
        <time>2012-08-25T16:52:21Z</time>
      </trkpt>
      <trkpt lat="43.80682" lon="5.81943">
        <ele>298.15</ele>
        <time>2012-08-25T16:52:22Z</time>
      </trkpt>
      <trkpt lat="43.80683" lon="5.8193">
        <ele>298.15</ele>
        <time>2012-08-25T16:52:23Z</time>
      </trkpt>
      <trkpt lat="43.80684" lon="5.81915">
        <ele>298.63</ele>
        <time>2012-08-25T16:52:24Z</time>
      </trkpt>
      <trkpt lat="43.80686" lon="5.81899">
        <ele>298.63</ele>
        <time>2012-08-25T16:52:25Z</time>
      </trkpt>
      <trkpt lat="43.8069" lon="5.81883">
        <ele>299.11</ele>
        <time>2012-08-25T16:52:26Z</time>
      </trkpt>
      <trkpt lat="43.80696" lon="5.81867">
        <ele>299.59</ele>
        <time>2012-08-25T16:52:27Z</time>
      </trkpt>
      <trkpt lat="43.80708" lon="5.81835">
        <ele>300.07</ele>
        <time>2012-08-25T16:52:29Z</time>
      </trkpt>
      <trkpt lat="43.80801" lon="5.81619">
        <ele>300.07</ele>
        <time>2012-08-25T16:52:42Z</time>
      </trkpt>
      <trkpt lat="43.809" lon="5.8144">
        <ele>296.7</ele>
        <time>2012-08-25T16:52:53Z</time>
      </trkpt>
      <trkpt lat="43.80973" lon="5.81298">
        <ele>296.7</ele>
        <time>2012-08-25T16:53:03Z</time>
      </trkpt>
      <trkpt lat="43.81025" lon="5.81185">
        <ele>297.18</ele>
        <time>2012-08-25T16:53:11Z</time>
      </trkpt>
      <trkpt lat="43.81034" lon="5.8117">
        <ele>297.18</ele>
        <time>2012-08-25T16:53:12Z</time>
      </trkpt>
      <trkpt lat="43.81116" lon="5.81022">
        <ele>299.11</ele>
        <time>2012-08-25T16:53:20Z</time>
      </trkpt>
      <trkpt lat="43.81229" lon="5.80789">
        <ele>301.03</ele>
        <time>2012-08-25T16:53:33Z</time>
      </trkpt>
      <trkpt lat="43.8133" lon="5.80513">
        <ele>303.91</ele>
        <time>2012-08-25T16:53:48Z</time>
      </trkpt>
      <trkpt lat="43.81412" lon="5.80316">
        <ele>305.84</ele>
        <time>2012-08-25T16:54:00Z</time>
      </trkpt>
      <trkpt lat="43.81497" lon="5.8017">
        <ele>308.72</ele>
        <time>2012-08-25T16:54:07Z</time>
      </trkpt>
      <trkpt lat="43.81641" lon="5.79984">
        <ele>315.45</ele>
        <time>2012-08-25T16:54:17Z</time>
      </trkpt>
      <trkpt lat="43.81695" lon="5.79919">
        <ele>316.41</ele>
        <time>2012-08-25T16:54:23Z</time>
      </trkpt>
      <trkpt lat="43.8173" lon="5.79879">
        <ele>316.41</ele>
        <time>2012-08-25T16:54:30Z</time>
      </trkpt>
      <trkpt lat="43.81736" lon="5.79877">
        <ele>316.89</ele>
        <time>2012-08-25T16:54:31Z</time>
      </trkpt>
      <trkpt lat="43.81751" lon="5.79873">
        <ele>316.89</ele>
        <time>2012-08-25T16:54:33Z</time>
      </trkpt>
      <trkpt lat="43.81758" lon="5.79868">
        <ele>317.37</ele>
        <time>2012-08-25T16:54:34Z</time>
      </trkpt>
      <trkpt lat="43.81762" lon="5.79862">
        <ele>317.37</ele>
        <time>2012-08-25T16:54:35Z</time>
      </trkpt>
      <trkpt lat="43.81764" lon="5.79855">
        <ele>317.37</ele>
        <time>2012-08-25T16:54:36Z</time>
      </trkpt>
      <trkpt lat="43.81766" lon="5.79849">
        <ele>317.37</ele>
        <time>2012-08-25T16:54:37Z</time>
      </trkpt>
      <trkpt lat="43.81767" lon="5.79842">
        <ele>317.85</ele>
        <time>2012-08-25T16:54:38Z</time>
      </trkpt>
      <trkpt lat="43.81769" lon="5.79833">
        <ele>317.85</ele>
        <time>2012-08-25T16:54:39Z</time>
      </trkpt>
      <trkpt lat="43.81772" lon="5.79823">
        <ele>317.85</ele>
        <time>2012-08-25T16:54:40Z</time>
      </trkpt>
      <trkpt lat="43.81776" lon="5.79813">
        <ele>317.85</ele>
        <time>2012-08-25T16:54:41Z</time>
      </trkpt>
      <trkpt lat="43.81786" lon="5.79794">
        <ele>317.85</ele>
        <time>2012-08-25T16:54:43Z</time>
      </trkpt>
      <trkpt lat="43.81792" lon="5.79784">
        <ele>317.85</ele>
        <time>2012-08-25T16:54:44Z</time>
      </trkpt>
      <trkpt lat="43.81875" lon="5.79648">
        <ele>319.3</ele>
        <time>2012-08-25T16:54:56Z</time>
      </trkpt>
      <trkpt lat="43.81919" lon="5.79576">
        <ele>319.78</ele>
        <time>2012-08-25T16:55:04Z</time>
      </trkpt>
      <trkpt lat="43.81958" lon="5.79505">
        <ele>320.26</ele>
        <time>2012-08-25T16:55:14Z</time>
      </trkpt>
      <trkpt lat="43.81964" lon="5.79491">
        <ele>320.74</ele>
        <time>2012-08-25T16:55:20Z</time>
      </trkpt>
      <trkpt lat="43.81967" lon="5.79485">
        <ele>320.74</ele>
        <time>2012-08-25T16:55:21Z</time>
      </trkpt>
      <trkpt lat="43.81982" lon="5.79463">
        <ele>321.7</ele>
        <time>2012-08-25T16:55:25Z</time>
      </trkpt>
      <trkpt lat="43.81986" lon="5.79459">
        <ele>321.7</ele>
        <time>2012-08-25T16:55:26Z</time>
      </trkpt>
      <trkpt lat="43.81991" lon="5.79456">
        <ele>321.7</ele>
        <time>2012-08-25T16:55:27Z</time>
      </trkpt>
      <trkpt lat="43.81997" lon="5.79455">
        <ele>321.7</ele>
        <time>2012-08-25T16:55:28Z</time>
      </trkpt>
      <trkpt lat="43.82003" lon="5.79453">
        <ele>322.18</ele>
        <time>2012-08-25T16:55:29Z</time>
      </trkpt>
      <trkpt lat="43.82008" lon="5.7945">
        <ele>322.66</ele>
        <time>2012-08-25T16:55:30Z</time>
      </trkpt>
      <trkpt lat="43.82011" lon="5.79446">
        <ele>322.66</ele>
        <time>2012-08-25T16:55:31Z</time>
      </trkpt>
      <trkpt lat="43.82013" lon="5.79441">
        <ele>322.66</ele>
        <time>2012-08-25T16:55:32Z</time>
      </trkpt>
      <trkpt lat="43.82014" lon="5.79435">
        <ele>323.14</ele>
        <time>2012-08-25T16:55:33Z</time>
      </trkpt>
      <trkpt lat="43.82013" lon="5.79427">
        <ele>323.14</ele>
        <time>2012-08-25T16:55:34Z</time>
      </trkpt>
      <trkpt lat="43.82014" lon="5.79417">
        <ele>322.66</ele>
        <time>2012-08-25T16:55:35Z</time>
      </trkpt>
      <trkpt lat="43.82015" lon="5.79407">
        <ele>322.66</ele>
        <time>2012-08-25T16:55:36Z</time>
      </trkpt>
      <trkpt lat="43.82019" lon="5.79397">
        <ele>322.66</ele>
        <time>2012-08-25T16:55:37Z</time>
      </trkpt>
      <trkpt lat="43.82023" lon="5.79387">
        <ele>322.66</ele>
        <time>2012-08-25T16:55:38Z</time>
      </trkpt>
      <trkpt lat="43.82037" lon="5.79366">
        <ele>322.66</ele>
        <time>2012-08-25T16:55:40Z</time>
      </trkpt>
      <trkpt lat="43.82044" lon="5.79356">
        <ele>323.14</ele>
        <time>2012-08-25T16:55:41Z</time>
      </trkpt>
      <trkpt lat="43.82139" lon="5.79243">
        <ele>325.54</ele>
        <time>2012-08-25T16:55:53Z</time>
      </trkpt>
      <trkpt lat="43.82192" lon="5.79192">
        <ele>327.47</ele>
        <time>2012-08-25T16:56:02Z</time>
      </trkpt>
      <trkpt lat="43.82199" lon="5.79187">
        <ele>327.47</ele>
        <time>2012-08-25T16:56:03Z</time>
      </trkpt>
      <trkpt lat="43.8222" lon="5.79177">
        <ele>328.91</ele>
        <time>2012-08-25T16:56:06Z</time>
      </trkpt>
      <trkpt lat="43.82226" lon="5.79177">
        <ele>329.39</ele>
        <time>2012-08-25T16:56:07Z</time>
      </trkpt>
      <trkpt lat="43.82232" lon="5.79178">
        <ele>329.87</ele>
        <time>2012-08-25T16:56:08Z</time>
      </trkpt>
      <trkpt lat="43.82238" lon="5.79183">
        <ele>330.35</ele>
        <time>2012-08-25T16:56:09Z</time>
      </trkpt>
      <trkpt lat="43.82243" lon="5.79189">
        <ele>330.83</ele>
        <time>2012-08-25T16:56:10Z</time>
      </trkpt>
      <trkpt lat="43.82248" lon="5.79194">
        <ele>331.31</ele>
        <time>2012-08-25T16:56:11Z</time>
      </trkpt>
      <trkpt lat="43.82255" lon="5.79198">
        <ele>331.31</ele>
        <time>2012-08-25T16:56:12Z</time>
      </trkpt>
      <trkpt lat="43.82261" lon="5.79199">
        <ele>331.31</ele>
        <time>2012-08-25T16:56:13Z</time>
      </trkpt>
      <trkpt lat="43.82267" lon="5.79197">
        <ele>331.31</ele>
        <time>2012-08-25T16:56:14Z</time>
      </trkpt>
      <trkpt lat="43.82271" lon="5.79192">
        <ele>331.31</ele>
        <time>2012-08-25T16:56:15Z</time>
      </trkpt>
      <trkpt lat="43.82273" lon="5.79186">
        <ele>331.31</ele>
        <time>2012-08-25T16:56:16Z</time>
      </trkpt>
      <trkpt lat="43.82274" lon="5.79178">
        <ele>331.31</ele>
        <time>2012-08-25T16:56:17Z</time>
      </trkpt>
      <trkpt lat="43.82273" lon="5.79169">
        <ele>331.31</ele>
        <time>2012-08-25T16:56:18Z</time>
      </trkpt>
      <trkpt lat="43.82269" lon="5.7916">
        <ele>330.83</ele>
        <time>2012-08-25T16:56:19Z</time>
      </trkpt>
      <trkpt lat="43.82264" lon="5.79151">
        <ele>330.83</ele>
        <time>2012-08-25T16:56:20Z</time>
      </trkpt>
      <trkpt lat="43.82259" lon="5.79139">
        <ele>330.83</ele>
        <time>2012-08-25T16:56:21Z</time>
      </trkpt>
      <trkpt lat="43.82215" lon="5.79005">
        <ele>329.87</ele>
        <time>2012-08-25T16:56:29Z</time>
      </trkpt>
      <trkpt lat="43.82178" lon="5.78852">
        <ele>337.08</ele>
        <time>2012-08-25T16:56:39Z</time>
      </trkpt>
      <trkpt lat="43.8217" lon="5.78801">
        <ele>340.44</ele>
        <time>2012-08-25T16:56:45Z</time>
      </trkpt>
      <trkpt lat="43.8218" lon="5.78755">
        <ele>341.89</ele>
        <time>2012-08-25T16:56:54Z</time>
      </trkpt>
      <trkpt lat="43.82183" lon="5.78749">
        <ele>341.89</ele>
        <time>2012-08-25T16:56:55Z</time>
      </trkpt>
      <trkpt lat="43.82186" lon="5.78743">
        <ele>341.89</ele>
        <time>2012-08-25T16:56:56Z</time>
      </trkpt>
      <trkpt lat="43.82189" lon="5.78737">
        <ele>341.89</ele>
        <time>2012-08-25T16:56:57Z</time>
      </trkpt>
      <trkpt lat="43.82193" lon="5.78732">
        <ele>342.37</ele>
        <time>2012-08-25T16:56:58Z</time>
      </trkpt>
      <trkpt lat="43.82197" lon="5.78727">
        <ele>342.85</ele>
        <time>2012-08-25T16:56:59Z</time>
      </trkpt>
      <trkpt lat="43.82261" lon="5.78656">
        <ele>346.21</ele>
        <time>2012-08-25T16:57:12Z</time>
      </trkpt>
      <trkpt lat="43.8235" lon="5.78564">
        <ele>350.54</ele>
        <time>2012-08-25T16:57:22Z</time>
      </trkpt>
      <trkpt lat="43.82421" lon="5.78482">
        <ele>351.5</ele>
        <time>2012-08-25T16:57:32Z</time>
      </trkpt>
      <trkpt lat="43.82492" lon="5.78378">
        <ele>350.06</ele>
        <time>2012-08-25T16:57:46Z</time>
      </trkpt>
      <trkpt lat="43.82526" lon="5.78334">
        <ele>349.58</ele>
        <time>2012-08-25T16:57:53Z</time>
      </trkpt>
      <trkpt lat="43.82599" lon="5.78261">
        <ele>346.69</ele>
        <time>2012-08-25T16:58:02Z</time>
      </trkpt>
      <trkpt lat="43.82698" lon="5.78168">
        <ele>346.69</ele>
        <time>2012-08-25T16:58:15Z</time>
      </trkpt>
      <trkpt lat="43.8271" lon="5.7816">
        <ele>348.13</ele>
        <time>2012-08-25T16:58:22Z</time>
      </trkpt>
      <trkpt lat="43.82724" lon="5.78151">
        <ele>348.62</ele>
        <time>2012-08-25T16:58:27Z</time>
      </trkpt>
      <trkpt lat="43.82729" lon="5.78145">
        <ele>348.62</ele>
        <time>2012-08-25T16:58:28Z</time>
      </trkpt>
      <trkpt lat="43.82777" lon="5.7808">
        <ele>348.62</ele>
        <time>2012-08-25T16:58:35Z</time>
      </trkpt>
      <trkpt lat="43.82902" lon="5.7793">
        <ele>349.1</ele>
        <time>2012-08-25T16:58:49Z</time>
      </trkpt>
      <trkpt lat="43.82979" lon="5.77842">
        <ele>351.02</ele>
        <time>2012-08-25T16:58:58Z</time>
      </trkpt>
      <trkpt lat="43.83048" lon="5.77788">
        <ele>353.42</ele>
        <time>2012-08-25T16:59:07Z</time>
      </trkpt>
      <trkpt lat="43.83058" lon="5.77783">
        <ele>353.9</ele>
        <time>2012-08-25T16:59:15Z</time>
      </trkpt>
      <trkpt lat="43.8307" lon="5.77781">
        <ele>354.38</ele>
        <time>2012-08-25T16:59:18Z</time>
      </trkpt>
      <trkpt lat="43.83076" lon="5.77778">
        <ele>354.38</ele>
        <time>2012-08-25T16:59:19Z</time>
      </trkpt>
      <trkpt lat="43.8308" lon="5.77774">
        <ele>354.38</ele>
        <time>2012-08-25T16:59:20Z</time>
      </trkpt>
      <trkpt lat="43.83084" lon="5.77768">
        <ele>354.38</ele>
        <time>2012-08-25T16:59:21Z</time>
      </trkpt>
      <trkpt lat="43.83085" lon="5.7776">
        <ele>354.86</ele>
        <time>2012-08-25T16:59:22Z</time>
      </trkpt>
      <trkpt lat="43.83084" lon="5.77753">
        <ele>354.86</ele>
        <time>2012-08-25T16:59:23Z</time>
      </trkpt>
      <trkpt lat="43.8308" lon="5.77746">
        <ele>354.38</ele>
        <time>2012-08-25T16:59:24Z</time>
      </trkpt>
      <trkpt lat="43.83076" lon="5.77739">
        <ele>354.38</ele>
        <time>2012-08-25T16:59:25Z</time>
      </trkpt>
      <trkpt lat="43.83073" lon="5.7773">
        <ele>354.38</ele>
        <time>2012-08-25T16:59:26Z</time>
      </trkpt>
      <trkpt lat="43.83072" lon="5.77719">
        <ele>354.38</ele>
        <time>2012-08-25T16:59:27Z</time>
      </trkpt>
      <trkpt lat="43.83072" lon="5.77706">
        <ele>354.38</ele>
        <time>2012-08-25T16:59:28Z</time>
      </trkpt>
      <trkpt lat="43.83072" lon="5.77692">
        <ele>354.86</ele>
        <time>2012-08-25T16:59:29Z</time>
      </trkpt>
      <trkpt lat="43.83051" lon="5.77557">
        <ele>360.63</ele>
        <time>2012-08-25T16:59:37Z</time>
      </trkpt>
      <trkpt lat="43.83042" lon="5.77497">
        <ele>363.52</ele>
        <time>2012-08-25T16:59:40Z</time>
      </trkpt>
      <trkpt lat="43.83042" lon="5.77477">
        <ele>364</ele>
        <time>2012-08-25T16:59:41Z</time>
      </trkpt>
      <trkpt lat="43.83043" lon="5.77458">
        <ele>364.96</ele>
        <time>2012-08-25T16:59:42Z</time>
      </trkpt>
      <trkpt lat="43.83045" lon="5.77438">
        <ele>365.92</ele>
        <time>2012-08-25T16:59:43Z</time>
      </trkpt>
      <trkpt lat="43.83044" lon="5.77418">
        <ele>366.4</ele>
        <time>2012-08-25T16:59:44Z</time>
      </trkpt>
      <trkpt lat="43.83042" lon="5.774">
        <ele>366.88</ele>
        <time>2012-08-25T16:59:45Z</time>
      </trkpt>
      <trkpt lat="43.83041" lon="5.77382">
        <ele>367.84</ele>
        <time>2012-08-25T16:59:46Z</time>
      </trkpt>
      <trkpt lat="43.83041" lon="5.77366">
        <ele>368.32</ele>
        <time>2012-08-25T16:59:47Z</time>
      </trkpt>
      <trkpt lat="43.83043" lon="5.77352">
        <ele>368.32</ele>
        <time>2012-08-25T16:59:48Z</time>
      </trkpt>
      <trkpt lat="43.83046" lon="5.77337">
        <ele>368.32</ele>
        <time>2012-08-25T16:59:49Z</time>
      </trkpt>
      <trkpt lat="43.8305" lon="5.77323">
        <ele>368.8</ele>
        <time>2012-08-25T16:59:50Z</time>
      </trkpt>
      <trkpt lat="43.83062" lon="5.77266">
        <ele>369.28</ele>
        <time>2012-08-25T16:59:56Z</time>
      </trkpt>
      <trkpt lat="43.83065" lon="5.77245">
        <ele>369.76</ele>
        <time>2012-08-25T16:59:58Z</time>
      </trkpt>
      <trkpt lat="43.83064" lon="5.77124">
        <ele>371.21</ele>
        <time>2012-08-25T17:00:05Z</time>
      </trkpt>
      <trkpt lat="43.83066" lon="5.76945">
        <ele>374.57</ele>
        <time>2012-08-25T17:00:14Z</time>
      </trkpt>
      <trkpt lat="43.83063" lon="5.76928">
        <ele>375.05</ele>
        <time>2012-08-25T17:00:15Z</time>
      </trkpt>
      <trkpt lat="43.83059" lon="5.76911">
        <ele>375.53</ele>
        <time>2012-08-25T17:00:16Z</time>
      </trkpt>
      <trkpt lat="43.83053" lon="5.76894">
        <ele>375.53</ele>
        <time>2012-08-25T17:00:17Z</time>
      </trkpt>
      <trkpt lat="43.83047" lon="5.76877">
        <ele>375.53</ele>
        <time>2012-08-25T17:00:18Z</time>
      </trkpt>
      <trkpt lat="43.83042" lon="5.76858">
        <ele>376.01</ele>
        <time>2012-08-25T17:00:19Z</time>
      </trkpt>
      <trkpt lat="43.83038" lon="5.76837">
        <ele>376.01</ele>
        <time>2012-08-25T17:00:20Z</time>
      </trkpt>
      <trkpt lat="43.83037" lon="5.76816">
        <ele>376.97</ele>
        <time>2012-08-25T17:00:21Z</time>
      </trkpt>
      <trkpt lat="43.83038" lon="5.76794">
        <ele>377.45</ele>
        <time>2012-08-25T17:00:22Z</time>
      </trkpt>
      <trkpt lat="43.8304" lon="5.76773">
        <ele>378.9</ele>
        <time>2012-08-25T17:00:23Z</time>
      </trkpt>
      <trkpt lat="43.83043" lon="5.76752">
        <ele>380.34</ele>
        <time>2012-08-25T17:00:24Z</time>
      </trkpt>
      <trkpt lat="43.83051" lon="5.76599">
        <ele>388.51</ele>
        <time>2012-08-25T17:00:32Z</time>
      </trkpt>
      <trkpt lat="43.83047" lon="5.7656">
        <ele>388.99</ele>
        <time>2012-08-25T17:00:34Z</time>
      </trkpt>
      <trkpt lat="43.83043" lon="5.76541">
        <ele>388.99</ele>
        <time>2012-08-25T17:00:35Z</time>
      </trkpt>
      <trkpt lat="43.83037" lon="5.76523">
        <ele>388.99</ele>
        <time>2012-08-25T17:00:36Z</time>
      </trkpt>
      <trkpt lat="43.82994" lon="5.76403">
        <ele>389.95</ele>
        <time>2012-08-25T17:00:43Z</time>
      </trkpt>
      <trkpt lat="43.82967" lon="5.76319">
        <ele>391.87</ele>
        <time>2012-08-25T17:00:51Z</time>
      </trkpt>
      <trkpt lat="43.82916" lon="5.76169">
        <ele>397.16</ele>
        <time>2012-08-25T17:01:00Z</time>
      </trkpt>
      <trkpt lat="43.82896" lon="5.76117">
        <ele>398.6</ele>
        <time>2012-08-25T17:01:03Z</time>
      </trkpt>
      <trkpt lat="43.82892" lon="5.76099">
        <ele>399.08</ele>
        <time>2012-08-25T17:01:04Z</time>
      </trkpt>
      <trkpt lat="43.82889" lon="5.76081">
        <ele>399.57</ele>
        <time>2012-08-25T17:01:05Z</time>
      </trkpt>
      <trkpt lat="43.82888" lon="5.76064">
        <ele>400.05</ele>
        <time>2012-08-25T17:01:06Z</time>
      </trkpt>
      <trkpt lat="43.82888" lon="5.76047">
        <ele>400.53</ele>
        <time>2012-08-25T17:01:07Z</time>
      </trkpt>
      <trkpt lat="43.8289" lon="5.7603">
        <ele>401.49</ele>
        <time>2012-08-25T17:01:08Z</time>
      </trkpt>
      <trkpt lat="43.82893" lon="5.76013">
        <ele>402.45</ele>
        <time>2012-08-25T17:01:09Z</time>
      </trkpt>
      <trkpt lat="43.82897" lon="5.75996">
        <ele>403.41</ele>
        <time>2012-08-25T17:01:10Z</time>
      </trkpt>
      <trkpt lat="43.82902" lon="5.75978">
        <ele>404.37</ele>
        <time>2012-08-25T17:01:11Z</time>
      </trkpt>
      <trkpt lat="43.82942" lon="5.75884">
        <ele>409.18</ele>
        <time>2012-08-25T17:01:18Z</time>
      </trkpt>
      <trkpt lat="43.82958" lon="5.75859">
        <ele>410.62</ele>
        <time>2012-08-25T17:01:24Z</time>
      </trkpt>
      <trkpt lat="43.82958" lon="5.75861">
        <ele>411.1</ele>
        <time>2012-08-25T17:01:38Z</time>
      </trkpt>
      <trkpt lat="43.82961" lon="5.75855">
        <ele>411.1</ele>
        <time>2012-08-25T17:01:45Z</time>
      </trkpt>
      <trkpt lat="43.82961" lon="5.75849">
        <ele>411.1</ele>
        <time>2012-08-25T17:01:46Z</time>
      </trkpt>
      <trkpt lat="43.82958" lon="5.75841">
        <ele>411.1</ele>
        <time>2012-08-25T17:01:47Z</time>
      </trkpt>
      <trkpt lat="43.82953" lon="5.75831">
        <ele>411.58</ele>
        <time>2012-08-25T17:01:48Z</time>
      </trkpt>
      <trkpt lat="43.82947" lon="5.75819">
        <ele>412.06</ele>
        <time>2012-08-25T17:01:49Z</time>
      </trkpt>
      <trkpt lat="43.82868" lon="5.7567">
        <ele>412.54</ele>
        <time>2012-08-25T17:01:58Z</time>
      </trkpt>
      <trkpt lat="43.82835" lon="5.75612">
        <ele>409.66</ele>
        <time>2012-08-25T17:02:01Z</time>
      </trkpt>
      <trkpt lat="43.82821" lon="5.75595">
        <ele>408.7</ele>
        <time>2012-08-25T17:02:02Z</time>
      </trkpt>
      <trkpt lat="43.82806" lon="5.75579">
        <ele>407.74</ele>
        <time>2012-08-25T17:02:03Z</time>
      </trkpt>
      <trkpt lat="43.8279" lon="5.75565">
        <ele>407.26</ele>
        <time>2012-08-25T17:02:04Z</time>
      </trkpt>
      <trkpt lat="43.82772" lon="5.75552">
        <ele>407.26</ele>
        <time>2012-08-25T17:02:05Z</time>
      </trkpt>
      <trkpt lat="43.8265" lon="5.75446">
        <ele>404.85</ele>
        <time>2012-08-25T17:02:13Z</time>
      </trkpt>
      <trkpt lat="43.82519" lon="5.75307">
        <ele>399.08</ele>
        <time>2012-08-25T17:02:23Z</time>
      </trkpt>
      <trkpt lat="43.82389" lon="5.75238">
        <ele>396.2</ele>
        <time>2012-08-25T17:02:31Z</time>
      </trkpt>
      <trkpt lat="43.82372" lon="5.75233">
        <ele>395.72</ele>
        <time>2012-08-25T17:02:32Z</time>
      </trkpt>
      <trkpt lat="43.82354" lon="5.7523">
        <ele>395.24</ele>
        <time>2012-08-25T17:02:33Z</time>
      </trkpt>
      <trkpt lat="43.82336" lon="5.75229">
        <ele>394.28</ele>
        <time>2012-08-25T17:02:34Z</time>
      </trkpt>
      <trkpt lat="43.82317" lon="5.7523">
        <ele>393.32</ele>
        <time>2012-08-25T17:02:35Z</time>
      </trkpt>
      <trkpt lat="43.82221" lon="5.75231">
        <ele>390.91</ele>
        <time>2012-08-25T17:02:40Z</time>
      </trkpt>
      <trkpt lat="43.82202" lon="5.75226">
        <ele>390.43</ele>
        <time>2012-08-25T17:02:41Z</time>
      </trkpt>
      <trkpt lat="43.82184" lon="5.75217">
        <ele>390.43</ele>
        <time>2012-08-25T17:02:42Z</time>
      </trkpt>
      <trkpt lat="43.82167" lon="5.75205">
        <ele>390.43</ele>
        <time>2012-08-25T17:02:43Z</time>
      </trkpt>
      <trkpt lat="43.82152" lon="5.7519">
        <ele>390.43</ele>
        <time>2012-08-25T17:02:44Z</time>
      </trkpt>
      <trkpt lat="43.82139" lon="5.75174">
        <ele>390.43</ele>
        <time>2012-08-25T17:02:45Z</time>
      </trkpt>
      <trkpt lat="43.82128" lon="5.75155">
        <ele>390.43</ele>
        <time>2012-08-25T17:02:46Z</time>
      </trkpt>
      <trkpt lat="43.82117" lon="5.75135">
        <ele>390.43</ele>
        <time>2012-08-25T17:02:47Z</time>
      </trkpt>
      <trkpt lat="43.81997" lon="5.74889">
        <ele>393.8</ele>
        <time>2012-08-25T17:02:59Z</time>
      </trkpt>
      <trkpt lat="43.81967" lon="5.74831">
        <ele>394.76</ele>
        <time>2012-08-25T17:03:02Z</time>
      </trkpt>
      <trkpt lat="43.81955" lon="5.74814">
        <ele>395.24</ele>
        <time>2012-08-25T17:03:03Z</time>
      </trkpt>
      <trkpt lat="43.81823" lon="5.7468">
        <ele>400.05</ele>
        <time>2012-08-25T17:03:13Z</time>
      </trkpt>
      <trkpt lat="43.81735" lon="5.74553">
        <ele>405.33</ele>
        <time>2012-08-25T17:03:22Z</time>
      </trkpt>
      <trkpt lat="43.81624" lon="5.7444">
        <ele>408.7</ele>
        <time>2012-08-25T17:03:34Z</time>
      </trkpt>
      <trkpt lat="43.81617" lon="5.74435">
        <ele>408.7</ele>
        <time>2012-08-25T17:03:35Z</time>
      </trkpt>
      <trkpt lat="43.81597" lon="5.7442">
        <ele>408.7</ele>
        <time>2012-08-25T17:03:38Z</time>
      </trkpt>
      <trkpt lat="43.81591" lon="5.74413">
        <ele>408.7</ele>
        <time>2012-08-25T17:03:39Z</time>
      </trkpt>
      <trkpt lat="43.81586" lon="5.74405">
        <ele>408.7</ele>
        <time>2012-08-25T17:03:40Z</time>
      </trkpt>
      <trkpt lat="43.81576" lon="5.74383">
        <ele>408.7</ele>
        <time>2012-08-25T17:03:42Z</time>
      </trkpt>
      <trkpt lat="43.81572" lon="5.74369">
        <ele>408.22</ele>
        <time>2012-08-25T17:03:43Z</time>
      </trkpt>
      <trkpt lat="43.81568" lon="5.74352">
        <ele>407.74</ele>
        <time>2012-08-25T17:03:44Z</time>
      </trkpt>
      <trkpt lat="43.81529" lon="5.7419">
        <ele>405.33</ele>
        <time>2012-08-25T17:03:51Z</time>
      </trkpt>
      <trkpt lat="43.81525" lon="5.74164">
        <ele>405.33</ele>
        <time>2012-08-25T17:03:52Z</time>
      </trkpt>
      <trkpt lat="43.81522" lon="5.74136">
        <ele>405.33</ele>
        <time>2012-08-25T17:03:53Z</time>
      </trkpt>
      <trkpt lat="43.81494" lon="5.7393">
        <ele>408.7</ele>
        <time>2012-08-25T17:04:00Z</time>
      </trkpt>
      <trkpt lat="43.81463" lon="5.73804">
        <ele>410.14</ele>
        <time>2012-08-25T17:04:05Z</time>
      </trkpt>
      <trkpt lat="43.81453" lon="5.73784">
        <ele>410.14</ele>
        <time>2012-08-25T17:04:06Z</time>
      </trkpt>
      <trkpt lat="43.81442" lon="5.73767">
        <ele>410.14</ele>
        <time>2012-08-25T17:04:07Z</time>
      </trkpt>
      <trkpt lat="43.81429" lon="5.73753">
        <ele>409.66</ele>
        <time>2012-08-25T17:04:08Z</time>
      </trkpt>
      <trkpt lat="43.81396" lon="5.73735">
        <ele>409.66</ele>
        <time>2012-08-25T17:04:10Z</time>
      </trkpt>
      <trkpt lat="43.81377" lon="5.73731">
        <ele>409.18</ele>
        <time>2012-08-25T17:04:11Z</time>
      </trkpt>
      <trkpt lat="43.81359" lon="5.73729">
        <ele>408.22</ele>
        <time>2012-08-25T17:04:12Z</time>
      </trkpt>
      <trkpt lat="43.81339" lon="5.7373">
        <ele>407.74</ele>
        <time>2012-08-25T17:04:13Z</time>
      </trkpt>
      <trkpt lat="43.81321" lon="5.73733">
        <ele>407.26</ele>
        <time>2012-08-25T17:04:14Z</time>
      </trkpt>
      <trkpt lat="43.81303" lon="5.73739">
        <ele>406.77</ele>
        <time>2012-08-25T17:04:15Z</time>
      </trkpt>
      <trkpt lat="43.81271" lon="5.73751">
        <ele>405.33</ele>
        <time>2012-08-25T17:04:17Z</time>
      </trkpt>
      <trkpt lat="43.81257" lon="5.73759">
        <ele>404.85</ele>
        <time>2012-08-25T17:04:18Z</time>
      </trkpt>
      <trkpt lat="43.81244" lon="5.73771">
        <ele>404.37</ele>
        <time>2012-08-25T17:04:19Z</time>
      </trkpt>
      <trkpt lat="43.81219" lon="5.73792">
        <ele>402.93</ele>
        <time>2012-08-25T17:04:21Z</time>
      </trkpt>
      <trkpt lat="43.81191" lon="5.73804">
        <ele>401.97</ele>
        <time>2012-08-25T17:04:23Z</time>
      </trkpt>
      <trkpt lat="43.81177" lon="5.73802">
        <ele>401.49</ele>
        <time>2012-08-25T17:04:24Z</time>
      </trkpt>
      <trkpt lat="43.81163" lon="5.73797">
        <ele>400.53</ele>
        <time>2012-08-25T17:04:25Z</time>
      </trkpt>
      <trkpt lat="43.81149" lon="5.73789">
        <ele>400.05</ele>
        <time>2012-08-25T17:04:26Z</time>
      </trkpt>
      <trkpt lat="43.81135" lon="5.73781">
        <ele>399.08</ele>
        <time>2012-08-25T17:04:27Z</time>
      </trkpt>
      <trkpt lat="43.81094" lon="5.73754">
        <ele>398.12</ele>
        <time>2012-08-25T17:04:30Z</time>
      </trkpt>
      <trkpt lat="43.81082" lon="5.73742">
        <ele>397.16</ele>
        <time>2012-08-25T17:04:31Z</time>
      </trkpt>
      <trkpt lat="43.81072" lon="5.73727">
        <ele>396.68</ele>
        <time>2012-08-25T17:04:32Z</time>
      </trkpt>
      <trkpt lat="43.81062" lon="5.73709">
        <ele>395.72</ele>
        <time>2012-08-25T17:04:33Z</time>
      </trkpt>
      <trkpt lat="43.81054" lon="5.73689">
        <ele>394.28</ele>
        <time>2012-08-25T17:04:34Z</time>
      </trkpt>
      <trkpt lat="43.81045" lon="5.7367">
        <ele>393.32</ele>
        <time>2012-08-25T17:04:35Z</time>
      </trkpt>
      <trkpt lat="43.81037" lon="5.73651">
        <ele>392.84</ele>
        <time>2012-08-25T17:04:36Z</time>
      </trkpt>
      <trkpt lat="43.81025" lon="5.73585">
        <ele>389.95</ele>
        <time>2012-08-25T17:04:39Z</time>
      </trkpt>
      <trkpt lat="43.81022" lon="5.73562">
        <ele>388.99</ele>
        <time>2012-08-25T17:04:40Z</time>
      </trkpt>
      <trkpt lat="43.81016" lon="5.73518">
        <ele>387.55</ele>
        <time>2012-08-25T17:04:42Z</time>
      </trkpt>
      <trkpt lat="43.8101" lon="5.73498">
        <ele>386.59</ele>
        <time>2012-08-25T17:04:43Z</time>
      </trkpt>
      <trkpt lat="43.81003" lon="5.73479">
        <ele>386.11</ele>
        <time>2012-08-25T17:04:44Z</time>
      </trkpt>
      <trkpt lat="43.80994" lon="5.7346">
        <ele>385.15</ele>
        <time>2012-08-25T17:04:45Z</time>
      </trkpt>
      <trkpt lat="43.80983" lon="5.73442">
        <ele>384.66</ele>
        <time>2012-08-25T17:04:46Z</time>
      </trkpt>
      <trkpt lat="43.80906" lon="5.73317">
        <ele>380.34</ele>
        <time>2012-08-25T17:04:53Z</time>
      </trkpt>
      <trkpt lat="43.80893" lon="5.73304">
        <ele>379.38</ele>
        <time>2012-08-25T17:04:54Z</time>
      </trkpt>
      <trkpt lat="43.8088" lon="5.73294">
        <ele>378.9</ele>
        <time>2012-08-25T17:04:55Z</time>
      </trkpt>
      <trkpt lat="43.80866" lon="5.73286">
        <ele>378.42</ele>
        <time>2012-08-25T17:04:56Z</time>
      </trkpt>
      <trkpt lat="43.80851" lon="5.73281">
        <ele>377.94</ele>
        <time>2012-08-25T17:04:57Z</time>
      </trkpt>
      <trkpt lat="43.80836" lon="5.73279">
        <ele>376.97</ele>
        <time>2012-08-25T17:04:58Z</time>
      </trkpt>
      <trkpt lat="43.80819" lon="5.73278">
        <ele>376.49</ele>
        <time>2012-08-25T17:04:59Z</time>
      </trkpt>
      <trkpt lat="43.80802" lon="5.73278">
        <ele>375.53</ele>
        <time>2012-08-25T17:05:00Z</time>
      </trkpt>
      <trkpt lat="43.80677" lon="5.7327">
        <ele>369.28</ele>
        <time>2012-08-25T17:05:08Z</time>
      </trkpt>
      <trkpt lat="43.80666" lon="5.73262">
        <ele>368.32</ele>
        <time>2012-08-25T17:05:09Z</time>
      </trkpt>
      <trkpt lat="43.80658" lon="5.73248">
        <ele>366.88</ele>
        <time>2012-08-25T17:05:10Z</time>
      </trkpt>
      <trkpt lat="43.80654" lon="5.73229">
        <ele>365.44</ele>
        <time>2012-08-25T17:05:11Z</time>
      </trkpt>
      <trkpt lat="43.80652" lon="5.73207">
        <ele>363.52</ele>
        <time>2012-08-25T17:05:12Z</time>
      </trkpt>
      <trkpt lat="43.80649" lon="5.73185">
        <ele>362.07</ele>
        <time>2012-08-25T17:05:13Z</time>
      </trkpt>
      <trkpt lat="43.80647" lon="5.73162">
        <ele>361.11</ele>
        <time>2012-08-25T17:05:14Z</time>
      </trkpt>
      <trkpt lat="43.80635" lon="5.73057">
        <ele>355.34</ele>
        <time>2012-08-25T17:05:19Z</time>
      </trkpt>
      <trkpt lat="43.80637" lon="5.73041">
        <ele>354.38</ele>
        <time>2012-08-25T17:05:20Z</time>
      </trkpt>
      <trkpt lat="43.80643" lon="5.73026">
        <ele>353.9</ele>
        <time>2012-08-25T17:05:21Z</time>
      </trkpt>
      <trkpt lat="43.80651" lon="5.73015">
        <ele>353.42</ele>
        <time>2012-08-25T17:05:22Z</time>
      </trkpt>
      <trkpt lat="43.80662" lon="5.73006">
        <ele>352.46</ele>
        <time>2012-08-25T17:05:23Z</time>
      </trkpt>
      <trkpt lat="43.80676" lon="5.72999">
        <ele>351.02</ele>
        <time>2012-08-25T17:05:24Z</time>
      </trkpt>
      <trkpt lat="43.80692" lon="5.72991">
        <ele>349.58</ele>
        <time>2012-08-25T17:05:25Z</time>
      </trkpt>
      <trkpt lat="43.80706" lon="5.72982">
        <ele>348.62</ele>
        <time>2012-08-25T17:05:26Z</time>
      </trkpt>
      <trkpt lat="43.80742" lon="5.72951">
        <ele>346.21</ele>
        <time>2012-08-25T17:05:29Z</time>
      </trkpt>
      <trkpt lat="43.8075" lon="5.72937">
        <ele>345.25</ele>
        <time>2012-08-25T17:05:30Z</time>
      </trkpt>
      <trkpt lat="43.80755" lon="5.72921">
        <ele>344.77</ele>
        <time>2012-08-25T17:05:31Z</time>
      </trkpt>
      <trkpt lat="43.80757" lon="5.72903">
        <ele>344.29</ele>
        <time>2012-08-25T17:05:32Z</time>
      </trkpt>
      <trkpt lat="43.80757" lon="5.72883">
        <ele>343.33</ele>
        <time>2012-08-25T17:05:33Z</time>
      </trkpt>
      <trkpt lat="43.80756" lon="5.72862">
        <ele>342.85</ele>
        <time>2012-08-25T17:05:34Z</time>
      </trkpt>
      <trkpt lat="43.80755" lon="5.72841">
        <ele>342.37</ele>
        <time>2012-08-25T17:05:35Z</time>
      </trkpt>
      <trkpt lat="43.80745" lon="5.72715">
        <ele>339</ele>
        <time>2012-08-25T17:05:41Z</time>
      </trkpt>
      <trkpt lat="43.80739" lon="5.72698">
        <ele>339</ele>
        <time>2012-08-25T17:05:42Z</time>
      </trkpt>
      <trkpt lat="43.8073" lon="5.72681">
        <ele>338.52</ele>
        <time>2012-08-25T17:05:43Z</time>
      </trkpt>
      <trkpt lat="43.8072" lon="5.72665">
        <ele>339</ele>
        <time>2012-08-25T17:05:44Z</time>
      </trkpt>
      <trkpt lat="43.80711" lon="5.7265">
        <ele>339.96</ele>
        <time>2012-08-25T17:05:45Z</time>
      </trkpt>
      <trkpt lat="43.80703" lon="5.72634">
        <ele>340.92</ele>
        <time>2012-08-25T17:05:46Z</time>
      </trkpt>
      <trkpt lat="43.80699" lon="5.72618">
        <ele>341.41</ele>
        <time>2012-08-25T17:05:47Z</time>
      </trkpt>
      <trkpt lat="43.80696" lon="5.72602">
        <ele>341.41</ele>
        <time>2012-08-25T17:05:48Z</time>
      </trkpt>
      <trkpt lat="43.80697" lon="5.72586">
        <ele>341.41</ele>
        <time>2012-08-25T17:05:49Z</time>
      </trkpt>
      <trkpt lat="43.80699" lon="5.7257">
        <ele>341.41</ele>
        <time>2012-08-25T17:05:50Z</time>
      </trkpt>
      <trkpt lat="43.80702" lon="5.72552">
        <ele>341.41</ele>
        <time>2012-08-25T17:05:51Z</time>
      </trkpt>
      <trkpt lat="43.80716" lon="5.72393">
        <ele>340.44</ele>
        <time>2012-08-25T17:05:58Z</time>
      </trkpt>
      <trkpt lat="43.8074" lon="5.72222">
        <ele>341.89</ele>
        <time>2012-08-25T17:06:05Z</time>
      </trkpt>
      <trkpt lat="43.8074" lon="5.72201">
        <ele>342.37</ele>
        <time>2012-08-25T17:06:06Z</time>
      </trkpt>
      <trkpt lat="43.80739" lon="5.7218">
        <ele>342.85</ele>
        <time>2012-08-25T17:06:07Z</time>
      </trkpt>
      <trkpt lat="43.80737" lon="5.72161">
        <ele>343.33</ele>
        <time>2012-08-25T17:06:08Z</time>
      </trkpt>
      <trkpt lat="43.80738" lon="5.72143">
        <ele>343.33</ele>
        <time>2012-08-25T17:06:09Z</time>
      </trkpt>
      <trkpt lat="43.80741" lon="5.72126">
        <ele>343.33</ele>
        <time>2012-08-25T17:06:10Z</time>
      </trkpt>
      <trkpt lat="43.80746" lon="5.7211">
        <ele>343.33</ele>
        <time>2012-08-25T17:06:11Z</time>
      </trkpt>
      <trkpt lat="43.80756" lon="5.72096">
        <ele>343.81</ele>
        <time>2012-08-25T17:06:12Z</time>
      </trkpt>
      <trkpt lat="43.80765" lon="5.72083">
        <ele>343.81</ele>
        <time>2012-08-25T17:06:13Z</time>
      </trkpt>
      <trkpt lat="43.80781" lon="5.72059">
        <ele>344.29</ele>
        <time>2012-08-25T17:06:15Z</time>
      </trkpt>
      <trkpt lat="43.80785" lon="5.72047">
        <ele>344.29</ele>
        <time>2012-08-25T17:06:16Z</time>
      </trkpt>
      <trkpt lat="43.80784" lon="5.72036">
        <ele>344.29</ele>
        <time>2012-08-25T17:06:17Z</time>
      </trkpt>
      <trkpt lat="43.80779" lon="5.72028">
        <ele>344.77</ele>
        <time>2012-08-25T17:06:18Z</time>
      </trkpt>
      <trkpt lat="43.8077" lon="5.72024">
        <ele>345.25</ele>
        <time>2012-08-25T17:06:19Z</time>
      </trkpt>
      <trkpt lat="43.80761" lon="5.7202">
        <ele>345.73</ele>
        <time>2012-08-25T17:06:20Z</time>
      </trkpt>
      <trkpt lat="43.80751" lon="5.72018">
        <ele>345.73</ele>
        <time>2012-08-25T17:06:21Z</time>
      </trkpt>
      <trkpt lat="43.80668" lon="5.72004">
        <ele>351.02</ele>
        <time>2012-08-25T17:06:28Z</time>
      </trkpt>
      <trkpt lat="43.80658" lon="5.72012">
        <ele>351.5</ele>
        <time>2012-08-25T17:06:29Z</time>
      </trkpt>
      <trkpt lat="43.80651" lon="5.72022">
        <ele>351.98</ele>
        <time>2012-08-25T17:06:30Z</time>
      </trkpt>
      <trkpt lat="43.80644" lon="5.72029">
        <ele>352.46</ele>
        <time>2012-08-25T17:06:31Z</time>
      </trkpt>
      <trkpt lat="43.80636" lon="5.7203">
        <ele>352.46</ele>
        <time>2012-08-25T17:06:32Z</time>
      </trkpt>
      <trkpt lat="43.8063" lon="5.72026">
        <ele>353.42</ele>
        <time>2012-08-25T17:06:33Z</time>
      </trkpt>
      <trkpt lat="43.80624" lon="5.72017">
        <ele>353.9</ele>
        <time>2012-08-25T17:06:34Z</time>
      </trkpt>
      <trkpt lat="43.80623" lon="5.72007">
        <ele>354.38</ele>
        <time>2012-08-25T17:06:35Z</time>
      </trkpt>
      <trkpt lat="43.80623" lon="5.71995">
        <ele>355.34</ele>
        <time>2012-08-25T17:06:36Z</time>
      </trkpt>
      <trkpt lat="43.80628" lon="5.71985">
        <ele>355.34</ele>
        <time>2012-08-25T17:06:37Z</time>
      </trkpt>
      <trkpt lat="43.80633" lon="5.71978">
        <ele>356.31</ele>
        <time>2012-08-25T17:06:38Z</time>
      </trkpt>
      <trkpt lat="43.80644" lon="5.71958">
        <ele>356.79</ele>
        <time>2012-08-25T17:06:40Z</time>
      </trkpt>
      <trkpt lat="43.80646" lon="5.71945">
        <ele>357.27</ele>
        <time>2012-08-25T17:06:41Z</time>
      </trkpt>
      <trkpt lat="43.80645" lon="5.71933">
        <ele>358.23</ele>
        <time>2012-08-25T17:06:42Z</time>
      </trkpt>
      <trkpt lat="43.80639" lon="5.71924">
        <ele>358.71</ele>
        <time>2012-08-25T17:06:43Z</time>
      </trkpt>
      <trkpt lat="43.80631" lon="5.71919">
        <ele>359.19</ele>
        <time>2012-08-25T17:06:44Z</time>
      </trkpt>
      <trkpt lat="43.80622" lon="5.71915">
        <ele>359.67</ele>
        <time>2012-08-25T17:06:45Z</time>
      </trkpt>
      <trkpt lat="43.80614" lon="5.71907">
        <ele>360.15</ele>
        <time>2012-08-25T17:06:46Z</time>
      </trkpt>
      <trkpt lat="43.8061" lon="5.71895">
        <ele>360.63</ele>
        <time>2012-08-25T17:06:47Z</time>
      </trkpt>
      <trkpt lat="43.80609" lon="5.7188">
        <ele>361.11</ele>
        <time>2012-08-25T17:06:48Z</time>
      </trkpt>
      <trkpt lat="43.80611" lon="5.71864">
        <ele>362.55</ele>
        <time>2012-08-25T17:06:49Z</time>
      </trkpt>
      <trkpt lat="43.80614" lon="5.71847">
        <ele>363.04</ele>
        <time>2012-08-25T17:06:50Z</time>
      </trkpt>
      <trkpt lat="43.80636" lon="5.71675">
        <ele>369.28</ele>
        <time>2012-08-25T17:06:58Z</time>
      </trkpt>
      <trkpt lat="43.80671" lon="5.71492">
        <ele>374.09</ele>
        <time>2012-08-25T17:07:05Z</time>
      </trkpt>
      <trkpt lat="43.80671" lon="5.71469">
        <ele>375.05</ele>
        <time>2012-08-25T17:07:06Z</time>
      </trkpt>
      <trkpt lat="43.8067" lon="5.71447">
        <ele>375.53</ele>
        <time>2012-08-25T17:07:07Z</time>
      </trkpt>
      <trkpt lat="43.80664" lon="5.71427">
        <ele>376.49</ele>
        <time>2012-08-25T17:07:08Z</time>
      </trkpt>
      <trkpt lat="43.80659" lon="5.71407">
        <ele>377.45</ele>
        <time>2012-08-25T17:07:09Z</time>
      </trkpt>
      <trkpt lat="43.80656" lon="5.71388">
        <ele>377.94</ele>
        <time>2012-08-25T17:07:10Z</time>
      </trkpt>
      <trkpt lat="43.80655" lon="5.71367">
        <ele>378.9</ele>
        <time>2012-08-25T17:07:11Z</time>
      </trkpt>
      <trkpt lat="43.80657" lon="5.71343">
        <ele>379.86</ele>
        <time>2012-08-25T17:07:12Z</time>
      </trkpt>
      <trkpt lat="43.80666" lon="5.71243">
        <ele>383.7</ele>
        <time>2012-08-25T17:07:16Z</time>
      </trkpt>
      <trkpt lat="43.80664" lon="5.71219">
        <ele>384.66</ele>
        <time>2012-08-25T17:07:17Z</time>
      </trkpt>
      <trkpt lat="43.8066" lon="5.71193">
        <ele>385.63</ele>
        <time>2012-08-25T17:07:18Z</time>
      </trkpt>
      <trkpt lat="43.80655" lon="5.71168">
        <ele>386.59</ele>
        <time>2012-08-25T17:07:19Z</time>
      </trkpt>
      <trkpt lat="43.80647" lon="5.71144">
        <ele>388.03</ele>
        <time>2012-08-25T17:07:20Z</time>
      </trkpt>
      <trkpt lat="43.80638" lon="5.7112">
        <ele>388.51</ele>
        <time>2012-08-25T17:07:21Z</time>
      </trkpt>
      <trkpt lat="43.80629" lon="5.71096">
        <ele>389.47</ele>
        <time>2012-08-25T17:07:22Z</time>
      </trkpt>
      <trkpt lat="43.80621" lon="5.71072">
        <ele>390.43</ele>
        <time>2012-08-25T17:07:23Z</time>
      </trkpt>
      <trkpt lat="43.80615" lon="5.71047">
        <ele>391.39</ele>
        <time>2012-08-25T17:07:24Z</time>
      </trkpt>
      <trkpt lat="43.80613" lon="5.7102">
        <ele>392.36</ele>
        <time>2012-08-25T17:07:25Z</time>
      </trkpt>
      <trkpt lat="43.80612" lon="5.70992">
        <ele>393.8</ele>
        <time>2012-08-25T17:07:26Z</time>
      </trkpt>
      <trkpt lat="43.80612" lon="5.70963">
        <ele>394.76</ele>
        <time>2012-08-25T17:07:27Z</time>
      </trkpt>
      <trkpt lat="43.806" lon="5.70747">
        <ele>403.41</ele>
        <time>2012-08-25T17:07:35Z</time>
      </trkpt>
      <trkpt lat="43.80589" lon="5.70685">
        <ele>405.81</ele>
        <time>2012-08-25T17:07:38Z</time>
      </trkpt>
      <trkpt lat="43.80584" lon="5.7067">
        <ele>406.77</ele>
        <time>2012-08-25T17:07:39Z</time>
      </trkpt>
      <trkpt lat="43.80575" lon="5.7066">
        <ele>407.26</ele>
        <time>2012-08-25T17:07:40Z</time>
      </trkpt>
      <trkpt lat="43.80565" lon="5.70655">
        <ele>407.74</ele>
        <time>2012-08-25T17:07:41Z</time>
      </trkpt>
      <trkpt lat="43.80554" lon="5.70652">
        <ele>408.7</ele>
        <time>2012-08-25T17:07:42Z</time>
      </trkpt>
      <trkpt lat="43.80543" lon="5.70655">
        <ele>409.66</ele>
        <time>2012-08-25T17:07:43Z</time>
      </trkpt>
      <trkpt lat="43.80533" lon="5.70659">
        <ele>410.14</ele>
        <time>2012-08-25T17:07:44Z</time>
      </trkpt>
      <trkpt lat="43.80522" lon="5.70664">
        <ele>410.62</ele>
        <time>2012-08-25T17:07:45Z</time>
      </trkpt>
      <trkpt lat="43.80512" lon="5.70668">
        <ele>411.1</ele>
        <time>2012-08-25T17:07:46Z</time>
      </trkpt>
      <trkpt lat="43.805" lon="5.70665">
        <ele>411.1</ele>
        <time>2012-08-25T17:07:47Z</time>
      </trkpt>
      <trkpt lat="43.8049" lon="5.70658">
        <ele>411.58</ele>
        <time>2012-08-25T17:07:48Z</time>
      </trkpt>
      <trkpt lat="43.80482" lon="5.70647">
        <ele>412.06</ele>
        <time>2012-08-25T17:07:49Z</time>
      </trkpt>
      <trkpt lat="43.80476" lon="5.70633">
        <ele>412.54</ele>
        <time>2012-08-25T17:07:50Z</time>
      </trkpt>
      <trkpt lat="43.80473" lon="5.70616">
        <ele>413.5</ele>
        <time>2012-08-25T17:07:51Z</time>
      </trkpt>
      <trkpt lat="43.80471" lon="5.70597">
        <ele>413.98</ele>
        <time>2012-08-25T17:07:52Z</time>
      </trkpt>
      <trkpt lat="43.8047" lon="5.70576">
        <ele>414.95</ele>
        <time>2012-08-25T17:07:53Z</time>
      </trkpt>
      <trkpt lat="43.80458" lon="5.7051">
        <ele>417.35</ele>
        <time>2012-08-25T17:07:56Z</time>
      </trkpt>
      <trkpt lat="43.8045" lon="5.70489">
        <ele>417.83</ele>
        <time>2012-08-25T17:07:57Z</time>
      </trkpt>
      <trkpt lat="43.8044" lon="5.7047">
        <ele>418.79</ele>
        <time>2012-08-25T17:07:58Z</time>
      </trkpt>
      <trkpt lat="43.80374" lon="5.70364">
        <ele>418.79</ele>
        <time>2012-08-25T17:08:04Z</time>
      </trkpt>
      <trkpt lat="43.8036" lon="5.7035">
        <ele>418.31</ele>
        <time>2012-08-25T17:08:05Z</time>
      </trkpt>
      <trkpt lat="43.80344" lon="5.7034">
        <ele>417.83</ele>
        <time>2012-08-25T17:08:06Z</time>
      </trkpt>
      <trkpt lat="43.80325" lon="5.70331">
        <ele>416.87</ele>
        <time>2012-08-25T17:08:07Z</time>
      </trkpt>
      <trkpt lat="43.80306" lon="5.70325">
        <ele>416.39</ele>
        <time>2012-08-25T17:08:08Z</time>
      </trkpt>
      <trkpt lat="43.80286" lon="5.7032">
        <ele>415.43</ele>
        <time>2012-08-25T17:08:09Z</time>
      </trkpt>
      <trkpt lat="43.80063" lon="5.70259">
        <ele>406.29</ele>
        <time>2012-08-25T17:08:19Z</time>
      </trkpt>
      <trkpt lat="43.79988" lon="5.70236">
        <ele>404.37</ele>
        <time>2012-08-25T17:08:23Z</time>
      </trkpt>
      <trkpt lat="43.79973" lon="5.70226">
        <ele>403.89</ele>
        <time>2012-08-25T17:08:24Z</time>
      </trkpt>
      <trkpt lat="43.79958" lon="5.70212">
        <ele>402.93</ele>
        <time>2012-08-25T17:08:25Z</time>
      </trkpt>
      <trkpt lat="43.79945" lon="5.70196">
        <ele>402.93</ele>
        <time>2012-08-25T17:08:26Z</time>
      </trkpt>
      <trkpt lat="43.79932" lon="5.70177">
        <ele>402.45</ele>
        <time>2012-08-25T17:08:27Z</time>
      </trkpt>
      <trkpt lat="43.79919" lon="5.70156">
        <ele>402.93</ele>
        <time>2012-08-25T17:08:28Z</time>
      </trkpt>
      <trkpt lat="43.79817" lon="5.69992">
        <ele>398.12</ele>
        <time>2012-08-25T17:08:36Z</time>
      </trkpt>
      <trkpt lat="43.79801" lon="5.69978">
        <ele>398.6</ele>
        <time>2012-08-25T17:08:37Z</time>
      </trkpt>
      <trkpt lat="43.79786" lon="5.6997">
        <ele>399.08</ele>
        <time>2012-08-25T17:08:38Z</time>
      </trkpt>
      <trkpt lat="43.79754" lon="5.69955">
        <ele>399.57</ele>
        <time>2012-08-25T17:08:40Z</time>
      </trkpt>
      <trkpt lat="43.79738" lon="5.69944">
        <ele>400.05</ele>
        <time>2012-08-25T17:08:41Z</time>
      </trkpt>
      <trkpt lat="43.79725" lon="5.6993">
        <ele>400.53</ele>
        <time>2012-08-25T17:08:42Z</time>
      </trkpt>
      <trkpt lat="43.79711" lon="5.69915">
        <ele>400.53</ele>
        <time>2012-08-25T17:08:43Z</time>
      </trkpt>
      <trkpt lat="43.79699" lon="5.69898">
        <ele>400.53</ele>
        <time>2012-08-25T17:08:44Z</time>
      </trkpt>
      <trkpt lat="43.79688" lon="5.69878">
        <ele>399.57</ele>
        <time>2012-08-25T17:08:45Z</time>
      </trkpt>
      <trkpt lat="43.79679" lon="5.69855">
        <ele>398.6</ele>
        <time>2012-08-25T17:08:46Z</time>
      </trkpt>
      <trkpt lat="43.79671" lon="5.69831">
        <ele>398.12</ele>
        <time>2012-08-25T17:08:47Z</time>
      </trkpt>
      <trkpt lat="43.79663" lon="5.69806">
        <ele>397.64</ele>
        <time>2012-08-25T17:08:48Z</time>
      </trkpt>
      <trkpt lat="43.79581" lon="5.69664">
        <ele>396.2</ele>
        <time>2012-08-25T17:08:54Z</time>
      </trkpt>
      <trkpt lat="43.79568" lon="5.69642">
        <ele>396.68</ele>
        <time>2012-08-25T17:08:55Z</time>
      </trkpt>
      <trkpt lat="43.79557" lon="5.69619">
        <ele>396.68</ele>
        <time>2012-08-25T17:08:56Z</time>
      </trkpt>
      <trkpt lat="43.79548" lon="5.69596">
        <ele>397.16</ele>
        <time>2012-08-25T17:08:57Z</time>
      </trkpt>
      <trkpt lat="43.79541" lon="5.69574">
        <ele>397.16</ele>
        <time>2012-08-25T17:08:58Z</time>
      </trkpt>
      <trkpt lat="43.79536" lon="5.69551">
        <ele>397.16</ele>
        <time>2012-08-25T17:08:59Z</time>
      </trkpt>
      <trkpt lat="43.79532" lon="5.69528">
        <ele>396.68</ele>
        <time>2012-08-25T17:09:00Z</time>
      </trkpt>
      <trkpt lat="43.79529" lon="5.69505">
        <ele>396.2</ele>
        <time>2012-08-25T17:09:01Z</time>
      </trkpt>
      <trkpt lat="43.79522" lon="5.69459">
        <ele>394.28</ele>
        <time>2012-08-25T17:09:03Z</time>
      </trkpt>
      <trkpt lat="43.79516" lon="5.69437">
        <ele>393.32</ele>
        <time>2012-08-25T17:09:04Z</time>
      </trkpt>
      <trkpt lat="43.79507" lon="5.69416">
        <ele>391.87</ele>
        <time>2012-08-25T17:09:05Z</time>
      </trkpt>
      <trkpt lat="43.79496" lon="5.69394">
        <ele>390.43</ele>
        <time>2012-08-25T17:09:06Z</time>
      </trkpt>
      <trkpt lat="43.79482" lon="5.69373">
        <ele>389.47</ele>
        <time>2012-08-25T17:09:07Z</time>
      </trkpt>
      <trkpt lat="43.79468" lon="5.69353">
        <ele>388.99</ele>
        <time>2012-08-25T17:09:08Z</time>
      </trkpt>
      <trkpt lat="43.79438" lon="5.6932">
        <ele>388.99</ele>
        <time>2012-08-25T17:09:10Z</time>
      </trkpt>
      <trkpt lat="43.79423" lon="5.69309">
        <ele>389.47</ele>
        <time>2012-08-25T17:09:11Z</time>
      </trkpt>
      <trkpt lat="43.79406" lon="5.693">
        <ele>390.43</ele>
        <time>2012-08-25T17:09:12Z</time>
      </trkpt>
      <trkpt lat="43.79374" lon="5.69284">
        <ele>392.84</ele>
        <time>2012-08-25T17:09:14Z</time>
      </trkpt>
      <trkpt lat="43.7936" lon="5.69273">
        <ele>394.76</ele>
        <time>2012-08-25T17:09:15Z</time>
      </trkpt>
      <trkpt lat="43.79348" lon="5.6926">
        <ele>396.68</ele>
        <time>2012-08-25T17:09:16Z</time>
      </trkpt>
      <trkpt lat="43.79337" lon="5.69245">
        <ele>397.64</ele>
        <time>2012-08-25T17:09:17Z</time>
      </trkpt>
      <trkpt lat="43.79326" lon="5.69227">
        <ele>398.12</ele>
        <time>2012-08-25T17:09:18Z</time>
      </trkpt>
      <trkpt lat="43.79314" lon="5.69208">
        <ele>398.12</ele>
        <time>2012-08-25T17:09:19Z</time>
      </trkpt>
      <trkpt lat="43.79288" lon="5.69171">
        <ele>399.57</ele>
        <time>2012-08-25T17:09:21Z</time>
      </trkpt>
      <trkpt lat="43.79273" lon="5.69156">
        <ele>401.01</ele>
        <time>2012-08-25T17:09:22Z</time>
      </trkpt>
      <trkpt lat="43.79257" lon="5.69143">
        <ele>402.93</ele>
        <time>2012-08-25T17:09:23Z</time>
      </trkpt>
      <trkpt lat="43.79194" lon="5.69098">
        <ele>408.22</ele>
        <time>2012-08-25T17:09:27Z</time>
      </trkpt>
      <trkpt lat="43.79182" lon="5.69083">
        <ele>409.66</ele>
        <time>2012-08-25T17:09:28Z</time>
      </trkpt>
      <trkpt lat="43.7917" lon="5.69066">
        <ele>410.14</ele>
        <time>2012-08-25T17:09:29Z</time>
      </trkpt>
      <trkpt lat="43.79161" lon="5.69049">
        <ele>411.1</ele>
        <time>2012-08-25T17:09:30Z</time>
      </trkpt>
      <trkpt lat="43.79152" lon="5.69032">
        <ele>411.1</ele>
        <time>2012-08-25T17:09:31Z</time>
      </trkpt>
      <trkpt lat="43.7913" lon="5.68978">
        <ele>409.66</ele>
        <time>2012-08-25T17:09:34Z</time>
      </trkpt>
      <trkpt lat="43.79126" lon="5.68958">
        <ele>409.18</ele>
        <time>2012-08-25T17:09:35Z</time>
      </trkpt>
      <trkpt lat="43.79124" lon="5.68937">
        <ele>408.22</ele>
        <time>2012-08-25T17:09:36Z</time>
      </trkpt>
      <trkpt lat="43.79123" lon="5.68912">
        <ele>407.26</ele>
        <time>2012-08-25T17:09:37Z</time>
      </trkpt>
      <trkpt lat="43.79123" lon="5.68886">
        <ele>406.29</ele>
        <time>2012-08-25T17:09:38Z</time>
      </trkpt>
      <trkpt lat="43.79095" lon="5.68699">
        <ele>409.66</ele>
        <time>2012-08-25T17:09:45Z</time>
      </trkpt>
      <trkpt lat="43.79088" lon="5.68677">
        <ele>410.62</ele>
        <time>2012-08-25T17:09:46Z</time>
      </trkpt>
      <trkpt lat="43.7908" lon="5.68656">
        <ele>412.06</ele>
        <time>2012-08-25T17:09:47Z</time>
      </trkpt>
      <trkpt lat="43.79056" lon="5.68598">
        <ele>414.95</ele>
        <time>2012-08-25T17:09:50Z</time>
      </trkpt>
      <trkpt lat="43.7905" lon="5.68577">
        <ele>415.43</ele>
        <time>2012-08-25T17:09:51Z</time>
      </trkpt>
      <trkpt lat="43.79039" lon="5.68538">
        <ele>414.95</ele>
        <time>2012-08-25T17:09:53Z</time>
      </trkpt>
      <trkpt lat="43.79031" lon="5.68519">
        <ele>414.47</ele>
        <time>2012-08-25T17:09:54Z</time>
      </trkpt>
      <trkpt lat="43.79023" lon="5.68502">
        <ele>413.98</ele>
        <time>2012-08-25T17:09:55Z</time>
      </trkpt>
      <trkpt lat="43.79015" lon="5.68466">
        <ele>413.02</ele>
        <time>2012-08-25T17:09:57Z</time>
      </trkpt>
      <trkpt lat="43.79016" lon="5.68446">
        <ele>412.54</ele>
        <time>2012-08-25T17:09:58Z</time>
      </trkpt>
      <trkpt lat="43.79019" lon="5.68427">
        <ele>411.58</ele>
        <time>2012-08-25T17:09:59Z</time>
      </trkpt>
      <trkpt lat="43.79019" lon="5.68408">
        <ele>411.1</ele>
        <time>2012-08-25T17:10:00Z</time>
      </trkpt>
      <trkpt lat="43.79019" lon="5.68393">
        <ele>409.66</ele>
        <time>2012-08-25T17:10:01Z</time>
      </trkpt>
      <trkpt lat="43.79015" lon="5.68378">
        <ele>408.22</ele>
        <time>2012-08-25T17:10:02Z</time>
      </trkpt>
      <trkpt lat="43.79009" lon="5.68364">
        <ele>407.26</ele>
        <time>2012-08-25T17:10:03Z</time>
      </trkpt>
      <trkpt lat="43.78995" lon="5.68351">
        <ele>405.81</ele>
        <time>2012-08-25T17:10:04Z</time>
      </trkpt>
      <trkpt lat="43.78983" lon="5.68343">
        <ele>405.33</ele>
        <time>2012-08-25T17:10:05Z</time>
      </trkpt>
      <trkpt lat="43.78968" lon="5.68335">
        <ele>404.37</ele>
        <time>2012-08-25T17:10:06Z</time>
      </trkpt>
      <trkpt lat="43.78953" lon="5.68331">
        <ele>403.41</ele>
        <time>2012-08-25T17:10:07Z</time>
      </trkpt>
      <trkpt lat="43.78938" lon="5.68326">
        <ele>403.41</ele>
        <time>2012-08-25T17:10:08Z</time>
      </trkpt>
      <trkpt lat="43.78924" lon="5.6832">
        <ele>402.93</ele>
        <time>2012-08-25T17:10:09Z</time>
      </trkpt>
      <trkpt lat="43.78912" lon="5.6831">
        <ele>403.89</ele>
        <time>2012-08-25T17:10:10Z</time>
      </trkpt>
      <trkpt lat="43.78902" lon="5.68295">
        <ele>404.37</ele>
        <time>2012-08-25T17:10:11Z</time>
      </trkpt>
      <trkpt lat="43.78893" lon="5.68277">
        <ele>405.33</ele>
        <time>2012-08-25T17:10:12Z</time>
      </trkpt>
      <trkpt lat="43.78884" lon="5.68257">
        <ele>406.77</ele>
        <time>2012-08-25T17:10:13Z</time>
      </trkpt>
      <trkpt lat="43.78875" lon="5.68235">
        <ele>407.74</ele>
        <time>2012-08-25T17:10:14Z</time>
      </trkpt>
      <trkpt lat="43.78795" lon="5.68025">
        <ele>416.87</ele>
        <time>2012-08-25T17:10:22Z</time>
      </trkpt>
      <trkpt lat="43.78733" lon="5.67847">
        <ele>424.08</ele>
        <time>2012-08-25T17:10:29Z</time>
      </trkpt>
      <trkpt lat="43.78729" lon="5.67822">
        <ele>425.04</ele>
        <time>2012-08-25T17:10:30Z</time>
      </trkpt>
      <trkpt lat="43.78702" lon="5.67577">
        <ele>433.21</ele>
        <time>2012-08-25T17:10:38Z</time>
      </trkpt>
      <trkpt lat="43.78658" lon="5.6717">
        <ele>447.15</ele>
        <time>2012-08-25T17:10:51Z</time>
      </trkpt>
      <trkpt lat="43.78662" lon="5.66992">
        <ele>453.4</ele>
        <time>2012-08-25T17:10:57Z</time>
      </trkpt>
      <trkpt lat="43.78704" lon="5.66641">
        <ele>462.05</ele>
        <time>2012-08-25T17:11:08Z</time>
      </trkpt>
      <trkpt lat="43.78761" lon="5.66294">
        <ele>469.74</ele>
        <time>2012-08-25T17:11:19Z</time>
      </trkpt>
      <trkpt lat="43.78778" lon="5.66159">
        <ele>472.63</ele>
        <time>2012-08-25T17:11:24Z</time>
      </trkpt>
      <trkpt lat="43.78777" lon="5.66131">
        <ele>473.11</ele>
        <time>2012-08-25T17:11:25Z</time>
      </trkpt>
      <trkpt lat="43.78774" lon="5.66105">
        <ele>473.59</ele>
        <time>2012-08-25T17:11:26Z</time>
      </trkpt>
      <trkpt lat="43.78769" lon="5.66079">
        <ele>474.07</ele>
        <time>2012-08-25T17:11:27Z</time>
      </trkpt>
      <trkpt lat="43.78762" lon="5.66054">
        <ele>474.55</ele>
        <time>2012-08-25T17:11:28Z</time>
      </trkpt>
      <trkpt lat="43.78753" lon="5.66031">
        <ele>475.03</ele>
        <time>2012-08-25T17:11:29Z</time>
      </trkpt>
      <trkpt lat="43.78741" lon="5.66011">
        <ele>475.51</ele>
        <time>2012-08-25T17:11:30Z</time>
      </trkpt>
      <trkpt lat="43.78728" lon="5.65992">
        <ele>475.99</ele>
        <time>2012-08-25T17:11:31Z</time>
      </trkpt>
      <trkpt lat="43.78715" lon="5.65974">
        <ele>476.47</ele>
        <time>2012-08-25T17:11:32Z</time>
      </trkpt>
      <trkpt lat="43.78704" lon="5.65956">
        <ele>476.95</ele>
        <time>2012-08-25T17:11:33Z</time>
      </trkpt>
      <trkpt lat="43.78695" lon="5.65936">
        <ele>476.95</ele>
        <time>2012-08-25T17:11:34Z</time>
      </trkpt>
      <trkpt lat="43.78688" lon="5.65914">
        <ele>477.43</ele>
        <time>2012-08-25T17:11:35Z</time>
      </trkpt>
      <trkpt lat="43.78684" lon="5.65892">
        <ele>476.95</ele>
        <time>2012-08-25T17:11:36Z</time>
      </trkpt>
      <trkpt lat="43.78682" lon="5.65867">
        <ele>476.95</ele>
        <time>2012-08-25T17:11:37Z</time>
      </trkpt>
      <trkpt lat="43.78681" lon="5.65841">
        <ele>476.47</ele>
        <time>2012-08-25T17:11:38Z</time>
      </trkpt>
      <trkpt lat="43.78673" lon="5.65618">
        <ele>471.66</ele>
        <time>2012-08-25T17:11:45Z</time>
      </trkpt>
      <trkpt lat="43.78658" lon="5.6544">
        <ele>468.3</ele>
        <time>2012-08-25T17:11:51Z</time>
      </trkpt>
      <trkpt lat="43.78659" lon="5.65413">
        <ele>467.82</ele>
        <time>2012-08-25T17:11:52Z</time>
      </trkpt>
      <trkpt lat="43.78662" lon="5.65385">
        <ele>467.34</ele>
        <time>2012-08-25T17:11:53Z</time>
      </trkpt>
      <trkpt lat="43.78667" lon="5.65357">
        <ele>466.86</ele>
        <time>2012-08-25T17:11:54Z</time>
      </trkpt>
      <trkpt lat="43.78672" lon="5.6533">
        <ele>466.38</ele>
        <time>2012-08-25T17:11:55Z</time>
      </trkpt>
      <trkpt lat="43.78682" lon="5.65252">
        <ele>465.42</ele>
        <time>2012-08-25T17:11:58Z</time>
      </trkpt>
      <trkpt lat="43.78681" lon="5.65227">
        <ele>464.93</ele>
        <time>2012-08-25T17:11:59Z</time>
      </trkpt>
      <trkpt lat="43.78678" lon="5.65202">
        <ele>463.97</ele>
        <time>2012-08-25T17:12:00Z</time>
      </trkpt>
      <trkpt lat="43.78672" lon="5.65178">
        <ele>463.01</ele>
        <time>2012-08-25T17:12:01Z</time>
      </trkpt>
      <trkpt lat="43.78666" lon="5.65155">
        <ele>462.05</ele>
        <time>2012-08-25T17:12:02Z</time>
      </trkpt>
      <trkpt lat="43.78657" lon="5.65111">
        <ele>460.61</ele>
        <time>2012-08-25T17:12:04Z</time>
      </trkpt>
      <trkpt lat="43.78656" lon="5.65088">
        <ele>460.13</ele>
        <time>2012-08-25T17:12:05Z</time>
      </trkpt>
      <trkpt lat="43.78658" lon="5.65063">
        <ele>459.17</ele>
        <time>2012-08-25T17:12:06Z</time>
      </trkpt>
      <trkpt lat="43.78687" lon="5.64858">
        <ele>454.36</ele>
        <time>2012-08-25T17:12:13Z</time>
      </trkpt>
      <trkpt lat="43.78686" lon="5.6466">
        <ele>450.03</ele>
        <time>2012-08-25T17:12:19Z</time>
      </trkpt>
      <trkpt lat="43.78674" lon="5.64569">
        <ele>448.11</ele>
        <time>2012-08-25T17:12:22Z</time>
      </trkpt>
      <trkpt lat="43.78667" lon="5.64541">
        <ele>447.15</ele>
        <time>2012-08-25T17:12:23Z</time>
      </trkpt>
      <trkpt lat="43.78656" lon="5.64487">
        <ele>446.19</ele>
        <time>2012-08-25T17:12:25Z</time>
      </trkpt>
      <trkpt lat="43.78653" lon="5.64459">
        <ele>445.71</ele>
        <time>2012-08-25T17:12:26Z</time>
      </trkpt>
      <trkpt lat="43.78645" lon="5.64226">
        <ele>443.31</ele>
        <time>2012-08-25T17:12:34Z</time>
      </trkpt>
      <trkpt lat="43.78615" lon="5.6402">
        <ele>438.5</ele>
        <time>2012-08-25T17:12:42Z</time>
      </trkpt>
      <trkpt lat="43.78603" lon="5.63948">
        <ele>435.13</ele>
        <time>2012-08-25T17:12:47Z</time>
      </trkpt>
      <trkpt lat="43.78603" lon="5.63878">
        <ele>431.29</ele>
        <time>2012-08-25T17:12:53Z</time>
      </trkpt>
      <trkpt lat="43.78606" lon="5.63865">
        <ele>430.81</ele>
        <time>2012-08-25T17:12:54Z</time>
      </trkpt>
      <trkpt lat="43.78611" lon="5.63851">
        <ele>429.85</ele>
        <time>2012-08-25T17:12:55Z</time>
      </trkpt>
      <trkpt lat="43.78616" lon="5.63837">
        <ele>429.37</ele>
        <time>2012-08-25T17:12:56Z</time>
      </trkpt>
      <trkpt lat="43.78632" lon="5.63815">
        <ele>428.89</ele>
        <time>2012-08-25T17:12:58Z</time>
      </trkpt>
      <trkpt lat="43.78643" lon="5.6381">
        <ele>428.4</ele>
        <time>2012-08-25T17:12:59Z</time>
      </trkpt>
      <trkpt lat="43.78656" lon="5.63812">
        <ele>427.44</ele>
        <time>2012-08-25T17:13:00Z</time>
      </trkpt>
      <trkpt lat="43.78668" lon="5.63813">
        <ele>426.96</ele>
        <time>2012-08-25T17:13:01Z</time>
      </trkpt>
      <trkpt lat="43.78679" lon="5.63812">
        <ele>426.48</ele>
        <time>2012-08-25T17:13:02Z</time>
      </trkpt>
      <trkpt lat="43.78691" lon="5.63809">
        <ele>425.52</ele>
        <time>2012-08-25T17:13:03Z</time>
      </trkpt>
      <trkpt lat="43.78702" lon="5.63803">
        <ele>425.04</ele>
        <time>2012-08-25T17:13:04Z</time>
      </trkpt>
      <trkpt lat="43.78711" lon="5.63794">
        <ele>424.56</ele>
        <time>2012-08-25T17:13:05Z</time>
      </trkpt>
      <trkpt lat="43.78719" lon="5.63783">
        <ele>424.08</ele>
        <time>2012-08-25T17:13:06Z</time>
      </trkpt>
      <trkpt lat="43.78724" lon="5.6377">
        <ele>424.08</ele>
        <time>2012-08-25T17:13:07Z</time>
      </trkpt>
      <trkpt lat="43.78728" lon="5.63755">
        <ele>423.6</ele>
        <time>2012-08-25T17:13:08Z</time>
      </trkpt>
      <trkpt lat="43.78729" lon="5.63739">
        <ele>423.12</ele>
        <time>2012-08-25T17:13:09Z</time>
      </trkpt>
      <trkpt lat="43.78728" lon="5.63723">
        <ele>422.64</ele>
        <time>2012-08-25T17:13:10Z</time>
      </trkpt>
      <trkpt lat="43.78726" lon="5.63707">
        <ele>421.68</ele>
        <time>2012-08-25T17:13:11Z</time>
      </trkpt>
      <trkpt lat="43.78718" lon="5.63675">
        <ele>421.19</ele>
        <time>2012-08-25T17:13:13Z</time>
      </trkpt>
      <trkpt lat="43.78713" lon="5.6366">
        <ele>421.19</ele>
        <time>2012-08-25T17:13:14Z</time>
      </trkpt>
      <trkpt lat="43.787" lon="5.63635">
        <ele>421.19</ele>
        <time>2012-08-25T17:13:16Z</time>
      </trkpt>
      <trkpt lat="43.78694" lon="5.63626">
        <ele>421.19</ele>
        <time>2012-08-25T17:13:17Z</time>
      </trkpt>
      <trkpt lat="43.78688" lon="5.63618">
        <ele>420.71</ele>
        <time>2012-08-25T17:13:18Z</time>
      </trkpt>
      <trkpt lat="43.78668" lon="5.63594">
        <ele>419.75</ele>
        <time>2012-08-25T17:13:21Z</time>
      </trkpt>
      <trkpt lat="43.78661" lon="5.63587">
        <ele>419.75</ele>
        <time>2012-08-25T17:13:22Z</time>
      </trkpt>
      <trkpt lat="43.78654" lon="5.6358">
        <ele>419.27</ele>
        <time>2012-08-25T17:13:23Z</time>
      </trkpt>
      <trkpt lat="43.78588" lon="5.63509">
        <ele>415.91</ele>
        <time>2012-08-25T17:13:32Z</time>
      </trkpt>
      <trkpt lat="43.78584" lon="5.63503">
        <ele>415.43</ele>
        <time>2012-08-25T17:13:33Z</time>
      </trkpt>
      <trkpt lat="43.78581" lon="5.63497">
        <ele>414.95</ele>
        <time>2012-08-25T17:13:34Z</time>
      </trkpt>
      <trkpt lat="43.78579" lon="5.63492">
        <ele>414.95</ele>
        <time>2012-08-25T17:13:35Z</time>
      </trkpt>
      <trkpt lat="43.78577" lon="5.63487">
        <ele>414.47</ele>
        <time>2012-08-25T17:13:36Z</time>
      </trkpt>
      <trkpt lat="43.78576" lon="5.63482">
        <ele>414.47</ele>
        <time>2012-08-25T17:13:37Z</time>
      </trkpt>
      <trkpt lat="43.78575" lon="5.63476">
        <ele>413.98</ele>
        <time>2012-08-25T17:13:38Z</time>
      </trkpt>
      <trkpt lat="43.78575" lon="5.63469">
        <ele>413.98</ele>
        <time>2012-08-25T17:13:39Z</time>
      </trkpt>
      <trkpt lat="43.78575" lon="5.63463">
        <ele>413.5</ele>
        <time>2012-08-25T17:13:40Z</time>
      </trkpt>
      <trkpt lat="43.78576" lon="5.63458">
        <ele>413.5</ele>
        <time>2012-08-25T17:13:41Z</time>
      </trkpt>
      <trkpt lat="43.78577" lon="5.63454">
        <ele>413.5</ele>
        <time>2012-08-25T17:13:42Z</time>
      </trkpt>
      <trkpt lat="43.78579" lon="5.6345">
        <ele>413.5</ele>
        <time>2012-08-25T17:13:43Z</time>
      </trkpt>
      <trkpt lat="43.78581" lon="5.63446">
        <ele>413.5</ele>
        <time>2012-08-25T17:13:44Z</time>
      </trkpt>
      <trkpt lat="43.78584" lon="5.63441">
        <ele>413.02</ele>
        <time>2012-08-25T17:13:45Z</time>
      </trkpt>
      <trkpt lat="43.78604" lon="5.63399">
        <ele>412.06</ele>
        <time>2012-08-25T17:13:50Z</time>
      </trkpt>
      <trkpt lat="43.7861" lon="5.63392">
        <ele>412.06</ele>
        <time>2012-08-25T17:13:51Z</time>
      </trkpt>
      <trkpt lat="43.78617" lon="5.63385">
        <ele>412.06</ele>
        <time>2012-08-25T17:13:52Z</time>
      </trkpt>
      <trkpt lat="43.78673" lon="5.63331">
        <ele>411.58</ele>
        <time>2012-08-25T17:14:01Z</time>
      </trkpt>
      <trkpt lat="43.78677" lon="5.63326">
        <ele>411.58</ele>
        <time>2012-08-25T17:14:02Z</time>
      </trkpt>
      <trkpt lat="43.78682" lon="5.63319">
        <ele>412.06</ele>
        <time>2012-08-25T17:14:03Z</time>
      </trkpt>
      <trkpt lat="43.78687" lon="5.63307">
        <ele>412.06</ele>
        <time>2012-08-25T17:14:04Z</time>
      </trkpt>
      <trkpt lat="43.78693" lon="5.63293">
        <ele>411.58</ele>
        <time>2012-08-25T17:14:05Z</time>
      </trkpt>
      <trkpt lat="43.78699" lon="5.63276">
        <ele>411.58</ele>
        <time>2012-08-25T17:14:06Z</time>
      </trkpt>
      <trkpt lat="43.78712" lon="5.63238">
        <ele>411.1</ele>
        <time>2012-08-25T17:14:08Z</time>
      </trkpt>
      <trkpt lat="43.78717" lon="5.63216">
        <ele>411.1</ele>
        <time>2012-08-25T17:14:09Z</time>
      </trkpt>
      <trkpt lat="43.78748" lon="5.63045">
        <ele>408.22</ele>
        <time>2012-08-25T17:14:16Z</time>
      </trkpt>
      <trkpt lat="43.78753" lon="5.62907">
        <ele>405.33</ele>
        <time>2012-08-25T17:14:22Z</time>
      </trkpt>
      <trkpt lat="43.78752" lon="5.62854">
        <ele>404.37</ele>
        <time>2012-08-25T17:14:25Z</time>
      </trkpt>
      <trkpt lat="43.7875" lon="5.62836">
        <ele>403.89</ele>
        <time>2012-08-25T17:14:26Z</time>
      </trkpt>
      <trkpt lat="43.78747" lon="5.6282">
        <ele>403.41</ele>
        <time>2012-08-25T17:14:27Z</time>
      </trkpt>
      <trkpt lat="43.78744" lon="5.62806">
        <ele>402.93</ele>
        <time>2012-08-25T17:14:28Z</time>
      </trkpt>
      <trkpt lat="43.7874" lon="5.62794">
        <ele>402.45</ele>
        <time>2012-08-25T17:14:29Z</time>
      </trkpt>
      <trkpt lat="43.78737" lon="5.62785">
        <ele>401.97</ele>
        <time>2012-08-25T17:14:30Z</time>
      </trkpt>
      <trkpt lat="43.78733" lon="5.62783">
        <ele>401.97</ele>
        <time>2012-08-25T17:14:31Z</time>
      </trkpt>
      <trkpt lat="43.7873" lon="5.62782">
        <ele>401.97</ele>
        <time>2012-08-25T17:14:32Z</time>
      </trkpt>
      <trkpt lat="43.78729" lon="5.62785">
        <ele>401.97</ele>
        <time>2012-08-25T17:14:39Z</time>
      </trkpt>
      <trkpt lat="43.78734" lon="5.62804">
        <ele>401.97</ele>
        <time>2012-08-25T17:14:44Z</time>
      </trkpt>
      <trkpt lat="43.78741" lon="5.62825">
        <ele>402.93</ele>
        <time>2012-08-25T17:14:46Z</time>
      </trkpt>
      <trkpt lat="43.78747" lon="5.62844">
        <ele>403.89</ele>
        <time>2012-08-25T17:14:48Z</time>
      </trkpt>
      <trkpt lat="43.78752" lon="5.6285">
        <ele>403.89</ele>
        <time>2012-08-25T17:14:49Z</time>
      </trkpt>
      <trkpt lat="43.78757" lon="5.62853">
        <ele>404.37</ele>
        <time>2012-08-25T17:14:50Z</time>
      </trkpt>
      <trkpt lat="43.78765" lon="5.6285">
        <ele>404.85</ele>
        <time>2012-08-25T17:14:51Z</time>
      </trkpt>
      <trkpt lat="43.78772" lon="5.62842">
        <ele>405.33</ele>
        <time>2012-08-25T17:14:52Z</time>
      </trkpt>
      <trkpt lat="43.78784" lon="5.628">
        <ele>405.81</ele>
        <time>2012-08-25T17:14:55Z</time>
      </trkpt>
      <trkpt lat="43.78786" lon="5.62781">
        <ele>405.81</ele>
        <time>2012-08-25T17:14:56Z</time>
      </trkpt>
      <trkpt lat="43.78787" lon="5.62763">
        <ele>405.81</ele>
        <time>2012-08-25T17:14:57Z</time>
      </trkpt>
      <trkpt lat="43.78811" lon="5.62593">
        <ele>401.97</ele>
        <time>2012-08-25T17:15:04Z</time>
      </trkpt>
      <trkpt lat="43.78831" lon="5.62453">
        <ele>399.57</ele>
        <time>2012-08-25T17:15:09Z</time>
      </trkpt>
      <trkpt lat="43.78831" lon="5.62427">
        <ele>399.08</ele>
        <time>2012-08-25T17:15:10Z</time>
      </trkpt>
      <trkpt lat="43.78831" lon="5.62356">
        <ele>398.12</ele>
        <time>2012-08-25T17:15:13Z</time>
      </trkpt>
      <trkpt lat="43.78836" lon="5.62333">
        <ele>398.12</ele>
        <time>2012-08-25T17:15:14Z</time>
      </trkpt>
      <trkpt lat="43.78844" lon="5.62311">
        <ele>398.12</ele>
        <time>2012-08-25T17:15:15Z</time>
      </trkpt>
      <trkpt lat="43.78853" lon="5.62287">
        <ele>398.12</ele>
        <time>2012-08-25T17:15:16Z</time>
      </trkpt>
      <trkpt lat="43.78864" lon="5.62263">
        <ele>397.64</ele>
        <time>2012-08-25T17:15:17Z</time>
      </trkpt>
      <trkpt lat="43.78929" lon="5.62074">
        <ele>399.57</ele>
        <time>2012-08-25T17:15:24Z</time>
      </trkpt>
      <trkpt lat="43.78999" lon="5.61832">
        <ele>397.16</ele>
        <time>2012-08-25T17:15:32Z</time>
      </trkpt>
      <trkpt lat="43.79057" lon="5.6162">
        <ele>394.28</ele>
        <time>2012-08-25T17:15:40Z</time>
      </trkpt>
      <trkpt lat="43.79107" lon="5.61471">
        <ele>395.72</ele>
        <time>2012-08-25T17:15:47Z</time>
      </trkpt>
      <trkpt lat="43.79192" lon="5.61268">
        <ele>402.93</ele>
        <time>2012-08-25T17:15:55Z</time>
      </trkpt>
      <trkpt lat="43.79219" lon="5.61229">
        <ele>403.41</ele>
        <time>2012-08-25T17:15:57Z</time>
      </trkpt>
      <trkpt lat="43.79233" lon="5.61213">
        <ele>403.89</ele>
        <time>2012-08-25T17:15:58Z</time>
      </trkpt>
      <trkpt lat="43.79249" lon="5.61199">
        <ele>404.37</ele>
        <time>2012-08-25T17:15:59Z</time>
      </trkpt>
      <trkpt lat="43.79265" lon="5.61187">
        <ele>404.37</ele>
        <time>2012-08-25T17:16:00Z</time>
      </trkpt>
      <trkpt lat="43.79282" lon="5.61176">
        <ele>404.37</ele>
        <time>2012-08-25T17:16:01Z</time>
      </trkpt>
      <trkpt lat="43.793" lon="5.61166">
        <ele>404.37</ele>
        <time>2012-08-25T17:16:02Z</time>
      </trkpt>
      <trkpt lat="43.79464" lon="5.6108">
        <ele>401.49</ele>
        <time>2012-08-25T17:16:11Z</time>
      </trkpt>
      <trkpt lat="43.79481" lon="5.61077">
        <ele>401.01</ele>
        <time>2012-08-25T17:16:12Z</time>
      </trkpt>
      <trkpt lat="43.79499" lon="5.61077">
        <ele>401.01</ele>
        <time>2012-08-25T17:16:13Z</time>
      </trkpt>
      <trkpt lat="43.79518" lon="5.6108">
        <ele>401.01</ele>
        <time>2012-08-25T17:16:14Z</time>
      </trkpt>
      <trkpt lat="43.79537" lon="5.61085">
        <ele>401.49</ele>
        <time>2012-08-25T17:16:15Z</time>
      </trkpt>
      <trkpt lat="43.79688" lon="5.61124">
        <ele>397.64</ele>
        <time>2012-08-25T17:16:23Z</time>
      </trkpt>
      <trkpt lat="43.79704" lon="5.61125">
        <ele>396.68</ele>
        <time>2012-08-25T17:16:24Z</time>
      </trkpt>
      <trkpt lat="43.7972" lon="5.61123">
        <ele>395.72</ele>
        <time>2012-08-25T17:16:25Z</time>
      </trkpt>
      <trkpt lat="43.79735" lon="5.61119">
        <ele>395.24</ele>
        <time>2012-08-25T17:16:26Z</time>
      </trkpt>
      <trkpt lat="43.79751" lon="5.61111">
        <ele>394.76</ele>
        <time>2012-08-25T17:16:27Z</time>
      </trkpt>
      <trkpt lat="43.79767" lon="5.61103">
        <ele>394.76</ele>
        <time>2012-08-25T17:16:28Z</time>
      </trkpt>
      <trkpt lat="43.79782" lon="5.61093">
        <ele>395.24</ele>
        <time>2012-08-25T17:16:29Z</time>
      </trkpt>
      <trkpt lat="43.79797" lon="5.6108">
        <ele>395.72</ele>
        <time>2012-08-25T17:16:30Z</time>
      </trkpt>
      <trkpt lat="43.7981" lon="5.61066">
        <ele>395.72</ele>
        <time>2012-08-25T17:16:31Z</time>
      </trkpt>
      <trkpt lat="43.79823" lon="5.61049">
        <ele>396.68</ele>
        <time>2012-08-25T17:16:32Z</time>
      </trkpt>
      <trkpt lat="43.79835" lon="5.61029">
        <ele>398.12</ele>
        <time>2012-08-25T17:16:33Z</time>
      </trkpt>
      <trkpt lat="43.79846" lon="5.61007">
        <ele>400.05</ele>
        <time>2012-08-25T17:16:34Z</time>
      </trkpt>
      <trkpt lat="43.79891" lon="5.60885">
        <ele>409.18</ele>
        <time>2012-08-25T17:16:39Z</time>
      </trkpt>
      <trkpt lat="43.79895" lon="5.60858">
        <ele>410.14</ele>
        <time>2012-08-25T17:16:40Z</time>
      </trkpt>
      <trkpt lat="43.79897" lon="5.60829">
        <ele>411.1</ele>
        <time>2012-08-25T17:16:41Z</time>
      </trkpt>
      <trkpt lat="43.79935" lon="5.60696">
        <ele>417.35</ele>
        <time>2012-08-25T17:16:47Z</time>
      </trkpt>
      <trkpt lat="43.79949" lon="5.60683">
        <ele>418.31</ele>
        <time>2012-08-25T17:16:48Z</time>
      </trkpt>
      <trkpt lat="43.79964" lon="5.60673">
        <ele>419.27</ele>
        <time>2012-08-25T17:16:49Z</time>
      </trkpt>
      <trkpt lat="43.79979" lon="5.60663">
        <ele>421.19</ele>
        <time>2012-08-25T17:16:50Z</time>
      </trkpt>
      <trkpt lat="43.79992" lon="5.60656">
        <ele>423.12</ele>
        <time>2012-08-25T17:16:51Z</time>
      </trkpt>
      <trkpt lat="43.80005" lon="5.6065">
        <ele>425.04</ele>
        <time>2012-08-25T17:16:52Z</time>
      </trkpt>
      <trkpt lat="43.80017" lon="5.60643">
        <ele>426.96</ele>
        <time>2012-08-25T17:16:53Z</time>
      </trkpt>
      <trkpt lat="43.80028" lon="5.60633">
        <ele>428.89</ele>
        <time>2012-08-25T17:16:54Z</time>
      </trkpt>
      <trkpt lat="43.80038" lon="5.60619">
        <ele>430.81</ele>
        <time>2012-08-25T17:16:55Z</time>
      </trkpt>
      <trkpt lat="43.80056" lon="5.60594">
        <ele>434.17</ele>
        <time>2012-08-25T17:16:57Z</time>
      </trkpt>
      <trkpt lat="43.80066" lon="5.60591">
        <ele>436.1</ele>
        <time>2012-08-25T17:16:58Z</time>
      </trkpt>
      <trkpt lat="43.80076" lon="5.60591">
        <ele>438.02</ele>
        <time>2012-08-25T17:16:59Z</time>
      </trkpt>
      <trkpt lat="43.80089" lon="5.60597">
        <ele>438.02</ele>
        <time>2012-08-25T17:17:00Z</time>
      </trkpt>
      <trkpt lat="43.801" lon="5.60605">
        <ele>438.98</ele>
        <time>2012-08-25T17:17:01Z</time>
      </trkpt>
      <trkpt lat="43.80112" lon="5.60613">
        <ele>439.94</ele>
        <time>2012-08-25T17:17:02Z</time>
      </trkpt>
      <trkpt lat="43.80126" lon="5.6062">
        <ele>441.86</ele>
        <time>2012-08-25T17:17:03Z</time>
      </trkpt>
      <trkpt lat="43.80141" lon="5.60624">
        <ele>442.82</ele>
        <time>2012-08-25T17:17:04Z</time>
      </trkpt>
      <trkpt lat="43.80156" lon="5.60625">
        <ele>444.27</ele>
        <time>2012-08-25T17:17:05Z</time>
      </trkpt>
      <trkpt lat="43.80172" lon="5.60622">
        <ele>445.23</ele>
        <time>2012-08-25T17:17:06Z</time>
      </trkpt>
      <trkpt lat="43.80189" lon="5.60615">
        <ele>446.67</ele>
        <time>2012-08-25T17:17:07Z</time>
      </trkpt>
      <trkpt lat="43.80204" lon="5.60605">
        <ele>448.11</ele>
        <time>2012-08-25T17:17:08Z</time>
      </trkpt>
      <trkpt lat="43.8022" lon="5.60591">
        <ele>449.55</ele>
        <time>2012-08-25T17:17:09Z</time>
      </trkpt>
      <trkpt lat="43.80234" lon="5.60575">
        <ele>451.48</ele>
        <time>2012-08-25T17:17:10Z</time>
      </trkpt>
      <trkpt lat="43.80248" lon="5.60556">
        <ele>453.4</ele>
        <time>2012-08-25T17:17:11Z</time>
      </trkpt>
      <trkpt lat="43.80261" lon="5.60537">
        <ele>454.36</ele>
        <time>2012-08-25T17:17:12Z</time>
      </trkpt>
      <trkpt lat="43.80312" lon="5.60468">
        <ele>459.17</ele>
        <time>2012-08-25T17:17:16Z</time>
      </trkpt>
      <trkpt lat="43.80325" lon="5.60457">
        <ele>460.13</ele>
        <time>2012-08-25T17:17:17Z</time>
      </trkpt>
      <trkpt lat="43.8034" lon="5.6045">
        <ele>461.09</ele>
        <time>2012-08-25T17:17:18Z</time>
      </trkpt>
      <trkpt lat="43.80354" lon="5.60449">
        <ele>463.01</ele>
        <time>2012-08-25T17:17:19Z</time>
      </trkpt>
      <trkpt lat="43.80369" lon="5.6045">
        <ele>463.97</ele>
        <time>2012-08-25T17:17:20Z</time>
      </trkpt>
      <trkpt lat="43.80382" lon="5.60451">
        <ele>465.42</ele>
        <time>2012-08-25T17:17:21Z</time>
      </trkpt>
      <trkpt lat="43.80394" lon="5.6045">
        <ele>466.38</ele>
        <time>2012-08-25T17:17:22Z</time>
      </trkpt>
      <trkpt lat="43.80404" lon="5.60445">
        <ele>467.82</ele>
        <time>2012-08-25T17:17:23Z</time>
      </trkpt>
      <trkpt lat="43.8041" lon="5.60434">
        <ele>468.78</ele>
        <time>2012-08-25T17:17:24Z</time>
      </trkpt>
      <trkpt lat="43.80415" lon="5.60423">
        <ele>470.22</ele>
        <time>2012-08-25T17:17:25Z</time>
      </trkpt>
      <trkpt lat="43.80418" lon="5.60411">
        <ele>471.66</ele>
        <time>2012-08-25T17:17:26Z</time>
      </trkpt>
      <trkpt lat="43.8042" lon="5.60396">
        <ele>473.11</ele>
        <time>2012-08-25T17:17:27Z</time>
      </trkpt>
      <trkpt lat="43.80423" lon="5.60381">
        <ele>474.07</ele>
        <time>2012-08-25T17:17:28Z</time>
      </trkpt>
      <trkpt lat="43.80427" lon="5.60365">
        <ele>475.03</ele>
        <time>2012-08-25T17:17:29Z</time>
      </trkpt>
      <trkpt lat="43.80433" lon="5.60348">
        <ele>476.47</ele>
        <time>2012-08-25T17:17:30Z</time>
      </trkpt>
      <trkpt lat="43.8044" lon="5.60333">
        <ele>477.91</ele>
        <time>2012-08-25T17:17:31Z</time>
      </trkpt>
      <trkpt lat="43.80528" lon="5.60174">
        <ele>483.2</ele>
        <time>2012-08-25T17:17:40Z</time>
      </trkpt>
      <trkpt lat="43.8065" lon="5.5995">
        <ele>491.85</ele>
        <time>2012-08-25T17:17:51Z</time>
      </trkpt>
      <trkpt lat="43.80677" lon="5.59919">
        <ele>493.77</ele>
        <time>2012-08-25T17:17:54Z</time>
      </trkpt>
      <trkpt lat="43.80686" lon="5.59919">
        <ele>494.74</ele>
        <time>2012-08-25T17:17:55Z</time>
      </trkpt>
      <trkpt lat="43.80696" lon="5.59921">
        <ele>495.7</ele>
        <time>2012-08-25T17:17:56Z</time>
      </trkpt>
      <trkpt lat="43.80706" lon="5.59927">
        <ele>496.66</ele>
        <time>2012-08-25T17:17:57Z</time>
      </trkpt>
      <trkpt lat="43.80719" lon="5.59933">
        <ele>495.7</ele>
        <time>2012-08-25T17:17:58Z</time>
      </trkpt>
      <trkpt lat="43.80732" lon="5.59934">
        <ele>495.22</ele>
        <time>2012-08-25T17:17:59Z</time>
      </trkpt>
      <trkpt lat="43.80742" lon="5.59928">
        <ele>495.22</ele>
        <time>2012-08-25T17:18:00Z</time>
      </trkpt>
      <trkpt lat="43.80753" lon="5.59919">
        <ele>495.22</ele>
        <time>2012-08-25T17:18:01Z</time>
      </trkpt>
      <trkpt lat="43.80763" lon="5.5991">
        <ele>494.74</ele>
        <time>2012-08-25T17:18:02Z</time>
      </trkpt>
      <trkpt lat="43.80774" lon="5.59904">
        <ele>494.74</ele>
        <time>2012-08-25T17:18:03Z</time>
      </trkpt>
      <trkpt lat="43.80783" lon="5.59901">
        <ele>494.74</ele>
        <time>2012-08-25T17:18:04Z</time>
      </trkpt>
      <trkpt lat="43.80792" lon="5.59902">
        <ele>493.77</ele>
        <time>2012-08-25T17:18:05Z</time>
      </trkpt>
      <trkpt lat="43.80799" lon="5.59908">
        <ele>492.81</ele>
        <time>2012-08-25T17:18:06Z</time>
      </trkpt>
      <trkpt lat="43.80803" lon="5.59919">
        <ele>492.33</ele>
        <time>2012-08-25T17:18:07Z</time>
      </trkpt>
      <trkpt lat="43.80805" lon="5.5993">
        <ele>492.81</ele>
        <time>2012-08-25T17:18:08Z</time>
      </trkpt>
      <trkpt lat="43.808" lon="5.59958">
        <ele>490.41</ele>
        <time>2012-08-25T17:18:10Z</time>
      </trkpt>
      <trkpt lat="43.80799" lon="5.59972">
        <ele>489.45</ele>
        <time>2012-08-25T17:18:11Z</time>
      </trkpt>
      <trkpt lat="43.808" lon="5.59985">
        <ele>488.49</ele>
        <time>2012-08-25T17:18:12Z</time>
      </trkpt>
      <trkpt lat="43.80804" lon="5.59995">
        <ele>487.05</ele>
        <time>2012-08-25T17:18:13Z</time>
      </trkpt>
      <trkpt lat="43.80813" lon="5.59999">
        <ele>486.56</ele>
        <time>2012-08-25T17:18:14Z</time>
      </trkpt>
      <trkpt lat="43.80823" lon="5.6">
        <ele>486.56</ele>
        <time>2012-08-25T17:18:15Z</time>
      </trkpt>
      <trkpt lat="43.80833" lon="5.59991">
        <ele>485.6</ele>
        <time>2012-08-25T17:18:16Z</time>
      </trkpt>
      <trkpt lat="43.80843" lon="5.59982">
        <ele>484.16</ele>
        <time>2012-08-25T17:18:17Z</time>
      </trkpt>
      <trkpt lat="43.80854" lon="5.59969">
        <ele>482.72</ele>
        <time>2012-08-25T17:18:18Z</time>
      </trkpt>
      <trkpt lat="43.80864" lon="5.59954">
        <ele>482.24</ele>
        <time>2012-08-25T17:18:19Z</time>
      </trkpt>
      <trkpt lat="43.80875" lon="5.59939">
        <ele>480.8</ele>
        <time>2012-08-25T17:18:20Z</time>
      </trkpt>
      <trkpt lat="43.80918" lon="5.59868">
        <ele>479.35</ele>
        <time>2012-08-25T17:18:25Z</time>
      </trkpt>
      <trkpt lat="43.80928" lon="5.59859">
        <ele>479.35</ele>
        <time>2012-08-25T17:18:26Z</time>
      </trkpt>
      <trkpt lat="43.8094" lon="5.59853">
        <ele>478.87</ele>
        <time>2012-08-25T17:18:27Z</time>
      </trkpt>
      <trkpt lat="43.80954" lon="5.59849">
        <ele>478.39</ele>
        <time>2012-08-25T17:18:28Z</time>
      </trkpt>
      <trkpt lat="43.8097" lon="5.59847">
        <ele>478.87</ele>
        <time>2012-08-25T17:18:29Z</time>
      </trkpt>
      <trkpt lat="43.80986" lon="5.59847">
        <ele>478.87</ele>
        <time>2012-08-25T17:18:30Z</time>
      </trkpt>
      <trkpt lat="43.81017" lon="5.59845">
        <ele>479.84</ele>
        <time>2012-08-25T17:18:32Z</time>
      </trkpt>
      <trkpt lat="43.81034" lon="5.5984">
        <ele>480.32</ele>
        <time>2012-08-25T17:18:33Z</time>
      </trkpt>
      <trkpt lat="43.81102" lon="5.59811">
        <ele>480.32</ele>
        <time>2012-08-25T17:18:38Z</time>
      </trkpt>
      <trkpt lat="43.81109" lon="5.59801">
        <ele>480.32</ele>
        <time>2012-08-25T17:18:39Z</time>
      </trkpt>
      <trkpt lat="43.8111" lon="5.59787">
        <ele>481.76</ele>
        <time>2012-08-25T17:18:40Z</time>
      </trkpt>
      <trkpt lat="43.81109" lon="5.59773">
        <ele>482.24</ele>
        <time>2012-08-25T17:18:41Z</time>
      </trkpt>
      <trkpt lat="43.81105" lon="5.5976">
        <ele>482.72</ele>
        <time>2012-08-25T17:18:42Z</time>
      </trkpt>
      <trkpt lat="43.81095" lon="5.59746">
        <ele>483.2</ele>
        <time>2012-08-25T17:18:43Z</time>
      </trkpt>
      <trkpt lat="43.81084" lon="5.5973">
        <ele>483.2</ele>
        <time>2012-08-25T17:18:44Z</time>
      </trkpt>
      <trkpt lat="43.81067" lon="5.59692">
        <ele>482.72</ele>
        <time>2012-08-25T17:18:46Z</time>
      </trkpt>
      <trkpt lat="43.81063" lon="5.5967">
        <ele>482.72</ele>
        <time>2012-08-25T17:18:47Z</time>
      </trkpt>
      <trkpt lat="43.81059" lon="5.59649">
        <ele>483.2</ele>
        <time>2012-08-25T17:18:48Z</time>
      </trkpt>
      <trkpt lat="43.81054" lon="5.59631">
        <ele>483.2</ele>
        <time>2012-08-25T17:18:49Z</time>
      </trkpt>
      <trkpt lat="43.81048" lon="5.59615">
        <ele>483.2</ele>
        <time>2012-08-25T17:18:50Z</time>
      </trkpt>
      <trkpt lat="43.81038" lon="5.59605">
        <ele>483.68</ele>
        <time>2012-08-25T17:18:51Z</time>
      </trkpt>
      <trkpt lat="43.81027" lon="5.596">
        <ele>484.64</ele>
        <time>2012-08-25T17:18:52Z</time>
      </trkpt>
      <trkpt lat="43.81016" lon="5.59597">
        <ele>485.6</ele>
        <time>2012-08-25T17:18:53Z</time>
      </trkpt>
      <trkpt lat="43.81001" lon="5.59593">
        <ele>486.56</ele>
        <time>2012-08-25T17:18:55Z</time>
      </trkpt>
      <trkpt lat="43.80997" lon="5.5959">
        <ele>487.05</ele>
        <time>2012-08-25T17:18:56Z</time>
      </trkpt>
      <trkpt lat="43.80996" lon="5.59587">
        <ele>487.05</ele>
        <time>2012-08-25T17:18:57Z</time>
      </trkpt>
      <trkpt lat="43.80996" lon="5.59584">
        <ele>487.53</ele>
        <time>2012-08-25T17:18:58Z</time>
      </trkpt>
      <trkpt lat="43.81002" lon="5.59578">
        <ele>488.49</ele>
        <time>2012-08-25T17:19:00Z</time>
      </trkpt>
      <trkpt lat="43.81008" lon="5.59577">
        <ele>488.97</ele>
        <time>2012-08-25T17:19:01Z</time>
      </trkpt>
      <trkpt lat="43.81014" lon="5.59573">
        <ele>489.45</ele>
        <time>2012-08-25T17:19:02Z</time>
      </trkpt>
      <trkpt lat="43.81018" lon="5.59539">
        <ele>490.41</ele>
        <time>2012-08-25T17:19:05Z</time>
      </trkpt>
      <trkpt lat="43.81013" lon="5.59527">
        <ele>490.89</ele>
        <time>2012-08-25T17:19:06Z</time>
      </trkpt>
      <trkpt lat="43.81006" lon="5.59517">
        <ele>491.37</ele>
        <time>2012-08-25T17:19:07Z</time>
      </trkpt>
      <trkpt lat="43.80998" lon="5.59505">
        <ele>492.33</ele>
        <time>2012-08-25T17:19:08Z</time>
      </trkpt>
      <trkpt lat="43.80991" lon="5.59493">
        <ele>492.81</ele>
        <time>2012-08-25T17:19:09Z</time>
      </trkpt>
      <trkpt lat="43.80988" lon="5.59481">
        <ele>493.29</ele>
        <time>2012-08-25T17:19:10Z</time>
      </trkpt>
      <trkpt lat="43.80989" lon="5.59471">
        <ele>494.74</ele>
        <time>2012-08-25T17:19:11Z</time>
      </trkpt>
      <trkpt lat="43.80994" lon="5.59464">
        <ele>495.7</ele>
        <time>2012-08-25T17:19:12Z</time>
      </trkpt>
      <trkpt lat="43.81003" lon="5.59467">
        <ele>495.22</ele>
        <time>2012-08-25T17:19:13Z</time>
      </trkpt>
      <trkpt lat="43.81008" lon="5.59472">
        <ele>495.7</ele>
        <time>2012-08-25T17:19:14Z</time>
      </trkpt>
      <trkpt lat="43.81013" lon="5.59481">
        <ele>496.18</ele>
        <time>2012-08-25T17:19:15Z</time>
      </trkpt>
      <trkpt lat="43.81017" lon="5.59493">
        <ele>496.66</ele>
        <time>2012-08-25T17:19:16Z</time>
      </trkpt>
      <trkpt lat="43.81022" lon="5.59505">
        <ele>497.14</ele>
        <time>2012-08-25T17:19:17Z</time>
      </trkpt>
      <trkpt lat="43.8103" lon="5.59515">
        <ele>497.62</ele>
        <time>2012-08-25T17:19:18Z</time>
      </trkpt>
      <trkpt lat="43.8104" lon="5.59523">
        <ele>498.1</ele>
        <time>2012-08-25T17:19:19Z</time>
      </trkpt>
      <trkpt lat="43.81051" lon="5.59529">
        <ele>499.06</ele>
        <time>2012-08-25T17:19:20Z</time>
      </trkpt>
      <trkpt lat="43.81086" lon="5.59543">
        <ele>500.98</ele>
        <time>2012-08-25T17:19:23Z</time>
      </trkpt>
      <trkpt lat="43.81145" lon="5.59566">
        <ele>504.83</ele>
        <time>2012-08-25T17:19:29Z</time>
      </trkpt>
      <trkpt lat="43.81152" lon="5.59565">
        <ele>505.31</ele>
        <time>2012-08-25T17:19:30Z</time>
      </trkpt>
      <trkpt lat="43.81159" lon="5.59562">
        <ele>505.79</ele>
        <time>2012-08-25T17:19:31Z</time>
      </trkpt>
      <trkpt lat="43.81168" lon="5.59556">
        <ele>505.79</ele>
        <time>2012-08-25T17:19:32Z</time>
      </trkpt>
      <trkpt lat="43.81176" lon="5.59547">
        <ele>506.27</ele>
        <time>2012-08-25T17:19:33Z</time>
      </trkpt>
      <trkpt lat="43.81279" lon="5.59457">
        <ele>508.67</ele>
        <time>2012-08-25T17:19:43Z</time>
      </trkpt>
      <trkpt lat="43.81293" lon="5.59448">
        <ele>508.67</ele>
        <time>2012-08-25T17:19:44Z</time>
      </trkpt>
      <trkpt lat="43.81308" lon="5.5944">
        <ele>508.67</ele>
        <time>2012-08-25T17:19:45Z</time>
      </trkpt>
      <trkpt lat="43.81324" lon="5.59435">
        <ele>508.67</ele>
        <time>2012-08-25T17:19:46Z</time>
      </trkpt>
      <trkpt lat="43.8134" lon="5.59434">
        <ele>508.67</ele>
        <time>2012-08-25T17:19:47Z</time>
      </trkpt>
      <trkpt lat="43.81357" lon="5.59436">
        <ele>509.16</ele>
        <time>2012-08-25T17:19:48Z</time>
      </trkpt>
      <trkpt lat="43.81374" lon="5.59443">
        <ele>509.64</ele>
        <time>2012-08-25T17:19:49Z</time>
      </trkpt>
      <trkpt lat="43.81392" lon="5.59451">
        <ele>510.12</ele>
        <time>2012-08-25T17:19:50Z</time>
      </trkpt>
      <trkpt lat="43.81426" lon="5.59465">
        <ele>510.6</ele>
        <time>2012-08-25T17:19:52Z</time>
      </trkpt>
      <trkpt lat="43.81444" lon="5.59468">
        <ele>510.6</ele>
        <time>2012-08-25T17:19:53Z</time>
      </trkpt>
      <trkpt lat="43.81462" lon="5.59467">
        <ele>511.56</ele>
        <time>2012-08-25T17:19:54Z</time>
      </trkpt>
      <trkpt lat="43.81478" lon="5.59463">
        <ele>511.56</ele>
        <time>2012-08-25T17:19:55Z</time>
      </trkpt>
      <trkpt lat="43.81493" lon="5.59457">
        <ele>512.04</ele>
        <time>2012-08-25T17:19:56Z</time>
      </trkpt>
      <trkpt lat="43.81506" lon="5.59451">
        <ele>512.52</ele>
        <time>2012-08-25T17:19:57Z</time>
      </trkpt>
      <trkpt lat="43.81531" lon="5.59444">
        <ele>513.96</ele>
        <time>2012-08-25T17:19:59Z</time>
      </trkpt>
      <trkpt lat="43.81542" lon="5.59444">
        <ele>514.44</ele>
        <time>2012-08-25T17:20:00Z</time>
      </trkpt>
      <trkpt lat="43.81552" lon="5.59448">
        <ele>514.92</ele>
        <time>2012-08-25T17:20:01Z</time>
      </trkpt>
      <trkpt lat="43.8156" lon="5.59459">
        <ele>515.88</ele>
        <time>2012-08-25T17:20:02Z</time>
      </trkpt>
      <trkpt lat="43.81566" lon="5.59473">
        <ele>516.37</ele>
        <time>2012-08-25T17:20:03Z</time>
      </trkpt>
      <trkpt lat="43.8157" lon="5.59489">
        <ele>517.33</ele>
        <time>2012-08-25T17:20:04Z</time>
      </trkpt>
      <trkpt lat="43.8157" lon="5.59505">
        <ele>517.81</ele>
        <time>2012-08-25T17:20:05Z</time>
      </trkpt>
      <trkpt lat="43.81568" lon="5.59522">
        <ele>518.77</ele>
        <time>2012-08-25T17:20:06Z</time>
      </trkpt>
      <trkpt lat="43.81564" lon="5.59538">
        <ele>519.25</ele>
        <time>2012-08-25T17:20:07Z</time>
      </trkpt>
      <trkpt lat="43.81561" lon="5.59555">
        <ele>520.21</ele>
        <time>2012-08-25T17:20:08Z</time>
      </trkpt>
      <trkpt lat="43.81542" lon="5.59702">
        <ele>526.46</ele>
        <time>2012-08-25T17:20:15Z</time>
      </trkpt>
      <trkpt lat="43.81543" lon="5.5972">
        <ele>527.42</ele>
        <time>2012-08-25T17:20:16Z</time>
      </trkpt>
      <trkpt lat="43.81547" lon="5.59736">
        <ele>527.9</ele>
        <time>2012-08-25T17:20:17Z</time>
      </trkpt>
      <trkpt lat="43.81554" lon="5.59751">
        <ele>528.38</ele>
        <time>2012-08-25T17:20:18Z</time>
      </trkpt>
      <trkpt lat="43.81562" lon="5.59766">
        <ele>529.34</ele>
        <time>2012-08-25T17:20:19Z</time>
      </trkpt>
      <trkpt lat="43.8157" lon="5.59781">
        <ele>529.82</ele>
        <time>2012-08-25T17:20:20Z</time>
      </trkpt>
      <trkpt lat="43.81577" lon="5.59796">
        <ele>530.3</ele>
        <time>2012-08-25T17:20:21Z</time>
      </trkpt>
      <trkpt lat="43.8158" lon="5.59812">
        <ele>530.79</ele>
        <time>2012-08-25T17:20:22Z</time>
      </trkpt>
      <trkpt lat="43.8158" lon="5.59828">
        <ele>531.75</ele>
        <time>2012-08-25T17:20:23Z</time>
      </trkpt>
      <trkpt lat="43.81577" lon="5.59844">
        <ele>532.71</ele>
        <time>2012-08-25T17:20:24Z</time>
      </trkpt>
      <trkpt lat="43.81571" lon="5.5986">
        <ele>533.67</ele>
        <time>2012-08-25T17:20:25Z</time>
      </trkpt>
      <trkpt lat="43.81564" lon="5.59876">
        <ele>534.15</ele>
        <time>2012-08-25T17:20:26Z</time>
      </trkpt>
      <trkpt lat="43.81553" lon="5.59912">
        <ele>535.59</ele>
        <time>2012-08-25T17:20:28Z</time>
      </trkpt>
      <trkpt lat="43.81549" lon="5.59932">
        <ele>536.55</ele>
        <time>2012-08-25T17:20:29Z</time>
      </trkpt>
      <trkpt lat="43.81547" lon="5.59953">
        <ele>537.51</ele>
        <time>2012-08-25T17:20:30Z</time>
      </trkpt>
      <trkpt lat="43.81546" lon="5.60071">
        <ele>541.84</ele>
        <time>2012-08-25T17:20:36Z</time>
      </trkpt>
      <trkpt lat="43.81551" lon="5.6008">
        <ele>542.32</ele>
        <time>2012-08-25T17:20:37Z</time>
      </trkpt>
      <trkpt lat="43.81558" lon="5.60086">
        <ele>543.28</ele>
        <time>2012-08-25T17:20:38Z</time>
      </trkpt>
      <trkpt lat="43.81566" lon="5.60082">
        <ele>544.24</ele>
        <time>2012-08-25T17:20:39Z</time>
      </trkpt>
      <trkpt lat="43.81573" lon="5.60068">
        <ele>544.24</ele>
        <time>2012-08-25T17:20:40Z</time>
      </trkpt>
      <trkpt lat="43.81579" lon="5.60053">
        <ele>544.72</ele>
        <time>2012-08-25T17:20:41Z</time>
      </trkpt>
      <trkpt lat="43.81585" lon="5.60037">
        <ele>545.2</ele>
        <time>2012-08-25T17:20:42Z</time>
      </trkpt>
      <trkpt lat="43.81642" lon="5.59916">
        <ele>552.41</ele>
        <time>2012-08-25T17:20:49Z</time>
      </trkpt>
      <trkpt lat="43.81667" lon="5.59874">
        <ele>555.3</ele>
        <time>2012-08-25T17:20:52Z</time>
      </trkpt>
      <trkpt lat="43.81676" lon="5.59865">
        <ele>556.26</ele>
        <time>2012-08-25T17:20:53Z</time>
      </trkpt>
      <trkpt lat="43.81687" lon="5.5986">
        <ele>556.74</ele>
        <time>2012-08-25T17:20:54Z</time>
      </trkpt>
      <trkpt lat="43.81698" lon="5.59858">
        <ele>558.18</ele>
        <time>2012-08-25T17:20:55Z</time>
      </trkpt>
      <trkpt lat="43.8171" lon="5.59856">
        <ele>558.66</ele>
        <time>2012-08-25T17:20:56Z</time>
      </trkpt>
      <trkpt lat="43.81719" lon="5.59853">
        <ele>559.62</ele>
        <time>2012-08-25T17:20:57Z</time>
      </trkpt>
      <trkpt lat="43.81726" lon="5.59848">
        <ele>560.11</ele>
        <time>2012-08-25T17:20:58Z</time>
      </trkpt>
      <trkpt lat="43.81729" lon="5.59839">
        <ele>560.59</ele>
        <time>2012-08-25T17:20:59Z</time>
      </trkpt>
      <trkpt lat="43.81726" lon="5.59825">
        <ele>562.03</ele>
        <time>2012-08-25T17:21:00Z</time>
      </trkpt>
      <trkpt lat="43.81722" lon="5.59812">
        <ele>562.51</ele>
        <time>2012-08-25T17:21:01Z</time>
      </trkpt>
      <trkpt lat="43.81717" lon="5.59799">
        <ele>563.95</ele>
        <time>2012-08-25T17:21:02Z</time>
      </trkpt>
      <trkpt lat="43.81711" lon="5.59782">
        <ele>564.43</ele>
        <time>2012-08-25T17:21:03Z</time>
      </trkpt>
      <trkpt lat="43.81707" lon="5.59762">
        <ele>564.91</ele>
        <time>2012-08-25T17:21:04Z</time>
      </trkpt>
      <trkpt lat="43.81704" lon="5.59741">
        <ele>565.87</ele>
        <time>2012-08-25T17:21:05Z</time>
      </trkpt>
      <trkpt lat="43.81695" lon="5.59665">
        <ele>568.76</ele>
        <time>2012-08-25T17:21:09Z</time>
      </trkpt>
      <trkpt lat="43.81696" lon="5.59649">
        <ele>569.24</ele>
        <time>2012-08-25T17:21:10Z</time>
      </trkpt>
      <trkpt lat="43.817" lon="5.59633">
        <ele>570.2</ele>
        <time>2012-08-25T17:21:11Z</time>
      </trkpt>
      <trkpt lat="43.81706" lon="5.59619">
        <ele>571.16</ele>
        <time>2012-08-25T17:21:12Z</time>
      </trkpt>
      <trkpt lat="43.81714" lon="5.59605">
        <ele>572.12</ele>
        <time>2012-08-25T17:21:13Z</time>
      </trkpt>
      <trkpt lat="43.8172" lon="5.59589">
        <ele>573.08</ele>
        <time>2012-08-25T17:21:14Z</time>
      </trkpt>
      <trkpt lat="43.81725" lon="5.59571">
        <ele>574.04</ele>
        <time>2012-08-25T17:21:15Z</time>
      </trkpt>
      <trkpt lat="43.81731" lon="5.59554">
        <ele>575.01</ele>
        <time>2012-08-25T17:21:16Z</time>
      </trkpt>
      <trkpt lat="43.81739" lon="5.59538">
        <ele>575.97</ele>
        <time>2012-08-25T17:21:17Z</time>
      </trkpt>
      <trkpt lat="43.81748" lon="5.59524">
        <ele>576.93</ele>
        <time>2012-08-25T17:21:18Z</time>
      </trkpt>
      <trkpt lat="43.81757" lon="5.59509">
        <ele>577.89</ele>
        <time>2012-08-25T17:21:19Z</time>
      </trkpt>
      <trkpt lat="43.81763" lon="5.59493">
        <ele>578.85</ele>
        <time>2012-08-25T17:21:20Z</time>
      </trkpt>
      <trkpt lat="43.81767" lon="5.59476">
        <ele>580.29</ele>
        <time>2012-08-25T17:21:21Z</time>
      </trkpt>
      <trkpt lat="43.81786" lon="5.59414">
        <ele>584.14</ele>
        <time>2012-08-25T17:21:25Z</time>
      </trkpt>
      <trkpt lat="43.81793" lon="5.59403">
        <ele>585.1</ele>
        <time>2012-08-25T17:21:26Z</time>
      </trkpt>
      <trkpt lat="43.818" lon="5.59393">
        <ele>586.06</ele>
        <time>2012-08-25T17:21:27Z</time>
      </trkpt>
      <trkpt lat="43.81809" lon="5.59386">
        <ele>587.02</ele>
        <time>2012-08-25T17:21:28Z</time>
      </trkpt>
      <trkpt lat="43.8182" lon="5.59381">
        <ele>587.5</ele>
        <time>2012-08-25T17:21:29Z</time>
      </trkpt>
      <trkpt lat="43.81831" lon="5.59377">
        <ele>587.98</ele>
        <time>2012-08-25T17:21:30Z</time>
      </trkpt>
      <trkpt lat="43.81844" lon="5.59374">
        <ele>588.46</ele>
        <time>2012-08-25T17:21:31Z</time>
      </trkpt>
      <trkpt lat="43.81855" lon="5.59369">
        <ele>588.95</ele>
        <time>2012-08-25T17:21:32Z</time>
      </trkpt>
      <trkpt lat="43.81866" lon="5.59361">
        <ele>588.95</ele>
        <time>2012-08-25T17:21:33Z</time>
      </trkpt>
      <trkpt lat="43.81876" lon="5.59351">
        <ele>589.43</ele>
        <time>2012-08-25T17:21:34Z</time>
      </trkpt>
      <trkpt lat="43.81892" lon="5.59332">
        <ele>589.91</ele>
        <time>2012-08-25T17:21:36Z</time>
      </trkpt>
      <trkpt lat="43.81901" lon="5.59325">
        <ele>590.39</ele>
        <time>2012-08-25T17:21:37Z</time>
      </trkpt>
      <trkpt lat="43.81912" lon="5.5932">
        <ele>590.39</ele>
        <time>2012-08-25T17:21:38Z</time>
      </trkpt>
      <trkpt lat="43.81983" lon="5.59291">
        <ele>590.39</ele>
        <time>2012-08-25T17:21:44Z</time>
      </trkpt>
      <trkpt lat="43.81994" lon="5.59291">
        <ele>590.39</ele>
        <time>2012-08-25T17:21:45Z</time>
      </trkpt>
      <trkpt lat="43.82006" lon="5.59295">
        <ele>590.39</ele>
        <time>2012-08-25T17:21:46Z</time>
      </trkpt>
      <trkpt lat="43.82019" lon="5.593">
        <ele>590.39</ele>
        <time>2012-08-25T17:21:47Z</time>
      </trkpt>
      <trkpt lat="43.82032" lon="5.59306">
        <ele>590.39</ele>
        <time>2012-08-25T17:21:48Z</time>
      </trkpt>
      <trkpt lat="43.82131" lon="5.59364">
        <ele>590.87</ele>
        <time>2012-08-25T17:21:55Z</time>
      </trkpt>
      <trkpt lat="43.82149" lon="5.59371">
        <ele>591.83</ele>
        <time>2012-08-25T17:21:56Z</time>
      </trkpt>
      <trkpt lat="43.82167" lon="5.59377">
        <ele>592.31</ele>
        <time>2012-08-25T17:21:57Z</time>
      </trkpt>
      <trkpt lat="43.82221" lon="5.59386">
        <ele>594.71</ele>
        <time>2012-08-25T17:22:00Z</time>
      </trkpt>
      <trkpt lat="43.82239" lon="5.59384">
        <ele>595.67</ele>
        <time>2012-08-25T17:22:01Z</time>
      </trkpt>
      <trkpt lat="43.82312" lon="5.59376">
        <ele>599.52</ele>
        <time>2012-08-25T17:22:05Z</time>
      </trkpt>
      <trkpt lat="43.82328" lon="5.59372">
        <ele>600.48</ele>
        <time>2012-08-25T17:22:06Z</time>
      </trkpt>
      <trkpt lat="43.82391" lon="5.59342">
        <ele>602.88</ele>
        <time>2012-08-25T17:22:11Z</time>
      </trkpt>
      <trkpt lat="43.82392" lon="5.59327">
        <ele>604.33</ele>
        <time>2012-08-25T17:22:12Z</time>
      </trkpt>
      <trkpt lat="43.82392" lon="5.59313">
        <ele>604.81</ele>
        <time>2012-08-25T17:22:13Z</time>
      </trkpt>
      <trkpt lat="43.8239" lon="5.59302">
        <ele>605.29</ele>
        <time>2012-08-25T17:22:14Z</time>
      </trkpt>
      <trkpt lat="43.82385" lon="5.59292">
        <ele>606.25</ele>
        <time>2012-08-25T17:22:15Z</time>
      </trkpt>
      <trkpt lat="43.82376" lon="5.59282">
        <ele>606.73</ele>
        <time>2012-08-25T17:22:16Z</time>
      </trkpt>
      <trkpt lat="43.82364" lon="5.59273">
        <ele>607.69</ele>
        <time>2012-08-25T17:22:17Z</time>
      </trkpt>
      <trkpt lat="43.82353" lon="5.59262">
        <ele>608.17</ele>
        <time>2012-08-25T17:22:18Z</time>
      </trkpt>
      <trkpt lat="43.82254" lon="5.59158">
        <ele>612.98</ele>
        <time>2012-08-25T17:22:25Z</time>
      </trkpt>
      <trkpt lat="43.82193" lon="5.59074">
        <ele>617.78</ele>
        <time>2012-08-25T17:22:30Z</time>
      </trkpt>
      <trkpt lat="43.82185" lon="5.59055">
        <ele>618.75</ele>
        <time>2012-08-25T17:22:31Z</time>
      </trkpt>
      <trkpt lat="43.82164" lon="5.58998">
        <ele>621.15</ele>
        <time>2012-08-25T17:22:34Z</time>
      </trkpt>
      <trkpt lat="43.82142" lon="5.58948">
        <ele>623.55</ele>
        <time>2012-08-25T17:22:37Z</time>
      </trkpt>
      <trkpt lat="43.82138" lon="5.5893">
        <ele>624.51</ele>
        <time>2012-08-25T17:22:38Z</time>
      </trkpt>
      <trkpt lat="43.82135" lon="5.58911">
        <ele>624.99</ele>
        <time>2012-08-25T17:22:39Z</time>
      </trkpt>
      <trkpt lat="43.82132" lon="5.58848">
        <ele>627.88</ele>
        <time>2012-08-25T17:22:42Z</time>
      </trkpt>
      <trkpt lat="43.82134" lon="5.58826">
        <ele>628.84</ele>
        <time>2012-08-25T17:22:43Z</time>
      </trkpt>
      <trkpt lat="43.82161" lon="5.58695">
        <ele>635.57</ele>
        <time>2012-08-25T17:22:49Z</time>
      </trkpt>
      <trkpt lat="43.82169" lon="5.58677">
        <ele>637.01</ele>
        <time>2012-08-25T17:22:50Z</time>
      </trkpt>
      <trkpt lat="43.82178" lon="5.5866">
        <ele>637.97</ele>
        <time>2012-08-25T17:22:51Z</time>
      </trkpt>
      <trkpt lat="43.82187" lon="5.58645">
        <ele>638.93</ele>
        <time>2012-08-25T17:22:52Z</time>
      </trkpt>
      <trkpt lat="43.82196" lon="5.58633">
        <ele>640.38</ele>
        <time>2012-08-25T17:22:53Z</time>
      </trkpt>
      <trkpt lat="43.82206" lon="5.58625">
        <ele>641.34</ele>
        <time>2012-08-25T17:22:54Z</time>
      </trkpt>
      <trkpt lat="43.82217" lon="5.58619">
        <ele>642.3</ele>
        <time>2012-08-25T17:22:55Z</time>
      </trkpt>
      <trkpt lat="43.82228" lon="5.58617">
        <ele>643.26</ele>
        <time>2012-08-25T17:22:56Z</time>
      </trkpt>
      <trkpt lat="43.82241" lon="5.58616">
        <ele>644.22</ele>
        <time>2012-08-25T17:22:57Z</time>
      </trkpt>
      <trkpt lat="43.82255" lon="5.58618">
        <ele>645.18</ele>
        <time>2012-08-25T17:22:58Z</time>
      </trkpt>
      <trkpt lat="43.8227" lon="5.58619">
        <ele>645.66</ele>
        <time>2012-08-25T17:22:59Z</time>
      </trkpt>
      <trkpt lat="43.82322" lon="5.58626">
        <ele>648.07</ele>
        <time>2012-08-25T17:23:02Z</time>
      </trkpt>
      <trkpt lat="43.82341" lon="5.58624">
        <ele>648.55</ele>
        <time>2012-08-25T17:23:03Z</time>
      </trkpt>
      <trkpt lat="43.82361" lon="5.5862">
        <ele>649.03</ele>
        <time>2012-08-25T17:23:04Z</time>
      </trkpt>
      <trkpt lat="43.82469" lon="5.58573">
        <ele>655.28</ele>
        <time>2012-08-25T17:23:10Z</time>
      </trkpt>
      <trkpt lat="43.82483" lon="5.58559">
        <ele>656.72</ele>
        <time>2012-08-25T17:23:11Z</time>
      </trkpt>
      <trkpt lat="43.82497" lon="5.58542">
        <ele>657.68</ele>
        <time>2012-08-25T17:23:12Z</time>
      </trkpt>
      <trkpt lat="43.82511" lon="5.58522">
        <ele>659.12</ele>
        <time>2012-08-25T17:23:13Z</time>
      </trkpt>
      <trkpt lat="43.82524" lon="5.585">
        <ele>660.56</ele>
        <time>2012-08-25T17:23:14Z</time>
      </trkpt>
      <trkpt lat="43.8263" lon="5.58313">
        <ele>671.14</ele>
        <time>2012-08-25T17:23:22Z</time>
      </trkpt>
      <trkpt lat="43.82785" lon="5.58096">
        <ele>679.79</ele>
        <time>2012-08-25T17:23:32Z</time>
      </trkpt>
      <trkpt lat="43.82873" lon="5.57928">
        <ele>689.88</ele>
        <time>2012-08-25T17:23:39Z</time>
      </trkpt>
      <trkpt lat="43.82908" lon="5.5786">
        <ele>694.21</ele>
        <time>2012-08-25T17:23:43Z</time>
      </trkpt>
      <trkpt lat="43.82916" lon="5.57856">
        <ele>694.69</ele>
        <time>2012-08-25T17:23:44Z</time>
      </trkpt>
      <trkpt lat="43.82923" lon="5.57857">
        <ele>695.17</ele>
        <time>2012-08-25T17:23:45Z</time>
      </trkpt>
      <trkpt lat="43.82929" lon="5.57863">
        <ele>695.65</ele>
        <time>2012-08-25T17:23:46Z</time>
      </trkpt>
      <trkpt lat="43.82932" lon="5.57871">
        <ele>696.13</ele>
        <time>2012-08-25T17:23:47Z</time>
      </trkpt>
      <trkpt lat="43.82934" lon="5.57882">
        <ele>697.09</ele>
        <time>2012-08-25T17:23:48Z</time>
      </trkpt>
      <trkpt lat="43.82931" lon="5.57895">
        <ele>697.09</ele>
        <time>2012-08-25T17:23:49Z</time>
      </trkpt>
      <trkpt lat="43.82928" lon="5.57909">
        <ele>697.09</ele>
        <time>2012-08-25T17:23:50Z</time>
      </trkpt>
      <trkpt lat="43.82925" lon="5.57925">
        <ele>697.57</ele>
        <time>2012-08-25T17:23:51Z</time>
      </trkpt>
      <trkpt lat="43.8291" lon="5.58013">
        <ele>700.46</ele>
        <time>2012-08-25T17:23:56Z</time>
      </trkpt>
      <trkpt lat="43.8291" lon="5.58029">
        <ele>700.94</ele>
        <time>2012-08-25T17:23:57Z</time>
      </trkpt>
      <trkpt lat="43.82912" lon="5.58045">
        <ele>700.46</ele>
        <time>2012-08-25T17:23:58Z</time>
      </trkpt>
      <trkpt lat="43.82915" lon="5.58062">
        <ele>699.98</ele>
        <time>2012-08-25T17:23:59Z</time>
      </trkpt>
      <trkpt lat="43.82918" lon="5.58081">
        <ele>699.5</ele>
        <time>2012-08-25T17:24:00Z</time>
      </trkpt>
      <trkpt lat="43.8293" lon="5.58154">
        <ele>696.61</ele>
        <time>2012-08-25T17:24:04Z</time>
      </trkpt>
      <trkpt lat="43.8293" lon="5.58171">
        <ele>695.65</ele>
        <time>2012-08-25T17:24:05Z</time>
      </trkpt>
      <trkpt lat="43.82929" lon="5.58188">
        <ele>694.69</ele>
        <time>2012-08-25T17:24:06Z</time>
      </trkpt>
      <trkpt lat="43.82927" lon="5.58205">
        <ele>694.21</ele>
        <time>2012-08-25T17:24:07Z</time>
      </trkpt>
      <trkpt lat="43.82922" lon="5.58221">
        <ele>693.73</ele>
        <time>2012-08-25T17:24:08Z</time>
      </trkpt>
      <trkpt lat="43.82916" lon="5.58238">
        <ele>692.29</ele>
        <time>2012-08-25T17:24:09Z</time>
      </trkpt>
      <trkpt lat="43.8291" lon="5.58254">
        <ele>691.33</ele>
        <time>2012-08-25T17:24:10Z</time>
      </trkpt>
      <trkpt lat="43.82887" lon="5.58338">
        <ele>687.48</ele>
        <time>2012-08-25T17:24:15Z</time>
      </trkpt>
      <trkpt lat="43.82886" lon="5.58357">
        <ele>686.52</ele>
        <time>2012-08-25T17:24:16Z</time>
      </trkpt>
      <trkpt lat="43.82886" lon="5.58376">
        <ele>685.56</ele>
        <time>2012-08-25T17:24:17Z</time>
      </trkpt>
      <trkpt lat="43.82888" lon="5.58396">
        <ele>684.6</ele>
        <time>2012-08-25T17:24:18Z</time>
      </trkpt>
      <trkpt lat="43.8289" lon="5.58417">
        <ele>683.63</ele>
        <time>2012-08-25T17:24:19Z</time>
      </trkpt>
      <trkpt lat="43.8289" lon="5.58581">
        <ele>675.94</ele>
        <time>2012-08-25T17:24:27Z</time>
      </trkpt>
      <trkpt lat="43.8289" lon="5.58625">
        <ele>674.02</ele>
        <time>2012-08-25T17:24:30Z</time>
      </trkpt>
      <trkpt lat="43.82893" lon="5.58635">
        <ele>673.06</ele>
        <time>2012-08-25T17:24:31Z</time>
      </trkpt>
      <trkpt lat="43.82898" lon="5.58638">
        <ele>672.1</ele>
        <time>2012-08-25T17:24:32Z</time>
      </trkpt>
      <trkpt lat="43.82907" lon="5.58639">
        <ele>672.58</ele>
        <time>2012-08-25T17:24:33Z</time>
      </trkpt>
      <trkpt lat="43.82918" lon="5.58634">
        <ele>672.1</ele>
        <time>2012-08-25T17:24:34Z</time>
      </trkpt>
      <trkpt lat="43.82929" lon="5.58629">
        <ele>671.14</ele>
        <time>2012-08-25T17:24:35Z</time>
      </trkpt>
      <trkpt lat="43.82941" lon="5.58621">
        <ele>670.18</ele>
        <time>2012-08-25T17:24:36Z</time>
      </trkpt>
      <trkpt lat="43.82952" lon="5.58612">
        <ele>669.22</ele>
        <time>2012-08-25T17:24:37Z</time>
      </trkpt>
      <trkpt lat="43.82963" lon="5.58603">
        <ele>668.73</ele>
        <time>2012-08-25T17:24:38Z</time>
      </trkpt>
      <trkpt lat="43.82973" lon="5.58593">
        <ele>667.77</ele>
        <time>2012-08-25T17:24:39Z</time>
      </trkpt>
      <trkpt lat="43.83074" lon="5.58531">
        <ele>662.49</ele>
        <time>2012-08-25T17:24:47Z</time>
      </trkpt>
      <trkpt lat="43.83096" lon="5.5852">
        <ele>661.52</ele>
        <time>2012-08-25T17:24:49Z</time>
      </trkpt>
      <trkpt lat="43.83106" lon="5.58518">
        <ele>661.04</ele>
        <time>2012-08-25T17:24:50Z</time>
      </trkpt>
      <trkpt lat="43.83115" lon="5.58522">
        <ele>660.08</ele>
        <time>2012-08-25T17:24:51Z</time>
      </trkpt>
      <trkpt lat="43.83121" lon="5.58532">
        <ele>659.6</ele>
        <time>2012-08-25T17:24:52Z</time>
      </trkpt>
      <trkpt lat="43.83126" lon="5.58543">
        <ele>658.64</ele>
        <time>2012-08-25T17:24:53Z</time>
      </trkpt>
      <trkpt lat="43.83131" lon="5.58558">
        <ele>658.16</ele>
        <time>2012-08-25T17:24:54Z</time>
      </trkpt>
      <trkpt lat="43.83136" lon="5.58574">
        <ele>657.2</ele>
        <time>2012-08-25T17:24:55Z</time>
      </trkpt>
      <trkpt lat="43.83157" lon="5.58652">
        <ele>653.83</ele>
        <time>2012-08-25T17:24:59Z</time>
      </trkpt>
      <trkpt lat="43.83159" lon="5.58673">
        <ele>653.35</ele>
        <time>2012-08-25T17:25:00Z</time>
      </trkpt>
      <trkpt lat="43.8316" lon="5.58695">
        <ele>652.39</ele>
        <time>2012-08-25T17:25:01Z</time>
      </trkpt>
      <trkpt lat="43.83158" lon="5.58772">
        <ele>649.03</ele>
        <time>2012-08-25T17:25:05Z</time>
      </trkpt>
      <trkpt lat="43.83154" lon="5.58788">
        <ele>648.55</ele>
        <time>2012-08-25T17:25:06Z</time>
      </trkpt>
      <trkpt lat="43.83146" lon="5.58803">
        <ele>647.59</ele>
        <time>2012-08-25T17:25:07Z</time>
      </trkpt>
      <trkpt lat="43.83139" lon="5.58816">
        <ele>647.1</ele>
        <time>2012-08-25T17:25:08Z</time>
      </trkpt>
      <trkpt lat="43.83132" lon="5.58829">
        <ele>646.62</ele>
        <time>2012-08-25T17:25:09Z</time>
      </trkpt>
      <trkpt lat="43.83128" lon="5.5884">
        <ele>645.66</ele>
        <time>2012-08-25T17:25:10Z</time>
      </trkpt>
      <trkpt lat="43.83126" lon="5.58852">
        <ele>645.18</ele>
        <time>2012-08-25T17:25:11Z</time>
      </trkpt>
      <trkpt lat="43.83128" lon="5.58866">
        <ele>644.22</ele>
        <time>2012-08-25T17:25:12Z</time>
      </trkpt>
      <trkpt lat="43.83133" lon="5.58881">
        <ele>643.74</ele>
        <time>2012-08-25T17:25:13Z</time>
      </trkpt>
      <trkpt lat="43.83137" lon="5.58897">
        <ele>642.78</ele>
        <time>2012-08-25T17:25:14Z</time>
      </trkpt>
      <trkpt lat="43.83139" lon="5.58912">
        <ele>641.82</ele>
        <time>2012-08-25T17:25:15Z</time>
      </trkpt>
      <trkpt lat="43.83139" lon="5.58927">
        <ele>641.34</ele>
        <time>2012-08-25T17:25:16Z</time>
      </trkpt>
      <trkpt lat="43.83136" lon="5.58942">
        <ele>640.86</ele>
        <time>2012-08-25T17:25:17Z</time>
      </trkpt>
      <trkpt lat="43.83131" lon="5.58956">
        <ele>639.89</ele>
        <time>2012-08-25T17:25:18Z</time>
      </trkpt>
      <trkpt lat="43.83123" lon="5.58969">
        <ele>639.41</ele>
        <time>2012-08-25T17:25:19Z</time>
      </trkpt>
      <trkpt lat="43.83113" lon="5.58984">
        <ele>638.45</ele>
        <time>2012-08-25T17:25:20Z</time>
      </trkpt>
      <trkpt lat="43.83048" lon="5.59068">
        <ele>631.72</ele>
        <time>2012-08-25T17:25:27Z</time>
      </trkpt>
      <trkpt lat="43.83046" lon="5.59075">
        <ele>630.76</ele>
        <time>2012-08-25T17:25:28Z</time>
      </trkpt>
      <trkpt lat="43.83057" lon="5.59091">
        <ele>630.76</ele>
        <time>2012-08-25T17:25:30Z</time>
      </trkpt>
      <trkpt lat="43.83065" lon="5.59095">
        <ele>630.28</ele>
        <time>2012-08-25T17:25:31Z</time>
      </trkpt>
      <trkpt lat="43.83076" lon="5.59098">
        <ele>630.28</ele>
        <time>2012-08-25T17:25:32Z</time>
      </trkpt>
      <trkpt lat="43.83088" lon="5.59099">
        <ele>630.28</ele>
        <time>2012-08-25T17:25:33Z</time>
      </trkpt>
      <trkpt lat="43.83102" lon="5.59098">
        <ele>629.8</ele>
        <time>2012-08-25T17:25:34Z</time>
      </trkpt>
      <trkpt lat="43.83117" lon="5.59096">
        <ele>629.32</ele>
        <time>2012-08-25T17:25:35Z</time>
      </trkpt>
      <trkpt lat="43.83185" lon="5.59094">
        <ele>625.47</ele>
        <time>2012-08-25T17:25:40Z</time>
      </trkpt>
      <trkpt lat="43.83197" lon="5.59098">
        <ele>624.99</ele>
        <time>2012-08-25T17:25:41Z</time>
      </trkpt>
      <trkpt lat="43.83208" lon="5.59102">
        <ele>624.51</ele>
        <time>2012-08-25T17:25:42Z</time>
      </trkpt>
      <trkpt lat="43.83214" lon="5.59109">
        <ele>624.51</ele>
        <time>2012-08-25T17:25:43Z</time>
      </trkpt>
      <trkpt lat="43.83219" lon="5.59121">
        <ele>624.51</ele>
        <time>2012-08-25T17:25:44Z</time>
      </trkpt>
      <trkpt lat="43.83222" lon="5.59134">
        <ele>624.03</ele>
        <time>2012-08-25T17:25:45Z</time>
      </trkpt>
      <trkpt lat="43.83223" lon="5.5915">
        <ele>623.55</ele>
        <time>2012-08-25T17:25:46Z</time>
      </trkpt>
      <trkpt lat="43.83226" lon="5.59167">
        <ele>623.07</ele>
        <time>2012-08-25T17:25:47Z</time>
      </trkpt>
      <trkpt lat="43.83231" lon="5.59183">
        <ele>622.59</ele>
        <time>2012-08-25T17:25:48Z</time>
      </trkpt>
      <trkpt lat="43.83239" lon="5.59199">
        <ele>622.11</ele>
        <time>2012-08-25T17:25:49Z</time>
      </trkpt>
      <trkpt lat="43.83248" lon="5.59215">
        <ele>621.63</ele>
        <time>2012-08-25T17:25:50Z</time>
      </trkpt>
      <trkpt lat="43.83258" lon="5.59231">
        <ele>620.67</ele>
        <time>2012-08-25T17:25:51Z</time>
      </trkpt>
      <trkpt lat="43.83281" lon="5.59273">
        <ele>618.26</ele>
        <time>2012-08-25T17:25:54Z</time>
      </trkpt>
      <trkpt lat="43.83285" lon="5.59287">
        <ele>617.78</ele>
        <time>2012-08-25T17:25:55Z</time>
      </trkpt>
      <trkpt lat="43.83287" lon="5.59302">
        <ele>616.82</ele>
        <time>2012-08-25T17:25:56Z</time>
      </trkpt>
      <trkpt lat="43.83295" lon="5.59424">
        <ele>612.02</ele>
        <time>2012-08-25T17:26:05Z</time>
      </trkpt>
      <trkpt lat="43.83294" lon="5.59431">
        <ele>611.54</ele>
        <time>2012-08-25T17:26:06Z</time>
      </trkpt>
      <trkpt lat="43.83292" lon="5.59442">
        <ele>611.06</ele>
        <time>2012-08-25T17:26:14Z</time>
      </trkpt>
      <trkpt lat="43.83294" lon="5.59447">
        <ele>612.5</ele>
        <time>2012-08-25T17:26:51Z</time>
      </trkpt>
      <trkpt lat="43.83303" lon="5.59484">
        <ele>610.57</ele>
        <time>2012-08-25T17:26:55Z</time>
      </trkpt>
      <trkpt lat="43.83312" lon="5.59607">
        <ele>606.25</ele>
        <time>2012-08-25T17:27:03Z</time>
      </trkpt>
      <trkpt lat="43.83313" lon="5.59707">
        <ele>602.4</ele>
        <time>2012-08-25T17:27:09Z</time>
      </trkpt>
      <trkpt lat="43.83311" lon="5.59722">
        <ele>601.92</ele>
        <time>2012-08-25T17:27:10Z</time>
      </trkpt>
      <trkpt lat="43.83303" lon="5.59767">
        <ele>600</ele>
        <time>2012-08-25T17:27:13Z</time>
      </trkpt>
      <trkpt lat="43.83302" lon="5.59783">
        <ele>599.04</ele>
        <time>2012-08-25T17:27:14Z</time>
      </trkpt>
      <trkpt lat="43.83292" lon="5.59936">
        <ele>593.27</ele>
        <time>2012-08-25T17:27:23Z</time>
      </trkpt>
      <trkpt lat="43.83288" lon="5.59948">
        <ele>592.31</ele>
        <time>2012-08-25T17:27:24Z</time>
      </trkpt>
      <trkpt lat="43.83283" lon="5.59957">
        <ele>592.31</ele>
        <time>2012-08-25T17:27:25Z</time>
      </trkpt>
      <trkpt lat="43.83276" lon="5.59963">
        <ele>591.83</ele>
        <time>2012-08-25T17:27:26Z</time>
      </trkpt>
      <trkpt lat="43.83267" lon="5.59966">
        <ele>591.35</ele>
        <time>2012-08-25T17:27:27Z</time>
      </trkpt>
      <trkpt lat="43.83258" lon="5.59969">
        <ele>591.35</ele>
        <time>2012-08-25T17:27:28Z</time>
      </trkpt>
      <trkpt lat="43.83248" lon="5.59971">
        <ele>590.87</ele>
        <time>2012-08-25T17:27:29Z</time>
      </trkpt>
      <trkpt lat="43.83238" lon="5.59974">
        <ele>590.39</ele>
        <time>2012-08-25T17:27:30Z</time>
      </trkpt>
      <trkpt lat="43.83231" lon="5.59979">
        <ele>589.91</ele>
        <time>2012-08-25T17:27:31Z</time>
      </trkpt>
      <trkpt lat="43.83225" lon="5.59985">
        <ele>588.95</ele>
        <time>2012-08-25T17:27:32Z</time>
      </trkpt>
      <trkpt lat="43.83224" lon="5.59992">
        <ele>588.46</ele>
        <time>2012-08-25T17:27:33Z</time>
      </trkpt>
      <trkpt lat="43.83225" lon="5.59998">
        <ele>587.5</ele>
        <time>2012-08-25T17:27:34Z</time>
      </trkpt>
      <trkpt lat="43.8323" lon="5.60003">
        <ele>587.02</ele>
        <time>2012-08-25T17:27:35Z</time>
      </trkpt>
      <trkpt lat="43.83237" lon="5.60007">
        <ele>586.54</ele>
        <time>2012-08-25T17:27:36Z</time>
      </trkpt>
      <trkpt lat="43.83245" lon="5.60011">
        <ele>586.06</ele>
        <time>2012-08-25T17:27:37Z</time>
      </trkpt>
      <trkpt lat="43.83263" lon="5.60024">
        <ele>584.62</ele>
        <time>2012-08-25T17:27:39Z</time>
      </trkpt>
      <trkpt lat="43.83272" lon="5.60033">
        <ele>583.66</ele>
        <time>2012-08-25T17:27:40Z</time>
      </trkpt>
      <trkpt lat="43.83279" lon="5.60043">
        <ele>582.7</ele>
        <time>2012-08-25T17:27:41Z</time>
      </trkpt>
      <trkpt lat="43.83284" lon="5.60055">
        <ele>581.73</ele>
        <time>2012-08-25T17:27:42Z</time>
      </trkpt>
      <trkpt lat="43.83287" lon="5.60067">
        <ele>581.25</ele>
        <time>2012-08-25T17:27:43Z</time>
      </trkpt>
      <trkpt lat="43.83288" lon="5.60082">
        <ele>580.77</ele>
        <time>2012-08-25T17:27:44Z</time>
      </trkpt>
      <trkpt lat="43.83288" lon="5.60098">
        <ele>580.29</ele>
        <time>2012-08-25T17:27:45Z</time>
      </trkpt>
      <trkpt lat="43.83286" lon="5.60267">
        <ele>573.56</ele>
        <time>2012-08-25T17:27:54Z</time>
      </trkpt>
      <trkpt lat="43.83283" lon="5.60284">
        <ele>572.12</ele>
        <time>2012-08-25T17:27:55Z</time>
      </trkpt>
      <trkpt lat="43.83279" lon="5.603">
        <ele>571.16</ele>
        <time>2012-08-25T17:27:56Z</time>
      </trkpt>
      <trkpt lat="43.83273" lon="5.60314">
        <ele>570.2</ele>
        <time>2012-08-25T17:27:57Z</time>
      </trkpt>
      <trkpt lat="43.83268" lon="5.60328">
        <ele>569.24</ele>
        <time>2012-08-25T17:27:58Z</time>
      </trkpt>
      <trkpt lat="43.83264" lon="5.60341">
        <ele>568.28</ele>
        <time>2012-08-25T17:27:59Z</time>
      </trkpt>
      <trkpt lat="43.83263" lon="5.60354">
        <ele>567.8</ele>
        <time>2012-08-25T17:28:00Z</time>
      </trkpt>
      <trkpt lat="43.83264" lon="5.60368">
        <ele>567.32</ele>
        <time>2012-08-25T17:28:01Z</time>
      </trkpt>
      <trkpt lat="43.83266" lon="5.60381">
        <ele>566.35</ele>
        <time>2012-08-25T17:28:02Z</time>
      </trkpt>
      <trkpt lat="43.83265" lon="5.60393">
        <ele>565.87</ele>
        <time>2012-08-25T17:28:03Z</time>
      </trkpt>
      <trkpt lat="43.83261" lon="5.60404">
        <ele>565.39</ele>
        <time>2012-08-25T17:28:04Z</time>
      </trkpt>
      <trkpt lat="43.83254" lon="5.60414">
        <ele>564.91</ele>
        <time>2012-08-25T17:28:05Z</time>
      </trkpt>
      <trkpt lat="43.83244" lon="5.60422">
        <ele>564.43</ele>
        <time>2012-08-25T17:28:06Z</time>
      </trkpt>
      <trkpt lat="43.83234" lon="5.60431">
        <ele>563.95</ele>
        <time>2012-08-25T17:28:07Z</time>
      </trkpt>
      <trkpt lat="43.83208" lon="5.60458">
        <ele>562.51</ele>
        <time>2012-08-25T17:28:10Z</time>
      </trkpt>
      <trkpt lat="43.83201" lon="5.60469">
        <ele>562.03</ele>
        <time>2012-08-25T17:28:11Z</time>
      </trkpt>
      <trkpt lat="43.83188" lon="5.6049">
        <ele>560.59</ele>
        <time>2012-08-25T17:28:13Z</time>
      </trkpt>
      <trkpt lat="43.83178" lon="5.60507">
        <ele>559.62</ele>
        <time>2012-08-25T17:28:15Z</time>
      </trkpt>
      <trkpt lat="43.83178" lon="5.60515">
        <ele>559.14</ele>
        <time>2012-08-25T17:28:16Z</time>
      </trkpt>
      <trkpt lat="43.83182" lon="5.6052">
        <ele>558.66</ele>
        <time>2012-08-25T17:28:17Z</time>
      </trkpt>
      <trkpt lat="43.83189" lon="5.60522">
        <ele>558.66</ele>
        <time>2012-08-25T17:28:18Z</time>
      </trkpt>
      <trkpt lat="43.83198" lon="5.60522">
        <ele>558.18</ele>
        <time>2012-08-25T17:28:19Z</time>
      </trkpt>
      <trkpt lat="43.83207" lon="5.60519">
        <ele>557.7</ele>
        <time>2012-08-25T17:28:20Z</time>
      </trkpt>
      <trkpt lat="43.83217" lon="5.60516">
        <ele>557.22</ele>
        <time>2012-08-25T17:28:21Z</time>
      </trkpt>
      <trkpt lat="43.83227" lon="5.60512">
        <ele>556.74</ele>
        <time>2012-08-25T17:28:22Z</time>
      </trkpt>
      <trkpt lat="43.83236" lon="5.6051">
        <ele>556.26</ele>
        <time>2012-08-25T17:28:23Z</time>
      </trkpt>
      <trkpt lat="43.83244" lon="5.6051">
        <ele>555.78</ele>
        <time>2012-08-25T17:28:24Z</time>
      </trkpt>
      <trkpt lat="43.83252" lon="5.60516">
        <ele>555.3</ele>
        <time>2012-08-25T17:28:25Z</time>
      </trkpt>
      <trkpt lat="43.83258" lon="5.60524">
        <ele>554.82</ele>
        <time>2012-08-25T17:28:26Z</time>
      </trkpt>
      <trkpt lat="43.83265" lon="5.60535">
        <ele>554.34</ele>
        <time>2012-08-25T17:28:27Z</time>
      </trkpt>
      <trkpt lat="43.83295" lon="5.60583">
        <ele>551.93</ele>
        <time>2012-08-25T17:28:31Z</time>
      </trkpt>
      <trkpt lat="43.83301" lon="5.60597">
        <ele>551.45</ele>
        <time>2012-08-25T17:28:32Z</time>
      </trkpt>
      <trkpt lat="43.83305" lon="5.60612">
        <ele>550.97</ele>
        <time>2012-08-25T17:28:33Z</time>
      </trkpt>
      <trkpt lat="43.83308" lon="5.60628">
        <ele>550.49</ele>
        <time>2012-08-25T17:28:34Z</time>
      </trkpt>
      <trkpt lat="43.83308" lon="5.60644">
        <ele>549.53</ele>
        <time>2012-08-25T17:28:35Z</time>
      </trkpt>
      <trkpt lat="43.83306" lon="5.6066">
        <ele>549.05</ele>
        <time>2012-08-25T17:28:36Z</time>
      </trkpt>
      <trkpt lat="43.83304" lon="5.60677">
        <ele>548.57</ele>
        <time>2012-08-25T17:28:37Z</time>
      </trkpt>
      <trkpt lat="43.83286" lon="5.60826">
        <ele>541.36</ele>
        <time>2012-08-25T17:28:46Z</time>
      </trkpt>
      <trkpt lat="43.83287" lon="5.60841">
        <ele>540.4</ele>
        <time>2012-08-25T17:28:47Z</time>
      </trkpt>
      <trkpt lat="43.83291" lon="5.60855">
        <ele>539.44</ele>
        <time>2012-08-25T17:28:48Z</time>
      </trkpt>
      <trkpt lat="43.83296" lon="5.60869">
        <ele>538.96</ele>
        <time>2012-08-25T17:28:49Z</time>
      </trkpt>
      <trkpt lat="43.83301" lon="5.60883">
        <ele>537.99</ele>
        <time>2012-08-25T17:28:50Z</time>
      </trkpt>
      <trkpt lat="43.83305" lon="5.60899">
        <ele>537.51</ele>
        <time>2012-08-25T17:28:51Z</time>
      </trkpt>
      <trkpt lat="43.83307" lon="5.60916">
        <ele>536.55</ele>
        <time>2012-08-25T17:28:52Z</time>
      </trkpt>
      <trkpt lat="43.83308" lon="5.60933">
        <ele>536.07</ele>
        <time>2012-08-25T17:28:53Z</time>
      </trkpt>
      <trkpt lat="43.83307" lon="5.60951">
        <ele>535.59</ele>
        <time>2012-08-25T17:28:54Z</time>
      </trkpt>
      <trkpt lat="43.83304" lon="5.60968">
        <ele>534.63</ele>
        <time>2012-08-25T17:28:55Z</time>
      </trkpt>
      <trkpt lat="43.833" lon="5.60985">
        <ele>534.15</ele>
        <time>2012-08-25T17:28:56Z</time>
      </trkpt>
      <trkpt lat="43.83292" lon="5.61016">
        <ele>533.19</ele>
        <time>2012-08-25T17:28:58Z</time>
      </trkpt>
      <trkpt lat="43.83287" lon="5.61029">
        <ele>532.71</ele>
        <time>2012-08-25T17:28:59Z</time>
      </trkpt>
      <trkpt lat="43.83281" lon="5.61041">
        <ele>531.75</ele>
        <time>2012-08-25T17:29:00Z</time>
      </trkpt>
      <trkpt lat="43.83276" lon="5.61051">
        <ele>531.27</ele>
        <time>2012-08-25T17:29:01Z</time>
      </trkpt>
      <trkpt lat="43.83274" lon="5.61063">
        <ele>530.79</ele>
        <time>2012-08-25T17:29:02Z</time>
      </trkpt>
      <trkpt lat="43.83275" lon="5.61074">
        <ele>529.82</ele>
        <time>2012-08-25T17:29:03Z</time>
      </trkpt>
      <trkpt lat="43.83278" lon="5.61088">
        <ele>528.86</ele>
        <time>2012-08-25T17:29:04Z</time>
      </trkpt>
      <trkpt lat="43.83282" lon="5.61104">
        <ele>528.38</ele>
        <time>2012-08-25T17:29:05Z</time>
      </trkpt>
      <trkpt lat="43.83283" lon="5.6112">
        <ele>527.42</ele>
        <time>2012-08-25T17:29:06Z</time>
      </trkpt>
      <trkpt lat="43.83283" lon="5.61136">
        <ele>526.94</ele>
        <time>2012-08-25T17:29:07Z</time>
      </trkpt>
      <trkpt lat="43.83281" lon="5.61152">
        <ele>526.46</ele>
        <time>2012-08-25T17:29:08Z</time>
      </trkpt>
      <trkpt lat="43.83278" lon="5.61166">
        <ele>525.98</ele>
        <time>2012-08-25T17:29:09Z</time>
      </trkpt>
      <trkpt lat="43.83273" lon="5.61179">
        <ele>525.98</ele>
        <time>2012-08-25T17:29:10Z</time>
      </trkpt>
      <trkpt lat="43.83268" lon="5.61191">
        <ele>525.5</ele>
        <time>2012-08-25T17:29:11Z</time>
      </trkpt>
      <trkpt lat="43.83263" lon="5.612">
        <ele>525.02</ele>
        <time>2012-08-25T17:29:12Z</time>
      </trkpt>
      <trkpt lat="43.83259" lon="5.6121">
        <ele>524.54</ele>
        <time>2012-08-25T17:29:13Z</time>
      </trkpt>
      <trkpt lat="43.83257" lon="5.61219">
        <ele>524.54</ele>
        <time>2012-08-25T17:29:14Z</time>
      </trkpt>
      <trkpt lat="43.83258" lon="5.61226">
        <ele>524.06</ele>
        <time>2012-08-25T17:29:15Z</time>
      </trkpt>
      <trkpt lat="43.83262" lon="5.61231">
        <ele>523.09</ele>
        <time>2012-08-25T17:29:16Z</time>
      </trkpt>
      <trkpt lat="43.83268" lon="5.61232">
        <ele>523.09</ele>
        <time>2012-08-25T17:29:17Z</time>
      </trkpt>
      <trkpt lat="43.83274" lon="5.61228">
        <ele>523.09</ele>
        <time>2012-08-25T17:29:18Z</time>
      </trkpt>
      <trkpt lat="43.8328" lon="5.61221">
        <ele>522.13</ele>
        <time>2012-08-25T17:29:19Z</time>
      </trkpt>
      <trkpt lat="43.83285" lon="5.61211">
        <ele>522.61</ele>
        <time>2012-08-25T17:29:20Z</time>
      </trkpt>
      <trkpt lat="43.8329" lon="5.61199">
        <ele>522.13</ele>
        <time>2012-08-25T17:29:21Z</time>
      </trkpt>
      <trkpt lat="43.83294" lon="5.61186">
        <ele>521.65</ele>
        <time>2012-08-25T17:29:22Z</time>
      </trkpt>
      <trkpt lat="43.83299" lon="5.61172">
        <ele>521.65</ele>
        <time>2012-08-25T17:29:23Z</time>
      </trkpt>
      <trkpt lat="43.83325" lon="5.61055">
        <ele>516.37</ele>
        <time>2012-08-25T17:29:31Z</time>
      </trkpt>
      <trkpt lat="43.83331" lon="5.61043">
        <ele>515.88</ele>
        <time>2012-08-25T17:29:32Z</time>
      </trkpt>
      <trkpt lat="43.83337" lon="5.61032">
        <ele>515.4</ele>
        <time>2012-08-25T17:29:33Z</time>
      </trkpt>
      <trkpt lat="43.83345" lon="5.61024">
        <ele>514.44</ele>
        <time>2012-08-25T17:29:34Z</time>
      </trkpt>
      <trkpt lat="43.83354" lon="5.61019">
        <ele>513</ele>
        <time>2012-08-25T17:29:35Z</time>
      </trkpt>
      <trkpt lat="43.83365" lon="5.61018">
        <ele>512.52</ele>
        <time>2012-08-25T17:29:36Z</time>
      </trkpt>
      <trkpt lat="43.83376" lon="5.61019">
        <ele>511.56</ele>
        <time>2012-08-25T17:29:37Z</time>
      </trkpt>
      <trkpt lat="43.83388" lon="5.61022">
        <ele>511.08</ele>
        <time>2012-08-25T17:29:38Z</time>
      </trkpt>
      <trkpt lat="43.83399" lon="5.61028">
        <ele>510.6</ele>
        <time>2012-08-25T17:29:39Z</time>
      </trkpt>
      <trkpt lat="43.8341" lon="5.61037">
        <ele>510.6</ele>
        <time>2012-08-25T17:29:40Z</time>
      </trkpt>
      <trkpt lat="43.83421" lon="5.61048">
        <ele>509.64</ele>
        <time>2012-08-25T17:29:41Z</time>
      </trkpt>
      <trkpt lat="43.83433" lon="5.61059">
        <ele>509.16</ele>
        <time>2012-08-25T17:29:42Z</time>
      </trkpt>
      <trkpt lat="43.83443" lon="5.61072">
        <ele>508.19</ele>
        <time>2012-08-25T17:29:43Z</time>
      </trkpt>
      <trkpt lat="43.83452" lon="5.61084">
        <ele>507.71</ele>
        <time>2012-08-25T17:29:44Z</time>
      </trkpt>
      <trkpt lat="43.83461" lon="5.61094">
        <ele>507.23</ele>
        <time>2012-08-25T17:29:45Z</time>
      </trkpt>
      <trkpt lat="43.8347" lon="5.61101">
        <ele>506.75</ele>
        <time>2012-08-25T17:29:46Z</time>
      </trkpt>
      <trkpt lat="43.8348" lon="5.61105">
        <ele>505.79</ele>
        <time>2012-08-25T17:29:47Z</time>
      </trkpt>
      <trkpt lat="43.83489" lon="5.61104">
        <ele>505.31</ele>
        <time>2012-08-25T17:29:48Z</time>
      </trkpt>
      <trkpt lat="43.83499" lon="5.611">
        <ele>505.31</ele>
        <time>2012-08-25T17:29:49Z</time>
      </trkpt>
      <trkpt lat="43.8351" lon="5.61092">
        <ele>504.83</ele>
        <time>2012-08-25T17:29:50Z</time>
      </trkpt>
      <trkpt lat="43.8352" lon="5.61082">
        <ele>503.87</ele>
        <time>2012-08-25T17:29:51Z</time>
      </trkpt>
      <trkpt lat="43.83529" lon="5.61073">
        <ele>504.35</ele>
        <time>2012-08-25T17:29:52Z</time>
      </trkpt>
      <trkpt lat="43.83546" lon="5.61058">
        <ele>503.87</ele>
        <time>2012-08-25T17:29:54Z</time>
      </trkpt>
      <trkpt lat="43.83555" lon="5.61055">
        <ele>502.91</ele>
        <time>2012-08-25T17:29:55Z</time>
      </trkpt>
      <trkpt lat="43.83563" lon="5.61057">
        <ele>502.43</ele>
        <time>2012-08-25T17:29:56Z</time>
      </trkpt>
      <trkpt lat="43.83571" lon="5.61063">
        <ele>502.43</ele>
        <time>2012-08-25T17:29:57Z</time>
      </trkpt>
      <trkpt lat="43.8358" lon="5.61066">
        <ele>501.46</ele>
        <time>2012-08-25T17:29:58Z</time>
      </trkpt>
      <trkpt lat="43.83588" lon="5.61065">
        <ele>501.46</ele>
        <time>2012-08-25T17:29:59Z</time>
      </trkpt>
      <trkpt lat="43.83596" lon="5.61062">
        <ele>500.02</ele>
        <time>2012-08-25T17:30:00Z</time>
      </trkpt>
      <trkpt lat="43.83604" lon="5.61053">
        <ele>498.58</ele>
        <time>2012-08-25T17:30:01Z</time>
      </trkpt>
      <trkpt lat="43.83605" lon="5.6104">
        <ele>497.62</ele>
        <time>2012-08-25T17:30:02Z</time>
      </trkpt>
      <trkpt lat="43.83607" lon="5.61028">
        <ele>497.14</ele>
        <time>2012-08-25T17:30:03Z</time>
      </trkpt>
      <trkpt lat="43.83608" lon="5.61016">
        <ele>497.14</ele>
        <time>2012-08-25T17:30:04Z</time>
      </trkpt>
      <trkpt lat="43.83612" lon="5.61006">
        <ele>496.18</ele>
        <time>2012-08-25T17:30:05Z</time>
      </trkpt>
      <trkpt lat="43.83618" lon="5.60998">
        <ele>494.74</ele>
        <time>2012-08-25T17:30:06Z</time>
      </trkpt>
      <trkpt lat="43.83625" lon="5.60993">
        <ele>493.77</ele>
        <time>2012-08-25T17:30:07Z</time>
      </trkpt>
      <trkpt lat="43.83631" lon="5.60991">
        <ele>492.81</ele>
        <time>2012-08-25T17:30:08Z</time>
      </trkpt>
      <trkpt lat="43.83639" lon="5.60992">
        <ele>491.85</ele>
        <time>2012-08-25T17:30:09Z</time>
      </trkpt>
      <trkpt lat="43.83645" lon="5.61001">
        <ele>491.37</ele>
        <time>2012-08-25T17:30:10Z</time>
      </trkpt>
      <trkpt lat="43.83651" lon="5.6101">
        <ele>491.37</ele>
        <time>2012-08-25T17:30:11Z</time>
      </trkpt>
      <trkpt lat="43.83655" lon="5.6102">
        <ele>490.89</ele>
        <time>2012-08-25T17:30:12Z</time>
      </trkpt>
      <trkpt lat="43.8366" lon="5.61029">
        <ele>490.89</ele>
        <time>2012-08-25T17:30:13Z</time>
      </trkpt>
      <trkpt lat="43.83665" lon="5.61035">
        <ele>490.89</ele>
        <time>2012-08-25T17:30:14Z</time>
      </trkpt>
      <trkpt lat="43.83671" lon="5.61039">
        <ele>490.89</ele>
        <time>2012-08-25T17:30:15Z</time>
      </trkpt>
      <trkpt lat="43.83677" lon="5.6104">
        <ele>490.41</ele>
        <time>2012-08-25T17:30:16Z</time>
      </trkpt>
      <trkpt lat="43.83684" lon="5.61037">
        <ele>490.89</ele>
        <time>2012-08-25T17:30:17Z</time>
      </trkpt>
      <trkpt lat="43.83691" lon="5.61031">
        <ele>489.93</ele>
        <time>2012-08-25T17:30:18Z</time>
      </trkpt>
      <trkpt lat="43.83698" lon="5.61022">
        <ele>488.97</ele>
        <time>2012-08-25T17:30:19Z</time>
      </trkpt>
      <trkpt lat="43.83703" lon="5.61011">
        <ele>488.49</ele>
        <time>2012-08-25T17:30:20Z</time>
      </trkpt>
      <trkpt lat="43.83707" lon="5.60999">
        <ele>488.49</ele>
        <time>2012-08-25T17:30:21Z</time>
      </trkpt>
      <trkpt lat="43.83711" lon="5.60988">
        <ele>487.53</ele>
        <time>2012-08-25T17:30:22Z</time>
      </trkpt>
      <trkpt lat="43.83714" lon="5.60978">
        <ele>487.05</ele>
        <time>2012-08-25T17:30:23Z</time>
      </trkpt>
      <trkpt lat="43.8372" lon="5.60969">
        <ele>486.56</ele>
        <time>2012-08-25T17:30:24Z</time>
      </trkpt>
      <trkpt lat="43.83726" lon="5.60963">
        <ele>485.6</ele>
        <time>2012-08-25T17:30:25Z</time>
      </trkpt>
      <trkpt lat="43.83734" lon="5.60959">
        <ele>485.12</ele>
        <time>2012-08-25T17:30:26Z</time>
      </trkpt>
      <trkpt lat="43.83741" lon="5.60953">
        <ele>485.12</ele>
        <time>2012-08-25T17:30:27Z</time>
      </trkpt>
      <trkpt lat="43.83747" lon="5.60943">
        <ele>484.16</ele>
        <time>2012-08-25T17:30:28Z</time>
      </trkpt>
      <trkpt lat="43.83752" lon="5.60931">
        <ele>483.68</ele>
        <time>2012-08-25T17:30:29Z</time>
      </trkpt>
      <trkpt lat="43.83759" lon="5.60918">
        <ele>483.2</ele>
        <time>2012-08-25T17:30:30Z</time>
      </trkpt>
      <trkpt lat="43.83769" lon="5.6089">
        <ele>482.72</ele>
        <time>2012-08-25T17:30:32Z</time>
      </trkpt>
      <trkpt lat="43.83791" lon="5.60821">
        <ele>480.32</ele>
        <time>2012-08-25T17:30:37Z</time>
      </trkpt>
      <trkpt lat="43.83791" lon="5.60809">
        <ele>480.32</ele>
        <time>2012-08-25T17:30:38Z</time>
      </trkpt>
      <trkpt lat="43.83788" lon="5.60796">
        <ele>479.84</ele>
        <time>2012-08-25T17:30:39Z</time>
      </trkpt>
      <trkpt lat="43.83774" lon="5.60742">
        <ele>476.95</ele>
        <time>2012-08-25T17:30:43Z</time>
      </trkpt>
      <trkpt lat="43.83768" lon="5.60733">
        <ele>476.47</ele>
        <time>2012-08-25T17:30:44Z</time>
      </trkpt>
      <trkpt lat="43.83758" lon="5.60729">
        <ele>475.99</ele>
        <time>2012-08-25T17:30:45Z</time>
      </trkpt>
      <trkpt lat="43.83749" lon="5.60727">
        <ele>475.51</ele>
        <time>2012-08-25T17:30:46Z</time>
      </trkpt>
      <trkpt lat="43.8374" lon="5.60723">
        <ele>475.03</ele>
        <time>2012-08-25T17:30:47Z</time>
      </trkpt>
      <trkpt lat="43.83732" lon="5.60714">
        <ele>474.55</ele>
        <time>2012-08-25T17:30:48Z</time>
      </trkpt>
      <trkpt lat="43.83727" lon="5.60702">
        <ele>473.59</ele>
        <time>2012-08-25T17:30:49Z</time>
      </trkpt>
      <trkpt lat="43.83722" lon="5.6069">
        <ele>472.63</ele>
        <time>2012-08-25T17:30:50Z</time>
      </trkpt>
      <trkpt lat="43.83716" lon="5.60681">
        <ele>472.63</ele>
        <time>2012-08-25T17:30:51Z</time>
      </trkpt>
      <trkpt lat="43.83708" lon="5.60675">
        <ele>471.66</ele>
        <time>2012-08-25T17:30:52Z</time>
      </trkpt>
      <trkpt lat="43.837" lon="5.60671">
        <ele>471.18</ele>
        <time>2012-08-25T17:30:53Z</time>
      </trkpt>
      <trkpt lat="43.83693" lon="5.60666">
        <ele>470.7</ele>
        <time>2012-08-25T17:30:54Z</time>
      </trkpt>
      <trkpt lat="43.83687" lon="5.6066">
        <ele>470.7</ele>
        <time>2012-08-25T17:30:55Z</time>
      </trkpt>
      <trkpt lat="43.83683" lon="5.60652">
        <ele>470.7</ele>
        <time>2012-08-25T17:30:56Z</time>
      </trkpt>
      <trkpt lat="43.83684" lon="5.60643">
        <ele>470.22</ele>
        <time>2012-08-25T17:30:57Z</time>
      </trkpt>
      <trkpt lat="43.83692" lon="5.60636">
        <ele>469.74</ele>
        <time>2012-08-25T17:30:58Z</time>
      </trkpt>
      <trkpt lat="43.83697" lon="5.60631">
        <ele>469.26</ele>
        <time>2012-08-25T17:30:59Z</time>
      </trkpt>
      <trkpt lat="43.83704" lon="5.60628">
        <ele>468.78</ele>
        <time>2012-08-25T17:31:00Z</time>
      </trkpt>
      <trkpt lat="43.83714" lon="5.60628">
        <ele>468.78</ele>
        <time>2012-08-25T17:31:01Z</time>
      </trkpt>
      <trkpt lat="43.83724" lon="5.60627">
        <ele>469.26</ele>
        <time>2012-08-25T17:31:02Z</time>
      </trkpt>
      <trkpt lat="43.83735" lon="5.60623">
        <ele>468.3</ele>
        <time>2012-08-25T17:31:03Z</time>
      </trkpt>
      <trkpt lat="43.83744" lon="5.60619">
        <ele>468.3</ele>
        <time>2012-08-25T17:31:04Z</time>
      </trkpt>
      <trkpt lat="43.83755" lon="5.60614">
        <ele>468.3</ele>
        <time>2012-08-25T17:31:05Z</time>
      </trkpt>
      <trkpt lat="43.83767" lon="5.60612">
        <ele>467.34</ele>
        <time>2012-08-25T17:31:06Z</time>
      </trkpt>
      <trkpt lat="43.83779" lon="5.60614">
        <ele>466.38</ele>
        <time>2012-08-25T17:31:07Z</time>
      </trkpt>
      <trkpt lat="43.83791" lon="5.60616">
        <ele>464.93</ele>
        <time>2012-08-25T17:31:08Z</time>
      </trkpt>
      <trkpt lat="43.83801" lon="5.60616">
        <ele>464.93</ele>
        <time>2012-08-25T17:31:09Z</time>
      </trkpt>
      <trkpt lat="43.83813" lon="5.60614">
        <ele>463.49</ele>
        <time>2012-08-25T17:31:10Z</time>
      </trkpt>
      <trkpt lat="43.83848" lon="5.60604">
        <ele>461.57</ele>
        <time>2012-08-25T17:31:13Z</time>
      </trkpt>
      <trkpt lat="43.83859" lon="5.60598">
        <ele>460.13</ele>
        <time>2012-08-25T17:31:14Z</time>
      </trkpt>
      <trkpt lat="43.8387" lon="5.60588">
        <ele>458.69</ele>
        <time>2012-08-25T17:31:15Z</time>
      </trkpt>
      <trkpt lat="43.83878" lon="5.60576">
        <ele>458.21</ele>
        <time>2012-08-25T17:31:16Z</time>
      </trkpt>
      <trkpt lat="43.83884" lon="5.60561">
        <ele>456.76</ele>
        <time>2012-08-25T17:31:17Z</time>
      </trkpt>
      <trkpt lat="43.8389" lon="5.60548">
        <ele>455.8</ele>
        <time>2012-08-25T17:31:18Z</time>
      </trkpt>
      <trkpt lat="43.83896" lon="5.60538">
        <ele>454.84</ele>
        <time>2012-08-25T17:31:19Z</time>
      </trkpt>
      <trkpt lat="43.83901" lon="5.60531">
        <ele>453.88</ele>
        <time>2012-08-25T17:31:20Z</time>
      </trkpt>
      <trkpt lat="43.83908" lon="5.6053">
        <ele>452.92</ele>
        <time>2012-08-25T17:31:21Z</time>
      </trkpt>
      <trkpt lat="43.83912" lon="5.60537">
        <ele>452.92</ele>
        <time>2012-08-25T17:31:22Z</time>
      </trkpt>
      <trkpt lat="43.83916" lon="5.60548">
        <ele>452.92</ele>
        <time>2012-08-25T17:31:23Z</time>
      </trkpt>
      <trkpt lat="43.8392" lon="5.60561">
        <ele>452.44</ele>
        <time>2012-08-25T17:31:24Z</time>
      </trkpt>
      <trkpt lat="43.83921" lon="5.60576">
        <ele>451.96</ele>
        <time>2012-08-25T17:31:25Z</time>
      </trkpt>
      <trkpt lat="43.83923" lon="5.60589">
        <ele>451.48</ele>
        <time>2012-08-25T17:31:26Z</time>
      </trkpt>
      <trkpt lat="43.83927" lon="5.60601">
        <ele>451</ele>
        <time>2012-08-25T17:31:27Z</time>
      </trkpt>
      <trkpt lat="43.83933" lon="5.60609">
        <ele>450.52</ele>
        <time>2012-08-25T17:31:28Z</time>
      </trkpt>
      <trkpt lat="43.83942" lon="5.60615">
        <ele>450.52</ele>
        <time>2012-08-25T17:31:29Z</time>
      </trkpt>
      <trkpt lat="43.83951" lon="5.60618">
        <ele>450.52</ele>
        <time>2012-08-25T17:31:30Z</time>
      </trkpt>
      <trkpt lat="43.83961" lon="5.60621">
        <ele>449.55</ele>
        <time>2012-08-25T17:31:31Z</time>
      </trkpt>
      <trkpt lat="43.83972" lon="5.60623">
        <ele>449.55</ele>
        <time>2012-08-25T17:31:32Z</time>
      </trkpt>
      <trkpt lat="43.8402" lon="5.60636">
        <ele>447.63</ele>
        <time>2012-08-25T17:31:36Z</time>
      </trkpt>
      <trkpt lat="43.84031" lon="5.60643">
        <ele>446.67</ele>
        <time>2012-08-25T17:31:37Z</time>
      </trkpt>
      <trkpt lat="43.84041" lon="5.60654">
        <ele>446.67</ele>
        <time>2012-08-25T17:31:38Z</time>
      </trkpt>
      <trkpt lat="43.84048" lon="5.60667">
        <ele>445.71</ele>
        <time>2012-08-25T17:31:39Z</time>
      </trkpt>
      <trkpt lat="43.84053" lon="5.60681">
        <ele>445.71</ele>
        <time>2012-08-25T17:31:40Z</time>
      </trkpt>
      <trkpt lat="43.84058" lon="5.60695">
        <ele>445.23</ele>
        <time>2012-08-25T17:31:41Z</time>
      </trkpt>
      <trkpt lat="43.84063" lon="5.60707">
        <ele>444.75</ele>
        <time>2012-08-25T17:31:42Z</time>
      </trkpt>
      <trkpt lat="43.8407" lon="5.60718">
        <ele>444.27</ele>
        <time>2012-08-25T17:31:43Z</time>
      </trkpt>
      <trkpt lat="43.84079" lon="5.60722">
        <ele>443.79</ele>
        <time>2012-08-25T17:31:44Z</time>
      </trkpt>
      <trkpt lat="43.84089" lon="5.60725">
        <ele>443.31</ele>
        <time>2012-08-25T17:31:45Z</time>
      </trkpt>
      <trkpt lat="43.84101" lon="5.60727">
        <ele>442.82</ele>
        <time>2012-08-25T17:31:46Z</time>
      </trkpt>
      <trkpt lat="43.84113" lon="5.60728">
        <ele>442.34</ele>
        <time>2012-08-25T17:31:47Z</time>
      </trkpt>
      <trkpt lat="43.84163" lon="5.60739">
        <ele>439.46</ele>
        <time>2012-08-25T17:31:51Z</time>
      </trkpt>
      <trkpt lat="43.84175" lon="5.60746">
        <ele>438.98</ele>
        <time>2012-08-25T17:31:52Z</time>
      </trkpt>
      <trkpt lat="43.84186" lon="5.60755">
        <ele>438.5</ele>
        <time>2012-08-25T17:31:53Z</time>
      </trkpt>
      <trkpt lat="43.84197" lon="5.60766">
        <ele>437.54</ele>
        <time>2012-08-25T17:31:54Z</time>
      </trkpt>
      <trkpt lat="43.84206" lon="5.60776">
        <ele>436.58</ele>
        <time>2012-08-25T17:31:55Z</time>
      </trkpt>
      <trkpt lat="43.84216" lon="5.60785">
        <ele>435.61</ele>
        <time>2012-08-25T17:31:56Z</time>
      </trkpt>
      <trkpt lat="43.84225" lon="5.60792">
        <ele>435.13</ele>
        <time>2012-08-25T17:31:57Z</time>
      </trkpt>
      <trkpt lat="43.84235" lon="5.60795">
        <ele>434.65</ele>
        <time>2012-08-25T17:31:58Z</time>
      </trkpt>
      <trkpt lat="43.84244" lon="5.60796">
        <ele>434.17</ele>
        <time>2012-08-25T17:31:59Z</time>
      </trkpt>
      <trkpt lat="43.84253" lon="5.60794">
        <ele>433.69</ele>
        <time>2012-08-25T17:32:00Z</time>
      </trkpt>
      <trkpt lat="43.84261" lon="5.60788">
        <ele>432.73</ele>
        <time>2012-08-25T17:32:01Z</time>
      </trkpt>
      <trkpt lat="43.84269" lon="5.6078">
        <ele>431.29</ele>
        <time>2012-08-25T17:32:02Z</time>
      </trkpt>
      <trkpt lat="43.84274" lon="5.60768">
        <ele>430.81</ele>
        <time>2012-08-25T17:32:03Z</time>
      </trkpt>
      <trkpt lat="43.8428" lon="5.60755">
        <ele>429.37</ele>
        <time>2012-08-25T17:32:04Z</time>
      </trkpt>
      <trkpt lat="43.84285" lon="5.60741">
        <ele>428.4</ele>
        <time>2012-08-25T17:32:05Z</time>
      </trkpt>
      <trkpt lat="43.84288" lon="5.60725">
        <ele>427.44</ele>
        <time>2012-08-25T17:32:06Z</time>
      </trkpt>
      <trkpt lat="43.84289" lon="5.60706">
        <ele>426.48</ele>
        <time>2012-08-25T17:32:07Z</time>
      </trkpt>
      <trkpt lat="43.84289" lon="5.60687">
        <ele>425.52</ele>
        <time>2012-08-25T17:32:08Z</time>
      </trkpt>
      <trkpt lat="43.84289" lon="5.60667">
        <ele>424.56</ele>
        <time>2012-08-25T17:32:09Z</time>
      </trkpt>
      <trkpt lat="43.8429" lon="5.6063">
        <ele>422.64</ele>
        <time>2012-08-25T17:32:11Z</time>
      </trkpt>
      <trkpt lat="43.84288" lon="5.60613">
        <ele>422.16</ele>
        <time>2012-08-25T17:32:12Z</time>
      </trkpt>
      <trkpt lat="43.84284" lon="5.60596">
        <ele>421.68</ele>
        <time>2012-08-25T17:32:13Z</time>
      </trkpt>
      <trkpt lat="43.84278" lon="5.60579">
        <ele>422.64</ele>
        <time>2012-08-25T17:32:14Z</time>
      </trkpt>
      <trkpt lat="43.84273" lon="5.60563">
        <ele>423.12</ele>
        <time>2012-08-25T17:32:15Z</time>
      </trkpt>
      <trkpt lat="43.84269" lon="5.60548">
        <ele>423.12</ele>
        <time>2012-08-25T17:32:16Z</time>
      </trkpt>
      <trkpt lat="43.84267" lon="5.60535">
        <ele>422.64</ele>
        <time>2012-08-25T17:32:17Z</time>
      </trkpt>
      <trkpt lat="43.84267" lon="5.60524">
        <ele>423.12</ele>
        <time>2012-08-25T17:32:18Z</time>
      </trkpt>
      <trkpt lat="43.8427" lon="5.60519">
        <ele>423.12</ele>
        <time>2012-08-25T17:32:19Z</time>
      </trkpt>
      <trkpt lat="43.84279" lon="5.60517">
        <ele>422.64</ele>
        <time>2012-08-25T17:32:20Z</time>
      </trkpt>
      <trkpt lat="43.84286" lon="5.60516">
        <ele>422.16</ele>
        <time>2012-08-25T17:32:21Z</time>
      </trkpt>
      <trkpt lat="43.84295" lon="5.60519">
        <ele>422.16</ele>
        <time>2012-08-25T17:32:22Z</time>
      </trkpt>
      <trkpt lat="43.84304" lon="5.60519">
        <ele>422.16</ele>
        <time>2012-08-25T17:32:23Z</time>
      </trkpt>
      <trkpt lat="43.84312" lon="5.60517">
        <ele>422.16</ele>
        <time>2012-08-25T17:32:24Z</time>
      </trkpt>
      <trkpt lat="43.84319" lon="5.6051">
        <ele>422.16</ele>
        <time>2012-08-25T17:32:25Z</time>
      </trkpt>
      <trkpt lat="43.84324" lon="5.60498">
        <ele>422.16</ele>
        <time>2012-08-25T17:32:26Z</time>
      </trkpt>
      <trkpt lat="43.84327" lon="5.60485">
        <ele>421.19</ele>
        <time>2012-08-25T17:32:27Z</time>
      </trkpt>
      <trkpt lat="43.84328" lon="5.60469">
        <ele>420.23</ele>
        <time>2012-08-25T17:32:28Z</time>
      </trkpt>
      <trkpt lat="43.84329" lon="5.6045">
        <ele>418.79</ele>
        <time>2012-08-25T17:32:29Z</time>
      </trkpt>
      <trkpt lat="43.8433" lon="5.60431">
        <ele>417.83</ele>
        <time>2012-08-25T17:32:30Z</time>
      </trkpt>
      <trkpt lat="43.84336" lon="5.60394">
        <ele>416.39</ele>
        <time>2012-08-25T17:32:32Z</time>
      </trkpt>
      <trkpt lat="43.84341" lon="5.60376">
        <ele>415.43</ele>
        <time>2012-08-25T17:32:33Z</time>
      </trkpt>
      <trkpt lat="43.84348" lon="5.60358">
        <ele>415.43</ele>
        <time>2012-08-25T17:32:34Z</time>
      </trkpt>
      <trkpt lat="43.84441" lon="5.60132">
        <ele>405.81</ele>
        <time>2012-08-25T17:32:46Z</time>
      </trkpt>
      <trkpt lat="43.84504" lon="5.59987">
        <ele>401.49</ele>
        <time>2012-08-25T17:32:55Z</time>
      </trkpt>
      <trkpt lat="43.84514" lon="5.59977">
        <ele>400.53</ele>
        <time>2012-08-25T17:32:56Z</time>
      </trkpt>
      <trkpt lat="43.84525" lon="5.5997">
        <ele>400.05</ele>
        <time>2012-08-25T17:32:57Z</time>
      </trkpt>
      <trkpt lat="43.84538" lon="5.59966">
        <ele>399.08</ele>
        <time>2012-08-25T17:32:58Z</time>
      </trkpt>
      <trkpt lat="43.84551" lon="5.59965">
        <ele>398.6</ele>
        <time>2012-08-25T17:32:59Z</time>
      </trkpt>
      <trkpt lat="43.84566" lon="5.59964">
        <ele>397.64</ele>
        <time>2012-08-25T17:33:00Z</time>
      </trkpt>
      <trkpt lat="43.84615" lon="5.5996">
        <ele>394.76</ele>
        <time>2012-08-25T17:33:04Z</time>
      </trkpt>
      <trkpt lat="43.84624" lon="5.59966">
        <ele>393.8</ele>
        <time>2012-08-25T17:33:05Z</time>
      </trkpt>
      <trkpt lat="43.84632" lon="5.59976">
        <ele>393.32</ele>
        <time>2012-08-25T17:33:06Z</time>
      </trkpt>
      <trkpt lat="43.84638" lon="5.59988">
        <ele>392.84</ele>
        <time>2012-08-25T17:33:07Z</time>
      </trkpt>
      <trkpt lat="43.84644" lon="5.60002">
        <ele>391.87</ele>
        <time>2012-08-25T17:33:08Z</time>
      </trkpt>
      <trkpt lat="43.8465" lon="5.60017">
        <ele>390.91</ele>
        <time>2012-08-25T17:33:09Z</time>
      </trkpt>
      <trkpt lat="43.84657" lon="5.60032">
        <ele>390.43</ele>
        <time>2012-08-25T17:33:10Z</time>
      </trkpt>
      <trkpt lat="43.84667" lon="5.60046">
        <ele>389.47</ele>
        <time>2012-08-25T17:33:11Z</time>
      </trkpt>
      <trkpt lat="43.84678" lon="5.60057">
        <ele>388.51</ele>
        <time>2012-08-25T17:33:12Z</time>
      </trkpt>
      <trkpt lat="43.84692" lon="5.60067">
        <ele>387.07</ele>
        <time>2012-08-25T17:33:13Z</time>
      </trkpt>
      <trkpt lat="43.84708" lon="5.60075">
        <ele>386.59</ele>
        <time>2012-08-25T17:33:14Z</time>
      </trkpt>
      <trkpt lat="43.84726" lon="5.60083">
        <ele>386.11</ele>
        <time>2012-08-25T17:33:15Z</time>
      </trkpt>
      <trkpt lat="43.84838" lon="5.60124">
        <ele>381.3</ele>
        <time>2012-08-25T17:33:22Z</time>
      </trkpt>
      <trkpt lat="43.8485" lon="5.60124">
        <ele>380.34</ele>
        <time>2012-08-25T17:33:23Z</time>
      </trkpt>
      <trkpt lat="43.84862" lon="5.6012">
        <ele>379.86</ele>
        <time>2012-08-25T17:33:24Z</time>
      </trkpt>
      <trkpt lat="43.84874" lon="5.60114">
        <ele>378.9</ele>
        <time>2012-08-25T17:33:25Z</time>
      </trkpt>
      <trkpt lat="43.84884" lon="5.60105">
        <ele>377.94</ele>
        <time>2012-08-25T17:33:26Z</time>
      </trkpt>
      <trkpt lat="43.84893" lon="5.60094">
        <ele>376.97</ele>
        <time>2012-08-25T17:33:27Z</time>
      </trkpt>
      <trkpt lat="43.84899" lon="5.60081">
        <ele>375.53</ele>
        <time>2012-08-25T17:33:28Z</time>
      </trkpt>
      <trkpt lat="43.84905" lon="5.60069">
        <ele>374.57</ele>
        <time>2012-08-25T17:33:29Z</time>
      </trkpt>
      <trkpt lat="43.84909" lon="5.60056">
        <ele>375.05</ele>
        <time>2012-08-25T17:33:30Z</time>
      </trkpt>
      <trkpt lat="43.84915" lon="5.60045">
        <ele>375.53</ele>
        <time>2012-08-25T17:33:31Z</time>
      </trkpt>
      <trkpt lat="43.84925" lon="5.6004">
        <ele>376.01</ele>
        <time>2012-08-25T17:33:32Z</time>
      </trkpt>
      <trkpt lat="43.84936" lon="5.60035">
        <ele>376.01</ele>
        <time>2012-08-25T17:33:33Z</time>
      </trkpt>
      <trkpt lat="43.85033" lon="5.59998">
        <ele>377.45</ele>
        <time>2012-08-25T17:33:41Z</time>
      </trkpt>
      <trkpt lat="43.85045" lon="5.59996">
        <ele>377.45</ele>
        <time>2012-08-25T17:33:42Z</time>
      </trkpt>
      <trkpt lat="43.85058" lon="5.59995">
        <ele>377.45</ele>
        <time>2012-08-25T17:33:43Z</time>
      </trkpt>
      <trkpt lat="43.85155" lon="5.59985">
        <ele>376.97</ele>
        <time>2012-08-25T17:33:50Z</time>
      </trkpt>
      <trkpt lat="43.85169" lon="5.5998">
        <ele>377.94</ele>
        <time>2012-08-25T17:33:51Z</time>
      </trkpt>
      <trkpt lat="43.85197" lon="5.59971">
        <ele>378.9</ele>
        <time>2012-08-25T17:33:53Z</time>
      </trkpt>
      <trkpt lat="43.8521" lon="5.59968">
        <ele>379.38</ele>
        <time>2012-08-25T17:33:54Z</time>
      </trkpt>
      <trkpt lat="43.85224" lon="5.59969">
        <ele>379.38</ele>
        <time>2012-08-25T17:33:55Z</time>
      </trkpt>
      <trkpt lat="43.85236" lon="5.5997">
        <ele>379.86</ele>
        <time>2012-08-25T17:33:56Z</time>
      </trkpt>
      <trkpt lat="43.85247" lon="5.59969">
        <ele>380.34</ele>
        <time>2012-08-25T17:33:57Z</time>
      </trkpt>
      <trkpt lat="43.85258" lon="5.59965">
        <ele>380.82</ele>
        <time>2012-08-25T17:33:58Z</time>
      </trkpt>
      <trkpt lat="43.85267" lon="5.59957">
        <ele>381.3</ele>
        <time>2012-08-25T17:33:59Z</time>
      </trkpt>
      <trkpt lat="43.85276" lon="5.59947">
        <ele>381.3</ele>
        <time>2012-08-25T17:34:00Z</time>
      </trkpt>
      <trkpt lat="43.85285" lon="5.59936">
        <ele>381.3</ele>
        <time>2012-08-25T17:34:01Z</time>
      </trkpt>
      <trkpt lat="43.85293" lon="5.59922">
        <ele>381.78</ele>
        <time>2012-08-25T17:34:02Z</time>
      </trkpt>
      <trkpt lat="43.85301" lon="5.59908">
        <ele>382.26</ele>
        <time>2012-08-25T17:34:03Z</time>
      </trkpt>
      <trkpt lat="43.85308" lon="5.59892">
        <ele>383.22</ele>
        <time>2012-08-25T17:34:04Z</time>
      </trkpt>
      <trkpt lat="43.85321" lon="5.5986">
        <ele>384.66</ele>
        <time>2012-08-25T17:34:06Z</time>
      </trkpt>
      <trkpt lat="43.85325" lon="5.59842">
        <ele>385.15</ele>
        <time>2012-08-25T17:34:07Z</time>
      </trkpt>
      <trkpt lat="43.85328" lon="5.59823">
        <ele>385.63</ele>
        <time>2012-08-25T17:34:08Z</time>
      </trkpt>
      <trkpt lat="43.85344" lon="5.59724">
        <ele>386.59</ele>
        <time>2012-08-25T17:34:13Z</time>
      </trkpt>
      <trkpt lat="43.85383" lon="5.5961">
        <ele>392.84</ele>
        <time>2012-08-25T17:34:19Z</time>
      </trkpt>
      <trkpt lat="43.85387" lon="5.59591">
        <ele>393.8</ele>
        <time>2012-08-25T17:34:20Z</time>
      </trkpt>
      <trkpt lat="43.85431" lon="5.59398">
        <ele>398.12</ele>
        <time>2012-08-25T17:34:30Z</time>
      </trkpt>
      <trkpt lat="43.85484" lon="5.59252">
        <ele>396.68</ele>
        <time>2012-08-25T17:34:39Z</time>
      </trkpt>
      <trkpt lat="43.85558" lon="5.59147">
        <ele>389.47</ele>
        <time>2012-08-25T17:34:48Z</time>
      </trkpt>
      <trkpt lat="43.85565" lon="5.59137">
        <ele>388.51</ele>
        <time>2012-08-25T17:34:50Z</time>
      </trkpt>
      <trkpt lat="43.85568" lon="5.5913">
        <ele>388.03</ele>
        <time>2012-08-25T17:34:51Z</time>
      </trkpt>
      <trkpt lat="43.85568" lon="5.59121">
        <ele>388.03</ele>
        <time>2012-08-25T17:34:52Z</time>
      </trkpt>
      <trkpt lat="43.85567" lon="5.59111">
        <ele>388.03</ele>
        <time>2012-08-25T17:34:53Z</time>
      </trkpt>
      <trkpt lat="43.85564" lon="5.59101">
        <ele>387.55</ele>
        <time>2012-08-25T17:34:54Z</time>
      </trkpt>
      <trkpt lat="43.85558" lon="5.59059">
        <ele>388.51</ele>
        <time>2012-08-25T17:34:57Z</time>
      </trkpt>
      <trkpt lat="43.85559" lon="5.59044">
        <ele>388.51</ele>
        <time>2012-08-25T17:34:58Z</time>
      </trkpt>
      <trkpt lat="43.85579" lon="5.58851">
        <ele>395.24</ele>
        <time>2012-08-25T17:35:10Z</time>
      </trkpt>
      <trkpt lat="43.85584" lon="5.58801">
        <ele>396.68</ele>
        <time>2012-08-25T17:35:14Z</time>
      </trkpt>
      <trkpt lat="43.85587" lon="5.58792">
        <ele>397.16</ele>
        <time>2012-08-25T17:35:15Z</time>
      </trkpt>
      <trkpt lat="43.85592" lon="5.58785">
        <ele>397.64</ele>
        <time>2012-08-25T17:35:16Z</time>
      </trkpt>
      <trkpt lat="43.85598" lon="5.58781">
        <ele>398.12</ele>
        <time>2012-08-25T17:35:17Z</time>
      </trkpt>
      <trkpt lat="43.85604" lon="5.58779">
        <ele>399.08</ele>
        <time>2012-08-25T17:35:18Z</time>
      </trkpt>
      <trkpt lat="43.85612" lon="5.58779">
        <ele>398.6</ele>
        <time>2012-08-25T17:35:19Z</time>
      </trkpt>
      <trkpt lat="43.85653" lon="5.58781">
        <ele>398.6</ele>
        <time>2012-08-25T17:35:24Z</time>
      </trkpt>
      <trkpt lat="43.85661" lon="5.58785">
        <ele>398.12</ele>
        <time>2012-08-25T17:35:25Z</time>
      </trkpt>
      <trkpt lat="43.85684" lon="5.58798">
        <ele>397.64</ele>
        <time>2012-08-25T17:35:28Z</time>
      </trkpt>
      <trkpt lat="43.8569" lon="5.58802">
        <ele>397.16</ele>
        <time>2012-08-25T17:35:29Z</time>
      </trkpt>
      <trkpt lat="43.85695" lon="5.58807">
        <ele>396.68</ele>
        <time>2012-08-25T17:35:30Z</time>
      </trkpt>
      <trkpt lat="43.85701" lon="5.58809">
        <ele>396.2</ele>
        <time>2012-08-25T17:35:31Z</time>
      </trkpt>
      <trkpt lat="43.85708" lon="5.5881">
        <ele>395.72</ele>
        <time>2012-08-25T17:35:32Z</time>
      </trkpt>
      <trkpt lat="43.85716" lon="5.58809">
        <ele>395.72</ele>
        <time>2012-08-25T17:35:33Z</time>
      </trkpt>
      <trkpt lat="43.85724" lon="5.58805">
        <ele>395.72</ele>
        <time>2012-08-25T17:35:34Z</time>
      </trkpt>
      <trkpt lat="43.85743" lon="5.58792">
        <ele>394.76</ele>
        <time>2012-08-25T17:35:36Z</time>
      </trkpt>
      <trkpt lat="43.85753" lon="5.58783">
        <ele>394.28</ele>
        <time>2012-08-25T17:35:37Z</time>
      </trkpt>
      <trkpt lat="43.85761" lon="5.58772">
        <ele>393.8</ele>
        <time>2012-08-25T17:35:38Z</time>
      </trkpt>
      <trkpt lat="43.85768" lon="5.5876">
        <ele>393.32</ele>
        <time>2012-08-25T17:35:39Z</time>
      </trkpt>
      <trkpt lat="43.85774" lon="5.58745">
        <ele>393.32</ele>
        <time>2012-08-25T17:35:40Z</time>
      </trkpt>
      <trkpt lat="43.8578" lon="5.58729">
        <ele>392.84</ele>
        <time>2012-08-25T17:35:41Z</time>
      </trkpt>
      <trkpt lat="43.85835" lon="5.58634">
        <ele>391.39</ele>
        <time>2012-08-25T17:35:47Z</time>
      </trkpt>
      <trkpt lat="43.85847" lon="5.58623">
        <ele>390.91</ele>
        <time>2012-08-25T17:35:48Z</time>
      </trkpt>
      <trkpt lat="43.85944" lon="5.58526">
        <ele>387.55</ele>
        <time>2012-08-25T17:35:55Z</time>
      </trkpt>
      <trkpt lat="43.85965" lon="5.58497">
        <ele>384.18</ele>
        <time>2012-08-25T17:35:57Z</time>
      </trkpt>
      <trkpt lat="43.85972" lon="5.58483">
        <ele>383.22</ele>
        <time>2012-08-25T17:35:58Z</time>
      </trkpt>
      <trkpt lat="43.85977" lon="5.58465">
        <ele>382.26</ele>
        <time>2012-08-25T17:35:59Z</time>
      </trkpt>
      <trkpt lat="43.85978" lon="5.58445">
        <ele>381.3</ele>
        <time>2012-08-25T17:36:00Z</time>
      </trkpt>
      <trkpt lat="43.85978" lon="5.58424">
        <ele>380.34</ele>
        <time>2012-08-25T17:36:01Z</time>
      </trkpt>
      <trkpt lat="43.85977" lon="5.584">
        <ele>379.38</ele>
        <time>2012-08-25T17:36:02Z</time>
      </trkpt>
      <trkpt lat="43.85978" lon="5.58351">
        <ele>377.94</ele>
        <time>2012-08-25T17:36:04Z</time>
      </trkpt>
      <trkpt lat="43.85981" lon="5.58325">
        <ele>377.45</ele>
        <time>2012-08-25T17:36:05Z</time>
      </trkpt>
      <trkpt lat="43.85986" lon="5.583">
        <ele>377.45</ele>
        <time>2012-08-25T17:36:06Z</time>
      </trkpt>
      <trkpt lat="43.86002" lon="5.58228">
        <ele>376.49</ele>
        <time>2012-08-25T17:36:09Z</time>
      </trkpt>
      <trkpt lat="43.86004" lon="5.58203">
        <ele>376.49</ele>
        <time>2012-08-25T17:36:10Z</time>
      </trkpt>
      <trkpt lat="43.86005" lon="5.58177">
        <ele>375.53</ele>
        <time>2012-08-25T17:36:11Z</time>
      </trkpt>
      <trkpt lat="43.86021" lon="5.57975">
        <ele>374.09</ele>
        <time>2012-08-25T17:36:18Z</time>
      </trkpt>
      <trkpt lat="43.8603" lon="5.57804">
        <ele>373.61</ele>
        <time>2012-08-25T17:36:24Z</time>
      </trkpt>
      <trkpt lat="43.86027" lon="5.57775">
        <ele>373.61</ele>
        <time>2012-08-25T17:36:25Z</time>
      </trkpt>
      <trkpt lat="43.86017" lon="5.57687">
        <ele>373.13</ele>
        <time>2012-08-25T17:36:28Z</time>
      </trkpt>
      <trkpt lat="43.86017" lon="5.57657">
        <ele>373.13</ele>
        <time>2012-08-25T17:36:29Z</time>
      </trkpt>
      <trkpt lat="43.8602" lon="5.57626">
        <ele>372.65</ele>
        <time>2012-08-25T17:36:30Z</time>
      </trkpt>
      <trkpt lat="43.86024" lon="5.57594">
        <ele>372.65</ele>
        <time>2012-08-25T17:36:31Z</time>
      </trkpt>
      <trkpt lat="43.86028" lon="5.57563">
        <ele>372.17</ele>
        <time>2012-08-25T17:36:32Z</time>
      </trkpt>
      <trkpt lat="43.86037" lon="5.57379">
        <ele>370.73</ele>
        <time>2012-08-25T17:36:38Z</time>
      </trkpt>
      <trkpt lat="43.86031" lon="5.57319">
        <ele>370.24</ele>
        <time>2012-08-25T17:36:40Z</time>
      </trkpt>
      <trkpt lat="43.86026" lon="5.5729">
        <ele>369.76</ele>
        <time>2012-08-25T17:36:41Z</time>
      </trkpt>
      <trkpt lat="43.86018" lon="5.5726">
        <ele>369.28</ele>
        <time>2012-08-25T17:36:42Z</time>
      </trkpt>
      <trkpt lat="43.86008" lon="5.57232">
        <ele>368.8</ele>
        <time>2012-08-25T17:36:43Z</time>
      </trkpt>
      <trkpt lat="43.85992" lon="5.57206">
        <ele>368.32</ele>
        <time>2012-08-25T17:36:44Z</time>
      </trkpt>
      <trkpt lat="43.85975" lon="5.57186">
        <ele>367.84</ele>
        <time>2012-08-25T17:36:45Z</time>
      </trkpt>
      <trkpt lat="43.85959" lon="5.57168">
        <ele>367.84</ele>
        <time>2012-08-25T17:36:46Z</time>
      </trkpt>
      <trkpt lat="43.85942" lon="5.57149">
        <ele>366.88</ele>
        <time>2012-08-25T17:36:47Z</time>
      </trkpt>
      <trkpt lat="43.8587" lon="5.57009">
        <ele>364.48</ele>
        <time>2012-08-25T17:36:53Z</time>
      </trkpt>
      <trkpt lat="43.85865" lon="5.56983">
        <ele>363.52</ele>
        <time>2012-08-25T17:36:54Z</time>
      </trkpt>
      <trkpt lat="43.85864" lon="5.56956">
        <ele>363.52</ele>
        <time>2012-08-25T17:36:55Z</time>
      </trkpt>
      <trkpt lat="43.85865" lon="5.56928">
        <ele>363.04</ele>
        <time>2012-08-25T17:36:56Z</time>
      </trkpt>
      <trkpt lat="43.85867" lon="5.56899">
        <ele>362.55</ele>
        <time>2012-08-25T17:36:57Z</time>
      </trkpt>
      <trkpt lat="43.85881" lon="5.56754">
        <ele>360.15</ele>
        <time>2012-08-25T17:37:02Z</time>
      </trkpt>
      <trkpt lat="43.8588" lon="5.56726">
        <ele>360.15</ele>
        <time>2012-08-25T17:37:03Z</time>
      </trkpt>
      <trkpt lat="43.85876" lon="5.56698">
        <ele>359.67</ele>
        <time>2012-08-25T17:37:04Z</time>
      </trkpt>
      <trkpt lat="43.85869" lon="5.56671">
        <ele>358.71</ele>
        <time>2012-08-25T17:37:05Z</time>
      </trkpt>
      <trkpt lat="43.85858" lon="5.56645">
        <ele>358.71</ele>
        <time>2012-08-25T17:37:06Z</time>
      </trkpt>
      <trkpt lat="43.85844" lon="5.5662">
        <ele>357.75</ele>
        <time>2012-08-25T17:37:07Z</time>
      </trkpt>
      <trkpt lat="43.8583" lon="5.56597">
        <ele>356.79</ele>
        <time>2012-08-25T17:37:08Z</time>
      </trkpt>
      <trkpt lat="43.85814" lon="5.56575">
        <ele>355.34</ele>
        <time>2012-08-25T17:37:09Z</time>
      </trkpt>
      <trkpt lat="43.85762" lon="5.56515">
        <ele>352.46</ele>
        <time>2012-08-25T17:37:12Z</time>
      </trkpt>
      <trkpt lat="43.85743" lon="5.565">
        <ele>351.5</ele>
        <time>2012-08-25T17:37:13Z</time>
      </trkpt>
      <trkpt lat="43.85722" lon="5.56488">
        <ele>350.06</ele>
        <time>2012-08-25T17:37:14Z</time>
      </trkpt>
      <trkpt lat="43.85701" lon="5.56479">
        <ele>349.1</ele>
        <time>2012-08-25T17:37:15Z</time>
      </trkpt>
      <trkpt lat="43.8568" lon="5.56473">
        <ele>348.13</ele>
        <time>2012-08-25T17:37:16Z</time>
      </trkpt>
      <trkpt lat="43.85659" lon="5.56468">
        <ele>347.17</ele>
        <time>2012-08-25T17:37:17Z</time>
      </trkpt>
      <trkpt lat="43.85623" lon="5.56459">
        <ele>345.25</ele>
        <time>2012-08-25T17:37:19Z</time>
      </trkpt>
      <trkpt lat="43.85608" lon="5.5645">
        <ele>344.77</ele>
        <time>2012-08-25T17:37:20Z</time>
      </trkpt>
      <trkpt lat="43.85595" lon="5.5644">
        <ele>343.81</ele>
        <time>2012-08-25T17:37:21Z</time>
      </trkpt>
      <trkpt lat="43.85586" lon="5.56427">
        <ele>342.85</ele>
        <time>2012-08-25T17:37:22Z</time>
      </trkpt>
      <trkpt lat="43.8558" lon="5.5641">
        <ele>341.89</ele>
        <time>2012-08-25T17:37:23Z</time>
      </trkpt>
      <trkpt lat="43.8558" lon="5.5639">
        <ele>341.41</ele>
        <time>2012-08-25T17:37:24Z</time>
      </trkpt>
      <trkpt lat="43.85584" lon="5.5637">
        <ele>341.41</ele>
        <time>2012-08-25T17:37:25Z</time>
      </trkpt>
      <trkpt lat="43.85592" lon="5.56351">
        <ele>340.92</ele>
        <time>2012-08-25T17:37:26Z</time>
      </trkpt>
      <trkpt lat="43.85603" lon="5.56334">
        <ele>339.96</ele>
        <time>2012-08-25T17:37:27Z</time>
      </trkpt>
      <trkpt lat="43.85617" lon="5.56317">
        <ele>339</ele>
        <time>2012-08-25T17:37:28Z</time>
      </trkpt>
      <trkpt lat="43.85631" lon="5.56298">
        <ele>338.52</ele>
        <time>2012-08-25T17:37:29Z</time>
      </trkpt>
      <trkpt lat="43.85754" lon="5.56126">
        <ele>334.2</ele>
        <time>2012-08-25T17:37:37Z</time>
      </trkpt>
      <trkpt lat="43.85779" lon="5.56085">
        <ele>333.71</ele>
        <time>2012-08-25T17:37:39Z</time>
      </trkpt>
      <trkpt lat="43.85789" lon="5.56062">
        <ele>333.23</ele>
        <time>2012-08-25T17:37:40Z</time>
      </trkpt>
      <trkpt lat="43.85795" lon="5.56038">
        <ele>332.75</ele>
        <time>2012-08-25T17:37:41Z</time>
      </trkpt>
      <trkpt lat="43.85798" lon="5.56011">
        <ele>332.27</ele>
        <time>2012-08-25T17:37:42Z</time>
      </trkpt>
      <trkpt lat="43.85799" lon="5.55983">
        <ele>332.27</ele>
        <time>2012-08-25T17:37:43Z</time>
      </trkpt>
      <trkpt lat="43.85801" lon="5.55955">
        <ele>331.79</ele>
        <time>2012-08-25T17:37:44Z</time>
      </trkpt>
      <trkpt lat="43.85815" lon="5.5584">
        <ele>333.23</ele>
        <time>2012-08-25T17:37:48Z</time>
      </trkpt>
      <trkpt lat="43.85816" lon="5.55811">
        <ele>333.71</ele>
        <time>2012-08-25T17:37:49Z</time>
      </trkpt>
      <trkpt lat="43.85816" lon="5.55784">
        <ele>334.68</ele>
        <time>2012-08-25T17:37:50Z</time>
      </trkpt>
      <trkpt lat="43.85814" lon="5.55758">
        <ele>335.16</ele>
        <time>2012-08-25T17:37:51Z</time>
      </trkpt>
      <trkpt lat="43.85812" lon="5.55734">
        <ele>335.16</ele>
        <time>2012-08-25T17:37:52Z</time>
      </trkpt>
      <trkpt lat="43.85808" lon="5.5571">
        <ele>335.64</ele>
        <time>2012-08-25T17:37:53Z</time>
      </trkpt>
      <trkpt lat="43.85802" lon="5.55687">
        <ele>335.64</ele>
        <time>2012-08-25T17:37:54Z</time>
      </trkpt>
      <trkpt lat="43.85795" lon="5.55664">
        <ele>336.12</ele>
        <time>2012-08-25T17:37:55Z</time>
      </trkpt>
      <trkpt lat="43.85786" lon="5.55639">
        <ele>336.12</ele>
        <time>2012-08-25T17:37:56Z</time>
      </trkpt>
      <trkpt lat="43.85715" lon="5.5543">
        <ele>335.64</ele>
        <time>2012-08-25T17:38:03Z</time>
      </trkpt>
      <trkpt lat="43.85621" lon="5.55262">
        <ele>334.68</ele>
        <time>2012-08-25T17:38:09Z</time>
      </trkpt>
      <trkpt lat="43.8558" lon="5.55186">
        <ele>333.71</ele>
        <time>2012-08-25T17:38:12Z</time>
      </trkpt>
      <trkpt lat="43.8557" lon="5.55157">
        <ele>333.71</ele>
        <time>2012-08-25T17:38:13Z</time>
      </trkpt>
      <trkpt lat="43.85562" lon="5.55126">
        <ele>333.23</ele>
        <time>2012-08-25T17:38:14Z</time>
      </trkpt>
      <trkpt lat="43.85473" lon="5.54805">
        <ele>330.83</ele>
        <time>2012-08-25T17:38:24Z</time>
      </trkpt>
      <trkpt lat="43.8539" lon="5.54511">
        <ele>330.83</ele>
        <time>2012-08-25T17:38:33Z</time>
      </trkpt>
      <trkpt lat="43.85368" lon="5.54279">
        <ele>329.39</ele>
        <time>2012-08-25T17:38:40Z</time>
      </trkpt>
      <trkpt lat="43.8535" lon="5.5418">
        <ele>328.43</ele>
        <time>2012-08-25T17:38:43Z</time>
      </trkpt>
      <trkpt lat="43.8534" lon="5.54149">
        <ele>327.95</ele>
        <time>2012-08-25T17:38:44Z</time>
      </trkpt>
      <trkpt lat="43.85246" lon="5.53908">
        <ele>326.02</ele>
        <time>2012-08-25T17:38:52Z</time>
      </trkpt>
      <trkpt lat="43.85176" lon="5.536">
        <ele>324.1</ele>
        <time>2012-08-25T17:39:02Z</time>
      </trkpt>
      <trkpt lat="43.85172" lon="5.53247">
        <ele>319.78</ele>
        <time>2012-08-25T17:39:13Z</time>
      </trkpt>
      <trkpt lat="43.85176" lon="5.53216">
        <ele>319.78</ele>
        <time>2012-08-25T17:39:14Z</time>
      </trkpt>
      <trkpt lat="43.85182" lon="5.53186">
        <ele>320.26</ele>
        <time>2012-08-25T17:39:15Z</time>
      </trkpt>
      <trkpt lat="43.85188" lon="5.53156">
        <ele>320.74</ele>
        <time>2012-08-25T17:39:16Z</time>
      </trkpt>
      <trkpt lat="43.85192" lon="5.53125">
        <ele>320.74</ele>
        <time>2012-08-25T17:39:17Z</time>
      </trkpt>
      <trkpt lat="43.85194" lon="5.53094">
        <ele>320.74</ele>
        <time>2012-08-25T17:39:18Z</time>
      </trkpt>
      <trkpt lat="43.85193" lon="5.52891">
        <ele>319.3</ele>
        <time>2012-08-25T17:39:25Z</time>
      </trkpt>
      <trkpt lat="43.85188" lon="5.52864">
        <ele>318.81</ele>
        <time>2012-08-25T17:39:26Z</time>
      </trkpt>
      <trkpt lat="43.85147" lon="5.52692">
        <ele>318.33</ele>
        <time>2012-08-25T17:39:33Z</time>
      </trkpt>
      <trkpt lat="43.85144" lon="5.52668">
        <ele>318.81</ele>
        <time>2012-08-25T17:39:34Z</time>
      </trkpt>
      <trkpt lat="43.85143" lon="5.52644">
        <ele>318.81</ele>
        <time>2012-08-25T17:39:35Z</time>
      </trkpt>
      <trkpt lat="43.85147" lon="5.52573">
        <ele>318.81</ele>
        <time>2012-08-25T17:39:38Z</time>
      </trkpt>
      <trkpt lat="43.85151" lon="5.5255">
        <ele>318.81</ele>
        <time>2012-08-25T17:39:39Z</time>
      </trkpt>
      <trkpt lat="43.85174" lon="5.52402">
        <ele>319.3</ele>
        <time>2012-08-25T17:39:46Z</time>
      </trkpt>
      <trkpt lat="43.85174" lon="5.5238">
        <ele>319.3</ele>
        <time>2012-08-25T17:39:47Z</time>
      </trkpt>
      <trkpt lat="43.85163" lon="5.52235">
        <ele>318.33</ele>
        <time>2012-08-25T17:39:54Z</time>
      </trkpt>
      <trkpt lat="43.85165" lon="5.52216">
        <ele>318.33</ele>
        <time>2012-08-25T17:39:55Z</time>
      </trkpt>
      <trkpt lat="43.85169" lon="5.52197">
        <ele>318.33</ele>
        <time>2012-08-25T17:39:56Z</time>
      </trkpt>
      <trkpt lat="43.85217" lon="5.51983">
        <ele>317.85</ele>
        <time>2012-08-25T17:40:08Z</time>
      </trkpt>
      <trkpt lat="43.85254" lon="5.51827">
        <ele>316.89</ele>
        <time>2012-08-25T17:40:17Z</time>
      </trkpt>
      <trkpt lat="43.8527" lon="5.51757">
        <ele>316.41</ele>
        <time>2012-08-25T17:40:20Z</time>
      </trkpt>
      <trkpt lat="43.85279" lon="5.51734">
        <ele>316.41</ele>
        <time>2012-08-25T17:40:21Z</time>
      </trkpt>
      <trkpt lat="43.8529" lon="5.51713">
        <ele>315.93</ele>
        <time>2012-08-25T17:40:22Z</time>
      </trkpt>
      <trkpt lat="43.85303" lon="5.51692">
        <ele>315.93</ele>
        <time>2012-08-25T17:40:23Z</time>
      </trkpt>
      <trkpt lat="43.85317" lon="5.5167">
        <ele>315.45</ele>
        <time>2012-08-25T17:40:24Z</time>
      </trkpt>
      <trkpt lat="43.8536" lon="5.51569">
        <ele>313.53</ele>
        <time>2012-08-25T17:40:28Z</time>
      </trkpt>
      <trkpt lat="43.85365" lon="5.5154">
        <ele>313.05</ele>
        <time>2012-08-25T17:40:29Z</time>
      </trkpt>
      <trkpt lat="43.85368" lon="5.5151">
        <ele>313.05</ele>
        <time>2012-08-25T17:40:30Z</time>
      </trkpt>
      <trkpt lat="43.85368" lon="5.51478">
        <ele>313.05</ele>
        <time>2012-08-25T17:40:31Z</time>
      </trkpt>
      <trkpt lat="43.85368" lon="5.51445">
        <ele>313.53</ele>
        <time>2012-08-25T17:40:32Z</time>
      </trkpt>
      <trkpt lat="43.85355" lon="5.51148">
        <ele>311.12</ele>
        <time>2012-08-25T17:40:42Z</time>
      </trkpt>
      <trkpt lat="43.85317" lon="5.51021">
        <ele>312.09</ele>
        <time>2012-08-25T17:40:47Z</time>
      </trkpt>
      <trkpt lat="43.85304" lon="5.50997">
        <ele>312.09</ele>
        <time>2012-08-25T17:40:48Z</time>
      </trkpt>
      <trkpt lat="43.85211" lon="5.50833">
        <ele>309.68</ele>
        <time>2012-08-25T17:40:56Z</time>
      </trkpt>
      <trkpt lat="43.85105" lon="5.50635">
        <ele>308.24</ele>
        <time>2012-08-25T17:41:07Z</time>
      </trkpt>
      <trkpt lat="43.85083" lon="5.5057">
        <ele>308.24</ele>
        <time>2012-08-25T17:41:10Z</time>
      </trkpt>
      <trkpt lat="43.85079" lon="5.50544">
        <ele>308.24</ele>
        <time>2012-08-25T17:41:11Z</time>
      </trkpt>
      <trkpt lat="43.8505" lon="5.50281">
        <ele>305.36</ele>
        <time>2012-08-25T17:41:21Z</time>
      </trkpt>
      <trkpt lat="43.85059" lon="5.50076">
        <ele>304.39</ele>
        <time>2012-08-25T17:41:27Z</time>
      </trkpt>
      <trkpt lat="43.85072" lon="5.49755">
        <ele>303.91</ele>
        <time>2012-08-25T17:41:36Z</time>
      </trkpt>
      <trkpt lat="43.85055" lon="5.49438">
        <ele>304.39</ele>
        <time>2012-08-25T17:41:46Z</time>
      </trkpt>
      <trkpt lat="43.85056" lon="5.49382">
        <ele>304.39</ele>
        <time>2012-08-25T17:41:48Z</time>
      </trkpt>
      <trkpt lat="43.85063" lon="5.49296">
        <ele>304.39</ele>
        <time>2012-08-25T17:41:51Z</time>
      </trkpt>
      <trkpt lat="43.85062" lon="5.49268">
        <ele>304.39</ele>
        <time>2012-08-25T17:41:52Z</time>
      </trkpt>
      <trkpt lat="43.85058" lon="5.49242">
        <ele>303.91</ele>
        <time>2012-08-25T17:41:53Z</time>
      </trkpt>
      <trkpt lat="43.85041" lon="5.49138">
        <ele>302.47</ele>
        <time>2012-08-25T17:41:57Z</time>
      </trkpt>
      <trkpt lat="43.8504" lon="5.49111">
        <ele>301.99</ele>
        <time>2012-08-25T17:41:58Z</time>
      </trkpt>
      <trkpt lat="43.85041" lon="5.49083">
        <ele>301.99</ele>
        <time>2012-08-25T17:41:59Z</time>
      </trkpt>
      <trkpt lat="43.85045" lon="5.49057">
        <ele>301.99</ele>
        <time>2012-08-25T17:42:00Z</time>
      </trkpt>
      <trkpt lat="43.85049" lon="5.49032">
        <ele>301.51</ele>
        <time>2012-08-25T17:42:01Z</time>
      </trkpt>
      <trkpt lat="43.85055" lon="5.49009">
        <ele>301.51</ele>
        <time>2012-08-25T17:42:02Z</time>
      </trkpt>
      <trkpt lat="43.85064" lon="5.48986">
        <ele>301.51</ele>
        <time>2012-08-25T17:42:03Z</time>
      </trkpt>
      <trkpt lat="43.85075" lon="5.48963">
        <ele>301.51</ele>
        <time>2012-08-25T17:42:04Z</time>
      </trkpt>
      <trkpt lat="43.85088" lon="5.48942">
        <ele>301.51</ele>
        <time>2012-08-25T17:42:05Z</time>
      </trkpt>
      <trkpt lat="43.85102" lon="5.4892">
        <ele>301.51</ele>
        <time>2012-08-25T17:42:06Z</time>
      </trkpt>
      <trkpt lat="43.85164" lon="5.488">
        <ele>302.47</ele>
        <time>2012-08-25T17:42:11Z</time>
      </trkpt>
      <trkpt lat="43.85172" lon="5.48772">
        <ele>302.47</ele>
        <time>2012-08-25T17:42:12Z</time>
      </trkpt>
      <trkpt lat="43.85177" lon="5.48744">
        <ele>302.47</ele>
        <time>2012-08-25T17:42:13Z</time>
      </trkpt>
      <trkpt lat="43.8518" lon="5.48716">
        <ele>302.95</ele>
        <time>2012-08-25T17:42:14Z</time>
      </trkpt>
      <trkpt lat="43.85182" lon="5.48687">
        <ele>302.47</ele>
        <time>2012-08-25T17:42:15Z</time>
      </trkpt>
      <trkpt lat="43.85184" lon="5.48657">
        <ele>302.47</ele>
        <time>2012-08-25T17:42:16Z</time>
      </trkpt>
      <trkpt lat="43.85177" lon="5.48434">
        <ele>301.03</ele>
        <time>2012-08-25T17:42:23Z</time>
      </trkpt>
      <trkpt lat="43.85164" lon="5.48353">
        <ele>301.99</ele>
        <time>2012-08-25T17:42:26Z</time>
      </trkpt>
      <trkpt lat="43.85157" lon="5.4833">
        <ele>301.51</ele>
        <time>2012-08-25T17:42:27Z</time>
      </trkpt>
      <trkpt lat="43.85147" lon="5.48309">
        <ele>301.99</ele>
        <time>2012-08-25T17:42:28Z</time>
      </trkpt>
      <trkpt lat="43.85136" lon="5.48293">
        <ele>302.47</ele>
        <time>2012-08-25T17:42:29Z</time>
      </trkpt>
      <trkpt lat="43.85124" lon="5.48278">
        <ele>302.95</ele>
        <time>2012-08-25T17:42:30Z</time>
      </trkpt>
      <trkpt lat="43.85086" lon="5.48217">
        <ele>304.39</ele>
        <time>2012-08-25T17:42:34Z</time>
      </trkpt>
      <trkpt lat="43.85079" lon="5.48198">
        <ele>304.88</ele>
        <time>2012-08-25T17:42:35Z</time>
      </trkpt>
      <trkpt lat="43.85074" lon="5.48177">
        <ele>304.88</ele>
        <time>2012-08-25T17:42:36Z</time>
      </trkpt>
      <trkpt lat="43.85063" lon="5.48114">
        <ele>306.32</ele>
        <time>2012-08-25T17:42:39Z</time>
      </trkpt>
      <trkpt lat="43.85064" lon="5.48094">
        <ele>306.8</ele>
        <time>2012-08-25T17:42:40Z</time>
      </trkpt>
      <trkpt lat="43.85068" lon="5.48074">
        <ele>306.32</ele>
        <time>2012-08-25T17:42:41Z</time>
      </trkpt>
      <trkpt lat="43.85075" lon="5.48055">
        <ele>306.32</ele>
        <time>2012-08-25T17:42:42Z</time>
      </trkpt>
      <trkpt lat="43.85086" lon="5.48039">
        <ele>306.32</ele>
        <time>2012-08-25T17:42:43Z</time>
      </trkpt>
      <trkpt lat="43.851" lon="5.48029">
        <ele>306.8</ele>
        <time>2012-08-25T17:42:44Z</time>
      </trkpt>
      <trkpt lat="43.85116" lon="5.48022">
        <ele>306.32</ele>
        <time>2012-08-25T17:42:45Z</time>
      </trkpt>
      <trkpt lat="43.85133" lon="5.48016">
        <ele>305.84</ele>
        <time>2012-08-25T17:42:46Z</time>
      </trkpt>
      <trkpt lat="43.8515" lon="5.48009">
        <ele>305.36</ele>
        <time>2012-08-25T17:42:47Z</time>
      </trkpt>
      <trkpt lat="43.85269" lon="5.47954">
        <ele>302.47</ele>
        <time>2012-08-25T17:42:54Z</time>
      </trkpt>
      <trkpt lat="43.85279" lon="5.47938">
        <ele>301.99</ele>
        <time>2012-08-25T17:42:55Z</time>
      </trkpt>
      <trkpt lat="43.85288" lon="5.47921">
        <ele>301.03</ele>
        <time>2012-08-25T17:42:56Z</time>
      </trkpt>
      <trkpt lat="43.85295" lon="5.47901">
        <ele>300.55</ele>
        <time>2012-08-25T17:42:57Z</time>
      </trkpt>
      <trkpt lat="43.85299" lon="5.47879">
        <ele>300.07</ele>
        <time>2012-08-25T17:42:58Z</time>
      </trkpt>
      <trkpt lat="43.85302" lon="5.47857">
        <ele>299.59</ele>
        <time>2012-08-25T17:42:59Z</time>
      </trkpt>
      <trkpt lat="43.85305" lon="5.47835">
        <ele>299.59</ele>
        <time>2012-08-25T17:43:00Z</time>
      </trkpt>
      <trkpt lat="43.85309" lon="5.47815">
        <ele>299.11</ele>
        <time>2012-08-25T17:43:01Z</time>
      </trkpt>
      <trkpt lat="43.85316" lon="5.47795">
        <ele>299.11</ele>
        <time>2012-08-25T17:43:02Z</time>
      </trkpt>
      <trkpt lat="43.85325" lon="5.47778">
        <ele>298.63</ele>
        <time>2012-08-25T17:43:03Z</time>
      </trkpt>
      <trkpt lat="43.85337" lon="5.47763">
        <ele>297.67</ele>
        <time>2012-08-25T17:43:04Z</time>
      </trkpt>
      <trkpt lat="43.85351" lon="5.47751">
        <ele>296.7</ele>
        <time>2012-08-25T17:43:05Z</time>
      </trkpt>
      <trkpt lat="43.85367" lon="5.47743">
        <ele>295.74</ele>
        <time>2012-08-25T17:43:06Z</time>
      </trkpt>
      <trkpt lat="43.85385" lon="5.47738">
        <ele>294.78</ele>
        <time>2012-08-25T17:43:07Z</time>
      </trkpt>
      <trkpt lat="43.85404" lon="5.47735">
        <ele>293.82</ele>
        <time>2012-08-25T17:43:08Z</time>
      </trkpt>
      <trkpt lat="43.85425" lon="5.47734">
        <ele>292.86</ele>
        <time>2012-08-25T17:43:09Z</time>
      </trkpt>
      <trkpt lat="43.85533" lon="5.47713">
        <ele>288.05</ele>
        <time>2012-08-25T17:43:14Z</time>
      </trkpt>
      <trkpt lat="43.85554" lon="5.47701">
        <ele>287.57</ele>
        <time>2012-08-25T17:43:15Z</time>
      </trkpt>
      <trkpt lat="43.85748" lon="5.47568">
        <ele>283.25</ele>
        <time>2012-08-25T17:43:24Z</time>
      </trkpt>
      <trkpt lat="43.85863" lon="5.47455">
        <ele>278.44</ele>
        <time>2012-08-25T17:43:30Z</time>
      </trkpt>
      <trkpt lat="43.85878" lon="5.47429">
        <ele>277.48</ele>
        <time>2012-08-25T17:43:31Z</time>
      </trkpt>
      <trkpt lat="43.85891" lon="5.47402">
        <ele>277</ele>
        <time>2012-08-25T17:43:32Z</time>
      </trkpt>
      <trkpt lat="43.85983" lon="5.47155">
        <ele>274.59</ele>
        <time>2012-08-25T17:43:40Z</time>
      </trkpt>
      <trkpt lat="43.86103" lon="5.4687">
        <ele>274.59</ele>
        <time>2012-08-25T17:43:50Z</time>
      </trkpt>
      <trkpt lat="43.86178" lon="5.46714">
        <ele>277</ele>
        <time>2012-08-25T17:43:57Z</time>
      </trkpt>
      <trkpt lat="43.86321" lon="5.46501">
        <ele>272.67</ele>
        <time>2012-08-25T17:44:06Z</time>
      </trkpt>
      <trkpt lat="43.86569" lon="5.4616">
        <ele>265.46</ele>
        <time>2012-08-25T17:44:20Z</time>
      </trkpt>
      <trkpt lat="43.8664" lon="5.46027">
        <ele>265.94</ele>
        <time>2012-08-25T17:44:25Z</time>
      </trkpt>
      <trkpt lat="43.86649" lon="5.45998">
        <ele>266.42</ele>
        <time>2012-08-25T17:44:26Z</time>
      </trkpt>
      <trkpt lat="43.86655" lon="5.45968">
        <ele>266.42</ele>
        <time>2012-08-25T17:44:27Z</time>
      </trkpt>
      <trkpt lat="43.86703" lon="5.4577">
        <ele>265.46</ele>
        <time>2012-08-25T17:44:34Z</time>
      </trkpt>
      <trkpt lat="43.86716" lon="5.45742">
        <ele>264.98</ele>
        <time>2012-08-25T17:44:35Z</time>
      </trkpt>
      <trkpt lat="43.8684" lon="5.45551">
        <ele>263.54</ele>
        <time>2012-08-25T17:44:43Z</time>
      </trkpt>
      <trkpt lat="43.86869" lon="5.45514">
        <ele>263.06</ele>
        <time>2012-08-25T17:44:45Z</time>
      </trkpt>
      <trkpt lat="43.86881" lon="5.45492">
        <ele>263.06</ele>
        <time>2012-08-25T17:44:46Z</time>
      </trkpt>
      <trkpt lat="43.8689" lon="5.45468">
        <ele>263.54</ele>
        <time>2012-08-25T17:44:47Z</time>
      </trkpt>
      <trkpt lat="43.86939" lon="5.45362">
        <ele>263.54</ele>
        <time>2012-08-25T17:44:52Z</time>
      </trkpt>
      <trkpt lat="43.86951" lon="5.45346">
        <ele>263.54</ele>
        <time>2012-08-25T17:44:53Z</time>
      </trkpt>
      <trkpt lat="43.87041" lon="5.45234">
        <ele>264.02</ele>
        <time>2012-08-25T17:44:59Z</time>
      </trkpt>
      <trkpt lat="43.87178" lon="5.45037">
        <ele>262.58</ele>
        <time>2012-08-25T17:45:08Z</time>
      </trkpt>
      <trkpt lat="43.87258" lon="5.44903">
        <ele>261.14</ele>
        <time>2012-08-25T17:45:14Z</time>
      </trkpt>
      <trkpt lat="43.87276" lon="5.44882">
        <ele>261.14</ele>
        <time>2012-08-25T17:45:15Z</time>
      </trkpt>
      <trkpt lat="43.87295" lon="5.44864">
        <ele>260.65</ele>
        <time>2012-08-25T17:45:16Z</time>
      </trkpt>
      <trkpt lat="43.87317" lon="5.44848">
        <ele>260.65</ele>
        <time>2012-08-25T17:45:17Z</time>
      </trkpt>
      <trkpt lat="43.87339" lon="5.44834">
        <ele>260.17</ele>
        <time>2012-08-25T17:45:18Z</time>
      </trkpt>
      <trkpt lat="43.87363" lon="5.44823">
        <ele>260.17</ele>
        <time>2012-08-25T17:45:19Z</time>
      </trkpt>
      <trkpt lat="43.87388" lon="5.44814">
        <ele>260.17</ele>
        <time>2012-08-25T17:45:20Z</time>
      </trkpt>
      <trkpt lat="43.87628" lon="5.44705">
        <ele>259.21</ele>
        <time>2012-08-25T17:45:30Z</time>
      </trkpt>
      <trkpt lat="43.87788" lon="5.44612">
        <ele>258.25</ele>
        <time>2012-08-25T17:45:38Z</time>
      </trkpt>
      <trkpt lat="43.87867" lon="5.44549">
        <ele>256.33</ele>
        <time>2012-08-25T17:45:43Z</time>
      </trkpt>
      <trkpt lat="43.87876" lon="5.44529">
        <ele>256.81</ele>
        <time>2012-08-25T17:45:44Z</time>
      </trkpt>
      <trkpt lat="43.87885" lon="5.44507">
        <ele>257.29</ele>
        <time>2012-08-25T17:45:45Z</time>
      </trkpt>
      <trkpt lat="43.87983" lon="5.44284">
        <ele>255.85</ele>
        <time>2012-08-25T17:45:55Z</time>
      </trkpt>
      <trkpt lat="43.87989" lon="5.4426">
        <ele>255.37</ele>
        <time>2012-08-25T17:45:56Z</time>
      </trkpt>
      <trkpt lat="43.87993" lon="5.44236">
        <ele>255.37</ele>
        <time>2012-08-25T17:45:57Z</time>
      </trkpt>
      <trkpt lat="43.87996" lon="5.4421">
        <ele>255.85</ele>
        <time>2012-08-25T17:45:58Z</time>
      </trkpt>
      <trkpt lat="43.87997" lon="5.44183">
        <ele>255.85</ele>
        <time>2012-08-25T17:45:59Z</time>
      </trkpt>
      <trkpt lat="43.87997" lon="5.44155">
        <ele>255.85</ele>
        <time>2012-08-25T17:46:00Z</time>
      </trkpt>
      <trkpt lat="43.87997" lon="5.43903">
        <ele>253.93</ele>
        <time>2012-08-25T17:46:08Z</time>
      </trkpt>
      <trkpt lat="43.88003" lon="5.43818">
        <ele>253.44</ele>
        <time>2012-08-25T17:46:11Z</time>
      </trkpt>
      <trkpt lat="43.88" lon="5.43792">
        <ele>253.44</ele>
        <time>2012-08-25T17:46:12Z</time>
      </trkpt>
      <trkpt lat="43.87994" lon="5.43768">
        <ele>252.96</ele>
        <time>2012-08-25T17:46:13Z</time>
      </trkpt>
      <trkpt lat="43.87986" lon="5.43745">
        <ele>252.96</ele>
        <time>2012-08-25T17:46:14Z</time>
      </trkpt>
      <trkpt lat="43.87977" lon="5.4372">
        <ele>252.96</ele>
        <time>2012-08-25T17:46:15Z</time>
      </trkpt>
      <trkpt lat="43.87972" lon="5.43693">
        <ele>252.96</ele>
        <time>2012-08-25T17:46:16Z</time>
      </trkpt>
      <trkpt lat="43.87967" lon="5.43665">
        <ele>252.48</ele>
        <time>2012-08-25T17:46:17Z</time>
      </trkpt>
      <trkpt lat="43.87957" lon="5.43407">
        <ele>250.56</ele>
        <time>2012-08-25T17:46:26Z</time>
      </trkpt>
      <trkpt lat="43.87964" lon="5.4333">
        <ele>250.56</ele>
        <time>2012-08-25T17:46:29Z</time>
      </trkpt>
      <trkpt lat="43.87963" lon="5.43305">
        <ele>250.56</ele>
        <time>2012-08-25T17:46:30Z</time>
      </trkpt>
      <trkpt lat="43.8796" lon="5.43279">
        <ele>250.56</ele>
        <time>2012-08-25T17:46:31Z</time>
      </trkpt>
      <trkpt lat="43.87955" lon="5.43253">
        <ele>250.08</ele>
        <time>2012-08-25T17:46:32Z</time>
      </trkpt>
      <trkpt lat="43.8795" lon="5.43226">
        <ele>250.08</ele>
        <time>2012-08-25T17:46:33Z</time>
      </trkpt>
      <trkpt lat="43.87916" lon="5.43072">
        <ele>249.12</ele>
        <time>2012-08-25T17:46:39Z</time>
      </trkpt>
      <trkpt lat="43.87913" lon="5.43045">
        <ele>248.64</ele>
        <time>2012-08-25T17:46:40Z</time>
      </trkpt>
      <trkpt lat="43.87912" lon="5.43016">
        <ele>248.64</ele>
        <time>2012-08-25T17:46:41Z</time>
      </trkpt>
      <trkpt lat="43.87913" lon="5.42985">
        <ele>248.64</ele>
        <time>2012-08-25T17:46:42Z</time>
      </trkpt>
      <trkpt lat="43.87914" lon="5.42955">
        <ele>248.64</ele>
        <time>2012-08-25T17:46:43Z</time>
      </trkpt>
      <trkpt lat="43.87908" lon="5.428">
        <ele>247.2</ele>
        <time>2012-08-25T17:46:48Z</time>
      </trkpt>
      <trkpt lat="43.87901" lon="5.42768">
        <ele>247.2</ele>
        <time>2012-08-25T17:46:49Z</time>
      </trkpt>
      <trkpt lat="43.87892" lon="5.42737">
        <ele>246.72</ele>
        <time>2012-08-25T17:46:50Z</time>
      </trkpt>
      <trkpt lat="43.8788" lon="5.42707">
        <ele>246.72</ele>
        <time>2012-08-25T17:46:51Z</time>
      </trkpt>
      <trkpt lat="43.87867" lon="5.42679">
        <ele>246.72</ele>
        <time>2012-08-25T17:46:52Z</time>
      </trkpt>
      <trkpt lat="43.87834" lon="5.42599">
        <ele>246.23</ele>
        <time>2012-08-25T17:46:55Z</time>
      </trkpt>
      <trkpt lat="43.87829" lon="5.42572">
        <ele>245.75</ele>
        <time>2012-08-25T17:46:56Z</time>
      </trkpt>
      <trkpt lat="43.87825" lon="5.42543">
        <ele>245.75</ele>
        <time>2012-08-25T17:46:57Z</time>
      </trkpt>
      <trkpt lat="43.87824" lon="5.42513">
        <ele>245.27</ele>
        <time>2012-08-25T17:46:58Z</time>
      </trkpt>
      <trkpt lat="43.87823" lon="5.42483">
        <ele>245.27</ele>
        <time>2012-08-25T17:46:59Z</time>
      </trkpt>
      <trkpt lat="43.8784" lon="5.42293">
        <ele>243.83</ele>
        <time>2012-08-25T17:47:06Z</time>
      </trkpt>
      <trkpt lat="43.87854" lon="5.422">
        <ele>244.31</ele>
        <time>2012-08-25T17:47:10Z</time>
      </trkpt>
      <trkpt lat="43.87854" lon="5.42176">
        <ele>244.31</ele>
        <time>2012-08-25T17:47:11Z</time>
      </trkpt>
      <trkpt lat="43.87852" lon="5.42152">
        <ele>243.83</ele>
        <time>2012-08-25T17:47:12Z</time>
      </trkpt>
      <trkpt lat="43.87849" lon="5.42127">
        <ele>243.83</ele>
        <time>2012-08-25T17:47:13Z</time>
      </trkpt>
      <trkpt lat="43.87845" lon="5.42101">
        <ele>243.35</ele>
        <time>2012-08-25T17:47:14Z</time>
      </trkpt>
      <trkpt lat="43.8782" lon="5.4187">
        <ele>239.51</ele>
        <time>2012-08-25T17:47:22Z</time>
      </trkpt>
      <trkpt lat="43.87793" lon="5.41507">
        <ele>235.66</ele>
        <time>2012-08-25T17:47:33Z</time>
      </trkpt>
      <trkpt lat="43.87775" lon="5.41284">
        <ele>236.62</ele>
        <time>2012-08-25T17:47:42Z</time>
      </trkpt>
      <trkpt lat="43.87742" lon="5.41007">
        <ele>238.06</ele>
        <time>2012-08-25T17:47:55Z</time>
      </trkpt>
      <trkpt lat="43.87698" lon="5.40695">
        <ele>236.14</ele>
        <time>2012-08-25T17:48:11Z</time>
      </trkpt>
      <trkpt lat="43.87688" lon="5.40626">
        <ele>235.66</ele>
        <time>2012-08-25T17:48:15Z</time>
      </trkpt>
      <trkpt lat="43.87683" lon="5.40611">
        <ele>235.66</ele>
        <time>2012-08-25T17:48:16Z</time>
      </trkpt>
      <trkpt lat="43.87678" lon="5.40596">
        <ele>235.18</ele>
        <time>2012-08-25T17:48:17Z</time>
      </trkpt>
      <trkpt lat="43.87671" lon="5.40582">
        <ele>234.7</ele>
        <time>2012-08-25T17:48:18Z</time>
      </trkpt>
      <trkpt lat="43.87664" lon="5.40569">
        <ele>234.22</ele>
        <time>2012-08-25T17:48:19Z</time>
      </trkpt>
      <trkpt lat="43.8755" lon="5.4035">
        <ele>226.53</ele>
        <time>2012-08-25T17:48:36Z</time>
      </trkpt>
      <trkpt lat="43.87482" lon="5.40192">
        <ele>226.05</ele>
        <time>2012-08-25T17:48:47Z</time>
      </trkpt>
      <trkpt lat="43.87475" lon="5.40129">
        <ele>225.57</ele>
        <time>2012-08-25T17:48:51Z</time>
      </trkpt>
      <trkpt lat="43.87478" lon="5.40115">
        <ele>225.57</ele>
        <time>2012-08-25T17:48:52Z</time>
      </trkpt>
      <trkpt lat="43.87483" lon="5.40102">
        <ele>226.05</ele>
        <time>2012-08-25T17:48:53Z</time>
      </trkpt>
      <trkpt lat="43.87489" lon="5.40092">
        <ele>226.05</ele>
        <time>2012-08-25T17:48:54Z</time>
      </trkpt>
      <trkpt lat="43.87496" lon="5.40083">
        <ele>226.05</ele>
        <time>2012-08-25T17:48:55Z</time>
      </trkpt>
      <trkpt lat="43.87505" lon="5.40076">
        <ele>226.05</ele>
        <time>2012-08-25T17:48:56Z</time>
      </trkpt>
      <trkpt lat="43.87513" lon="5.40069">
        <ele>226.05</ele>
        <time>2012-08-25T17:48:57Z</time>
      </trkpt>
      <trkpt lat="43.87522" lon="5.4006">
        <ele>226.05</ele>
        <time>2012-08-25T17:48:58Z</time>
      </trkpt>
      <trkpt lat="43.87531" lon="5.40051">
        <ele>226.05</ele>
        <time>2012-08-25T17:48:59Z</time>
      </trkpt>
      <trkpt lat="43.87617" lon="5.39993">
        <ele>226.05</ele>
        <time>2012-08-25T17:49:07Z</time>
      </trkpt>
      <trkpt lat="43.87635" lon="5.39981">
        <ele>226.53</ele>
        <time>2012-08-25T17:49:09Z</time>
      </trkpt>
      <trkpt lat="43.87643" lon="5.39973">
        <ele>226.05</ele>
        <time>2012-08-25T17:49:10Z</time>
      </trkpt>
      <trkpt lat="43.87652" lon="5.39964">
        <ele>226.05</ele>
        <time>2012-08-25T17:49:11Z</time>
      </trkpt>
      <trkpt lat="43.87659" lon="5.39955">
        <ele>225.57</ele>
        <time>2012-08-25T17:49:12Z</time>
      </trkpt>
      <trkpt lat="43.87666" lon="5.39944">
        <ele>225.57</ele>
        <time>2012-08-25T17:49:13Z</time>
      </trkpt>
      <trkpt lat="43.87672" lon="5.39933">
        <ele>225.57</ele>
        <time>2012-08-25T17:49:14Z</time>
      </trkpt>
      <trkpt lat="43.87676" lon="5.39921">
        <ele>225.57</ele>
        <time>2012-08-25T17:49:15Z</time>
      </trkpt>
      <trkpt lat="43.8768" lon="5.39907">
        <ele>225.09</ele>
        <time>2012-08-25T17:49:16Z</time>
      </trkpt>
      <trkpt lat="43.87683" lon="5.39893">
        <ele>225.57</ele>
        <time>2012-08-25T17:49:17Z</time>
      </trkpt>
      <trkpt lat="43.87721" lon="5.39695">
        <ele>226.05</ele>
        <time>2012-08-25T17:49:31Z</time>
      </trkpt>
      <trkpt lat="43.87731" lon="5.39648">
        <ele>225.57</ele>
        <time>2012-08-25T17:49:34Z</time>
      </trkpt>
      <trkpt lat="43.87733" lon="5.39632">
        <ele>225.09</ele>
        <time>2012-08-25T17:49:35Z</time>
      </trkpt>
      <trkpt lat="43.87728" lon="5.39489">
        <ele>223.16</ele>
        <time>2012-08-25T17:49:44Z</time>
      </trkpt>
      <trkpt lat="43.87725" lon="5.39477">
        <ele>223.16</ele>
        <time>2012-08-25T17:49:45Z</time>
      </trkpt>
      <trkpt lat="43.87721" lon="5.39465">
        <ele>223.16</ele>
        <time>2012-08-25T17:49:46Z</time>
      </trkpt>
      <trkpt lat="43.87708" lon="5.3943">
        <ele>222.68</ele>
        <time>2012-08-25T17:49:49Z</time>
      </trkpt>
      <trkpt lat="43.87704" lon="5.3942">
        <ele>222.68</ele>
        <time>2012-08-25T17:49:50Z</time>
      </trkpt>
      <trkpt lat="43.87681" lon="5.39375">
        <ele>222.2</ele>
        <time>2012-08-25T17:49:58Z</time>
      </trkpt>
      <trkpt lat="43.87674" lon="5.39364">
        <ele>223.16</ele>
        <time>2012-08-25T17:50:08Z</time>
      </trkpt>
      <trkpt lat="43.8767" lon="5.39354">
        <ele>223.16</ele>
        <time>2012-08-25T17:50:09Z</time>
      </trkpt>
      <trkpt lat="43.87666" lon="5.39344">
        <ele>223.64</ele>
        <time>2012-08-25T17:50:10Z</time>
      </trkpt>
      <trkpt lat="43.87664" lon="5.39335">
        <ele>223.16</ele>
        <time>2012-08-25T17:50:11Z</time>
      </trkpt>
      <trkpt lat="43.87664" lon="5.39327">
        <ele>223.16</ele>
        <time>2012-08-25T17:50:12Z</time>
      </trkpt>
      <trkpt lat="43.87665" lon="5.39319">
        <ele>223.16</ele>
        <time>2012-08-25T17:50:13Z</time>
      </trkpt>
      <trkpt lat="43.87668" lon="5.39311">
        <ele>223.64</ele>
        <time>2012-08-25T17:50:14Z</time>
      </trkpt>
      <trkpt lat="43.87676" lon="5.39297">
        <ele>223.64</ele>
        <time>2012-08-25T17:50:16Z</time>
      </trkpt>
      <trkpt lat="43.8768" lon="5.39289">
        <ele>223.16</ele>
        <time>2012-08-25T17:50:17Z</time>
      </trkpt>
      <trkpt lat="43.87689" lon="5.39275">
        <ele>223.16</ele>
        <time>2012-08-25T17:50:19Z</time>
      </trkpt>
      <trkpt lat="43.87692" lon="5.39266">
        <ele>222.68</ele>
        <time>2012-08-25T17:50:20Z</time>
      </trkpt>
      <trkpt lat="43.87695" lon="5.39257">
        <ele>222.68</ele>
        <time>2012-08-25T17:50:21Z</time>
      </trkpt>
      <trkpt lat="43.87698" lon="5.39247">
        <ele>222.68</ele>
        <time>2012-08-25T17:50:22Z</time>
      </trkpt>
      <trkpt lat="43.877" lon="5.39238">
        <ele>222.2</ele>
        <time>2012-08-25T17:50:23Z</time>
      </trkpt>
      <trkpt lat="43.87709" lon="5.39197">
        <ele>222.68</ele>
        <time>2012-08-25T17:50:27Z</time>
      </trkpt>
      <trkpt lat="43.87744" lon="5.3907">
        <ele>225.57</ele>
        <time>2012-08-25T17:50:34Z</time>
      </trkpt>
      <trkpt lat="43.87814" lon="5.38844">
        <ele>230.37</ele>
        <time>2012-08-25T17:50:46Z</time>
      </trkpt>
      <trkpt lat="43.87839" lon="5.38708">
        <ele>232.3</ele>
        <time>2012-08-25T17:50:55Z</time>
      </trkpt>
      <trkpt lat="43.8784" lon="5.38693">
        <ele>232.78</ele>
        <time>2012-08-25T17:50:56Z</time>
      </trkpt>
      <trkpt lat="43.87843" lon="5.38679">
        <ele>233.26</ele>
        <time>2012-08-25T17:50:57Z</time>
      </trkpt>
      <trkpt lat="43.87847" lon="5.38665">
        <ele>233.26</ele>
        <time>2012-08-25T17:50:58Z</time>
      </trkpt>
      <trkpt lat="43.87852" lon="5.38651">
        <ele>233.74</ele>
        <time>2012-08-25T17:50:59Z</time>
      </trkpt>
      <trkpt lat="43.87857" lon="5.38639">
        <ele>233.74</ele>
        <time>2012-08-25T17:51:00Z</time>
      </trkpt>
      <trkpt lat="43.87863" lon="5.38627">
        <ele>234.22</ele>
        <time>2012-08-25T17:51:01Z</time>
      </trkpt>
      <trkpt lat="43.87869" lon="5.38617">
        <ele>234.7</ele>
        <time>2012-08-25T17:51:02Z</time>
      </trkpt>
      <trkpt lat="43.87876" lon="5.38607">
        <ele>234.7</ele>
        <time>2012-08-25T17:51:03Z</time>
      </trkpt>
      <trkpt lat="43.87882" lon="5.38599">
        <ele>235.66</ele>
        <time>2012-08-25T17:51:04Z</time>
      </trkpt>
      <trkpt lat="43.87889" lon="5.38592">
        <ele>236.14</ele>
        <time>2012-08-25T17:51:05Z</time>
      </trkpt>
      <trkpt lat="43.87899" lon="5.38583">
        <ele>237.1</ele>
        <time>2012-08-25T17:51:07Z</time>
      </trkpt>
      <trkpt lat="43.87913" lon="5.38575">
        <ele>237.1</ele>
        <time>2012-08-25T17:51:16Z</time>
      </trkpt>
      <trkpt lat="43.87933" lon="5.38561">
        <ele>235.18</ele>
        <time>2012-08-25T17:51:29Z</time>
      </trkpt>
      <trkpt lat="43.87988" lon="5.38516">
        <ele>233.26</ele>
        <time>2012-08-25T17:51:35Z</time>
      </trkpt>
      <trkpt lat="43.88097" lon="5.38435">
        <ele>232.3</ele>
        <time>2012-08-25T17:51:42Z</time>
      </trkpt>
      <trkpt lat="43.88163" lon="5.38376">
        <ele>231.81</ele>
        <time>2012-08-25T17:51:47Z</time>
      </trkpt>
      <trkpt lat="43.88174" lon="5.38361">
        <ele>231.33</ele>
        <time>2012-08-25T17:51:48Z</time>
      </trkpt>
      <trkpt lat="43.88268" lon="5.38193">
        <ele>224.12</ele>
        <time>2012-08-25T17:51:59Z</time>
      </trkpt>
      <trkpt lat="43.88289" lon="5.38169">
        <ele>222.68</ele>
        <time>2012-08-25T17:52:02Z</time>
      </trkpt>
      <trkpt lat="43.88294" lon="5.3816">
        <ele>222.2</ele>
        <time>2012-08-25T17:52:03Z</time>
      </trkpt>
      <trkpt lat="43.88298" lon="5.38149">
        <ele>222.2</ele>
        <time>2012-08-25T17:52:04Z</time>
      </trkpt>
      <trkpt lat="43.88308" lon="5.38122">
        <ele>220.76</ele>
        <time>2012-08-25T17:52:06Z</time>
      </trkpt>
      <trkpt lat="43.88316" lon="5.38107">
        <ele>220.28</ele>
        <time>2012-08-25T17:52:07Z</time>
      </trkpt>
      <trkpt lat="43.88409" lon="5.37936">
        <ele>214.03</ele>
        <time>2012-08-25T17:52:16Z</time>
      </trkpt>
      <trkpt lat="43.88491" lon="5.37784">
        <ele>212.11</ele>
        <time>2012-08-25T17:52:24Z</time>
      </trkpt>
      <trkpt lat="43.88498" lon="5.37764">
        <ele>212.11</ele>
        <time>2012-08-25T17:52:25Z</time>
      </trkpt>
      <trkpt lat="43.88504" lon="5.37743">
        <ele>212.11</ele>
        <time>2012-08-25T17:52:26Z</time>
      </trkpt>
      <trkpt lat="43.88508" lon="5.37722">
        <ele>212.59</ele>
        <time>2012-08-25T17:52:27Z</time>
      </trkpt>
      <trkpt lat="43.88511" lon="5.37699">
        <ele>213.07</ele>
        <time>2012-08-25T17:52:28Z</time>
      </trkpt>
      <trkpt lat="43.88513" lon="5.37676">
        <ele>213.07</ele>
        <time>2012-08-25T17:52:29Z</time>
      </trkpt>
      <trkpt lat="43.88558" lon="5.37388">
        <ele>217.88</ele>
        <time>2012-08-25T17:52:42Z</time>
      </trkpt>
      <trkpt lat="43.88575" lon="5.37225">
        <ele>217.4</ele>
        <time>2012-08-25T17:52:51Z</time>
      </trkpt>
      <trkpt lat="43.88591" lon="5.37004">
        <ele>215.95</ele>
        <time>2012-08-25T17:53:02Z</time>
      </trkpt>
      <trkpt lat="43.88639" lon="5.36852">
        <ele>214.03</ele>
        <time>2012-08-25T17:53:10Z</time>
      </trkpt>
      <trkpt lat="43.88648" lon="5.36712">
        <ele>213.55</ele>
        <time>2012-08-25T17:53:18Z</time>
      </trkpt>
      <trkpt lat="43.8865" lon="5.367">
        <ele>214.03</ele>
        <time>2012-08-25T17:53:19Z</time>
      </trkpt>
      <trkpt lat="43.88655" lon="5.36689">
        <ele>214.03</ele>
        <time>2012-08-25T17:53:20Z</time>
      </trkpt>
      <trkpt lat="43.8866" lon="5.36679">
        <ele>214.03</ele>
        <time>2012-08-25T17:53:21Z</time>
      </trkpt>
      <trkpt lat="43.88664" lon="5.36669">
        <ele>214.03</ele>
        <time>2012-08-25T17:53:22Z</time>
      </trkpt>
      <trkpt lat="43.88667" lon="5.36658">
        <ele>214.03</ele>
        <time>2012-08-25T17:53:23Z</time>
      </trkpt>
      <trkpt lat="43.88668" lon="5.36647">
        <ele>214.03</ele>
        <time>2012-08-25T17:53:24Z</time>
      </trkpt>
      <trkpt lat="43.88667" lon="5.36636">
        <ele>214.03</ele>
        <time>2012-08-25T17:53:25Z</time>
      </trkpt>
      <trkpt lat="43.88663" lon="5.36626">
        <ele>214.03</ele>
        <time>2012-08-25T17:53:26Z</time>
      </trkpt>
      <trkpt lat="43.88656" lon="5.36618">
        <ele>214.51</ele>
        <time>2012-08-25T17:53:27Z</time>
      </trkpt>
      <trkpt lat="43.88649" lon="5.36611">
        <ele>214.03</ele>
        <time>2012-08-25T17:53:28Z</time>
      </trkpt>
      <trkpt lat="43.88641" lon="5.36603">
        <ele>214.03</ele>
        <time>2012-08-25T17:53:29Z</time>
      </trkpt>
      <trkpt lat="43.88632" lon="5.36593">
        <ele>214.03</ele>
        <time>2012-08-25T17:53:30Z</time>
      </trkpt>
      <trkpt lat="43.88624" lon="5.3658">
        <ele>214.03</ele>
        <time>2012-08-25T17:53:31Z</time>
      </trkpt>
      <trkpt lat="43.88616" lon="5.36566">
        <ele>214.51</ele>
        <time>2012-08-25T17:53:32Z</time>
      </trkpt>
      <trkpt lat="43.88608" lon="5.36549">
        <ele>214.51</ele>
        <time>2012-08-25T17:53:33Z</time>
      </trkpt>
      <trkpt lat="43.88601" lon="5.36532">
        <ele>214.51</ele>
        <time>2012-08-25T17:53:34Z</time>
      </trkpt>
      <trkpt lat="43.88515" lon="5.36312">
        <ele>217.4</ele>
        <time>2012-08-25T17:53:45Z</time>
      </trkpt>
      <trkpt lat="43.88488" lon="5.362">
        <ele>218.36</ele>
        <time>2012-08-25T17:53:50Z</time>
      </trkpt>
      <trkpt lat="43.88486" lon="5.3618">
        <ele>218.84</ele>
        <time>2012-08-25T17:53:51Z</time>
      </trkpt>
      <trkpt lat="43.8849" lon="5.36063">
        <ele>220.28</ele>
        <time>2012-08-25T17:53:58Z</time>
      </trkpt>
      <trkpt lat="43.88493" lon="5.3605">
        <ele>220.76</ele>
        <time>2012-08-25T17:53:59Z</time>
      </trkpt>
      <trkpt lat="43.885" lon="5.36023">
        <ele>220.76</ele>
        <time>2012-08-25T17:54:01Z</time>
      </trkpt>
      <trkpt lat="43.88502" lon="5.36009">
        <ele>221.24</ele>
        <time>2012-08-25T17:54:02Z</time>
      </trkpt>
      <trkpt lat="43.885" lon="5.35996">
        <ele>221.24</ele>
        <time>2012-08-25T17:54:03Z</time>
      </trkpt>
      <trkpt lat="43.88497" lon="5.35985">
        <ele>221.24</ele>
        <time>2012-08-25T17:54:04Z</time>
      </trkpt>
      <trkpt lat="43.88493" lon="5.35978">
        <ele>221.24</ele>
        <time>2012-08-25T17:54:05Z</time>
      </trkpt>
      <trkpt lat="43.88487" lon="5.35974">
        <ele>221.72</ele>
        <time>2012-08-25T17:54:06Z</time>
      </trkpt>
      <trkpt lat="43.88481" lon="5.35972">
        <ele>221.72</ele>
        <time>2012-08-25T17:54:07Z</time>
      </trkpt>
      <trkpt lat="43.88473" lon="5.35972">
        <ele>221.72</ele>
        <time>2012-08-25T17:54:08Z</time>
      </trkpt>
      <trkpt lat="43.88465" lon="5.35971">
        <ele>221.72</ele>
        <time>2012-08-25T17:54:09Z</time>
      </trkpt>
      <trkpt lat="43.88456" lon="5.35966">
        <ele>221.72</ele>
        <time>2012-08-25T17:54:10Z</time>
      </trkpt>
      <trkpt lat="43.88447" lon="5.35957">
        <ele>221.72</ele>
        <time>2012-08-25T17:54:11Z</time>
      </trkpt>
      <trkpt lat="43.88439" lon="5.35945">
        <ele>221.72</ele>
        <time>2012-08-25T17:54:12Z</time>
      </trkpt>
      <trkpt lat="43.88431" lon="5.3593">
        <ele>221.24</ele>
        <time>2012-08-25T17:54:13Z</time>
      </trkpt>
      <trkpt lat="43.88416" lon="5.35894">
        <ele>221.24</ele>
        <time>2012-08-25T17:54:15Z</time>
      </trkpt>
      <trkpt lat="43.88408" lon="5.35875">
        <ele>221.24</ele>
        <time>2012-08-25T17:54:16Z</time>
      </trkpt>
      <trkpt lat="43.88402" lon="5.35854">
        <ele>221.24</ele>
        <time>2012-08-25T17:54:17Z</time>
      </trkpt>
      <trkpt lat="43.88396" lon="5.35831">
        <ele>220.76</ele>
        <time>2012-08-25T17:54:18Z</time>
      </trkpt>
      <trkpt lat="43.88391" lon="5.35807">
        <ele>220.76</ele>
        <time>2012-08-25T17:54:19Z</time>
      </trkpt>
      <trkpt lat="43.88341" lon="5.35526">
        <ele>219.8</ele>
        <time>2012-08-25T17:54:29Z</time>
      </trkpt>
      <trkpt lat="43.88265" lon="5.35212">
        <ele>218.36</ele>
        <time>2012-08-25T17:54:39Z</time>
      </trkpt>
      <trkpt lat="43.87965" lon="5.34286">
        <ele>208.74</ele>
        <time>2012-08-25T17:55:09Z</time>
      </trkpt>
      <trkpt lat="43.87958" lon="5.34048">
        <ele>208.74</ele>
        <time>2012-08-25T17:55:16Z</time>
      </trkpt>
      <trkpt lat="43.87935" lon="5.33783">
        <ele>211.63</ele>
        <time>2012-08-25T17:55:24Z</time>
      </trkpt>
      <trkpt lat="43.87864" lon="5.33586">
        <ele>214.03</ele>
        <time>2012-08-25T17:55:31Z</time>
      </trkpt>
      <trkpt lat="43.87713" lon="5.33327">
        <ele>214.03</ele>
        <time>2012-08-25T17:55:41Z</time>
      </trkpt>
      <trkpt lat="43.87443" lon="5.32837">
        <ele>217.88</ele>
        <time>2012-08-25T17:55:59Z</time>
      </trkpt>
      <trkpt lat="43.8715" lon="5.32317">
        <ele>212.59</ele>
        <time>2012-08-25T17:56:18Z</time>
      </trkpt>
      <trkpt lat="43.86998" lon="5.32111">
        <ele>214.03</ele>
        <time>2012-08-25T17:56:27Z</time>
      </trkpt>
      <trkpt lat="43.86791" lon="5.31924">
        <ele>211.63</ele>
        <time>2012-08-25T17:56:38Z</time>
      </trkpt>
      <trkpt lat="43.86673" lon="5.31782">
        <ele>206.82</ele>
        <time>2012-08-25T17:56:45Z</time>
      </trkpt>
      <trkpt lat="43.86636" lon="5.31675">
        <ele>202.01</ele>
        <time>2012-08-25T17:56:49Z</time>
      </trkpt>
      <trkpt lat="43.86631" lon="5.31646">
        <ele>201.05</ele>
        <time>2012-08-25T17:56:50Z</time>
      </trkpt>
      <trkpt lat="43.86628" lon="5.31616">
        <ele>199.61</ele>
        <time>2012-08-25T17:56:51Z</time>
      </trkpt>
      <trkpt lat="43.86626" lon="5.31585">
        <ele>198.65</ele>
        <time>2012-08-25T17:56:52Z</time>
      </trkpt>
      <trkpt lat="43.86626" lon="5.31554">
        <ele>197.21</ele>
        <time>2012-08-25T17:56:53Z</time>
      </trkpt>
      <trkpt lat="43.86627" lon="5.31524">
        <ele>195.77</ele>
        <time>2012-08-25T17:56:54Z</time>
      </trkpt>
      <trkpt lat="43.86629" lon="5.31494">
        <ele>194.8</ele>
        <time>2012-08-25T17:56:55Z</time>
      </trkpt>
      <trkpt lat="43.86633" lon="5.31229">
        <ele>187.59</ele>
        <time>2012-08-25T17:57:04Z</time>
      </trkpt>
      <trkpt lat="43.86579" lon="5.30914">
        <ele>180.87</ele>
        <time>2012-08-25T17:57:15Z</time>
      </trkpt>
      <trkpt lat="43.86502" lon="5.30468">
        <ele>174.62</ele>
        <time>2012-08-25T17:57:31Z</time>
      </trkpt>
      <trkpt lat="43.8643" lon="5.3007">
        <ele>172.69</ele>
        <time>2012-08-25T17:57:45Z</time>
      </trkpt>
      <trkpt lat="43.86373" lon="5.29733">
        <ele>171.25</ele>
        <time>2012-08-25T17:57:55Z</time>
      </trkpt>
      <trkpt lat="43.86337" lon="5.29432">
        <ele>169.81</ele>
        <time>2012-08-25T17:58:05Z</time>
      </trkpt>
      <trkpt lat="43.863" lon="5.29055">
        <ele>168.37</ele>
        <time>2012-08-25T17:58:19Z</time>
      </trkpt>
      <trkpt lat="43.86262" lon="5.28664">
        <ele>167.41</ele>
        <time>2012-08-25T17:58:33Z</time>
      </trkpt>
      <trkpt lat="43.86219" lon="5.28225">
        <ele>165.96</ele>
        <time>2012-08-25T17:58:48Z</time>
      </trkpt>
      <trkpt lat="43.86181" lon="5.27846">
        <ele>165</ele>
        <time>2012-08-25T17:59:01Z</time>
      </trkpt>
      <trkpt lat="43.86153" lon="5.27572">
        <ele>168.37</ele>
        <time>2012-08-25T17:59:09Z</time>
      </trkpt>
      <trkpt lat="43.86118" lon="5.27325">
        <ele>170.77</ele>
        <time>2012-08-25T17:59:18Z</time>
      </trkpt>
      <trkpt lat="43.8604" lon="5.26988">
        <ele>165.96</ele>
        <time>2012-08-25T17:59:30Z</time>
      </trkpt>
      <trkpt lat="43.85989" lon="5.26795">
        <ele>164.52</ele>
        <time>2012-08-25T17:59:38Z</time>
      </trkpt>
      <trkpt lat="43.85942" lon="5.26674">
        <ele>165</ele>
        <time>2012-08-25T17:59:46Z</time>
      </trkpt>
      <trkpt lat="43.85936" lon="5.26652">
        <ele>165</ele>
        <time>2012-08-25T17:59:48Z</time>
      </trkpt>
      <trkpt lat="43.85936" lon="5.26641">
        <ele>165.48</ele>
        <time>2012-08-25T17:59:49Z</time>
      </trkpt>
      <trkpt lat="43.85934" lon="5.26617">
        <ele>165.48</ele>
        <time>2012-08-25T17:59:51Z</time>
      </trkpt>
      <trkpt lat="43.85931" lon="5.26606">
        <ele>165.48</ele>
        <time>2012-08-25T17:59:52Z</time>
      </trkpt>
      <trkpt lat="43.85925" lon="5.26596">
        <ele>165.48</ele>
        <time>2012-08-25T17:59:53Z</time>
      </trkpt>
      <trkpt lat="43.85916" lon="5.26589">
        <ele>165.48</ele>
        <time>2012-08-25T17:59:54Z</time>
      </trkpt>
      <trkpt lat="43.85906" lon="5.26582">
        <ele>165</ele>
        <time>2012-08-25T17:59:55Z</time>
      </trkpt>
      <trkpt lat="43.85896" lon="5.26573">
        <ele>165</ele>
        <time>2012-08-25T17:59:56Z</time>
      </trkpt>
      <trkpt lat="43.85886" lon="5.2656">
        <ele>164.52</ele>
        <time>2012-08-25T17:59:57Z</time>
      </trkpt>
      <trkpt lat="43.85876" lon="5.26542">
        <ele>164.52</ele>
        <time>2012-08-25T17:59:58Z</time>
      </trkpt>
      <trkpt lat="43.85812" lon="5.26378">
        <ele>161.16</ele>
        <time>2012-08-25T18:00:05Z</time>
      </trkpt>
      <trkpt lat="43.85734" lon="5.26102">
        <ele>153.95</ele>
        <time>2012-08-25T18:00:14Z</time>
      </trkpt>
      <trkpt lat="43.8565" lon="5.25786">
        <ele>151.54</ele>
        <time>2012-08-25T18:00:24Z</time>
      </trkpt>
      <trkpt lat="43.85514" lon="5.25501">
        <ele>149.62</ele>
        <time>2012-08-25T18:00:34Z</time>
      </trkpt>
      <trkpt lat="43.85452" lon="5.25306">
        <ele>147.7</ele>
        <time>2012-08-25T18:00:40Z</time>
      </trkpt>
      <trkpt lat="43.85447" lon="5.2514">
        <ele>147.22</ele>
        <time>2012-08-25T18:00:45Z</time>
      </trkpt>
      <trkpt lat="43.85472" lon="5.24926">
        <ele>148.66</ele>
        <time>2012-08-25T18:00:53Z</time>
      </trkpt>
      <trkpt lat="43.85531" lon="5.24666">
        <ele>147.7</ele>
        <time>2012-08-25T18:01:02Z</time>
      </trkpt>
      <trkpt lat="43.85621" lon="5.24466">
        <ele>145.3</ele>
        <time>2012-08-25T18:01:09Z</time>
      </trkpt>
      <trkpt lat="43.85754" lon="5.2427">
        <ele>143.85</ele>
        <time>2012-08-25T18:01:17Z</time>
      </trkpt>
      <trkpt lat="43.85805" lon="5.24087">
        <ele>143.37</ele>
        <time>2012-08-25T18:01:23Z</time>
      </trkpt>
      <trkpt lat="43.85832" lon="5.23829">
        <ele>145.3</ele>
        <time>2012-08-25T18:01:32Z</time>
      </trkpt>
      <trkpt lat="43.85847" lon="5.23716">
        <ele>146.26</ele>
        <time>2012-08-25T18:01:38Z</time>
      </trkpt>
      <trkpt lat="43.85846" lon="5.23701">
        <ele>146.26</ele>
        <time>2012-08-25T18:01:39Z</time>
      </trkpt>
      <trkpt lat="43.85834" lon="5.23553">
        <ele>146.26</ele>
        <time>2012-08-25T18:01:47Z</time>
      </trkpt>
      <trkpt lat="43.85843" lon="5.23348">
        <ele>144.34</ele>
        <time>2012-08-25T18:01:55Z</time>
      </trkpt>
      <trkpt lat="43.8589" lon="5.23045">
        <ele>141.93</ele>
        <time>2012-08-25T18:02:07Z</time>
      </trkpt>
      <trkpt lat="43.85943" lon="5.22729">
        <ele>144.82</ele>
        <time>2012-08-25T18:02:20Z</time>
      </trkpt>
      <trkpt lat="43.85965" lon="5.22641">
        <ele>145.3</ele>
        <time>2012-08-25T18:02:24Z</time>
      </trkpt>
      <trkpt lat="43.85972" lon="5.22622">
        <ele>145.78</ele>
        <time>2012-08-25T18:02:25Z</time>
      </trkpt>
      <trkpt lat="43.86053" lon="5.22404">
        <ele>148.18</ele>
        <time>2012-08-25T18:02:36Z</time>
      </trkpt>
      <trkpt lat="43.86133" lon="5.22121">
        <ele>148.18</ele>
        <time>2012-08-25T18:02:50Z</time>
      </trkpt>
      <trkpt lat="43.86139" lon="5.2193">
        <ele>147.7</ele>
        <time>2012-08-25T18:02:58Z</time>
      </trkpt>
      <trkpt lat="43.86112" lon="5.21714">
        <ele>146.74</ele>
        <time>2012-08-25T18:03:06Z</time>
      </trkpt>
      <trkpt lat="43.86054" lon="5.21495">
        <ele>144.82</ele>
        <time>2012-08-25T18:03:14Z</time>
      </trkpt>
      <trkpt lat="43.85956" lon="5.21274">
        <ele>142.89</ele>
        <time>2012-08-25T18:03:24Z</time>
      </trkpt>
      <trkpt lat="43.8586" lon="5.21042">
        <ele>140.01</ele>
        <time>2012-08-25T18:03:34Z</time>
      </trkpt>
      <trkpt lat="43.85803" lon="5.20777">
        <ele>136.64</ele>
        <time>2012-08-25T18:03:44Z</time>
      </trkpt>
      <trkpt lat="43.85788" lon="5.20491">
        <ele>133.28</ele>
        <time>2012-08-25T18:03:54Z</time>
      </trkpt>
      <trkpt lat="43.85794" lon="5.20218">
        <ele>129.92</ele>
        <time>2012-08-25T18:04:02Z</time>
      </trkpt>
      <trkpt lat="43.85832" lon="5.19886">
        <ele>127.99</ele>
        <time>2012-08-25T18:04:13Z</time>
      </trkpt>
      <trkpt lat="43.85888" lon="5.19462">
        <ele>127.99</ele>
        <time>2012-08-25T18:04:28Z</time>
      </trkpt>
      <trkpt lat="43.85974" lon="5.19032">
        <ele>126.07</ele>
        <time>2012-08-25T18:04:43Z</time>
      </trkpt>
      <trkpt lat="43.86066" lon="5.18575">
        <ele>124.15</ele>
        <time>2012-08-25T18:04:58Z</time>
      </trkpt>
      <trkpt lat="43.86168" lon="5.18059">
        <ele>122.22</ele>
        <time>2012-08-25T18:05:15Z</time>
      </trkpt>
      <trkpt lat="43.86223" lon="5.17785">
        <ele>121.26</ele>
        <time>2012-08-25T18:05:25Z</time>
      </trkpt>
      <trkpt lat="43.86273" lon="5.17527">
        <ele>120.3</ele>
        <time>2012-08-25T18:05:34Z</time>
      </trkpt>
      <trkpt lat="43.86322" lon="5.17289">
        <ele>120.3</ele>
        <time>2012-08-25T18:05:42Z</time>
      </trkpt>
      <trkpt lat="43.86376" lon="5.17014">
        <ele>118.86</ele>
        <time>2012-08-25T18:05:53Z</time>
      </trkpt>
      <trkpt lat="43.8642" lon="5.16785">
        <ele>118.38</ele>
        <time>2012-08-25T18:06:00Z</time>
      </trkpt>
      <trkpt lat="43.86494" lon="5.16424">
        <ele>117.42</ele>
        <time>2012-08-25T18:06:11Z</time>
      </trkpt>
      <trkpt lat="43.8657" lon="5.16038">
        <ele>116.94</ele>
        <time>2012-08-25T18:06:24Z</time>
      </trkpt>
      <trkpt lat="43.86672" lon="5.15519">
        <ele>115.01</ele>
        <time>2012-08-25T18:06:42Z</time>
      </trkpt>
      <trkpt lat="43.86727" lon="5.15223">
        <ele>112.61</ele>
        <time>2012-08-25T18:06:52Z</time>
      </trkpt>
      <trkpt lat="43.86785" lon="5.14925">
        <ele>111.65</ele>
        <time>2012-08-25T18:07:03Z</time>
      </trkpt>
      <trkpt lat="43.8681" lon="5.14784">
        <ele>111.65</ele>
        <time>2012-08-25T18:07:11Z</time>
      </trkpt>
      <trkpt lat="43.86833" lon="5.1455">
        <ele>111.65</ele>
        <time>2012-08-25T18:07:25Z</time>
      </trkpt>
      <trkpt lat="43.86835" lon="5.14419">
        <ele>110.69</ele>
        <time>2012-08-25T18:07:35Z</time>
      </trkpt>
      <trkpt lat="43.86835" lon="5.144">
        <ele>110.69</ele>
        <time>2012-08-25T18:07:43Z</time>
      </trkpt>
      <trkpt lat="43.86834" lon="5.14368">
        <ele>112.13</ele>
        <time>2012-08-25T18:08:12Z</time>
      </trkpt>
      <trkpt lat="43.86835" lon="5.14349">
        <ele>112.13</ele>
        <time>2012-08-25T18:08:14Z</time>
      </trkpt>
      <trkpt lat="43.86835" lon="5.14328">
        <ele>111.65</ele>
        <time>2012-08-25T18:08:21Z</time>
      </trkpt>
      <trkpt lat="43.86831" lon="5.14319">
        <ele>110.69</ele>
        <time>2012-08-25T18:08:28Z</time>
      </trkpt>
      <trkpt lat="43.86825" lon="5.14314">
        <ele>110.69</ele>
        <time>2012-08-25T18:08:29Z</time>
      </trkpt>
      <trkpt lat="43.86764" lon="5.14239">
        <ele>110.69</ele>
        <time>2012-08-25T18:08:37Z</time>
      </trkpt>
      <trkpt lat="43.86638" lon="5.14072">
        <ele>108.77</ele>
        <time>2012-08-25T18:08:51Z</time>
      </trkpt>
      <trkpt lat="43.86502" lon="5.13891">
        <ele>107.81</ele>
        <time>2012-08-25T18:09:03Z</time>
      </trkpt>
      <trkpt lat="43.86316" lon="5.13647">
        <ele>106.84</ele>
        <time>2012-08-25T18:09:16Z</time>
      </trkpt>
      <trkpt lat="43.8616" lon="5.13464">
        <ele>106.84</ele>
        <time>2012-08-25T18:09:25Z</time>
      </trkpt>
      <trkpt lat="43.86022" lon="5.1339">
        <ele>107.32</ele>
        <time>2012-08-25T18:09:31Z</time>
      </trkpt>
      <trkpt lat="43.85754" lon="5.13282">
        <ele>111.17</ele>
        <time>2012-08-25T18:09:43Z</time>
      </trkpt>
      <trkpt lat="43.85622" lon="5.13169">
        <ele>111.65</ele>
        <time>2012-08-25T18:09:50Z</time>
      </trkpt>
      <trkpt lat="43.85377" lon="5.12957">
        <ele>112.61</ele>
        <time>2012-08-25T18:10:02Z</time>
      </trkpt>
      <trkpt lat="43.85166" lon="5.12731">
        <ele>116.46</ele>
        <time>2012-08-25T18:10:13Z</time>
      </trkpt>
      <trkpt lat="43.85071" lon="5.12508">
        <ele>119.82</ele>
        <time>2012-08-25T18:10:21Z</time>
      </trkpt>
      <trkpt lat="43.85001" lon="5.12302">
        <ele>119.34</ele>
        <time>2012-08-25T18:10:29Z</time>
      </trkpt>
      <trkpt lat="43.84982" lon="5.12189">
        <ele>118.86</ele>
        <time>2012-08-25T18:10:35Z</time>
      </trkpt>
      <trkpt lat="43.84973" lon="5.1207">
        <ele>119.82</ele>
        <time>2012-08-25T18:10:44Z</time>
      </trkpt>
      <trkpt lat="43.84953" lon="5.11903">
        <ele>120.3</ele>
        <time>2012-08-25T18:10:54Z</time>
      </trkpt>
      <trkpt lat="43.84924" lon="5.11703">
        <ele>121.74</ele>
        <time>2012-08-25T18:11:05Z</time>
      </trkpt>
      <trkpt lat="43.84897" lon="5.11521">
        <ele>124.63</ele>
        <time>2012-08-25T18:11:17Z</time>
      </trkpt>
      <trkpt lat="43.84876" lon="5.1137">
        <ele>125.59</ele>
        <time>2012-08-25T18:11:27Z</time>
      </trkpt>
      <trkpt lat="43.84864" lon="5.11282">
        <ele>125.59</ele>
        <time>2012-08-25T18:11:34Z</time>
      </trkpt>
      <trkpt lat="43.8485" lon="5.11198">
        <ele>124.15</ele>
        <time>2012-08-25T18:11:41Z</time>
      </trkpt>
      <trkpt lat="43.84847" lon="5.11171">
        <ele>123.19</ele>
        <time>2012-08-25T18:11:49Z</time>
      </trkpt>
      <trkpt lat="43.8483" lon="5.11081">
        <ele>122.22</ele>
        <time>2012-08-25T18:11:56Z</time>
      </trkpt>
      <trkpt lat="43.84793" lon="5.10928">
        <ele>119.34</ele>
        <time>2012-08-25T18:12:05Z</time>
      </trkpt>
      <trkpt lat="43.8474" lon="5.10703">
        <ele>117.9</ele>
        <time>2012-08-25T18:12:20Z</time>
      </trkpt>
      <trkpt lat="43.84697" lon="5.10507">
        <ele>115.01</ele>
        <time>2012-08-25T18:12:33Z</time>
      </trkpt>
      <trkpt lat="43.84668" lon="5.10332">
        <ele>109.73</ele>
        <time>2012-08-25T18:12:43Z</time>
      </trkpt>
      <trkpt lat="43.84635" lon="5.10134">
        <ele>105.4</ele>
        <time>2012-08-25T18:12:51Z</time>
      </trkpt>
      <trkpt lat="43.84563" lon="5.09695">
        <ele>107.81</ele>
        <time>2012-08-25T18:13:07Z</time>
      </trkpt>
      <trkpt lat="43.84492" lon="5.09476">
        <ele>103.48</ele>
        <time>2012-08-25T18:13:15Z</time>
      </trkpt>
      <trkpt lat="43.8446" lon="5.09336">
        <ele>101.08</ele>
        <time>2012-08-25T18:13:20Z</time>
      </trkpt>
      <trkpt lat="43.84458" lon="5.09306">
        <ele>100.6</ele>
        <time>2012-08-25T18:13:21Z</time>
      </trkpt>
      <trkpt lat="43.84457" lon="5.09276">
        <ele>100.11</ele>
        <time>2012-08-25T18:13:22Z</time>
      </trkpt>
      <trkpt lat="43.84477" lon="5.09043">
        <ele>96.75</ele>
        <time>2012-08-25T18:13:30Z</time>
      </trkpt>
      <trkpt lat="43.84511" lon="5.08827">
        <ele>94.35</ele>
        <time>2012-08-25T18:13:39Z</time>
      </trkpt>
      <trkpt lat="43.84527" lon="5.08689">
        <ele>93.39</ele>
        <time>2012-08-25T18:13:47Z</time>
      </trkpt>
      <trkpt lat="43.8453" lon="5.08675">
        <ele>92.9</ele>
        <time>2012-08-25T18:13:48Z</time>
      </trkpt>
      <trkpt lat="43.84532" lon="5.08662">
        <ele>92.9</ele>
        <time>2012-08-25T18:13:49Z</time>
      </trkpt>
      <trkpt lat="43.8453" lon="5.08651">
        <ele>92.9</ele>
        <time>2012-08-25T18:13:50Z</time>
      </trkpt>
      <trkpt lat="43.84527" lon="5.0864">
        <ele>92.9</ele>
        <time>2012-08-25T18:13:51Z</time>
      </trkpt>
      <trkpt lat="43.84523" lon="5.08629">
        <ele>92.42</ele>
        <time>2012-08-25T18:13:52Z</time>
      </trkpt>
      <trkpt lat="43.84519" lon="5.08617">
        <ele>92.42</ele>
        <time>2012-08-25T18:13:53Z</time>
      </trkpt>
      <trkpt lat="43.84487" lon="5.08479">
        <ele>89.54</ele>
        <time>2012-08-25T18:14:01Z</time>
      </trkpt>
      <trkpt lat="43.84426" lon="5.08224">
        <ele>87.14</ele>
        <time>2012-08-25T18:14:12Z</time>
      </trkpt>
      <trkpt lat="43.84354" lon="5.07886">
        <ele>84.25</ele>
        <time>2012-08-25T18:14:24Z</time>
      </trkpt>
      <trkpt lat="43.84313" lon="5.07565">
        <ele>81.85</ele>
        <time>2012-08-25T18:14:34Z</time>
      </trkpt>
      <trkpt lat="43.84303" lon="5.07362">
        <ele>81.85</ele>
        <time>2012-08-25T18:14:42Z</time>
      </trkpt>
      <trkpt lat="43.84263" lon="5.07139">
        <ele>81.37</ele>
        <time>2012-08-25T18:14:51Z</time>
      </trkpt>
      <trkpt lat="43.84192" lon="5.06887">
        <ele>80.89</ele>
        <time>2012-08-25T18:15:02Z</time>
      </trkpt>
      <trkpt lat="43.84156" lon="5.06669">
        <ele>80.41</ele>
        <time>2012-08-25T18:15:11Z</time>
      </trkpt>
      <trkpt lat="43.841" lon="5.06433">
        <ele>79.45</ele>
        <time>2012-08-25T18:15:21Z</time>
      </trkpt>
      <trkpt lat="43.8405" lon="5.06233">
        <ele>78.97</ele>
        <time>2012-08-25T18:15:31Z</time>
      </trkpt>
      <trkpt lat="43.84006" lon="5.0595">
        <ele>78</ele>
        <time>2012-08-25T18:15:42Z</time>
      </trkpt>
      <trkpt lat="43.83977" lon="5.05686">
        <ele>76.56</ele>
        <time>2012-08-25T18:15:53Z</time>
      </trkpt>
      <trkpt lat="43.83951" lon="5.05459">
        <ele>76.08</ele>
        <time>2012-08-25T18:16:06Z</time>
      </trkpt>
      <trkpt lat="43.83949" lon="5.05407">
        <ele>75.6</ele>
        <time>2012-08-25T18:16:10Z</time>
      </trkpt>
      <trkpt lat="43.8395" lon="5.05396">
        <ele>75.6</ele>
        <time>2012-08-25T18:16:11Z</time>
      </trkpt>
      <trkpt lat="43.83952" lon="5.05385">
        <ele>75.6</ele>
        <time>2012-08-25T18:16:12Z</time>
      </trkpt>
      <trkpt lat="43.83954" lon="5.05375">
        <ele>76.08</ele>
        <time>2012-08-25T18:16:13Z</time>
      </trkpt>
      <trkpt lat="43.83955" lon="5.05365">
        <ele>76.08</ele>
        <time>2012-08-25T18:16:14Z</time>
      </trkpt>
      <trkpt lat="43.83953" lon="5.05356">
        <ele>76.08</ele>
        <time>2012-08-25T18:16:15Z</time>
      </trkpt>
      <trkpt lat="43.8395" lon="5.05347">
        <ele>75.6</ele>
        <time>2012-08-25T18:16:16Z</time>
      </trkpt>
      <trkpt lat="43.83947" lon="5.05337">
        <ele>75.6</ele>
        <time>2012-08-25T18:16:17Z</time>
      </trkpt>
      <trkpt lat="43.83929" lon="5.05227">
        <ele>75.6</ele>
        <time>2012-08-25T18:16:25Z</time>
      </trkpt>
      <trkpt lat="43.83904" lon="5.05024">
        <ele>75.12</ele>
        <time>2012-08-25T18:16:39Z</time>
      </trkpt>
      <trkpt lat="43.83882" lon="5.04868">
        <ele>76.08</ele>
        <time>2012-08-25T18:16:53Z</time>
      </trkpt>
      <trkpt lat="43.83879" lon="5.04862">
        <ele>75.6</ele>
        <time>2012-08-25T18:16:54Z</time>
      </trkpt>
      <trkpt lat="43.83875" lon="5.04859">
        <ele>76.08</ele>
        <time>2012-08-25T18:16:55Z</time>
      </trkpt>
      <trkpt lat="43.8387" lon="5.04859">
        <ele>75.6</ele>
        <time>2012-08-25T18:16:56Z</time>
      </trkpt>
      <trkpt lat="43.83866" lon="5.04861">
        <ele>75.6</ele>
        <time>2012-08-25T18:16:57Z</time>
      </trkpt>
      <trkpt lat="43.8386" lon="5.04865">
        <ele>75.6</ele>
        <time>2012-08-25T18:16:58Z</time>
      </trkpt>
      <trkpt lat="43.83854" lon="5.0487">
        <ele>75.6</ele>
        <time>2012-08-25T18:16:59Z</time>
      </trkpt>
      <trkpt lat="43.83789" lon="5.04925">
        <ele>75.6</ele>
        <time>2012-08-25T18:17:07Z</time>
      </trkpt>
      <trkpt lat="43.83689" lon="5.04997">
        <ele>75.6</ele>
        <time>2012-08-25T18:17:16Z</time>
      </trkpt>
      <trkpt lat="43.83562" lon="5.0505">
        <ele>76.56</ele>
        <time>2012-08-25T18:17:26Z</time>
      </trkpt>
      <trkpt lat="43.8338" lon="5.0513">
        <ele>78</ele>
        <time>2012-08-25T18:17:39Z</time>
      </trkpt>
      <trkpt lat="43.83256" lon="5.05167">
        <ele>79.45</ele>
        <time>2012-08-25T18:17:50Z</time>
      </trkpt>
      <trkpt lat="43.83228" lon="5.05173">
        <ele>79.45</ele>
        <time>2012-08-25T18:17:53Z</time>
      </trkpt>
      <trkpt lat="43.83219" lon="5.05178">
        <ele>79.45</ele>
        <time>2012-08-25T18:17:54Z</time>
      </trkpt>
      <trkpt lat="43.83211" lon="5.05186">
        <ele>79.45</ele>
        <time>2012-08-25T18:17:55Z</time>
      </trkpt>
      <trkpt lat="43.83207" lon="5.05197">
        <ele>79.45</ele>
        <time>2012-08-25T18:17:56Z</time>
      </trkpt>
      <trkpt lat="43.83207" lon="5.05209">
        <ele>79.45</ele>
        <time>2012-08-25T18:17:57Z</time>
      </trkpt>
      <trkpt lat="43.8321" lon="5.05219">
        <ele>78.97</ele>
        <time>2012-08-25T18:17:58Z</time>
      </trkpt>
      <trkpt lat="43.83215" lon="5.05228">
        <ele>78.48</ele>
        <time>2012-08-25T18:17:59Z</time>
      </trkpt>
      <trkpt lat="43.83223" lon="5.05236">
        <ele>78.48</ele>
        <time>2012-08-25T18:18:00Z</time>
      </trkpt>
      <trkpt lat="43.8323" lon="5.05245">
        <ele>78.48</ele>
        <time>2012-08-25T18:18:01Z</time>
      </trkpt>
      <trkpt lat="43.83234" lon="5.05257">
        <ele>78.48</ele>
        <time>2012-08-25T18:18:02Z</time>
      </trkpt>
      <trkpt lat="43.83236" lon="5.0527">
        <ele>78.48</ele>
        <time>2012-08-25T18:18:03Z</time>
      </trkpt>
      <trkpt lat="43.83236" lon="5.05286">
        <ele>78</ele>
        <time>2012-08-25T18:18:04Z</time>
      </trkpt>
      <trkpt lat="43.83235" lon="5.05302">
        <ele>78</ele>
        <time>2012-08-25T18:18:05Z</time>
      </trkpt>
      <trkpt lat="43.83227" lon="5.05334">
        <ele>78</ele>
        <time>2012-08-25T18:18:07Z</time>
      </trkpt>
      <trkpt lat="43.83221" lon="5.05349">
        <ele>77.52</ele>
        <time>2012-08-25T18:18:08Z</time>
      </trkpt>
      <trkpt lat="43.83213" lon="5.05361">
        <ele>78</ele>
        <time>2012-08-25T18:18:09Z</time>
      </trkpt>
      <trkpt lat="43.83204" lon="5.05373">
        <ele>78</ele>
        <time>2012-08-25T18:18:10Z</time>
      </trkpt>
      <trkpt lat="43.83195" lon="5.05382">
        <ele>78</ele>
        <time>2012-08-25T18:18:11Z</time>
      </trkpt>
      <trkpt lat="43.83186" lon="5.0539">
        <ele>78</ele>
        <time>2012-08-25T18:18:12Z</time>
      </trkpt>
      <trkpt lat="43.83177" lon="5.05398">
        <ele>78</ele>
        <time>2012-08-25T18:18:13Z</time>
      </trkpt>
      <trkpt lat="43.83069" lon="5.05486">
        <ele>78.97</ele>
        <time>2012-08-25T18:18:25Z</time>
      </trkpt>
      <trkpt lat="43.82953" lon="5.05607">
        <ele>79.93</ele>
        <time>2012-08-25T18:18:37Z</time>
      </trkpt>
      <trkpt lat="43.82832" lon="5.05733">
        <ele>80.41</ele>
        <time>2012-08-25T18:18:47Z</time>
      </trkpt>
      <trkpt lat="43.82709" lon="5.0581">
        <ele>80.41</ele>
        <time>2012-08-25T18:18:55Z</time>
      </trkpt>
      <trkpt lat="43.82602" lon="5.05889">
        <ele>80.89</ele>
        <time>2012-08-25T18:19:03Z</time>
      </trkpt>
      <trkpt lat="43.82591" lon="5.05894">
        <ele>80.89</ele>
        <time>2012-08-25T18:19:04Z</time>
      </trkpt>
      <trkpt lat="43.8258" lon="5.05895">
        <ele>80.41</ele>
        <time>2012-08-25T18:19:05Z</time>
      </trkpt>
      <trkpt lat="43.82568" lon="5.05893">
        <ele>79.93</ele>
        <time>2012-08-25T18:19:06Z</time>
      </trkpt>
      <trkpt lat="43.82557" lon="5.05887">
        <ele>79.93</ele>
        <time>2012-08-25T18:19:07Z</time>
      </trkpt>
      <trkpt lat="43.82548" lon="5.05871">
        <ele>79.45</ele>
        <time>2012-08-25T18:19:08Z</time>
      </trkpt>
      <trkpt lat="43.82541" lon="5.05854">
        <ele>79.45</ele>
        <time>2012-08-25T18:19:09Z</time>
      </trkpt>
      <trkpt lat="43.82535" lon="5.05836">
        <ele>79.45</ele>
        <time>2012-08-25T18:19:10Z</time>
      </trkpt>
      <trkpt lat="43.82528" lon="5.05819">
        <ele>79.45</ele>
        <time>2012-08-25T18:19:11Z</time>
      </trkpt>
      <trkpt lat="43.82451" lon="5.0568">
        <ele>79.93</ele>
        <time>2012-08-25T18:19:19Z</time>
      </trkpt>
      <trkpt lat="43.82313" lon="5.05488">
        <ele>82.33</ele>
        <time>2012-08-25T18:19:30Z</time>
      </trkpt>
      <trkpt lat="43.82178" lon="5.0535">
        <ele>81.85</ele>
        <time>2012-08-25T18:19:39Z</time>
      </trkpt>
      <trkpt lat="43.82068" lon="5.053">
        <ele>81.85</ele>
        <time>2012-08-25T18:19:45Z</time>
      </trkpt>
      <trkpt lat="43.81971" lon="5.05296">
        <ele>81.85</ele>
        <time>2012-08-25T18:19:51Z</time>
      </trkpt>
      <trkpt lat="43.8196" lon="5.05291">
        <ele>81.85</ele>
        <time>2012-08-25T18:19:52Z</time>
      </trkpt>
      <trkpt lat="43.81951" lon="5.05284">
        <ele>81.85</ele>
        <time>2012-08-25T18:19:53Z</time>
      </trkpt>
      <trkpt lat="43.81944" lon="5.05275">
        <ele>81.85</ele>
        <time>2012-08-25T18:19:54Z</time>
      </trkpt>
      <trkpt lat="43.81943" lon="5.05262">
        <ele>81.85</ele>
        <time>2012-08-25T18:19:55Z</time>
      </trkpt>
      <trkpt lat="43.81943" lon="5.0525">
        <ele>81.85</ele>
        <time>2012-08-25T18:19:56Z</time>
      </trkpt>
      <trkpt lat="43.81944" lon="5.05239">
        <ele>81.85</ele>
        <time>2012-08-25T18:19:57Z</time>
      </trkpt>
      <trkpt lat="43.81944" lon="5.05227">
        <ele>81.85</ele>
        <time>2012-08-25T18:19:58Z</time>
      </trkpt>
      <trkpt lat="43.81942" lon="5.05216">
        <ele>81.37</ele>
        <time>2012-08-25T18:19:59Z</time>
      </trkpt>
      <trkpt lat="43.81937" lon="5.05207">
        <ele>81.37</ele>
        <time>2012-08-25T18:20:00Z</time>
      </trkpt>
      <trkpt lat="43.81929" lon="5.05202">
        <ele>81.37</ele>
        <time>2012-08-25T18:20:01Z</time>
      </trkpt>
      <trkpt lat="43.81919" lon="5.05201">
        <ele>80.89</ele>
        <time>2012-08-25T18:20:02Z</time>
      </trkpt>
      <trkpt lat="43.81909" lon="5.05203">
        <ele>80.89</ele>
        <time>2012-08-25T18:20:03Z</time>
      </trkpt>
      <trkpt lat="43.81899" lon="5.05206">
        <ele>80.89</ele>
        <time>2012-08-25T18:20:04Z</time>
      </trkpt>
      <trkpt lat="43.81888" lon="5.05207">
        <ele>80.41</ele>
        <time>2012-08-25T18:20:05Z</time>
      </trkpt>
      <trkpt lat="43.81878" lon="5.05202">
        <ele>80.41</ele>
        <time>2012-08-25T18:20:06Z</time>
      </trkpt>
      <trkpt lat="43.81871" lon="5.05191">
        <ele>80.41</ele>
        <time>2012-08-25T18:20:07Z</time>
      </trkpt>
      <trkpt lat="43.81866" lon="5.05177">
        <ele>79.93</ele>
        <time>2012-08-25T18:20:08Z</time>
      </trkpt>
      <trkpt lat="43.81857" lon="5.05144">
        <ele>79.93</ele>
        <time>2012-08-25T18:20:10Z</time>
      </trkpt>
      <trkpt lat="43.81851" lon="5.05126">
        <ele>79.93</ele>
        <time>2012-08-25T18:20:11Z</time>
      </trkpt>
      <trkpt lat="43.81843" lon="5.05108">
        <ele>79.93</ele>
        <time>2012-08-25T18:20:12Z</time>
      </trkpt>
      <trkpt lat="43.81834" lon="5.0509">
        <ele>79.93</ele>
        <time>2012-08-25T18:20:13Z</time>
      </trkpt>
      <trkpt lat="43.81825" lon="5.05073">
        <ele>80.41</ele>
        <time>2012-08-25T18:20:14Z</time>
      </trkpt>
      <trkpt lat="43.81782" lon="5.04981">
        <ele>80.89</ele>
        <time>2012-08-25T18:20:19Z</time>
      </trkpt>
      <trkpt lat="43.81771" lon="5.04966">
        <ele>80.89</ele>
        <time>2012-08-25T18:20:20Z</time>
      </trkpt>
      <trkpt lat="43.81758" lon="5.04954">
        <ele>80.89</ele>
        <time>2012-08-25T18:20:21Z</time>
      </trkpt>
      <trkpt lat="43.81742" lon="5.04947">
        <ele>80.89</ele>
        <time>2012-08-25T18:20:22Z</time>
      </trkpt>
      <trkpt lat="43.81725" lon="5.04942">
        <ele>80.89</ele>
        <time>2012-08-25T18:20:23Z</time>
      </trkpt>
      <trkpt lat="43.81708" lon="5.0494">
        <ele>80.89</ele>
        <time>2012-08-25T18:20:24Z</time>
      </trkpt>
      <trkpt lat="43.81691" lon="5.04942">
        <ele>80.89</ele>
        <time>2012-08-25T18:20:25Z</time>
      </trkpt>
      <trkpt lat="43.81673" lon="5.04946">
        <ele>80.89</ele>
        <time>2012-08-25T18:20:26Z</time>
      </trkpt>
      <trkpt lat="43.81655" lon="5.04952">
        <ele>81.37</ele>
        <time>2012-08-25T18:20:27Z</time>
      </trkpt>
      <trkpt lat="43.8145" lon="5.05015">
        <ele>80.89</ele>
        <time>2012-08-25T18:20:37Z</time>
      </trkpt>
      <trkpt lat="43.8137" lon="5.05061">
        <ele>81.37</ele>
        <time>2012-08-25T18:20:41Z</time>
      </trkpt>
      <trkpt lat="43.81153" lon="5.05233">
        <ele>81.85</ele>
        <time>2012-08-25T18:20:52Z</time>
      </trkpt>
      <trkpt lat="43.81028" lon="5.05289">
        <ele>81.85</ele>
        <time>2012-08-25T18:20:58Z</time>
      </trkpt>
      <trkpt lat="43.80919" lon="5.05313">
        <ele>81.85</ele>
        <time>2012-08-25T18:21:04Z</time>
      </trkpt>
      <trkpt lat="43.80905" lon="5.05321">
        <ele>82.33</ele>
        <time>2012-08-25T18:21:05Z</time>
      </trkpt>
      <trkpt lat="43.80892" lon="5.0533">
        <ele>82.33</ele>
        <time>2012-08-25T18:21:06Z</time>
      </trkpt>
      <trkpt lat="43.80881" lon="5.0534">
        <ele>82.33</ele>
        <time>2012-08-25T18:21:07Z</time>
      </trkpt>
      <trkpt lat="43.80873" lon="5.05351">
        <ele>82.33</ele>
        <time>2012-08-25T18:21:08Z</time>
      </trkpt>
      <trkpt lat="43.8087" lon="5.05363">
        <ele>82.33</ele>
        <time>2012-08-25T18:21:09Z</time>
      </trkpt>
      <trkpt lat="43.8087" lon="5.05376">
        <ele>82.33</ele>
        <time>2012-08-25T18:21:10Z</time>
      </trkpt>
      <trkpt lat="43.8087" lon="5.05391">
        <ele>82.33</ele>
        <time>2012-08-25T18:21:11Z</time>
      </trkpt>
      <trkpt lat="43.80869" lon="5.05407">
        <ele>82.33</ele>
        <time>2012-08-25T18:21:12Z</time>
      </trkpt>
      <trkpt lat="43.80865" lon="5.05422">
        <ele>82.33</ele>
        <time>2012-08-25T18:21:13Z</time>
      </trkpt>
      <trkpt lat="43.80857" lon="5.05437">
        <ele>82.33</ele>
        <time>2012-08-25T18:21:14Z</time>
      </trkpt>
      <trkpt lat="43.80846" lon="5.05449">
        <ele>82.33</ele>
        <time>2012-08-25T18:21:15Z</time>
      </trkpt>
      <trkpt lat="43.80816" lon="5.05461">
        <ele>82.33</ele>
        <time>2012-08-25T18:21:17Z</time>
      </trkpt>
      <trkpt lat="43.808" lon="5.05459">
        <ele>82.33</ele>
        <time>2012-08-25T18:21:18Z</time>
      </trkpt>
      <trkpt lat="43.80783" lon="5.05454">
        <ele>82.33</ele>
        <time>2012-08-25T18:21:19Z</time>
      </trkpt>
      <trkpt lat="43.80766" lon="5.05447">
        <ele>82.33</ele>
        <time>2012-08-25T18:21:20Z</time>
      </trkpt>
      <trkpt lat="43.80714" lon="5.05432">
        <ele>82.33</ele>
        <time>2012-08-25T18:21:23Z</time>
      </trkpt>
      <trkpt lat="43.80698" lon="5.05431">
        <ele>82.33</ele>
        <time>2012-08-25T18:21:24Z</time>
      </trkpt>
      <trkpt lat="43.80682" lon="5.05437">
        <ele>82.33</ele>
        <time>2012-08-25T18:21:25Z</time>
      </trkpt>
      <trkpt lat="43.80667" lon="5.05445">
        <ele>82.33</ele>
        <time>2012-08-25T18:21:26Z</time>
      </trkpt>
      <trkpt lat="43.80653" lon="5.05457">
        <ele>82.33</ele>
        <time>2012-08-25T18:21:27Z</time>
      </trkpt>
      <trkpt lat="43.80639" lon="5.05472">
        <ele>82.33</ele>
        <time>2012-08-25T18:21:28Z</time>
      </trkpt>
      <trkpt lat="43.80625" lon="5.05488">
        <ele>82.33</ele>
        <time>2012-08-25T18:21:29Z</time>
      </trkpt>
      <trkpt lat="43.80492" lon="5.05639">
        <ele>83.29</ele>
        <time>2012-08-25T18:21:39Z</time>
      </trkpt>
      <trkpt lat="43.80411" lon="5.05737">
        <ele>83.77</ele>
        <time>2012-08-25T18:21:46Z</time>
      </trkpt>
      <trkpt lat="43.80403" lon="5.05752">
        <ele>84.25</ele>
        <time>2012-08-25T18:21:47Z</time>
      </trkpt>
      <trkpt lat="43.80351" lon="5.05866">
        <ele>84.25</ele>
        <time>2012-08-25T18:21:56Z</time>
      </trkpt>
      <trkpt lat="43.80291" lon="5.05994">
        <ele>84.25</ele>
        <time>2012-08-25T18:22:04Z</time>
      </trkpt>
      <trkpt lat="43.80246" lon="5.06092">
        <ele>84.73</ele>
        <time>2012-08-25T18:22:12Z</time>
      </trkpt>
      <trkpt lat="43.80244" lon="5.06102">
        <ele>84.73</ele>
        <time>2012-08-25T18:22:13Z</time>
      </trkpt>
      <trkpt lat="43.80242" lon="5.06111">
        <ele>85.21</ele>
        <time>2012-08-25T18:22:14Z</time>
      </trkpt>
      <trkpt lat="43.8024" lon="5.06121">
        <ele>85.21</ele>
        <time>2012-08-25T18:22:15Z</time>
      </trkpt>
      <trkpt lat="43.80239" lon="5.06141">
        <ele>85.21</ele>
        <time>2012-08-25T18:22:17Z</time>
      </trkpt>
      <trkpt lat="43.80238" lon="5.06153">
        <ele>85.21</ele>
        <time>2012-08-25T18:22:18Z</time>
      </trkpt>
      <trkpt lat="43.80236" lon="5.06175">
        <ele>85.21</ele>
        <time>2012-08-25T18:22:20Z</time>
      </trkpt>
      <trkpt lat="43.80233" lon="5.06185">
        <ele>85.21</ele>
        <time>2012-08-25T18:22:21Z</time>
      </trkpt>
      <trkpt lat="43.8023" lon="5.06194">
        <ele>84.73</ele>
        <time>2012-08-25T18:22:22Z</time>
      </trkpt>
      <trkpt lat="43.80227" lon="5.06201">
        <ele>84.73</ele>
        <time>2012-08-25T18:22:23Z</time>
      </trkpt>
      <trkpt lat="43.80225" lon="5.06207">
        <ele>85.21</ele>
        <time>2012-08-25T18:22:24Z</time>
      </trkpt>
      <trkpt lat="43.80224" lon="5.06213">
        <ele>85.21</ele>
        <time>2012-08-25T18:22:25Z</time>
      </trkpt>
      <trkpt lat="43.80225" lon="5.06219">
        <ele>85.21</ele>
        <time>2012-08-25T18:22:26Z</time>
      </trkpt>
      <trkpt lat="43.80227" lon="5.06225">
        <ele>84.73</ele>
        <time>2012-08-25T18:22:27Z</time>
      </trkpt>
      <trkpt lat="43.80231" lon="5.0623">
        <ele>85.21</ele>
        <time>2012-08-25T18:22:28Z</time>
      </trkpt>
      <trkpt lat="43.80235" lon="5.06236">
        <ele>84.73</ele>
        <time>2012-08-25T18:22:29Z</time>
      </trkpt>
      <trkpt lat="43.80239" lon="5.06241">
        <ele>84.73</ele>
        <time>2012-08-25T18:22:30Z</time>
      </trkpt>
      <trkpt lat="43.80244" lon="5.06245">
        <ele>84.73</ele>
        <time>2012-08-25T18:22:31Z</time>
      </trkpt>
      <trkpt lat="43.80249" lon="5.06248">
        <ele>84.73</ele>
        <time>2012-08-25T18:22:32Z</time>
      </trkpt>
      <trkpt lat="43.8026" lon="5.06252">
        <ele>84.73</ele>
        <time>2012-08-25T18:22:34Z</time>
      </trkpt>
      <trkpt lat="43.80264" lon="5.06256">
        <ele>84.73</ele>
        <time>2012-08-25T18:22:35Z</time>
      </trkpt>
      <trkpt lat="43.80268" lon="5.0626">
        <ele>84.73</ele>
        <time>2012-08-25T18:22:36Z</time>
      </trkpt>
      <trkpt lat="43.80271" lon="5.06266">
        <ele>84.73</ele>
        <time>2012-08-25T18:22:37Z</time>
      </trkpt>
      <trkpt lat="43.80274" lon="5.06273">
        <ele>84.73</ele>
        <time>2012-08-25T18:22:38Z</time>
      </trkpt>
      <trkpt lat="43.8028" lon="5.06281">
        <ele>84.73</ele>
        <time>2012-08-25T18:22:40Z</time>
      </trkpt>
      <trkpt lat="43.80283" lon="5.06282">
        <ele>84.25</ele>
        <time>2012-08-25T18:22:41Z</time>
      </trkpt>
      <trkpt lat="43.80287" lon="5.0628">
        <ele>83.77</ele>
        <time>2012-08-25T18:22:42Z</time>
      </trkpt>
      <trkpt lat="43.80291" lon="5.06276">
        <ele>83.77</ele>
        <time>2012-08-25T18:22:43Z</time>
      </trkpt>
      <trkpt lat="43.80295" lon="5.06272">
        <ele>83.29</ele>
        <time>2012-08-25T18:22:44Z</time>
      </trkpt>
      <trkpt lat="43.80302" lon="5.06266">
        <ele>83.29</ele>
        <time>2012-08-25T18:22:46Z</time>
      </trkpt>
      <trkpt lat="43.80305" lon="5.06267">
        <ele>83.29</ele>
        <time>2012-08-25T18:22:47Z</time>
      </trkpt>
      <trkpt lat="43.80308" lon="5.06271">
        <ele>83.29</ele>
        <time>2012-08-25T18:22:48Z</time>
      </trkpt>
      <trkpt lat="43.8031" lon="5.06276">
        <ele>83.29</ele>
        <time>2012-08-25T18:22:49Z</time>
      </trkpt>
      <trkpt lat="43.80312" lon="5.06284">
        <ele>83.29</ele>
        <time>2012-08-25T18:22:50Z</time>
      </trkpt>
      <trkpt lat="43.80314" lon="5.06293">
        <ele>83.29</ele>
        <time>2012-08-25T18:22:51Z</time>
      </trkpt>
      <trkpt lat="43.80342" lon="5.06379">
        <ele>82.81</ele>
        <time>2012-08-25T18:22:59Z</time>
      </trkpt>
      <trkpt lat="43.80355" lon="5.06412">
        <ele>82.81</ele>
        <time>2012-08-25T18:23:08Z</time>
      </trkpt>
      <trkpt lat="43.80355" lon="5.0641">
        <ele>82.81</ele>
        <time>2012-08-25T18:23:54Z</time>
      </trkpt>
      <trkpt lat="43.80353" lon="5.0641">
        <ele>82.33</ele>
        <time>2012-08-25T18:27:00Z</time>
      </trkpt>
      <trkpt lat="43.8035" lon="5.06415">
        <ele>82.81</ele>
        <time>2012-08-25T18:27:02Z</time>
      </trkpt>
      <trkpt lat="43.80343" lon="5.06421">
        <ele>82.81</ele>
        <time>2012-08-25T18:27:05Z</time>
      </trkpt>
      <trkpt lat="43.80341" lon="5.06414">
        <ele>82.33</ele>
        <time>2012-08-25T18:27:14Z</time>
      </trkpt>
      <trkpt lat="43.80339" lon="5.06412">
        <ele>84.25</ele>
        <time>2012-08-25T18:27:31Z</time>
      </trkpt>
      <trkpt lat="43.80341" lon="5.06409">
        <ele>82.81</ele>
        <time>2012-08-25T18:28:54Z</time>
      </trkpt>
      <trkpt lat="43.8034" lon="5.0641">
        <ele>83.77</ele>
        <time>2012-08-25T18:29:55Z</time>
      </trkpt>
      <trkpt lat="43.80341" lon="5.0641">
        <ele>82.81</ele>
        <time>2012-08-25T18:31:58Z</time>
      </trkpt>
      <trkpt lat="43.80339" lon="5.06413">
        <ele>87.14</ele>
        <time>2012-08-25T18:33:06Z</time>
      </trkpt>
    </trkseg>
  </trk>
</gpx>